<?xml version="1.0" encoding="UTF-8" standalone="no" ?>
<gpx xmlns="http://www.topografix.com/GPX/1/1" xmlns:xsi="http://www.w3.org/2001/XMLSchema-instance" xsi:schemaLocation="http://www.topografix.com/GPX/1/1 http://www.topografix.com/GPX/1/1/gpx.xsd" version="1.1" creator="VisuGPX - https://www.visugpx.com">
  <metadata>
    <name>sortie vtt avec david</name>
    <desc><![CDATA[sortie le long du hallage]]></desc>
  </metadata>
  <trk>
    <name><![CDATA[sortie vtt avec david_1]]></name>
    <trkseg>
      <trkpt lat="48.07032" lon="-0.82696">
        <ele>94</ele>
        <time>2013-04-23T13:03:35Z</time>
      </trkpt>
      <trkpt lat="48.0703" lon="-0.8269">
        <ele>95</ele>
        <time>2013-04-23T13:03:36Z</time>
      </trkpt>
      <trkpt lat="48.07028" lon="-0.8268">
        <ele>97</ele>
        <time>2013-04-23T13:03:37Z</time>
      </trkpt>
      <trkpt lat="48.07027" lon="-0.82665">
        <ele>99</ele>
        <time>2013-04-23T13:03:40Z</time>
      </trkpt>
      <trkpt lat="48.07026" lon="-0.82647">
        <ele>101</ele>
        <time>2013-04-23T13:03:43Z</time>
      </trkpt>
      <trkpt lat="48.07025" lon="-0.82627">
        <ele>103</ele>
        <time>2013-04-23T13:03:46Z</time>
      </trkpt>
      <trkpt lat="48.07023" lon="-0.82606">
        <ele>105</ele>
        <time>2013-04-23T13:03:49Z</time>
      </trkpt>
      <trkpt lat="48.07022" lon="-0.82586">
        <ele>107</ele>
        <time>2013-04-23T13:03:52Z</time>
      </trkpt>
      <trkpt lat="48.07018" lon="-0.82566">
        <ele>109</ele>
        <time>2013-04-23T13:03:55Z</time>
      </trkpt>
      <trkpt lat="48.07013" lon="-0.82548">
        <ele>111</ele>
        <time>2013-04-23T13:03:58Z</time>
      </trkpt>
      <trkpt lat="48.07009" lon="-0.8253">
        <ele>113</ele>
        <time>2013-04-23T13:04:01Z</time>
      </trkpt>
      <trkpt lat="48.07005" lon="-0.82511">
        <ele>114</ele>
        <time>2013-04-23T13:04:04Z</time>
      </trkpt>
      <trkpt lat="48.06999" lon="-0.82494">
        <ele>116</ele>
        <time>2013-04-23T13:04:07Z</time>
      </trkpt>
      <trkpt lat="48.06994" lon="-0.82477">
        <ele>118</ele>
        <time>2013-04-23T13:04:09Z</time>
      </trkpt>
      <trkpt lat="48.0699" lon="-0.82459">
        <ele>120</ele>
        <time>2013-04-23T13:04:12Z</time>
      </trkpt>
      <trkpt lat="48.06986" lon="-0.8244">
        <ele>122</ele>
        <time>2013-04-23T13:04:15Z</time>
      </trkpt>
      <trkpt lat="48.06982" lon="-0.82423">
        <ele>124</ele>
        <time>2013-04-23T13:04:18Z</time>
      </trkpt>
      <trkpt lat="48.06978" lon="-0.82406">
        <ele>126</ele>
        <time>2013-04-23T13:04:21Z</time>
      </trkpt>
      <trkpt lat="48.06973" lon="-0.8239">
        <ele>128</ele>
        <time>2013-04-23T13:04:24Z</time>
      </trkpt>
      <trkpt lat="48.06962" lon="-0.82385">
        <ele>130</ele>
        <time>2013-04-23T13:04:27Z</time>
      </trkpt>
      <trkpt lat="48.06951" lon="-0.82388">
        <ele>132</ele>
        <time>2013-04-23T13:04:30Z</time>
      </trkpt>
      <trkpt lat="48.0694" lon="-0.8239">
        <ele>134</ele>
        <time>2013-04-23T13:04:33Z</time>
      </trkpt>
      <trkpt lat="48.06928" lon="-0.82392">
        <ele>136</ele>
        <time>2013-04-23T13:04:36Z</time>
      </trkpt>
      <trkpt lat="48.0692" lon="-0.82394">
        <ele>138</ele>
        <time>2013-04-23T13:04:39Z</time>
      </trkpt>
      <trkpt lat="48.06916" lon="-0.82397">
        <ele>140</ele>
        <time>2013-04-23T13:04:42Z</time>
      </trkpt>
      <trkpt lat="48.06912" lon="-0.82402">
        <ele>142</ele>
        <time>2013-04-23T13:04:45Z</time>
      </trkpt>
      <trkpt lat="48.06902" lon="-0.82403">
        <ele>144</ele>
        <time>2013-04-23T13:04:48Z</time>
      </trkpt>
      <trkpt lat="48.06896" lon="-0.82392">
        <ele>146</ele>
        <time>2013-04-23T13:04:51Z</time>
      </trkpt>
      <trkpt lat="48.06892" lon="-0.82377">
        <ele>148</ele>
        <time>2013-04-23T13:04:54Z</time>
      </trkpt>
      <trkpt lat="48.06891" lon="-0.82361">
        <ele>150</ele>
        <time>2013-04-23T13:04:57Z</time>
      </trkpt>
      <trkpt lat="48.06889" lon="-0.82344">
        <ele>152</ele>
        <time>2013-04-23T13:05:00Z</time>
      </trkpt>
      <trkpt lat="48.06887" lon="-0.82328">
        <ele>154</ele>
        <time>2013-04-23T13:05:02Z</time>
      </trkpt>
      <trkpt lat="48.06887" lon="-0.82318">
        <ele>156</ele>
        <time>2013-04-23T13:05:05Z</time>
      </trkpt>
      <trkpt lat="48.06885" lon="-0.8231">
        <ele>158</ele>
        <time>2013-04-23T13:05:08Z</time>
      </trkpt>
      <trkpt lat="48.06885" lon="-0.823">
        <ele>160</ele>
        <time>2013-04-23T13:05:11Z</time>
      </trkpt>
      <trkpt lat="48.06884" lon="-0.82292">
        <ele>162</ele>
        <time>2013-04-23T13:05:14Z</time>
      </trkpt>
      <trkpt lat="48.06884" lon="-0.82281">
        <ele>164</ele>
        <time>2013-04-23T13:05:17Z</time>
      </trkpt>
      <trkpt lat="48.06885" lon="-0.82268">
        <ele>166</ele>
        <time>2013-04-23T13:05:20Z</time>
      </trkpt>
      <trkpt lat="48.06884" lon="-0.82257">
        <ele>167</ele>
        <time>2013-04-23T13:05:23Z</time>
      </trkpt>
      <trkpt lat="48.06886" lon="-0.82249">
        <ele>169</ele>
        <time>2013-04-23T13:05:26Z</time>
      </trkpt>
      <trkpt lat="48.06885" lon="-0.82234">
        <ele>171</ele>
        <time>2013-04-23T13:05:29Z</time>
      </trkpt>
      <trkpt lat="48.06882" lon="-0.82219">
        <ele>173</ele>
        <time>2013-04-23T13:05:32Z</time>
      </trkpt>
      <trkpt lat="48.06877" lon="-0.82208">
        <ele>175</ele>
        <time>2013-04-23T13:05:35Z</time>
      </trkpt>
      <trkpt lat="48.06876" lon="-0.82201">
        <ele>177</ele>
        <time>2013-04-23T13:05:38Z</time>
      </trkpt>
      <trkpt lat="48.06875" lon="-0.8219">
        <ele>179</ele>
        <time>2013-04-23T13:05:41Z</time>
      </trkpt>
      <trkpt lat="48.06873" lon="-0.82176">
        <ele>181</ele>
        <time>2013-04-23T13:05:44Z</time>
      </trkpt>
      <trkpt lat="48.06872" lon="-0.8216">
        <ele>183</ele>
        <time>2013-04-23T13:05:47Z</time>
      </trkpt>
      <trkpt lat="48.06871" lon="-0.82141">
        <ele>185</ele>
        <time>2013-04-23T13:05:50Z</time>
      </trkpt>
      <trkpt lat="48.0687" lon="-0.82121">
        <ele>187</ele>
        <time>2013-04-23T13:05:53Z</time>
      </trkpt>
      <trkpt lat="48.06868" lon="-0.821">
        <ele>189</ele>
        <time>2013-04-23T13:05:56Z</time>
      </trkpt>
      <trkpt lat="48.06867" lon="-0.82077">
        <ele>191</ele>
        <time>2013-04-23T13:05:58Z</time>
      </trkpt>
      <trkpt lat="48.06865" lon="-0.82054">
        <ele>193</ele>
        <time>2013-04-23T13:06:01Z</time>
      </trkpt>
      <trkpt lat="48.06863" lon="-0.8203">
        <ele>195</ele>
        <time>2013-04-23T13:06:04Z</time>
      </trkpt>
      <trkpt lat="48.06861" lon="-0.82005">
        <ele>197</ele>
        <time>2013-04-23T13:06:07Z</time>
      </trkpt>
      <trkpt lat="48.06859" lon="-0.81981">
        <ele>199</ele>
        <time>2013-04-23T13:06:10Z</time>
      </trkpt>
      <trkpt lat="48.06858" lon="-0.81957">
        <ele>201</ele>
        <time>2013-04-23T13:06:13Z</time>
      </trkpt>
      <trkpt lat="48.06855" lon="-0.81934">
        <ele>202</ele>
        <time>2013-04-23T13:06:16Z</time>
      </trkpt>
      <trkpt lat="48.06853" lon="-0.81909">
        <ele>204</ele>
        <time>2013-04-23T13:06:19Z</time>
      </trkpt>
      <trkpt lat="48.06852" lon="-0.81885">
        <ele>206</ele>
        <time>2013-04-23T13:06:22Z</time>
      </trkpt>
      <trkpt lat="48.0685" lon="-0.81861">
        <ele>208</ele>
        <time>2013-04-23T13:06:25Z</time>
      </trkpt>
      <trkpt lat="48.06849" lon="-0.81838">
        <ele>210</ele>
        <time>2013-04-23T13:06:28Z</time>
      </trkpt>
      <trkpt lat="48.06849" lon="-0.81816">
        <ele>212</ele>
        <time>2013-04-23T13:06:31Z</time>
      </trkpt>
      <trkpt lat="48.06849" lon="-0.81798">
        <ele>214</ele>
        <time>2013-04-23T13:06:34Z</time>
      </trkpt>
      <trkpt lat="48.06847" lon="-0.8178">
        <ele>216</ele>
        <time>2013-04-23T13:06:37Z</time>
      </trkpt>
      <trkpt lat="48.06845" lon="-0.81762">
        <ele>218</ele>
        <time>2013-04-23T13:06:40Z</time>
      </trkpt>
      <trkpt lat="48.06839" lon="-0.81751">
        <ele>220</ele>
        <time>2013-04-23T13:06:43Z</time>
      </trkpt>
      <trkpt lat="48.06832" lon="-0.81745">
        <ele>221</ele>
        <time>2013-04-23T13:06:46Z</time>
      </trkpt>
      <trkpt lat="48.06828" lon="-0.81737">
        <ele>223</ele>
        <time>2013-04-23T13:06:49Z</time>
      </trkpt>
      <trkpt lat="48.06832" lon="-0.81728">
        <ele>225</ele>
        <time>2013-04-23T13:06:51Z</time>
      </trkpt>
      <trkpt lat="48.06841" lon="-0.81723">
        <ele>227</ele>
        <time>2013-04-23T13:06:54Z</time>
      </trkpt>
      <trkpt lat="48.06847" lon="-0.81709">
        <ele>229</ele>
        <time>2013-04-23T13:06:57Z</time>
      </trkpt>
      <trkpt lat="48.06848" lon="-0.81691">
        <ele>231</ele>
        <time>2013-04-23T13:07:00Z</time>
      </trkpt>
      <trkpt lat="48.06849" lon="-0.81669">
        <ele>233</ele>
        <time>2013-04-23T13:07:03Z</time>
      </trkpt>
      <trkpt lat="48.06849" lon="-0.81646">
        <ele>235</ele>
        <time>2013-04-23T13:07:06Z</time>
      </trkpt>
      <trkpt lat="48.0685" lon="-0.81623">
        <ele>237</ele>
        <time>2013-04-23T13:07:09Z</time>
      </trkpt>
      <trkpt lat="48.0685" lon="-0.81601">
        <ele>239</ele>
        <time>2013-04-23T13:07:12Z</time>
      </trkpt>
      <trkpt lat="48.06851" lon="-0.81579">
        <ele>240</ele>
        <time>2013-04-23T13:07:15Z</time>
      </trkpt>
      <trkpt lat="48.06852" lon="-0.81555">
        <ele>242</ele>
        <time>2013-04-23T13:07:18Z</time>
      </trkpt>
      <trkpt lat="48.06853" lon="-0.81532">
        <ele>244</ele>
        <time>2013-04-23T13:07:21Z</time>
      </trkpt>
      <trkpt lat="48.06853" lon="-0.81509">
        <ele>246</ele>
        <time>2013-04-23T13:07:24Z</time>
      </trkpt>
      <trkpt lat="48.06852" lon="-0.81486">
        <ele>248</ele>
        <time>2013-04-23T13:07:27Z</time>
      </trkpt>
      <trkpt lat="48.06851" lon="-0.81463">
        <ele>250</ele>
        <time>2013-04-23T13:07:30Z</time>
      </trkpt>
      <trkpt lat="48.06851" lon="-0.81441">
        <ele>252</ele>
        <time>2013-04-23T13:07:33Z</time>
      </trkpt>
      <trkpt lat="48.0685" lon="-0.81421">
        <ele>254</ele>
        <time>2013-04-23T13:07:36Z</time>
      </trkpt>
      <trkpt lat="48.06847" lon="-0.81406">
        <ele>256</ele>
        <time>2013-04-23T13:07:39Z</time>
      </trkpt>
      <trkpt lat="48.06842" lon="-0.81393">
        <ele>258</ele>
        <time>2013-04-23T13:07:42Z</time>
      </trkpt>
      <trkpt lat="48.0684" lon="-0.81375">
        <ele>259</ele>
        <time>2013-04-23T13:07:44Z</time>
      </trkpt>
      <trkpt lat="48.06845" lon="-0.81355">
        <ele>261</ele>
        <time>2013-04-23T13:07:47Z</time>
      </trkpt>
      <trkpt lat="48.06851" lon="-0.81336">
        <ele>263</ele>
        <time>2013-04-23T13:07:50Z</time>
      </trkpt>
      <trkpt lat="48.06851" lon="-0.81314">
        <ele>265</ele>
        <time>2013-04-23T13:07:53Z</time>
      </trkpt>
      <trkpt lat="48.06851" lon="-0.8129">
        <ele>267</ele>
        <time>2013-04-23T13:07:56Z</time>
      </trkpt>
      <trkpt lat="48.06851" lon="-0.81266">
        <ele>269</ele>
        <time>2013-04-23T13:07:59Z</time>
      </trkpt>
      <trkpt lat="48.06851" lon="-0.81243">
        <ele>271</ele>
        <time>2013-04-23T13:08:02Z</time>
      </trkpt>
      <trkpt lat="48.06852" lon="-0.8122">
        <ele>273</ele>
        <time>2013-04-23T13:08:05Z</time>
      </trkpt>
      <trkpt lat="48.06852" lon="-0.81198">
        <ele>275</ele>
        <time>2013-04-23T13:08:08Z</time>
      </trkpt>
      <trkpt lat="48.06853" lon="-0.81175">
        <ele>277</ele>
        <time>2013-04-23T13:08:11Z</time>
      </trkpt>
      <trkpt lat="48.06853" lon="-0.81152">
        <ele>279</ele>
        <time>2013-04-23T13:08:14Z</time>
      </trkpt>
      <trkpt lat="48.06853" lon="-0.8113">
        <ele>281</ele>
        <time>2013-04-23T13:08:17Z</time>
      </trkpt>
      <trkpt lat="48.06854" lon="-0.81107">
        <ele>283</ele>
        <time>2013-04-23T13:08:20Z</time>
      </trkpt>
      <trkpt lat="48.06854" lon="-0.81085">
        <ele>285</ele>
        <time>2013-04-23T13:08:23Z</time>
      </trkpt>
      <trkpt lat="48.06854" lon="-0.81064">
        <ele>287</ele>
        <time>2013-04-23T13:08:26Z</time>
      </trkpt>
      <trkpt lat="48.06855" lon="-0.81042">
        <ele>289</ele>
        <time>2013-04-23T13:08:29Z</time>
      </trkpt>
      <trkpt lat="48.06855" lon="-0.8102">
        <ele>291</ele>
        <time>2013-04-23T13:08:32Z</time>
      </trkpt>
      <trkpt lat="48.06855" lon="-0.80998">
        <ele>293</ele>
        <time>2013-04-23T13:08:35Z</time>
      </trkpt>
      <trkpt lat="48.06855" lon="-0.80975">
        <ele>295</ele>
        <time>2013-04-23T13:08:37Z</time>
      </trkpt>
      <trkpt lat="48.06856" lon="-0.80954">
        <ele>297</ele>
        <time>2013-04-23T13:08:40Z</time>
      </trkpt>
      <trkpt lat="48.06856" lon="-0.80931">
        <ele>299</ele>
        <time>2013-04-23T13:08:43Z</time>
      </trkpt>
      <trkpt lat="48.06856" lon="-0.8091">
        <ele>301</ele>
        <time>2013-04-23T13:08:46Z</time>
      </trkpt>
      <trkpt lat="48.06856" lon="-0.80888">
        <ele>303</ele>
        <time>2013-04-23T13:08:49Z</time>
      </trkpt>
      <trkpt lat="48.06855" lon="-0.80867">
        <ele>305</ele>
        <time>2013-04-23T13:08:52Z</time>
      </trkpt>
      <trkpt lat="48.06853" lon="-0.80847">
        <ele>307</ele>
        <time>2013-04-23T13:08:55Z</time>
      </trkpt>
      <trkpt lat="48.06847" lon="-0.80829">
        <ele>309</ele>
        <time>2013-04-23T13:08:58Z</time>
      </trkpt>
      <trkpt lat="48.06842" lon="-0.80807">
        <ele>311</ele>
        <time>2013-04-23T13:09:01Z</time>
      </trkpt>
      <trkpt lat="48.06847" lon="-0.80784">
        <ele>313</ele>
        <time>2013-04-23T13:09:04Z</time>
      </trkpt>
      <trkpt lat="48.06856" lon="-0.80761">
        <ele>315</ele>
        <time>2013-04-23T13:09:07Z</time>
      </trkpt>
      <trkpt lat="48.06856" lon="-0.80736">
        <ele>318</ele>
        <time>2013-04-23T13:09:10Z</time>
      </trkpt>
      <trkpt lat="48.06856" lon="-0.80711">
        <ele>320</ele>
        <time>2013-04-23T13:09:13Z</time>
      </trkpt>
      <trkpt lat="48.06856" lon="-0.80686">
        <ele>322</ele>
        <time>2013-04-23T13:09:16Z</time>
      </trkpt>
      <trkpt lat="48.06857" lon="-0.8066">
        <ele>324</ele>
        <time>2013-04-23T13:09:19Z</time>
      </trkpt>
      <trkpt lat="48.06857" lon="-0.80633">
        <ele>326</ele>
        <time>2013-04-23T13:09:22Z</time>
      </trkpt>
      <trkpt lat="48.06858" lon="-0.80607">
        <ele>328</ele>
        <time>2013-04-23T13:09:25Z</time>
      </trkpt>
      <trkpt lat="48.06858" lon="-0.80583">
        <ele>330</ele>
        <time>2013-04-23T13:09:28Z</time>
      </trkpt>
      <trkpt lat="48.06859" lon="-0.80558">
        <ele>332</ele>
        <time>2013-04-23T13:09:31Z</time>
      </trkpt>
      <trkpt lat="48.06859" lon="-0.80533">
        <ele>334</ele>
        <time>2013-04-23T13:09:33Z</time>
      </trkpt>
      <trkpt lat="48.06858" lon="-0.80507">
        <ele>336</ele>
        <time>2013-04-23T13:09:36Z</time>
      </trkpt>
      <trkpt lat="48.06859" lon="-0.8048">
        <ele>339</ele>
        <time>2013-04-23T13:09:39Z</time>
      </trkpt>
      <trkpt lat="48.06858" lon="-0.80451">
        <ele>341</ele>
        <time>2013-04-23T13:09:42Z</time>
      </trkpt>
      <trkpt lat="48.06859" lon="-0.8042">
        <ele>343</ele>
        <time>2013-04-23T13:09:45Z</time>
      </trkpt>
      <trkpt lat="48.06858" lon="-0.80386">
        <ele>345</ele>
        <time>2013-04-23T13:09:48Z</time>
      </trkpt>
      <trkpt lat="48.06858" lon="-0.80355">
        <ele>347</ele>
        <time>2013-04-23T13:09:51Z</time>
      </trkpt>
      <trkpt lat="48.06853" lon="-0.80329">
        <ele>349</ele>
        <time>2013-04-23T13:09:54Z</time>
      </trkpt>
      <trkpt lat="48.06843" lon="-0.80307">
        <ele>351</ele>
        <time>2013-04-23T13:09:57Z</time>
      </trkpt>
      <trkpt lat="48.06842" lon="-0.80287">
        <ele>353</ele>
        <time>2013-04-23T13:10:00Z</time>
      </trkpt>
      <trkpt lat="48.06849" lon="-0.80265">
        <ele>355</ele>
        <time>2013-04-23T13:10:03Z</time>
      </trkpt>
      <trkpt lat="48.06859" lon="-0.8024">
        <ele>357</ele>
        <time>2013-04-23T13:10:06Z</time>
      </trkpt>
      <trkpt lat="48.0686" lon="-0.80208">
        <ele>359</ele>
        <time>2013-04-23T13:10:09Z</time>
      </trkpt>
      <trkpt lat="48.06861" lon="-0.80173">
        <ele>361</ele>
        <time>2013-04-23T13:10:12Z</time>
      </trkpt>
      <trkpt lat="48.06862" lon="-0.80137">
        <ele>363</ele>
        <time>2013-04-23T13:10:15Z</time>
      </trkpt>
      <trkpt lat="48.06862" lon="-0.80099">
        <ele>365</ele>
        <time>2013-04-23T13:10:18Z</time>
      </trkpt>
      <trkpt lat="48.06863" lon="-0.80062">
        <ele>367</ele>
        <time>2013-04-23T13:10:21Z</time>
      </trkpt>
      <trkpt lat="48.06863" lon="-0.80023">
        <ele>369</ele>
        <time>2013-04-23T13:10:24Z</time>
      </trkpt>
      <trkpt lat="48.06863" lon="-0.79986">
        <ele>371</ele>
        <time>2013-04-23T13:10:27Z</time>
      </trkpt>
      <trkpt lat="48.06863" lon="-0.7995">
        <ele>373</ele>
        <time>2013-04-23T13:10:29Z</time>
      </trkpt>
      <trkpt lat="48.06863" lon="-0.79914">
        <ele>375</ele>
        <time>2013-04-23T13:10:32Z</time>
      </trkpt>
      <trkpt lat="48.06865" lon="-0.7988">
        <ele>377</ele>
        <time>2013-04-23T13:10:35Z</time>
      </trkpt>
      <trkpt lat="48.06869" lon="-0.79847">
        <ele>379</ele>
        <time>2013-04-23T13:10:38Z</time>
      </trkpt>
      <trkpt lat="48.06873" lon="-0.79814">
        <ele>380</ele>
        <time>2013-04-23T13:10:41Z</time>
      </trkpt>
      <trkpt lat="48.06879" lon="-0.79782">
        <ele>382</ele>
        <time>2013-04-23T13:10:44Z</time>
      </trkpt>
      <trkpt lat="48.06884" lon="-0.79749">
        <ele>384</ele>
        <time>2013-04-23T13:10:47Z</time>
      </trkpt>
      <trkpt lat="48.0689" lon="-0.79718">
        <ele>386</ele>
        <time>2013-04-23T13:10:50Z</time>
      </trkpt>
      <trkpt lat="48.06895" lon="-0.79688">
        <ele>388</ele>
        <time>2013-04-23T13:10:53Z</time>
      </trkpt>
      <trkpt lat="48.06901" lon="-0.79658">
        <ele>390</ele>
        <time>2013-04-23T13:10:56Z</time>
      </trkpt>
      <trkpt lat="48.06906" lon="-0.79628">
        <ele>392</ele>
        <time>2013-04-23T13:10:59Z</time>
      </trkpt>
      <trkpt lat="48.06911" lon="-0.796">
        <ele>394</ele>
        <time>2013-04-23T13:11:02Z</time>
      </trkpt>
      <trkpt lat="48.06916" lon="-0.7957">
        <ele>396</ele>
        <time>2013-04-23T13:11:05Z</time>
      </trkpt>
      <trkpt lat="48.0692" lon="-0.79542">
        <ele>398</ele>
        <time>2013-04-23T13:11:08Z</time>
      </trkpt>
      <trkpt lat="48.06913" lon="-0.79526">
        <ele>400</ele>
        <time>2013-04-23T13:11:11Z</time>
      </trkpt>
      <trkpt lat="48.06896" lon="-0.79518">
        <ele>402</ele>
        <time>2013-04-23T13:11:15Z</time>
      </trkpt>
      <trkpt lat="48.06873" lon="-0.79508">
        <ele>404</ele>
        <time>2013-04-23T13:11:18Z</time>
      </trkpt>
      <trkpt lat="48.06855" lon="-0.795">
        <ele>406</ele>
        <time>2013-04-23T13:11:21Z</time>
      </trkpt>
      <trkpt lat="48.0684" lon="-0.79492">
        <ele>408</ele>
        <time>2013-04-23T13:11:23Z</time>
      </trkpt>
      <trkpt lat="48.06828" lon="-0.79485">
        <ele>409</ele>
        <time>2013-04-23T13:11:26Z</time>
      </trkpt>
      <trkpt lat="48.06819" lon="-0.79475">
        <ele>411</ele>
        <time>2013-04-23T13:11:29Z</time>
      </trkpt>
      <trkpt lat="48.06819" lon="-0.79458">
        <ele>413</ele>
        <time>2013-04-23T13:11:32Z</time>
      </trkpt>
      <trkpt lat="48.0682" lon="-0.79438">
        <ele>415</ele>
        <time>2013-04-23T13:11:35Z</time>
      </trkpt>
      <trkpt lat="48.06825" lon="-0.7942">
        <ele>417</ele>
        <time>2013-04-23T13:11:38Z</time>
      </trkpt>
      <trkpt lat="48.06837" lon="-0.79414">
        <ele>419</ele>
        <time>2013-04-23T13:11:41Z</time>
      </trkpt>
      <trkpt lat="48.0685" lon="-0.7941">
        <ele>421</ele>
        <time>2013-04-23T13:11:44Z</time>
      </trkpt>
      <trkpt lat="48.06862" lon="-0.79409">
        <ele>423</ele>
        <time>2013-04-23T13:11:47Z</time>
      </trkpt>
      <trkpt lat="48.06869" lon="-0.79408">
        <ele>425</ele>
        <time>2013-04-23T13:11:50Z</time>
      </trkpt>
      <trkpt lat="48.06871" lon="-0.79402">
        <ele>427</ele>
        <time>2013-04-23T13:11:53Z</time>
      </trkpt>
      <trkpt lat="48.06873" lon="-0.79396">
        <ele>429</ele>
        <time>2013-04-23T13:11:56Z</time>
      </trkpt>
      <trkpt lat="48.0688" lon="-0.79398">
        <ele>431</ele>
        <time>2013-04-23T13:11:59Z</time>
      </trkpt>
      <trkpt lat="48.06888" lon="-0.79405">
        <ele>433</ele>
        <time>2013-04-23T13:12:02Z</time>
      </trkpt>
      <trkpt lat="48.06894" lon="-0.79416">
        <ele>435</ele>
        <time>2013-04-23T13:12:05Z</time>
      </trkpt>
      <trkpt lat="48.06894" lon="-0.79428">
        <ele>437</ele>
        <time>2013-04-23T13:12:08Z</time>
      </trkpt>
      <trkpt lat="48.069" lon="-0.79431">
        <ele>439</ele>
        <time>2013-04-23T13:14:01Z</time>
      </trkpt>
      <trkpt lat="48.06913" lon="-0.79428">
        <ele>441</ele>
        <time>2013-04-23T13:14:03Z</time>
      </trkpt>
      <trkpt lat="48.06913" lon="-0.79431">
        <ele>443</ele>
        <time>2013-04-23T13:14:07Z</time>
      </trkpt>
      <trkpt lat="48.06913" lon="-0.79431">
        <ele>444</ele>
        <time>2013-04-23T13:14:42Z</time>
      </trkpt>
      <trkpt lat="48.06914" lon="-0.79436">
        <ele>446</ele>
        <time>2013-04-23T13:16:53Z</time>
      </trkpt>
      <trkpt lat="48.06904" lon="-0.79427">
        <ele>448</ele>
        <time>2013-04-23T13:16:54Z</time>
      </trkpt>
      <trkpt lat="48.06901" lon="-0.79419">
        <ele>450</ele>
        <time>2013-04-23T13:16:57Z</time>
      </trkpt>
      <trkpt lat="48.06898" lon="-0.79411">
        <ele>452</ele>
        <time>2013-04-23T13:17:00Z</time>
      </trkpt>
      <trkpt lat="48.069" lon="-0.79402">
        <ele>454</ele>
        <time>2013-04-23T13:17:03Z</time>
      </trkpt>
      <trkpt lat="48.06906" lon="-0.79402">
        <ele>456</ele>
        <time>2013-04-23T13:17:06Z</time>
      </trkpt>
      <trkpt lat="48.06913" lon="-0.79403">
        <ele>458</ele>
        <time>2013-04-23T13:17:09Z</time>
      </trkpt>
      <trkpt lat="48.06921" lon="-0.79406">
        <ele>460</ele>
        <time>2013-04-23T13:17:12Z</time>
      </trkpt>
      <trkpt lat="48.06932" lon="-0.79413">
        <ele>461</ele>
        <time>2013-04-23T13:17:15Z</time>
      </trkpt>
      <trkpt lat="48.0694" lon="-0.79411">
        <ele>463</ele>
        <time>2013-04-23T13:17:18Z</time>
      </trkpt>
      <trkpt lat="48.06942" lon="-0.79396">
        <ele>465</ele>
        <time>2013-04-23T13:17:21Z</time>
      </trkpt>
      <trkpt lat="48.06946" lon="-0.79379">
        <ele>467</ele>
        <time>2013-04-23T13:17:24Z</time>
      </trkpt>
      <trkpt lat="48.06951" lon="-0.79365">
        <ele>469</ele>
        <time>2013-04-23T13:17:27Z</time>
      </trkpt>
      <trkpt lat="48.06954" lon="-0.79354">
        <ele>471</ele>
        <time>2013-04-23T13:17:30Z</time>
      </trkpt>
      <trkpt lat="48.06957" lon="-0.7934">
        <ele>473</ele>
        <time>2013-04-23T13:17:32Z</time>
      </trkpt>
      <trkpt lat="48.06956" lon="-0.79326">
        <ele>475</ele>
        <time>2013-04-23T13:17:35Z</time>
      </trkpt>
      <trkpt lat="48.06956" lon="-0.79314">
        <ele>477</ele>
        <time>2013-04-23T13:17:38Z</time>
      </trkpt>
      <trkpt lat="48.06956" lon="-0.793">
        <ele>479</ele>
        <time>2013-04-23T13:17:41Z</time>
      </trkpt>
      <trkpt lat="48.06957" lon="-0.79291">
        <ele>481</ele>
        <time>2013-04-23T13:17:44Z</time>
      </trkpt>
      <trkpt lat="48.06954" lon="-0.79279">
        <ele>483</ele>
        <time>2013-04-23T13:18:26Z</time>
      </trkpt>
      <trkpt lat="48.06961" lon="-0.79269">
        <ele>485</ele>
        <time>2013-04-23T13:18:27Z</time>
      </trkpt>
      <trkpt lat="48.06966" lon="-0.79266">
        <ele>487</ele>
        <time>2013-04-23T13:18:30Z</time>
      </trkpt>
      <trkpt lat="48.06968" lon="-0.79274">
        <ele>489</ele>
        <time>2013-04-23T13:18:33Z</time>
      </trkpt>
      <trkpt lat="48.06972" lon="-0.79285">
        <ele>491</ele>
        <time>2013-04-23T13:18:36Z</time>
      </trkpt>
      <trkpt lat="48.06977" lon="-0.79295">
        <ele>493</ele>
        <time>2013-04-23T13:18:39Z</time>
      </trkpt>
      <trkpt lat="48.06984" lon="-0.793">
        <ele>495</ele>
        <time>2013-04-23T13:18:52Z</time>
      </trkpt>
      <trkpt lat="48.06986" lon="-0.79306">
        <ele>497</ele>
        <time>2013-04-23T13:18:53Z</time>
      </trkpt>
      <trkpt lat="48.0699" lon="-0.79316">
        <ele>499</ele>
        <time>2013-04-23T13:18:55Z</time>
      </trkpt>
      <trkpt lat="48.06998" lon="-0.79318">
        <ele>501</ele>
        <time>2013-04-23T13:18:58Z</time>
      </trkpt>
      <trkpt lat="48.07009" lon="-0.79316">
        <ele>503</ele>
        <time>2013-04-23T13:19:01Z</time>
      </trkpt>
      <trkpt lat="48.0702" lon="-0.79319">
        <ele>505</ele>
        <time>2013-04-23T13:19:04Z</time>
      </trkpt>
      <trkpt lat="48.07026" lon="-0.7933">
        <ele>507</ele>
        <time>2013-04-23T13:19:07Z</time>
      </trkpt>
      <trkpt lat="48.07034" lon="-0.79339">
        <ele>509</ele>
        <time>2013-04-23T13:19:10Z</time>
      </trkpt>
      <trkpt lat="48.07047" lon="-0.79344">
        <ele>511</ele>
        <time>2013-04-23T13:19:13Z</time>
      </trkpt>
      <trkpt lat="48.0706" lon="-0.7935">
        <ele>513</ele>
        <time>2013-04-23T13:19:16Z</time>
      </trkpt>
      <trkpt lat="48.07067" lon="-0.79359">
        <ele>515</ele>
        <time>2013-04-23T13:19:19Z</time>
      </trkpt>
      <trkpt lat="48.07077" lon="-0.79364">
        <ele>517</ele>
        <time>2013-04-23T13:19:22Z</time>
      </trkpt>
      <trkpt lat="48.07082" lon="-0.79374">
        <ele>519</ele>
        <time>2013-04-23T13:19:25Z</time>
      </trkpt>
      <trkpt lat="48.07081" lon="-0.79383">
        <ele>521</ele>
        <time>2013-04-23T13:19:28Z</time>
      </trkpt>
      <trkpt lat="48.07089" lon="-0.79385">
        <ele>523</ele>
        <time>2013-04-23T13:19:31Z</time>
      </trkpt>
      <trkpt lat="48.071" lon="-0.79383">
        <ele>525</ele>
        <time>2013-04-23T13:19:34Z</time>
      </trkpt>
      <trkpt lat="48.07114" lon="-0.7938">
        <ele>527</ele>
        <time>2013-04-23T13:19:37Z</time>
      </trkpt>
      <trkpt lat="48.07123" lon="-0.79387">
        <ele>529</ele>
        <time>2013-04-23T13:19:40Z</time>
      </trkpt>
      <trkpt lat="48.07134" lon="-0.79389">
        <ele>531</ele>
        <time>2013-04-23T13:19:43Z</time>
      </trkpt>
      <trkpt lat="48.07142" lon="-0.79399">
        <ele>533</ele>
        <time>2013-04-23T13:19:45Z</time>
      </trkpt>
      <trkpt lat="48.07152" lon="-0.79406">
        <ele>535</ele>
        <time>2013-04-23T13:19:48Z</time>
      </trkpt>
      <trkpt lat="48.07168" lon="-0.79412">
        <ele>537</ele>
        <time>2013-04-23T13:19:51Z</time>
      </trkpt>
      <trkpt lat="48.07182" lon="-0.79419">
        <ele>539</ele>
        <time>2013-04-23T13:19:54Z</time>
      </trkpt>
      <trkpt lat="48.07193" lon="-0.79429">
        <ele>541</ele>
        <time>2013-04-23T13:19:57Z</time>
      </trkpt>
      <trkpt lat="48.07207" lon="-0.79438">
        <ele>543</ele>
        <time>2013-04-23T13:20:00Z</time>
      </trkpt>
      <trkpt lat="48.07216" lon="-0.79446">
        <ele>544</ele>
        <time>2013-04-23T13:20:03Z</time>
      </trkpt>
      <trkpt lat="48.07227" lon="-0.79456">
        <ele>546</ele>
        <time>2013-04-23T13:20:06Z</time>
      </trkpt>
      <trkpt lat="48.07237" lon="-0.79467">
        <ele>548</ele>
        <time>2013-04-23T13:20:09Z</time>
      </trkpt>
      <trkpt lat="48.07248" lon="-0.79476">
        <ele>550</ele>
        <time>2013-04-23T13:20:12Z</time>
      </trkpt>
      <trkpt lat="48.07256" lon="-0.79479">
        <ele>552</ele>
        <time>2013-04-23T13:20:15Z</time>
      </trkpt>
      <trkpt lat="48.07262" lon="-0.79484">
        <ele>554</ele>
        <time>2013-04-23T13:20:18Z</time>
      </trkpt>
      <trkpt lat="48.07266" lon="-0.79482">
        <ele>556</ele>
        <time>2013-04-23T13:20:23Z</time>
      </trkpt>
      <trkpt lat="48.07266" lon="-0.79475">
        <ele>558</ele>
        <time>2013-04-23T13:20:26Z</time>
      </trkpt>
      <trkpt lat="48.07269" lon="-0.79467">
        <ele>560</ele>
        <time>2013-04-23T13:20:29Z</time>
      </trkpt>
      <trkpt lat="48.07271" lon="-0.79462">
        <ele>562</ele>
        <time>2013-04-23T13:20:32Z</time>
      </trkpt>
      <trkpt lat="48.07282" lon="-0.79464">
        <ele>564</ele>
        <time>2013-04-23T13:20:35Z</time>
      </trkpt>
      <trkpt lat="48.07295" lon="-0.79469">
        <ele>566</ele>
        <time>2013-04-23T13:20:38Z</time>
      </trkpt>
      <trkpt lat="48.07303" lon="-0.79482">
        <ele>568</ele>
        <time>2013-04-23T13:20:40Z</time>
      </trkpt>
      <trkpt lat="48.07318" lon="-0.79493">
        <ele>570</ele>
        <time>2013-04-23T13:20:43Z</time>
      </trkpt>
      <trkpt lat="48.07334" lon="-0.79498">
        <ele>572</ele>
        <time>2013-04-23T13:20:46Z</time>
      </trkpt>
      <trkpt lat="48.0735" lon="-0.79504">
        <ele>574</ele>
        <time>2013-04-23T13:20:49Z</time>
      </trkpt>
      <trkpt lat="48.07369" lon="-0.79511">
        <ele>575</ele>
        <time>2013-04-23T13:20:52Z</time>
      </trkpt>
      <trkpt lat="48.07385" lon="-0.79515">
        <ele>577</ele>
        <time>2013-04-23T13:20:55Z</time>
      </trkpt>
      <trkpt lat="48.07401" lon="-0.79522">
        <ele>579</ele>
        <time>2013-04-23T13:20:58Z</time>
      </trkpt>
      <trkpt lat="48.07413" lon="-0.79528">
        <ele>581</ele>
        <time>2013-04-23T13:21:01Z</time>
      </trkpt>
      <trkpt lat="48.07426" lon="-0.79535">
        <ele>583</ele>
        <time>2013-04-23T13:21:04Z</time>
      </trkpt>
      <trkpt lat="48.07442" lon="-0.79539">
        <ele>585</ele>
        <time>2013-04-23T13:21:07Z</time>
      </trkpt>
      <trkpt lat="48.07458" lon="-0.79546">
        <ele>587</ele>
        <time>2013-04-23T13:21:10Z</time>
      </trkpt>
      <trkpt lat="48.07473" lon="-0.79551">
        <ele>589</ele>
        <time>2013-04-23T13:21:13Z</time>
      </trkpt>
      <trkpt lat="48.07487" lon="-0.79551">
        <ele>591</ele>
        <time>2013-04-23T13:21:16Z</time>
      </trkpt>
      <trkpt lat="48.07496" lon="-0.79553">
        <ele>593</ele>
        <time>2013-04-23T13:21:19Z</time>
      </trkpt>
      <trkpt lat="48.07501" lon="-0.79555">
        <ele>595</ele>
        <time>2013-04-23T13:21:22Z</time>
      </trkpt>
      <trkpt lat="48.07505" lon="-0.79556">
        <ele>597</ele>
        <time>2013-04-23T13:21:25Z</time>
      </trkpt>
      <trkpt lat="48.07511" lon="-0.79555">
        <ele>599</ele>
        <time>2013-04-23T13:21:28Z</time>
      </trkpt>
      <trkpt lat="48.07518" lon="-0.79552">
        <ele>601</ele>
        <time>2013-04-23T13:21:31Z</time>
      </trkpt>
      <trkpt lat="48.07524" lon="-0.79553">
        <ele>602</ele>
        <time>2013-04-23T13:21:34Z</time>
      </trkpt>
      <trkpt lat="48.07528" lon="-0.79556">
        <ele>604</ele>
        <time>2013-04-23T13:21:36Z</time>
      </trkpt>
      <trkpt lat="48.07533" lon="-0.79557">
        <ele>606</ele>
        <time>2013-04-23T13:21:39Z</time>
      </trkpt>
      <trkpt lat="48.07542" lon="-0.79556">
        <ele>608</ele>
        <time>2013-04-23T13:21:42Z</time>
      </trkpt>
      <trkpt lat="48.07554" lon="-0.79552">
        <ele>610</ele>
        <time>2013-04-23T13:21:45Z</time>
      </trkpt>
      <trkpt lat="48.07569" lon="-0.79548">
        <ele>612</ele>
        <time>2013-04-23T13:21:48Z</time>
      </trkpt>
      <trkpt lat="48.07584" lon="-0.79545">
        <ele>614</ele>
        <time>2013-04-23T13:21:51Z</time>
      </trkpt>
      <trkpt lat="48.07598" lon="-0.79546">
        <ele>616</ele>
        <time>2013-04-23T13:21:54Z</time>
      </trkpt>
      <trkpt lat="48.0761" lon="-0.79545">
        <ele>618</ele>
        <time>2013-04-23T13:21:57Z</time>
      </trkpt>
      <trkpt lat="48.07615" lon="-0.79542">
        <ele>620</ele>
        <time>2013-04-23T13:22:37Z</time>
      </trkpt>
      <trkpt lat="48.07621" lon="-0.79544">
        <ele>621</ele>
        <time>2013-04-23T13:22:40Z</time>
      </trkpt>
      <trkpt lat="48.0763" lon="-0.79544">
        <ele>623</ele>
        <time>2013-04-23T13:22:43Z</time>
      </trkpt>
      <trkpt lat="48.07638" lon="-0.79544">
        <ele>625</ele>
        <time>2013-04-23T13:22:46Z</time>
      </trkpt>
      <trkpt lat="48.07652" lon="-0.79542">
        <ele>627</ele>
        <time>2013-04-23T13:22:49Z</time>
      </trkpt>
      <trkpt lat="48.07665" lon="-0.79541">
        <ele>629</ele>
        <time>2013-04-23T13:22:51Z</time>
      </trkpt>
      <trkpt lat="48.07678" lon="-0.7954">
        <ele>631</ele>
        <time>2013-04-23T13:22:54Z</time>
      </trkpt>
      <trkpt lat="48.07691" lon="-0.79538">
        <ele>633</ele>
        <time>2013-04-23T13:22:57Z</time>
      </trkpt>
      <trkpt lat="48.077" lon="-0.79538">
        <ele>635</ele>
        <time>2013-04-23T13:23:00Z</time>
      </trkpt>
      <trkpt lat="48.07708" lon="-0.79537">
        <ele>637</ele>
        <time>2013-04-23T13:23:03Z</time>
      </trkpt>
      <trkpt lat="48.07719" lon="-0.79538">
        <ele>639</ele>
        <time>2013-04-23T13:23:06Z</time>
      </trkpt>
      <trkpt lat="48.07729" lon="-0.79533">
        <ele>641</ele>
        <time>2013-04-23T13:23:09Z</time>
      </trkpt>
      <trkpt lat="48.07742" lon="-0.79521">
        <ele>643</ele>
        <time>2013-04-23T13:23:12Z</time>
      </trkpt>
      <trkpt lat="48.07755" lon="-0.79516">
        <ele>645</ele>
        <time>2013-04-23T13:23:15Z</time>
      </trkpt>
      <trkpt lat="48.07768" lon="-0.79522">
        <ele>646</ele>
        <time>2013-04-23T13:23:18Z</time>
      </trkpt>
      <trkpt lat="48.07784" lon="-0.79533">
        <ele>648</ele>
        <time>2013-04-23T13:23:21Z</time>
      </trkpt>
      <trkpt lat="48.07794" lon="-0.79547">
        <ele>650</ele>
        <time>2013-04-23T13:23:24Z</time>
      </trkpt>
      <trkpt lat="48.07814" lon="-0.79552">
        <ele>652</ele>
        <time>2013-04-23T13:23:27Z</time>
      </trkpt>
      <trkpt lat="48.0783" lon="-0.79554">
        <ele>654</ele>
        <time>2013-04-23T13:23:30Z</time>
      </trkpt>
      <trkpt lat="48.07845" lon="-0.79552">
        <ele>656</ele>
        <time>2013-04-23T13:23:33Z</time>
      </trkpt>
      <trkpt lat="48.0786" lon="-0.79551">
        <ele>658</ele>
        <time>2013-04-23T13:23:36Z</time>
      </trkpt>
      <trkpt lat="48.07874" lon="-0.7955">
        <ele>660</ele>
        <time>2013-04-23T13:23:39Z</time>
      </trkpt>
      <trkpt lat="48.07883" lon="-0.79552">
        <ele>662</ele>
        <time>2013-04-23T13:23:42Z</time>
      </trkpt>
      <trkpt lat="48.07894" lon="-0.79551">
        <ele>664</ele>
        <time>2013-04-23T13:23:44Z</time>
      </trkpt>
      <trkpt lat="48.07911" lon="-0.79551">
        <ele>666</ele>
        <time>2013-04-23T13:23:47Z</time>
      </trkpt>
      <trkpt lat="48.0793" lon="-0.79545">
        <ele>668</ele>
        <time>2013-04-23T13:23:50Z</time>
      </trkpt>
      <trkpt lat="48.07946" lon="-0.79551">
        <ele>670</ele>
        <time>2013-04-23T13:23:53Z</time>
      </trkpt>
      <trkpt lat="48.07961" lon="-0.79551">
        <ele>672</ele>
        <time>2013-04-23T13:23:56Z</time>
      </trkpt>
      <trkpt lat="48.07976" lon="-0.79549">
        <ele>674</ele>
        <time>2013-04-23T13:23:59Z</time>
      </trkpt>
      <trkpt lat="48.07989" lon="-0.79548">
        <ele>676</ele>
        <time>2013-04-23T13:24:02Z</time>
      </trkpt>
      <trkpt lat="48.08004" lon="-0.79547">
        <ele>678</ele>
        <time>2013-04-23T13:24:05Z</time>
      </trkpt>
      <trkpt lat="48.08013" lon="-0.79541">
        <ele>680</ele>
        <time>2013-04-23T13:24:08Z</time>
      </trkpt>
      <trkpt lat="48.08024" lon="-0.79526">
        <ele>682</ele>
        <time>2013-04-23T13:24:11Z</time>
      </trkpt>
      <trkpt lat="48.08026" lon="-0.79509">
        <ele>684</ele>
        <time>2013-04-23T13:24:14Z</time>
      </trkpt>
      <trkpt lat="48.08023" lon="-0.79492">
        <ele>686</ele>
        <time>2013-04-23T13:24:17Z</time>
      </trkpt>
      <trkpt lat="48.0802" lon="-0.79482">
        <ele>688</ele>
        <time>2013-04-23T13:24:20Z</time>
      </trkpt>
      <trkpt lat="48.08019" lon="-0.79474">
        <ele>691</ele>
        <time>2013-04-23T13:24:25Z</time>
      </trkpt>
      <trkpt lat="48.08021" lon="-0.79468">
        <ele>693</ele>
        <time>2013-04-23T13:24:28Z</time>
      </trkpt>
      <trkpt lat="48.08021" lon="-0.79462">
        <ele>695</ele>
        <time>2013-04-23T13:24:40Z</time>
      </trkpt>
      <trkpt lat="48.08028" lon="-0.79459">
        <ele>697</ele>
        <time>2013-04-23T13:24:42Z</time>
      </trkpt>
      <trkpt lat="48.08034" lon="-0.79471">
        <ele>699</ele>
        <time>2013-04-23T13:24:44Z</time>
      </trkpt>
      <trkpt lat="48.08038" lon="-0.79484">
        <ele>701</ele>
        <time>2013-04-23T13:24:47Z</time>
      </trkpt>
      <trkpt lat="48.08047" lon="-0.79495">
        <ele>703</ele>
        <time>2013-04-23T13:24:50Z</time>
      </trkpt>
      <trkpt lat="48.08052" lon="-0.795">
        <ele>705</ele>
        <time>2013-04-23T13:24:53Z</time>
      </trkpt>
      <trkpt lat="48.0806" lon="-0.79502">
        <ele>707</ele>
        <time>2013-04-23T13:24:56Z</time>
      </trkpt>
      <trkpt lat="48.08069" lon="-0.795">
        <ele>709</ele>
        <time>2013-04-23T13:24:59Z</time>
      </trkpt>
      <trkpt lat="48.08081" lon="-0.79504">
        <ele>711</ele>
        <time>2013-04-23T13:25:02Z</time>
      </trkpt>
      <trkpt lat="48.08091" lon="-0.7951">
        <ele>713</ele>
        <time>2013-04-23T13:25:05Z</time>
      </trkpt>
      <trkpt lat="48.08108" lon="-0.7951">
        <ele>715</ele>
        <time>2013-04-23T13:25:08Z</time>
      </trkpt>
      <trkpt lat="48.08123" lon="-0.79504">
        <ele>717</ele>
        <time>2013-04-23T13:25:11Z</time>
      </trkpt>
      <trkpt lat="48.08138" lon="-0.79493">
        <ele>719</ele>
        <time>2013-04-23T13:25:14Z</time>
      </trkpt>
      <trkpt lat="48.08152" lon="-0.79483">
        <ele>721</ele>
        <time>2013-04-23T13:25:17Z</time>
      </trkpt>
      <trkpt lat="48.08168" lon="-0.79472">
        <ele>723</ele>
        <time>2013-04-23T13:25:20Z</time>
      </trkpt>
      <trkpt lat="48.08182" lon="-0.79459">
        <ele>725</ele>
        <time>2013-04-23T13:25:23Z</time>
      </trkpt>
      <trkpt lat="48.08197" lon="-0.79445">
        <ele>727</ele>
        <time>2013-04-23T13:25:26Z</time>
      </trkpt>
      <trkpt lat="48.08214" lon="-0.79429">
        <ele>729</ele>
        <time>2013-04-23T13:25:29Z</time>
      </trkpt>
      <trkpt lat="48.08231" lon="-0.79408">
        <ele>731</ele>
        <time>2013-04-23T13:25:32Z</time>
      </trkpt>
      <trkpt lat="48.08251" lon="-0.79384">
        <ele>733</ele>
        <time>2013-04-23T13:25:35Z</time>
      </trkpt>
      <trkpt lat="48.08264" lon="-0.79362">
        <ele>735</ele>
        <time>2013-04-23T13:25:37Z</time>
      </trkpt>
      <trkpt lat="48.08278" lon="-0.79339">
        <ele>737</ele>
        <time>2013-04-23T13:25:40Z</time>
      </trkpt>
      <trkpt lat="48.08293" lon="-0.7931">
        <ele>739</ele>
        <time>2013-04-23T13:25:43Z</time>
      </trkpt>
      <trkpt lat="48.08309" lon="-0.79283">
        <ele>741</ele>
        <time>2013-04-23T13:25:46Z</time>
      </trkpt>
      <trkpt lat="48.08323" lon="-0.79256">
        <ele>743</ele>
        <time>2013-04-23T13:25:49Z</time>
      </trkpt>
      <trkpt lat="48.08333" lon="-0.79229">
        <ele>745</ele>
        <time>2013-04-23T13:25:52Z</time>
      </trkpt>
      <trkpt lat="48.08344" lon="-0.79197">
        <ele>747</ele>
        <time>2013-04-23T13:25:55Z</time>
      </trkpt>
      <trkpt lat="48.08355" lon="-0.79164">
        <ele>749</ele>
        <time>2013-04-23T13:25:58Z</time>
      </trkpt>
      <trkpt lat="48.08367" lon="-0.79128">
        <ele>751</ele>
        <time>2013-04-23T13:26:01Z</time>
      </trkpt>
      <trkpt lat="48.08376" lon="-0.79098">
        <ele>753</ele>
        <time>2013-04-23T13:26:04Z</time>
      </trkpt>
      <trkpt lat="48.08383" lon="-0.79065">
        <ele>755</ele>
        <time>2013-04-23T13:26:07Z</time>
      </trkpt>
      <trkpt lat="48.08382" lon="-0.79034">
        <ele>757</ele>
        <time>2013-04-23T13:26:10Z</time>
      </trkpt>
      <trkpt lat="48.08389" lon="-0.78998">
        <ele>759</ele>
        <time>2013-04-23T13:26:13Z</time>
      </trkpt>
      <trkpt lat="48.08391" lon="-0.78966">
        <ele>761</ele>
        <time>2013-04-23T13:26:16Z</time>
      </trkpt>
      <trkpt lat="48.08393" lon="-0.78933">
        <ele>763</ele>
        <time>2013-04-23T13:26:19Z</time>
      </trkpt>
      <trkpt lat="48.08399" lon="-0.78898">
        <ele>764</ele>
        <time>2013-04-23T13:26:22Z</time>
      </trkpt>
      <trkpt lat="48.08405" lon="-0.78867">
        <ele>766</ele>
        <time>2013-04-23T13:26:25Z</time>
      </trkpt>
      <trkpt lat="48.08411" lon="-0.78836">
        <ele>768</ele>
        <time>2013-04-23T13:26:28Z</time>
      </trkpt>
      <trkpt lat="48.08416" lon="-0.78803">
        <ele>770</ele>
        <time>2013-04-23T13:26:30Z</time>
      </trkpt>
      <trkpt lat="48.08422" lon="-0.78774">
        <ele>772</ele>
        <time>2013-04-23T13:26:33Z</time>
      </trkpt>
      <trkpt lat="48.08428" lon="-0.78742">
        <ele>774</ele>
        <time>2013-04-23T13:26:36Z</time>
      </trkpt>
      <trkpt lat="48.0843" lon="-0.7871">
        <ele>776</ele>
        <time>2013-04-23T13:26:39Z</time>
      </trkpt>
      <trkpt lat="48.08427" lon="-0.78682">
        <ele>778</ele>
        <time>2013-04-23T13:26:42Z</time>
      </trkpt>
      <trkpt lat="48.08424" lon="-0.78653">
        <ele>780</ele>
        <time>2013-04-23T13:26:45Z</time>
      </trkpt>
      <trkpt lat="48.08423" lon="-0.78625">
        <ele>781</ele>
        <time>2013-04-23T13:26:48Z</time>
      </trkpt>
      <trkpt lat="48.0842" lon="-0.78595">
        <ele>783</ele>
        <time>2013-04-23T13:26:51Z</time>
      </trkpt>
      <trkpt lat="48.08417" lon="-0.78567">
        <ele>785</ele>
        <time>2013-04-23T13:26:54Z</time>
      </trkpt>
      <trkpt lat="48.08418" lon="-0.7854">
        <ele>787</ele>
        <time>2013-04-23T13:26:57Z</time>
      </trkpt>
      <trkpt lat="48.08422" lon="-0.7852">
        <ele>789</ele>
        <time>2013-04-23T13:27:00Z</time>
      </trkpt>
      <trkpt lat="48.08426" lon="-0.78508">
        <ele>791</ele>
        <time>2013-04-23T13:27:03Z</time>
      </trkpt>
      <trkpt lat="48.08429" lon="-0.78505">
        <ele>793</ele>
        <time>2013-04-23T13:27:06Z</time>
      </trkpt>
      <trkpt lat="48.08434" lon="-0.78502">
        <ele>795</ele>
        <time>2013-04-23T13:27:09Z</time>
      </trkpt>
      <trkpt lat="48.08443" lon="-0.78496">
        <ele>796</ele>
        <time>2013-04-23T13:27:12Z</time>
      </trkpt>
      <trkpt lat="48.08447" lon="-0.78485">
        <ele>798</ele>
        <time>2013-04-23T13:27:15Z</time>
      </trkpt>
      <trkpt lat="48.08451" lon="-0.78476">
        <ele>800</ele>
        <time>2013-04-23T13:27:18Z</time>
      </trkpt>
      <trkpt lat="48.08453" lon="-0.78466">
        <ele>802</ele>
        <time>2013-04-23T13:27:21Z</time>
      </trkpt>
      <trkpt lat="48.08459" lon="-0.78458">
        <ele>804</ele>
        <time>2013-04-23T13:27:24Z</time>
      </trkpt>
      <trkpt lat="48.08469" lon="-0.7844">
        <ele>805</ele>
        <time>2013-04-23T13:27:26Z</time>
      </trkpt>
      <trkpt lat="48.08475" lon="-0.78423">
        <ele>807</ele>
        <time>2013-04-23T13:27:29Z</time>
      </trkpt>
      <trkpt lat="48.08483" lon="-0.78404">
        <ele>809</ele>
        <time>2013-04-23T13:27:32Z</time>
      </trkpt>
      <trkpt lat="48.0849" lon="-0.78384">
        <ele>811</ele>
        <time>2013-04-23T13:27:35Z</time>
      </trkpt>
      <trkpt lat="48.08496" lon="-0.78362">
        <ele>813</ele>
        <time>2013-04-23T13:27:38Z</time>
      </trkpt>
      <trkpt lat="48.08505" lon="-0.7835">
        <ele>814</ele>
        <time>2013-04-23T13:27:41Z</time>
      </trkpt>
      <trkpt lat="48.08511" lon="-0.78333">
        <ele>816</ele>
        <time>2013-04-23T13:27:44Z</time>
      </trkpt>
      <trkpt lat="48.08519" lon="-0.78316">
        <ele>818</ele>
        <time>2013-04-23T13:27:47Z</time>
      </trkpt>
      <trkpt lat="48.08526" lon="-0.78294">
        <ele>820</ele>
        <time>2013-04-23T13:27:50Z</time>
      </trkpt>
      <trkpt lat="48.08535" lon="-0.78277">
        <ele>822</ele>
        <time>2013-04-23T13:27:53Z</time>
      </trkpt>
      <trkpt lat="48.08541" lon="-0.7826">
        <ele>824</ele>
        <time>2013-04-23T13:27:56Z</time>
      </trkpt>
      <trkpt lat="48.08539" lon="-0.78244">
        <ele>826</ele>
        <time>2013-04-23T13:27:59Z</time>
      </trkpt>
      <trkpt lat="48.08531" lon="-0.78235">
        <ele>828</ele>
        <time>2013-04-23T13:28:02Z</time>
      </trkpt>
      <trkpt lat="48.08516" lon="-0.78226">
        <ele>829</ele>
        <time>2013-04-23T13:28:05Z</time>
      </trkpt>
      <trkpt lat="48.08503" lon="-0.78219">
        <ele>831</ele>
        <time>2013-04-23T13:28:08Z</time>
      </trkpt>
      <trkpt lat="48.0849" lon="-0.78207">
        <ele>833</ele>
        <time>2013-04-23T13:28:11Z</time>
      </trkpt>
      <trkpt lat="48.08487" lon="-0.78197">
        <ele>835</ele>
        <time>2013-04-23T13:28:14Z</time>
      </trkpt>
      <trkpt lat="48.08484" lon="-0.78183">
        <ele>837</ele>
        <time>2013-04-23T13:28:17Z</time>
      </trkpt>
      <trkpt lat="48.08494" lon="-0.78168">
        <ele>839</ele>
        <time>2013-04-23T13:28:19Z</time>
      </trkpt>
      <trkpt lat="48.08503" lon="-0.78159">
        <ele>840</ele>
        <time>2013-04-23T13:28:22Z</time>
      </trkpt>
      <trkpt lat="48.08505" lon="-0.78164">
        <ele>842</ele>
        <time>2013-04-23T13:28:25Z</time>
      </trkpt>
      <trkpt lat="48.08511" lon="-0.78165">
        <ele>844</ele>
        <time>2013-04-23T13:28:28Z</time>
      </trkpt>
      <trkpt lat="48.08525" lon="-0.78165">
        <ele>846</ele>
        <time>2013-04-23T13:28:31Z</time>
      </trkpt>
      <trkpt lat="48.08543" lon="-0.7817">
        <ele>848</ele>
        <time>2013-04-23T13:28:34Z</time>
      </trkpt>
      <trkpt lat="48.08553" lon="-0.78182">
        <ele>850</ele>
        <time>2013-04-23T13:28:37Z</time>
      </trkpt>
      <trkpt lat="48.08557" lon="-0.78201">
        <ele>852</ele>
        <time>2013-04-23T13:28:40Z</time>
      </trkpt>
      <trkpt lat="48.08558" lon="-0.78217">
        <ele>853</ele>
        <time>2013-04-23T13:28:43Z</time>
      </trkpt>
      <trkpt lat="48.08564" lon="-0.78222">
        <ele>855</ele>
        <time>2013-04-23T13:28:46Z</time>
      </trkpt>
      <trkpt lat="48.08569" lon="-0.78209">
        <ele>857</ele>
        <time>2013-04-23T13:28:49Z</time>
      </trkpt>
      <trkpt lat="48.08577" lon="-0.78197">
        <ele>858</ele>
        <time>2013-04-23T13:28:52Z</time>
      </trkpt>
      <trkpt lat="48.08589" lon="-0.78202">
        <ele>860</ele>
        <time>2013-04-23T13:28:55Z</time>
      </trkpt>
      <trkpt lat="48.086" lon="-0.78206">
        <ele>862</ele>
        <time>2013-04-23T13:28:58Z</time>
      </trkpt>
      <trkpt lat="48.08612" lon="-0.78207">
        <ele>863</ele>
        <time>2013-04-23T13:29:01Z</time>
      </trkpt>
      <trkpt lat="48.08626" lon="-0.7819">
        <ele>865</ele>
        <time>2013-04-23T13:29:04Z</time>
      </trkpt>
      <trkpt lat="48.08642" lon="-0.78172">
        <ele>867</ele>
        <time>2013-04-23T13:29:07Z</time>
      </trkpt>
      <trkpt lat="48.08655" lon="-0.78154">
        <ele>868</ele>
        <time>2013-04-23T13:29:10Z</time>
      </trkpt>
      <trkpt lat="48.08668" lon="-0.78142">
        <ele>870</ele>
        <time>2013-04-23T13:29:12Z</time>
      </trkpt>
      <trkpt lat="48.08685" lon="-0.78129">
        <ele>871</ele>
        <time>2013-04-23T13:29:15Z</time>
      </trkpt>
      <trkpt lat="48.08703" lon="-0.78113">
        <ele>873</ele>
        <time>2013-04-23T13:29:18Z</time>
      </trkpt>
      <trkpt lat="48.08727" lon="-0.78094">
        <ele>875</ele>
        <time>2013-04-23T13:29:21Z</time>
      </trkpt>
      <trkpt lat="48.08749" lon="-0.78076">
        <ele>876</ele>
        <time>2013-04-23T13:29:24Z</time>
      </trkpt>
      <trkpt lat="48.0877" lon="-0.78055">
        <ele>878</ele>
        <time>2013-04-23T13:29:27Z</time>
      </trkpt>
      <trkpt lat="48.08789" lon="-0.78035">
        <ele>879</ele>
        <time>2013-04-23T13:29:30Z</time>
      </trkpt>
      <trkpt lat="48.08808" lon="-0.78014">
        <ele>881</ele>
        <time>2013-04-23T13:29:33Z</time>
      </trkpt>
      <trkpt lat="48.08822" lon="-0.77994">
        <ele>883</ele>
        <time>2013-04-23T13:29:36Z</time>
      </trkpt>
      <trkpt lat="48.08839" lon="-0.77972">
        <ele>884</ele>
        <time>2013-04-23T13:29:39Z</time>
      </trkpt>
      <trkpt lat="48.08851" lon="-0.77951">
        <ele>886</ele>
        <time>2013-04-23T13:29:42Z</time>
      </trkpt>
      <trkpt lat="48.08861" lon="-0.7793">
        <ele>888</ele>
        <time>2013-04-23T13:29:45Z</time>
      </trkpt>
      <trkpt lat="48.08862" lon="-0.7791">
        <ele>889</ele>
        <time>2013-04-23T13:29:48Z</time>
      </trkpt>
      <trkpt lat="48.08857" lon="-0.779">
        <ele>891</ele>
        <time>2013-04-23T13:29:51Z</time>
      </trkpt>
      <trkpt lat="48.08858" lon="-0.77898">
        <ele>892</ele>
        <time>2013-04-23T13:29:54Z</time>
      </trkpt>
      <trkpt lat="48.08865" lon="-0.77895">
        <ele>894</ele>
        <time>2013-04-23T13:29:57Z</time>
      </trkpt>
      <trkpt lat="48.08875" lon="-0.77888">
        <ele>896</ele>
        <time>2013-04-23T13:30:00Z</time>
      </trkpt>
      <trkpt lat="48.08888" lon="-0.77879">
        <ele>897</ele>
        <time>2013-04-23T13:30:03Z</time>
      </trkpt>
      <trkpt lat="48.08898" lon="-0.7786">
        <ele>899</ele>
        <time>2013-04-23T13:30:05Z</time>
      </trkpt>
      <trkpt lat="48.08906" lon="-0.77837">
        <ele>900</ele>
        <time>2013-04-23T13:30:08Z</time>
      </trkpt>
      <trkpt lat="48.08912" lon="-0.7782">
        <ele>902</ele>
        <time>2013-04-23T13:30:11Z</time>
      </trkpt>
      <trkpt lat="48.08918" lon="-0.77805">
        <ele>904</ele>
        <time>2013-04-23T13:30:14Z</time>
      </trkpt>
      <trkpt lat="48.08924" lon="-0.77787">
        <ele>905</ele>
        <time>2013-04-23T13:30:17Z</time>
      </trkpt>
      <trkpt lat="48.0893" lon="-0.77772">
        <ele>907</ele>
        <time>2013-04-23T13:30:20Z</time>
      </trkpt>
      <trkpt lat="48.08936" lon="-0.77754">
        <ele>908</ele>
        <time>2013-04-23T13:30:23Z</time>
      </trkpt>
      <trkpt lat="48.08943" lon="-0.77738">
        <ele>910</ele>
        <time>2013-04-23T13:30:26Z</time>
      </trkpt>
      <trkpt lat="48.08949" lon="-0.77721">
        <ele>912</ele>
        <time>2013-04-23T13:30:29Z</time>
      </trkpt>
      <trkpt lat="48.08955" lon="-0.77704">
        <ele>913</ele>
        <time>2013-04-23T13:30:32Z</time>
      </trkpt>
      <trkpt lat="48.0896" lon="-0.77689">
        <ele>915</ele>
        <time>2013-04-23T13:30:35Z</time>
      </trkpt>
      <trkpt lat="48.08966" lon="-0.7767">
        <ele>916</ele>
        <time>2013-04-23T13:30:38Z</time>
      </trkpt>
      <trkpt lat="48.08971" lon="-0.77654">
        <ele>918</ele>
        <time>2013-04-23T13:30:41Z</time>
      </trkpt>
      <trkpt lat="48.08978" lon="-0.77636">
        <ele>920</ele>
        <time>2013-04-23T13:30:44Z</time>
      </trkpt>
      <trkpt lat="48.08985" lon="-0.77615">
        <ele>921</ele>
        <time>2013-04-23T13:30:47Z</time>
      </trkpt>
      <trkpt lat="48.08992" lon="-0.77592">
        <ele>923</ele>
        <time>2013-04-23T13:30:50Z</time>
      </trkpt>
      <trkpt lat="48.08999" lon="-0.77568">
        <ele>924</ele>
        <time>2013-04-23T13:30:53Z</time>
      </trkpt>
      <trkpt lat="48.08999" lon="-0.77554">
        <ele>926</ele>
        <time>2013-04-23T13:30:57Z</time>
      </trkpt>
      <trkpt lat="48.08996" lon="-0.77551">
        <ele>928</ele>
        <time>2013-04-23T13:30:59Z</time>
      </trkpt>
      <trkpt lat="48.08991" lon="-0.77559">
        <ele>929</ele>
        <time>2013-04-23T13:31:02Z</time>
      </trkpt>
      <trkpt lat="48.08984" lon="-0.77573">
        <ele>931</ele>
        <time>2013-04-23T13:31:05Z</time>
      </trkpt>
      <trkpt lat="48.08979" lon="-0.77586">
        <ele>932</ele>
        <time>2013-04-23T13:31:08Z</time>
      </trkpt>
      <trkpt lat="48.08973" lon="-0.77597">
        <ele>934</ele>
        <time>2013-04-23T13:31:11Z</time>
      </trkpt>
      <trkpt lat="48.08967" lon="-0.77606">
        <ele>935</ele>
        <time>2013-04-23T13:31:14Z</time>
      </trkpt>
      <trkpt lat="48.08975" lon="-0.77613">
        <ele>937</ele>
        <time>2013-04-23T13:31:17Z</time>
      </trkpt>
      <trkpt lat="48.08979" lon="-0.77624">
        <ele>938</ele>
        <time>2013-04-23T13:31:20Z</time>
      </trkpt>
      <trkpt lat="48.08985" lon="-0.77635">
        <ele>940</ele>
        <time>2013-04-23T13:31:23Z</time>
      </trkpt>
      <trkpt lat="48.08985" lon="-0.77654">
        <ele>941</ele>
        <time>2013-04-23T13:31:26Z</time>
      </trkpt>
      <trkpt lat="48.0898" lon="-0.77671">
        <ele>942</ele>
        <time>2013-04-23T13:31:29Z</time>
      </trkpt>
      <trkpt lat="48.08982" lon="-0.77683">
        <ele>944</ele>
        <time>2013-04-23T13:31:32Z</time>
      </trkpt>
      <trkpt lat="48.08991" lon="-0.77693">
        <ele>946</ele>
        <time>2013-04-23T13:31:35Z</time>
      </trkpt>
      <trkpt lat="48.09" lon="-0.777">
        <ele>947</ele>
        <time>2013-04-23T13:31:38Z</time>
      </trkpt>
      <trkpt lat="48.09007" lon="-0.7771">
        <ele>949</ele>
        <time>2013-04-23T13:31:41Z</time>
      </trkpt>
      <trkpt lat="48.09014" lon="-0.77722">
        <ele>950</ele>
        <time>2013-04-23T13:31:44Z</time>
      </trkpt>
      <trkpt lat="48.09025" lon="-0.77736">
        <ele>952</ele>
        <time>2013-04-23T13:31:47Z</time>
      </trkpt>
      <trkpt lat="48.09037" lon="-0.77748">
        <ele>953</ele>
        <time>2013-04-23T13:31:50Z</time>
      </trkpt>
      <trkpt lat="48.09051" lon="-0.77758">
        <ele>955</ele>
        <time>2013-04-23T13:31:52Z</time>
      </trkpt>
      <trkpt lat="48.09065" lon="-0.7777">
        <ele>956</ele>
        <time>2013-04-23T13:31:55Z</time>
      </trkpt>
      <trkpt lat="48.09078" lon="-0.77783">
        <ele>958</ele>
        <time>2013-04-23T13:31:58Z</time>
      </trkpt>
      <trkpt lat="48.0909" lon="-0.77798">
        <ele>959</ele>
        <time>2013-04-23T13:32:01Z</time>
      </trkpt>
      <trkpt lat="48.091" lon="-0.77812">
        <ele>960</ele>
        <time>2013-04-23T13:32:04Z</time>
      </trkpt>
      <trkpt lat="48.09118" lon="-0.77828">
        <ele>962</ele>
        <time>2013-04-23T13:32:07Z</time>
      </trkpt>
      <trkpt lat="48.09126" lon="-0.77848">
        <ele>963</ele>
        <time>2013-04-23T13:32:10Z</time>
      </trkpt>
      <trkpt lat="48.09133" lon="-0.77861">
        <ele>964</ele>
        <time>2013-04-23T13:32:13Z</time>
      </trkpt>
      <trkpt lat="48.09145" lon="-0.7788">
        <ele>966</ele>
        <time>2013-04-23T13:32:16Z</time>
      </trkpt>
      <trkpt lat="48.09156" lon="-0.77901">
        <ele>967</ele>
        <time>2013-04-23T13:32:19Z</time>
      </trkpt>
      <trkpt lat="48.09166" lon="-0.77923">
        <ele>969</ele>
        <time>2013-04-23T13:32:22Z</time>
      </trkpt>
      <trkpt lat="48.09175" lon="-0.77941">
        <ele>970</ele>
        <time>2013-04-23T13:32:25Z</time>
      </trkpt>
      <trkpt lat="48.09183" lon="-0.77962">
        <ele>972</ele>
        <time>2013-04-23T13:32:28Z</time>
      </trkpt>
      <trkpt lat="48.09193" lon="-0.77984">
        <ele>973</ele>
        <time>2013-04-23T13:32:31Z</time>
      </trkpt>
      <trkpt lat="48.09203" lon="-0.77999">
        <ele>975</ele>
        <time>2013-04-23T13:32:34Z</time>
      </trkpt>
      <trkpt lat="48.09208" lon="-0.78009">
        <ele>976</ele>
        <time>2013-04-23T13:32:37Z</time>
      </trkpt>
      <trkpt lat="48.09219" lon="-0.78025">
        <ele>978</ele>
        <time>2013-04-23T13:32:40Z</time>
      </trkpt>
      <trkpt lat="48.09239" lon="-0.78041">
        <ele>980</ele>
        <time>2013-04-23T13:32:43Z</time>
      </trkpt>
      <trkpt lat="48.09252" lon="-0.78056">
        <ele>981</ele>
        <time>2013-04-23T13:32:46Z</time>
      </trkpt>
      <trkpt lat="48.09267" lon="-0.78072">
        <ele>983</ele>
        <time>2013-04-23T13:32:48Z</time>
      </trkpt>
      <trkpt lat="48.09275" lon="-0.7809">
        <ele>984</ele>
        <time>2013-04-23T13:32:51Z</time>
      </trkpt>
      <trkpt lat="48.0929" lon="-0.7811">
        <ele>986</ele>
        <time>2013-04-23T13:32:54Z</time>
      </trkpt>
      <trkpt lat="48.093" lon="-0.78131">
        <ele>987</ele>
        <time>2013-04-23T13:32:57Z</time>
      </trkpt>
      <trkpt lat="48.09306" lon="-0.78151">
        <ele>989</ele>
        <time>2013-04-23T13:33:00Z</time>
      </trkpt>
      <trkpt lat="48.09315" lon="-0.78175">
        <ele>990</ele>
        <time>2013-04-23T13:33:03Z</time>
      </trkpt>
      <trkpt lat="48.09319" lon="-0.78196">
        <ele>992</ele>
        <time>2013-04-23T13:33:06Z</time>
      </trkpt>
      <trkpt lat="48.09326" lon="-0.78218">
        <ele>993</ele>
        <time>2013-04-23T13:33:09Z</time>
      </trkpt>
      <trkpt lat="48.09335" lon="-0.78239">
        <ele>995</ele>
        <time>2013-04-23T13:33:12Z</time>
      </trkpt>
      <trkpt lat="48.09341" lon="-0.78259">
        <ele>996</ele>
        <time>2013-04-23T13:33:15Z</time>
      </trkpt>
      <trkpt lat="48.09347" lon="-0.78282">
        <ele>998</ele>
        <time>2013-04-23T13:33:18Z</time>
      </trkpt>
      <trkpt lat="48.09353" lon="-0.78307">
        <ele>999</ele>
        <time>2013-04-23T13:33:21Z</time>
      </trkpt>
      <trkpt lat="48.09357" lon="-0.78331">
        <ele>1001</ele>
        <time>2013-04-23T13:33:24Z</time>
      </trkpt>
      <trkpt lat="48.09366" lon="-0.78358">
        <ele>1002</ele>
        <time>2013-04-23T13:33:27Z</time>
      </trkpt>
      <trkpt lat="48.09371" lon="-0.78383">
        <ele>1004</ele>
        <time>2013-04-23T13:33:30Z</time>
      </trkpt>
      <trkpt lat="48.09375" lon="-0.78407">
        <ele>1005</ele>
        <time>2013-04-23T13:33:33Z</time>
      </trkpt>
      <trkpt lat="48.09378" lon="-0.78429">
        <ele>1007</ele>
        <time>2013-04-23T13:33:36Z</time>
      </trkpt>
      <trkpt lat="48.09386" lon="-0.78454">
        <ele>1008</ele>
        <time>2013-04-23T13:33:38Z</time>
      </trkpt>
      <trkpt lat="48.09396" lon="-0.78476">
        <ele>1010</ele>
        <time>2013-04-23T13:33:41Z</time>
      </trkpt>
      <trkpt lat="48.09399" lon="-0.78495">
        <ele>1011</ele>
        <time>2013-04-23T13:33:44Z</time>
      </trkpt>
      <trkpt lat="48.09406" lon="-0.78515">
        <ele>1013</ele>
        <time>2013-04-23T13:33:47Z</time>
      </trkpt>
      <trkpt lat="48.09415" lon="-0.78532">
        <ele>1014</ele>
        <time>2013-04-23T13:33:50Z</time>
      </trkpt>
      <trkpt lat="48.0942" lon="-0.78547">
        <ele>1016</ele>
        <time>2013-04-23T13:33:53Z</time>
      </trkpt>
      <trkpt lat="48.09434" lon="-0.78557">
        <ele>1018</ele>
        <time>2013-04-23T13:33:56Z</time>
      </trkpt>
      <trkpt lat="48.09447" lon="-0.78574">
        <ele>1019</ele>
        <time>2013-04-23T13:33:59Z</time>
      </trkpt>
      <trkpt lat="48.09461" lon="-0.78589">
        <ele>1021</ele>
        <time>2013-04-23T13:34:02Z</time>
      </trkpt>
      <trkpt lat="48.0948" lon="-0.78595">
        <ele>1022</ele>
        <time>2013-04-23T13:34:05Z</time>
      </trkpt>
      <trkpt lat="48.09496" lon="-0.78603">
        <ele>1024</ele>
        <time>2013-04-23T13:34:08Z</time>
      </trkpt>
      <trkpt lat="48.0951" lon="-0.7861">
        <ele>1025</ele>
        <time>2013-04-23T13:34:11Z</time>
      </trkpt>
      <trkpt lat="48.09528" lon="-0.7861">
        <ele>1027</ele>
        <time>2013-04-23T13:34:14Z</time>
      </trkpt>
      <trkpt lat="48.09539" lon="-0.78614">
        <ele>1028</ele>
        <time>2013-04-23T13:34:17Z</time>
      </trkpt>
      <trkpt lat="48.09557" lon="-0.78611">
        <ele>1030</ele>
        <time>2013-04-23T13:34:20Z</time>
      </trkpt>
      <trkpt lat="48.09574" lon="-0.78611">
        <ele>1031</ele>
        <time>2013-04-23T13:34:23Z</time>
      </trkpt>
      <trkpt lat="48.09587" lon="-0.78607">
        <ele>1033</ele>
        <time>2013-04-23T13:34:26Z</time>
      </trkpt>
      <trkpt lat="48.09599" lon="-0.78608">
        <ele>1034</ele>
        <time>2013-04-23T13:34:29Z</time>
      </trkpt>
      <trkpt lat="48.09616" lon="-0.78607">
        <ele>1036</ele>
        <time>2013-04-23T13:34:32Z</time>
      </trkpt>
      <trkpt lat="48.09628" lon="-0.78613">
        <ele>1037</ele>
        <time>2013-04-23T13:34:34Z</time>
      </trkpt>
      <trkpt lat="48.09639" lon="-0.78613">
        <ele>1039</ele>
        <time>2013-04-23T13:34:37Z</time>
      </trkpt>
      <trkpt lat="48.09651" lon="-0.78621">
        <ele>1040</ele>
        <time>2013-04-23T13:34:40Z</time>
      </trkpt>
      <trkpt lat="48.09663" lon="-0.78629">
        <ele>1042</ele>
        <time>2013-04-23T13:34:43Z</time>
      </trkpt>
      <trkpt lat="48.09686" lon="-0.7863">
        <ele>1043</ele>
        <time>2013-04-23T13:34:46Z</time>
      </trkpt>
      <trkpt lat="48.09701" lon="-0.78641">
        <ele>1044</ele>
        <time>2013-04-23T13:34:49Z</time>
      </trkpt>
      <trkpt lat="48.09717" lon="-0.78641">
        <ele>1046</ele>
        <time>2013-04-23T13:34:52Z</time>
      </trkpt>
      <trkpt lat="48.09736" lon="-0.78651">
        <ele>1047</ele>
        <time>2013-04-23T13:34:55Z</time>
      </trkpt>
      <trkpt lat="48.09755" lon="-0.78658">
        <ele>1049</ele>
        <time>2013-04-23T13:34:58Z</time>
      </trkpt>
      <trkpt lat="48.09771" lon="-0.78672">
        <ele>1050</ele>
        <time>2013-04-23T13:35:01Z</time>
      </trkpt>
      <trkpt lat="48.09791" lon="-0.78681">
        <ele>1051</ele>
        <time>2013-04-23T13:35:04Z</time>
      </trkpt>
      <trkpt lat="48.09802" lon="-0.78686">
        <ele>1053</ele>
        <time>2013-04-23T13:35:07Z</time>
      </trkpt>
      <trkpt lat="48.09818" lon="-0.78692">
        <ele>1054</ele>
        <time>2013-04-23T13:35:10Z</time>
      </trkpt>
      <trkpt lat="48.09839" lon="-0.787">
        <ele>1056</ele>
        <time>2013-04-23T13:35:13Z</time>
      </trkpt>
      <trkpt lat="48.09858" lon="-0.78697">
        <ele>1057</ele>
        <time>2013-04-23T13:35:16Z</time>
      </trkpt>
      <trkpt lat="48.09873" lon="-0.78695">
        <ele>1058</ele>
        <time>2013-04-23T13:35:19Z</time>
      </trkpt>
      <trkpt lat="48.09884" lon="-0.78694">
        <ele>1060</ele>
        <time>2013-04-23T13:35:21Z</time>
      </trkpt>
      <trkpt lat="48.09902" lon="-0.78691">
        <ele>1061</ele>
        <time>2013-04-23T13:35:25Z</time>
      </trkpt>
      <trkpt lat="48.09917" lon="-0.78686">
        <ele>1063</ele>
        <time>2013-04-23T13:35:27Z</time>
      </trkpt>
      <trkpt lat="48.09933" lon="-0.78684">
        <ele>1064</ele>
        <time>2013-04-23T13:35:30Z</time>
      </trkpt>
      <trkpt lat="48.09948" lon="-0.78677">
        <ele>1065</ele>
        <time>2013-04-23T13:35:33Z</time>
      </trkpt>
      <trkpt lat="48.0996" lon="-0.78669">
        <ele>1067</ele>
        <time>2013-04-23T13:35:36Z</time>
      </trkpt>
      <trkpt lat="48.09973" lon="-0.78659">
        <ele>1068</ele>
        <time>2013-04-23T13:35:39Z</time>
      </trkpt>
      <trkpt lat="48.09989" lon="-0.78655">
        <ele>1070</ele>
        <time>2013-04-23T13:35:42Z</time>
      </trkpt>
      <trkpt lat="48.10005" lon="-0.78649">
        <ele>1071</ele>
        <time>2013-04-23T13:35:45Z</time>
      </trkpt>
      <trkpt lat="48.10021" lon="-0.78641">
        <ele>1072</ele>
        <time>2013-04-23T13:35:48Z</time>
      </trkpt>
      <trkpt lat="48.10035" lon="-0.78634">
        <ele>1074</ele>
        <time>2013-04-23T13:35:51Z</time>
      </trkpt>
      <trkpt lat="48.10048" lon="-0.78626">
        <ele>1075</ele>
        <time>2013-04-23T13:35:54Z</time>
      </trkpt>
      <trkpt lat="48.10059" lon="-0.78618">
        <ele>1077</ele>
        <time>2013-04-23T13:35:57Z</time>
      </trkpt>
      <trkpt lat="48.10069" lon="-0.78612">
        <ele>1078</ele>
        <time>2013-04-23T13:36:00Z</time>
      </trkpt>
      <trkpt lat="48.10079" lon="-0.78604">
        <ele>1079</ele>
        <time>2013-04-23T13:36:03Z</time>
      </trkpt>
      <trkpt lat="48.10087" lon="-0.786">
        <ele>1081</ele>
        <time>2013-04-23T13:36:06Z</time>
      </trkpt>
      <trkpt lat="48.10098" lon="-0.78597">
        <ele>1082</ele>
        <time>2013-04-23T13:36:09Z</time>
      </trkpt>
      <trkpt lat="48.10108" lon="-0.78591">
        <ele>1084</ele>
        <time>2013-04-23T13:36:12Z</time>
      </trkpt>
      <trkpt lat="48.10116" lon="-0.78583">
        <ele>1085</ele>
        <time>2013-04-23T13:36:15Z</time>
      </trkpt>
      <trkpt lat="48.10127" lon="-0.78574">
        <ele>1086</ele>
        <time>2013-04-23T13:36:18Z</time>
      </trkpt>
      <trkpt lat="48.10138" lon="-0.78565">
        <ele>1088</ele>
        <time>2013-04-23T13:36:20Z</time>
      </trkpt>
      <trkpt lat="48.10148" lon="-0.78559">
        <ele>1089</ele>
        <time>2013-04-23T13:36:23Z</time>
      </trkpt>
      <trkpt lat="48.10159" lon="-0.78554">
        <ele>1091</ele>
        <time>2013-04-23T13:36:26Z</time>
      </trkpt>
      <trkpt lat="48.10172" lon="-0.78546">
        <ele>1092</ele>
        <time>2013-04-23T13:36:29Z</time>
      </trkpt>
      <trkpt lat="48.10186" lon="-0.78536">
        <ele>1093</ele>
        <time>2013-04-23T13:36:32Z</time>
      </trkpt>
      <trkpt lat="48.10199" lon="-0.78526">
        <ele>1095</ele>
        <time>2013-04-23T13:36:35Z</time>
      </trkpt>
      <trkpt lat="48.10211" lon="-0.78516">
        <ele>1096</ele>
        <time>2013-04-23T13:36:38Z</time>
      </trkpt>
      <trkpt lat="48.10224" lon="-0.78508">
        <ele>1098</ele>
        <time>2013-04-23T13:36:41Z</time>
      </trkpt>
      <trkpt lat="48.10236" lon="-0.78503">
        <ele>1099</ele>
        <time>2013-04-23T13:36:44Z</time>
      </trkpt>
      <trkpt lat="48.10248" lon="-0.78496">
        <ele>1100</ele>
        <time>2013-04-23T13:36:47Z</time>
      </trkpt>
      <trkpt lat="48.1026" lon="-0.78486">
        <ele>1102</ele>
        <time>2013-04-23T13:36:50Z</time>
      </trkpt>
      <trkpt lat="48.10271" lon="-0.78472">
        <ele>1103</ele>
        <time>2013-04-23T13:36:53Z</time>
      </trkpt>
      <trkpt lat="48.10282" lon="-0.78455">
        <ele>1105</ele>
        <time>2013-04-23T13:36:56Z</time>
      </trkpt>
      <trkpt lat="48.10294" lon="-0.78438">
        <ele>1106</ele>
        <time>2013-04-23T13:36:59Z</time>
      </trkpt>
      <trkpt lat="48.10307" lon="-0.78419">
        <ele>1107</ele>
        <time>2013-04-23T13:37:02Z</time>
      </trkpt>
      <trkpt lat="48.10318" lon="-0.78399">
        <ele>1109</ele>
        <time>2013-04-23T13:37:05Z</time>
      </trkpt>
      <trkpt lat="48.10329" lon="-0.78382">
        <ele>1110</ele>
        <time>2013-04-23T13:37:08Z</time>
      </trkpt>
      <trkpt lat="48.10338" lon="-0.78364">
        <ele>1112</ele>
        <time>2013-04-23T13:37:11Z</time>
      </trkpt>
      <trkpt lat="48.10348" lon="-0.78347">
        <ele>1113</ele>
        <time>2013-04-23T13:37:13Z</time>
      </trkpt>
      <trkpt lat="48.10358" lon="-0.7833">
        <ele>1115</ele>
        <time>2013-04-23T13:37:16Z</time>
      </trkpt>
      <trkpt lat="48.10367" lon="-0.78313">
        <ele>1116</ele>
        <time>2013-04-23T13:37:19Z</time>
      </trkpt>
      <trkpt lat="48.10377" lon="-0.78297">
        <ele>1118</ele>
        <time>2013-04-23T13:37:22Z</time>
      </trkpt>
      <trkpt lat="48.10388" lon="-0.7828">
        <ele>1119</ele>
        <time>2013-04-23T13:37:25Z</time>
      </trkpt>
      <trkpt lat="48.10398" lon="-0.78265">
        <ele>1121</ele>
        <time>2013-04-23T13:37:28Z</time>
      </trkpt>
      <trkpt lat="48.10408" lon="-0.78251">
        <ele>1122</ele>
        <time>2013-04-23T13:37:31Z</time>
      </trkpt>
      <trkpt lat="48.10421" lon="-0.78233">
        <ele>1124</ele>
        <time>2013-04-23T13:37:34Z</time>
      </trkpt>
      <trkpt lat="48.10434" lon="-0.78218">
        <ele>1125</ele>
        <time>2013-04-23T13:37:37Z</time>
      </trkpt>
      <trkpt lat="48.10449" lon="-0.78201">
        <ele>1127</ele>
        <time>2013-04-23T13:37:40Z</time>
      </trkpt>
      <trkpt lat="48.10468" lon="-0.7818">
        <ele>1128</ele>
        <time>2013-04-23T13:37:43Z</time>
      </trkpt>
      <trkpt lat="48.10483" lon="-0.78162">
        <ele>1130</ele>
        <time>2013-04-23T13:37:46Z</time>
      </trkpt>
      <trkpt lat="48.10497" lon="-0.78146">
        <ele>1131</ele>
        <time>2013-04-23T13:37:49Z</time>
      </trkpt>
      <trkpt lat="48.10511" lon="-0.78129">
        <ele>1133</ele>
        <time>2013-04-23T13:37:52Z</time>
      </trkpt>
      <trkpt lat="48.10523" lon="-0.78114">
        <ele>1134</ele>
        <time>2013-04-23T13:38:44Z</time>
      </trkpt>
      <trkpt lat="48.10537" lon="-0.78096">
        <ele>1136</ele>
        <time>2013-04-23T13:38:45Z</time>
      </trkpt>
      <trkpt lat="48.1054" lon="-0.78092">
        <ele>1137</ele>
        <time>2013-04-23T13:38:48Z</time>
      </trkpt>
      <trkpt lat="48.10542" lon="-0.78087">
        <ele>1139</ele>
        <time>2013-04-23T13:38:51Z</time>
      </trkpt>
      <trkpt lat="48.10546" lon="-0.78079">
        <ele>1140</ele>
        <time>2013-04-23T13:38:54Z</time>
      </trkpt>
      <trkpt lat="48.10553" lon="-0.78068">
        <ele>1142</ele>
        <time>2013-04-23T13:38:57Z</time>
      </trkpt>
      <trkpt lat="48.10562" lon="-0.78058">
        <ele>1143</ele>
        <time>2013-04-23T13:39:00Z</time>
      </trkpt>
      <trkpt lat="48.10572" lon="-0.78042">
        <ele>1145</ele>
        <time>2013-04-23T13:39:03Z</time>
      </trkpt>
      <trkpt lat="48.10581" lon="-0.78033">
        <ele>1146</ele>
        <time>2013-04-23T13:39:06Z</time>
      </trkpt>
      <trkpt lat="48.10592" lon="-0.78024">
        <ele>1148</ele>
        <time>2013-04-23T13:39:09Z</time>
      </trkpt>
      <trkpt lat="48.10604" lon="-0.78009">
        <ele>1149</ele>
        <time>2013-04-23T13:39:12Z</time>
      </trkpt>
      <trkpt lat="48.10611" lon="-0.77995">
        <ele>1150</ele>
        <time>2013-04-23T13:39:15Z</time>
      </trkpt>
      <trkpt lat="48.10628" lon="-0.77982">
        <ele>1152</ele>
        <time>2013-04-23T13:39:18Z</time>
      </trkpt>
      <trkpt lat="48.10645" lon="-0.77965">
        <ele>1153</ele>
        <time>2013-04-23T13:39:21Z</time>
      </trkpt>
      <trkpt lat="48.10659" lon="-0.77951">
        <ele>1155</ele>
        <time>2013-04-23T13:39:24Z</time>
      </trkpt>
      <trkpt lat="48.10672" lon="-0.77936">
        <ele>1156</ele>
        <time>2013-04-23T13:39:27Z</time>
      </trkpt>
      <trkpt lat="48.10686" lon="-0.77918">
        <ele>1158</ele>
        <time>2013-04-23T13:39:29Z</time>
      </trkpt>
      <trkpt lat="48.10697" lon="-0.77902">
        <ele>1159</ele>
        <time>2013-04-23T13:39:32Z</time>
      </trkpt>
      <trkpt lat="48.10702" lon="-0.7789">
        <ele>1161</ele>
        <time>2013-04-23T13:39:35Z</time>
      </trkpt>
      <trkpt lat="48.10707" lon="-0.77873">
        <ele>1162</ele>
        <time>2013-04-23T13:39:38Z</time>
      </trkpt>
      <trkpt lat="48.10713" lon="-0.77854">
        <ele>1164</ele>
        <time>2013-04-23T13:39:41Z</time>
      </trkpt>
      <trkpt lat="48.1072" lon="-0.77834">
        <ele>1165</ele>
        <time>2013-04-23T13:39:44Z</time>
      </trkpt>
      <trkpt lat="48.10727" lon="-0.77817">
        <ele>1167</ele>
        <time>2013-04-23T13:39:47Z</time>
      </trkpt>
      <trkpt lat="48.10732" lon="-0.77799">
        <ele>1168</ele>
        <time>2013-04-23T13:39:50Z</time>
      </trkpt>
      <trkpt lat="48.10738" lon="-0.77783">
        <ele>1170</ele>
        <time>2013-04-23T13:39:53Z</time>
      </trkpt>
      <trkpt lat="48.10749" lon="-0.7776">
        <ele>1171</ele>
        <time>2013-04-23T13:39:56Z</time>
      </trkpt>
      <trkpt lat="48.10757" lon="-0.77743">
        <ele>1173</ele>
        <time>2013-04-23T13:39:59Z</time>
      </trkpt>
      <trkpt lat="48.10765" lon="-0.77726">
        <ele>1174</ele>
        <time>2013-04-23T13:40:02Z</time>
      </trkpt>
      <trkpt lat="48.10775" lon="-0.77707">
        <ele>1176</ele>
        <time>2013-04-23T13:40:05Z</time>
      </trkpt>
      <trkpt lat="48.10782" lon="-0.77688">
        <ele>1177</ele>
        <time>2013-04-23T13:40:08Z</time>
      </trkpt>
      <trkpt lat="48.10789" lon="-0.7767">
        <ele>1178</ele>
        <time>2013-04-23T13:40:11Z</time>
      </trkpt>
      <trkpt lat="48.108" lon="-0.77649">
        <ele>1180</ele>
        <time>2013-04-23T13:40:14Z</time>
      </trkpt>
      <trkpt lat="48.10805" lon="-0.77624">
        <ele>1181</ele>
        <time>2013-04-23T13:40:16Z</time>
      </trkpt>
      <trkpt lat="48.10807" lon="-0.77602">
        <ele>1183</ele>
        <time>2013-04-23T13:40:19Z</time>
      </trkpt>
      <trkpt lat="48.10812" lon="-0.77581">
        <ele>1184</ele>
        <time>2013-04-23T13:40:22Z</time>
      </trkpt>
      <trkpt lat="48.10811" lon="-0.77558">
        <ele>1186</ele>
        <time>2013-04-23T13:40:25Z</time>
      </trkpt>
      <trkpt lat="48.10819" lon="-0.77528">
        <ele>1187</ele>
        <time>2013-04-23T13:40:28Z</time>
      </trkpt>
      <trkpt lat="48.10825" lon="-0.77499">
        <ele>1189</ele>
        <time>2013-04-23T13:40:31Z</time>
      </trkpt>
      <trkpt lat="48.10834" lon="-0.77468">
        <ele>1190</ele>
        <time>2013-04-23T13:40:34Z</time>
      </trkpt>
      <trkpt lat="48.10833" lon="-0.77435">
        <ele>1192</ele>
        <time>2013-04-23T13:40:37Z</time>
      </trkpt>
      <trkpt lat="48.10834" lon="-0.77414">
        <ele>1193</ele>
        <time>2013-04-23T13:40:40Z</time>
      </trkpt>
      <trkpt lat="48.10839" lon="-0.77394">
        <ele>1195</ele>
        <time>2013-04-23T13:40:43Z</time>
      </trkpt>
      <trkpt lat="48.1085" lon="-0.77378">
        <ele>1196</ele>
        <time>2013-04-23T13:40:46Z</time>
      </trkpt>
      <trkpt lat="48.1086" lon="-0.7736">
        <ele>1198</ele>
        <time>2013-04-23T13:40:49Z</time>
      </trkpt>
      <trkpt lat="48.10874" lon="-0.77341">
        <ele>1199</ele>
        <time>2013-04-23T13:40:52Z</time>
      </trkpt>
      <trkpt lat="48.1089" lon="-0.77326">
        <ele>1201</ele>
        <time>2013-04-23T13:40:55Z</time>
      </trkpt>
      <trkpt lat="48.10909" lon="-0.77311">
        <ele>1202</ele>
        <time>2013-04-23T13:40:58Z</time>
      </trkpt>
      <trkpt lat="48.10929" lon="-0.77301">
        <ele>1203</ele>
        <time>2013-04-23T13:41:01Z</time>
      </trkpt>
      <trkpt lat="48.10949" lon="-0.77293">
        <ele>1205</ele>
        <time>2013-04-23T13:41:04Z</time>
      </trkpt>
      <trkpt lat="48.10968" lon="-0.77285">
        <ele>1206</ele>
        <time>2013-04-23T13:41:07Z</time>
      </trkpt>
      <trkpt lat="48.10987" lon="-0.77279">
        <ele>1208</ele>
        <time>2013-04-23T13:41:10Z</time>
      </trkpt>
      <trkpt lat="48.11006" lon="-0.77275">
        <ele>1209</ele>
        <time>2013-04-23T13:41:13Z</time>
      </trkpt>
      <trkpt lat="48.11025" lon="-0.77273">
        <ele>1210</ele>
        <time>2013-04-23T13:41:15Z</time>
      </trkpt>
      <trkpt lat="48.11043" lon="-0.77268">
        <ele>1212</ele>
        <time>2013-04-23T13:41:18Z</time>
      </trkpt>
      <trkpt lat="48.11058" lon="-0.77261">
        <ele>1213</ele>
        <time>2013-04-23T13:41:21Z</time>
      </trkpt>
      <trkpt lat="48.11072" lon="-0.77253">
        <ele>1215</ele>
        <time>2013-04-23T13:41:24Z</time>
      </trkpt>
      <trkpt lat="48.11088" lon="-0.77245">
        <ele>1216</ele>
        <time>2013-04-23T13:41:27Z</time>
      </trkpt>
      <trkpt lat="48.11102" lon="-0.77237">
        <ele>1217</ele>
        <time>2013-04-23T13:41:30Z</time>
      </trkpt>
      <trkpt lat="48.11119" lon="-0.77228">
        <ele>1219</ele>
        <time>2013-04-23T13:41:33Z</time>
      </trkpt>
      <trkpt lat="48.11135" lon="-0.77219">
        <ele>1220</ele>
        <time>2013-04-23T13:41:36Z</time>
      </trkpt>
      <trkpt lat="48.11151" lon="-0.7721">
        <ele>1222</ele>
        <time>2013-04-23T13:41:39Z</time>
      </trkpt>
      <trkpt lat="48.11168" lon="-0.77198">
        <ele>1223</ele>
        <time>2013-04-23T13:41:42Z</time>
      </trkpt>
      <trkpt lat="48.11181" lon="-0.77192">
        <ele>1224</ele>
        <time>2013-04-23T13:41:45Z</time>
      </trkpt>
      <trkpt lat="48.11191" lon="-0.77184">
        <ele>1226</ele>
        <time>2013-04-23T13:41:48Z</time>
      </trkpt>
      <trkpt lat="48.11208" lon="-0.77174">
        <ele>1227</ele>
        <time>2013-04-23T13:41:51Z</time>
      </trkpt>
      <trkpt lat="48.11226" lon="-0.77162">
        <ele>1229</ele>
        <time>2013-04-23T13:41:54Z</time>
      </trkpt>
      <trkpt lat="48.11243" lon="-0.77156">
        <ele>1230</ele>
        <time>2013-04-23T13:41:57Z</time>
      </trkpt>
      <trkpt lat="48.11261" lon="-0.77147">
        <ele>1232</ele>
        <time>2013-04-23T13:42:00Z</time>
      </trkpt>
      <trkpt lat="48.1128" lon="-0.77139">
        <ele>1233</ele>
        <time>2013-04-23T13:42:02Z</time>
      </trkpt>
      <trkpt lat="48.11297" lon="-0.77133">
        <ele>1235</ele>
        <time>2013-04-23T13:42:06Z</time>
      </trkpt>
      <trkpt lat="48.11313" lon="-0.77123">
        <ele>1236</ele>
        <time>2013-04-23T13:42:08Z</time>
      </trkpt>
      <trkpt lat="48.11331" lon="-0.77115">
        <ele>1238</ele>
        <time>2013-04-23T13:42:11Z</time>
      </trkpt>
      <trkpt lat="48.11346" lon="-0.77108">
        <ele>1239</ele>
        <time>2013-04-23T13:42:14Z</time>
      </trkpt>
      <trkpt lat="48.11362" lon="-0.77104">
        <ele>1241</ele>
        <time>2013-04-23T13:42:17Z</time>
      </trkpt>
      <trkpt lat="48.1138" lon="-0.77099">
        <ele>1242</ele>
        <time>2013-04-23T13:42:20Z</time>
      </trkpt>
      <trkpt lat="48.11402" lon="-0.77088">
        <ele>1244</ele>
        <time>2013-04-23T13:42:23Z</time>
      </trkpt>
      <trkpt lat="48.11418" lon="-0.77088">
        <ele>1245</ele>
        <time>2013-04-23T13:42:26Z</time>
      </trkpt>
      <trkpt lat="48.11435" lon="-0.77087">
        <ele>1246</ele>
        <time>2013-04-23T13:42:29Z</time>
      </trkpt>
      <trkpt lat="48.1145" lon="-0.7708">
        <ele>1248</ele>
        <time>2013-04-23T13:42:32Z</time>
      </trkpt>
      <trkpt lat="48.11467" lon="-0.77069">
        <ele>1249</ele>
        <time>2013-04-23T13:42:35Z</time>
      </trkpt>
      <trkpt lat="48.11485" lon="-0.77061">
        <ele>1251</ele>
        <time>2013-04-23T13:42:38Z</time>
      </trkpt>
      <trkpt lat="48.11501" lon="-0.77054">
        <ele>1252</ele>
        <time>2013-04-23T13:42:41Z</time>
      </trkpt>
      <trkpt lat="48.11519" lon="-0.77042">
        <ele>1254</ele>
        <time>2013-04-23T13:42:44Z</time>
      </trkpt>
      <trkpt lat="48.11534" lon="-0.77036">
        <ele>1255</ele>
        <time>2013-04-23T13:42:47Z</time>
      </trkpt>
      <trkpt lat="48.11549" lon="-0.77029">
        <ele>1257</ele>
        <time>2013-04-23T13:42:50Z</time>
      </trkpt>
      <trkpt lat="48.11562" lon="-0.77018">
        <ele>1258</ele>
        <time>2013-04-23T13:42:53Z</time>
      </trkpt>
      <trkpt lat="48.1158" lon="-0.77009">
        <ele>1260</ele>
        <time>2013-04-23T13:42:56Z</time>
      </trkpt>
      <trkpt lat="48.116" lon="-0.76997">
        <ele>1261</ele>
        <time>2013-04-23T13:42:58Z</time>
      </trkpt>
      <trkpt lat="48.1162" lon="-0.76987">
        <ele>1263</ele>
        <time>2013-04-23T13:43:01Z</time>
      </trkpt>
      <trkpt lat="48.11637" lon="-0.76973">
        <ele>1264</ele>
        <time>2013-04-23T13:43:04Z</time>
      </trkpt>
      <trkpt lat="48.11649" lon="-0.76956">
        <ele>1266</ele>
        <time>2013-04-23T13:43:07Z</time>
      </trkpt>
      <trkpt lat="48.11665" lon="-0.76939">
        <ele>1267</ele>
        <time>2013-04-23T13:43:10Z</time>
      </trkpt>
      <trkpt lat="48.11679" lon="-0.76923">
        <ele>1269</ele>
        <time>2013-04-23T13:43:13Z</time>
      </trkpt>
      <trkpt lat="48.11689" lon="-0.7691">
        <ele>1270</ele>
        <time>2013-04-23T13:43:16Z</time>
      </trkpt>
      <trkpt lat="48.11705" lon="-0.76894">
        <ele>1272</ele>
        <time>2013-04-23T13:43:19Z</time>
      </trkpt>
      <trkpt lat="48.11716" lon="-0.76881">
        <ele>1273</ele>
        <time>2013-04-23T13:43:22Z</time>
      </trkpt>
      <trkpt lat="48.11727" lon="-0.76867">
        <ele>1275</ele>
        <time>2013-04-23T13:43:25Z</time>
      </trkpt>
      <trkpt lat="48.11741" lon="-0.76852">
        <ele>1276</ele>
        <time>2013-04-23T13:43:28Z</time>
      </trkpt>
      <trkpt lat="48.11758" lon="-0.76831">
        <ele>1278</ele>
        <time>2013-04-23T13:43:31Z</time>
      </trkpt>
      <trkpt lat="48.1177" lon="-0.76811">
        <ele>1279</ele>
        <time>2013-04-23T13:43:34Z</time>
      </trkpt>
      <trkpt lat="48.11788" lon="-0.76791">
        <ele>1281</ele>
        <time>2013-04-23T13:43:37Z</time>
      </trkpt>
      <trkpt lat="48.11803" lon="-0.7677">
        <ele>1282</ele>
        <time>2013-04-23T13:43:40Z</time>
      </trkpt>
      <trkpt lat="48.11815" lon="-0.7675">
        <ele>1284</ele>
        <time>2013-04-23T13:43:43Z</time>
      </trkpt>
      <trkpt lat="48.11827" lon="-0.76726">
        <ele>1285</ele>
        <time>2013-04-23T13:43:46Z</time>
      </trkpt>
      <trkpt lat="48.11837" lon="-0.76703">
        <ele>1287</ele>
        <time>2013-04-23T13:43:48Z</time>
      </trkpt>
      <trkpt lat="48.11842" lon="-0.76677">
        <ele>1288</ele>
        <time>2013-04-23T13:43:51Z</time>
      </trkpt>
      <trkpt lat="48.11843" lon="-0.76653">
        <ele>1290</ele>
        <time>2013-04-23T13:43:54Z</time>
      </trkpt>
      <trkpt lat="48.11851" lon="-0.76631">
        <ele>1291</ele>
        <time>2013-04-23T13:43:57Z</time>
      </trkpt>
      <trkpt lat="48.11856" lon="-0.76609">
        <ele>1293</ele>
        <time>2013-04-23T13:44:00Z</time>
      </trkpt>
      <trkpt lat="48.11863" lon="-0.76588">
        <ele>1294</ele>
        <time>2013-04-23T13:44:03Z</time>
      </trkpt>
      <trkpt lat="48.11868" lon="-0.76567">
        <ele>1296</ele>
        <time>2013-04-23T13:44:06Z</time>
      </trkpt>
      <trkpt lat="48.11876" lon="-0.76549">
        <ele>1298</ele>
        <time>2013-04-23T13:44:09Z</time>
      </trkpt>
      <trkpt lat="48.1188" lon="-0.76535">
        <ele>1299</ele>
        <time>2013-04-23T13:44:12Z</time>
      </trkpt>
      <trkpt lat="48.11885" lon="-0.76519">
        <ele>1301</ele>
        <time>2013-04-23T13:44:15Z</time>
      </trkpt>
      <trkpt lat="48.11885" lon="-0.76502">
        <ele>1302</ele>
        <time>2013-04-23T13:44:18Z</time>
      </trkpt>
      <trkpt lat="48.11886" lon="-0.76488">
        <ele>1304</ele>
        <time>2013-04-23T13:44:21Z</time>
      </trkpt>
      <trkpt lat="48.11886" lon="-0.76479">
        <ele>1306</ele>
        <time>2013-04-23T13:44:24Z</time>
      </trkpt>
      <trkpt lat="48.11888" lon="-0.76462">
        <ele>1307</ele>
        <time>2013-04-23T13:44:27Z</time>
      </trkpt>
      <trkpt lat="48.11898" lon="-0.76442">
        <ele>1309</ele>
        <time>2013-04-23T13:44:30Z</time>
      </trkpt>
      <trkpt lat="48.11907" lon="-0.76429">
        <ele>1310</ele>
        <time>2013-04-23T13:44:33Z</time>
      </trkpt>
      <trkpt lat="48.11917" lon="-0.76416">
        <ele>1312</ele>
        <time>2013-04-23T13:44:36Z</time>
      </trkpt>
      <trkpt lat="48.11923" lon="-0.7641">
        <ele>1313</ele>
        <time>2013-04-23T13:44:39Z</time>
      </trkpt>
      <trkpt lat="48.11931" lon="-0.76399">
        <ele>1315</ele>
        <time>2013-04-23T13:45:32Z</time>
      </trkpt>
      <trkpt lat="48.11933" lon="-0.7638">
        <ele>1316</ele>
        <time>2013-04-23T13:45:33Z</time>
      </trkpt>
      <trkpt lat="48.11936" lon="-0.76379">
        <ele>1318</ele>
        <time>2013-04-23T13:45:36Z</time>
      </trkpt>
      <trkpt lat="48.1194" lon="-0.7638">
        <ele>1319</ele>
        <time>2013-04-23T13:45:39Z</time>
      </trkpt>
      <trkpt lat="48.11946" lon="-0.76371">
        <ele>1321</ele>
        <time>2013-04-23T13:45:42Z</time>
      </trkpt>
      <trkpt lat="48.11956" lon="-0.76358">
        <ele>1322</ele>
        <time>2013-04-23T13:45:45Z</time>
      </trkpt>
      <trkpt lat="48.11964" lon="-0.7635">
        <ele>1323</ele>
        <time>2013-04-23T13:45:48Z</time>
      </trkpt>
      <trkpt lat="48.11974" lon="-0.76336">
        <ele>1325</ele>
        <time>2013-04-23T13:45:51Z</time>
      </trkpt>
      <trkpt lat="48.11983" lon="-0.76321">
        <ele>1326</ele>
        <time>2013-04-23T13:45:54Z</time>
      </trkpt>
      <trkpt lat="48.11989" lon="-0.76305">
        <ele>1328</ele>
        <time>2013-04-23T13:45:57Z</time>
      </trkpt>
      <trkpt lat="48.11997" lon="-0.76286">
        <ele>1329</ele>
        <time>2013-04-23T13:46:00Z</time>
      </trkpt>
      <trkpt lat="48.12002" lon="-0.76272">
        <ele>1331</ele>
        <time>2013-04-23T13:46:03Z</time>
      </trkpt>
      <trkpt lat="48.12007" lon="-0.76257">
        <ele>1332</ele>
        <time>2013-04-23T13:46:05Z</time>
      </trkpt>
      <trkpt lat="48.12009" lon="-0.76238">
        <ele>1334</ele>
        <time>2013-04-23T13:46:08Z</time>
      </trkpt>
      <trkpt lat="48.1202" lon="-0.76221">
        <ele>1335</ele>
        <time>2013-04-23T13:46:11Z</time>
      </trkpt>
      <trkpt lat="48.12026" lon="-0.76197">
        <ele>1337</ele>
        <time>2013-04-23T13:46:14Z</time>
      </trkpt>
      <trkpt lat="48.12036" lon="-0.76176">
        <ele>1338</ele>
        <time>2013-04-23T13:46:17Z</time>
      </trkpt>
      <trkpt lat="48.12045" lon="-0.76157">
        <ele>1340</ele>
        <time>2013-04-23T13:46:20Z</time>
      </trkpt>
      <trkpt lat="48.12054" lon="-0.76133">
        <ele>1341</ele>
        <time>2013-04-23T13:46:23Z</time>
      </trkpt>
      <trkpt lat="48.12056" lon="-0.76107">
        <ele>1343</ele>
        <time>2013-04-23T13:46:26Z</time>
      </trkpt>
      <trkpt lat="48.12068" lon="-0.76085">
        <ele>1345</ele>
        <time>2013-04-23T13:46:29Z</time>
      </trkpt>
      <trkpt lat="48.12078" lon="-0.76064">
        <ele>1346</ele>
        <time>2013-04-23T13:46:32Z</time>
      </trkpt>
      <trkpt lat="48.12084" lon="-0.76047">
        <ele>1348</ele>
        <time>2013-04-23T13:46:35Z</time>
      </trkpt>
      <trkpt lat="48.12096" lon="-0.76028">
        <ele>1349</ele>
        <time>2013-04-23T13:46:38Z</time>
      </trkpt>
      <trkpt lat="48.12097" lon="-0.76008">
        <ele>1351</ele>
        <time>2013-04-23T13:46:41Z</time>
      </trkpt>
      <trkpt lat="48.12104" lon="-0.75985">
        <ele>1352</ele>
        <time>2013-04-23T13:46:44Z</time>
      </trkpt>
      <trkpt lat="48.12111" lon="-0.75965">
        <ele>1354</ele>
        <time>2013-04-23T13:46:47Z</time>
      </trkpt>
      <trkpt lat="48.12119" lon="-0.75946">
        <ele>1355</ele>
        <time>2013-04-23T13:46:50Z</time>
      </trkpt>
      <trkpt lat="48.12123" lon="-0.75924">
        <ele>1357</ele>
        <time>2013-04-23T13:46:53Z</time>
      </trkpt>
      <trkpt lat="48.1213" lon="-0.75903">
        <ele>1358</ele>
        <time>2013-04-23T13:46:56Z</time>
      </trkpt>
      <trkpt lat="48.12136" lon="-0.75878">
        <ele>1360</ele>
        <time>2013-04-23T13:46:58Z</time>
      </trkpt>
      <trkpt lat="48.12138" lon="-0.7586">
        <ele>1361</ele>
        <time>2013-04-23T13:47:01Z</time>
      </trkpt>
      <trkpt lat="48.12141" lon="-0.75841">
        <ele>1363</ele>
        <time>2013-04-23T13:47:04Z</time>
      </trkpt>
      <trkpt lat="48.12146" lon="-0.75821">
        <ele>1364</ele>
        <time>2013-04-23T13:47:07Z</time>
      </trkpt>
      <trkpt lat="48.12149" lon="-0.75798">
        <ele>1366</ele>
        <time>2013-04-23T13:47:10Z</time>
      </trkpt>
      <trkpt lat="48.12148" lon="-0.75778">
        <ele>1367</ele>
        <time>2013-04-23T13:47:13Z</time>
      </trkpt>
      <trkpt lat="48.12153" lon="-0.75755">
        <ele>1369</ele>
        <time>2013-04-23T13:47:16Z</time>
      </trkpt>
      <trkpt lat="48.12157" lon="-0.75733">
        <ele>1371</ele>
        <time>2013-04-23T13:47:19Z</time>
      </trkpt>
      <trkpt lat="48.1217" lon="-0.75714">
        <ele>1372</ele>
        <time>2013-04-23T13:47:22Z</time>
      </trkpt>
      <trkpt lat="48.12175" lon="-0.75692">
        <ele>1374</ele>
        <time>2013-04-23T13:47:25Z</time>
      </trkpt>
      <trkpt lat="48.12178" lon="-0.75669">
        <ele>1376</ele>
        <time>2013-04-23T13:47:28Z</time>
      </trkpt>
      <trkpt lat="48.1218" lon="-0.75646">
        <ele>1377</ele>
        <time>2013-04-23T13:47:31Z</time>
      </trkpt>
      <trkpt lat="48.12182" lon="-0.75621">
        <ele>1379</ele>
        <time>2013-04-23T13:47:34Z</time>
      </trkpt>
      <trkpt lat="48.12187" lon="-0.75603">
        <ele>1380</ele>
        <time>2013-04-23T13:47:37Z</time>
      </trkpt>
      <trkpt lat="48.12186" lon="-0.75574">
        <ele>1382</ele>
        <time>2013-04-23T13:47:40Z</time>
      </trkpt>
      <trkpt lat="48.12189" lon="-0.75548">
        <ele>1383</ele>
        <time>2013-04-23T13:47:43Z</time>
      </trkpt>
      <trkpt lat="48.12192" lon="-0.75525">
        <ele>1384</ele>
        <time>2013-04-23T13:47:46Z</time>
      </trkpt>
      <trkpt lat="48.12193" lon="-0.755">
        <ele>1386</ele>
        <time>2013-04-23T13:47:49Z</time>
      </trkpt>
      <trkpt lat="48.12197" lon="-0.75475">
        <ele>1387</ele>
        <time>2013-04-23T13:47:51Z</time>
      </trkpt>
      <trkpt lat="48.122" lon="-0.75454">
        <ele>1389</ele>
        <time>2013-04-23T13:47:54Z</time>
      </trkpt>
      <trkpt lat="48.12206" lon="-0.75433">
        <ele>1390</ele>
        <time>2013-04-23T13:47:57Z</time>
      </trkpt>
      <trkpt lat="48.12213" lon="-0.75408">
        <ele>1392</ele>
        <time>2013-04-23T13:48:00Z</time>
      </trkpt>
      <trkpt lat="48.12226" lon="-0.75389">
        <ele>1393</ele>
        <time>2013-04-23T13:48:03Z</time>
      </trkpt>
      <trkpt lat="48.12229" lon="-0.75365">
        <ele>1395</ele>
        <time>2013-04-23T13:48:06Z</time>
      </trkpt>
      <trkpt lat="48.12233" lon="-0.75344">
        <ele>1396</ele>
        <time>2013-04-23T13:48:09Z</time>
      </trkpt>
      <trkpt lat="48.12237" lon="-0.75332">
        <ele>1398</ele>
        <time>2013-04-23T13:48:12Z</time>
      </trkpt>
      <trkpt lat="48.12241" lon="-0.7532">
        <ele>1399</ele>
        <time>2013-04-23T13:48:15Z</time>
      </trkpt>
      <trkpt lat="48.12249" lon="-0.75306">
        <ele>1401</ele>
        <time>2013-04-23T13:48:18Z</time>
      </trkpt>
      <trkpt lat="48.12254" lon="-0.75286">
        <ele>1402</ele>
        <time>2013-04-23T13:48:21Z</time>
      </trkpt>
      <trkpt lat="48.12257" lon="-0.75264">
        <ele>1404</ele>
        <time>2013-04-23T13:48:24Z</time>
      </trkpt>
      <trkpt lat="48.12263" lon="-0.75247">
        <ele>1406</ele>
        <time>2013-04-23T13:48:27Z</time>
      </trkpt>
      <trkpt lat="48.1227" lon="-0.75225">
        <ele>1407</ele>
        <time>2013-04-23T13:48:30Z</time>
      </trkpt>
      <trkpt lat="48.1228" lon="-0.75208">
        <ele>1409</ele>
        <time>2013-04-23T13:48:33Z</time>
      </trkpt>
      <trkpt lat="48.12279" lon="-0.75187">
        <ele>1410</ele>
        <time>2013-04-23T13:48:36Z</time>
      </trkpt>
      <trkpt lat="48.12284" lon="-0.75166">
        <ele>1412</ele>
        <time>2013-04-23T13:48:39Z</time>
      </trkpt>
      <trkpt lat="48.1229" lon="-0.75152">
        <ele>1414</ele>
        <time>2013-04-23T13:48:42Z</time>
      </trkpt>
      <trkpt lat="48.12301" lon="-0.75136">
        <ele>1415</ele>
        <time>2013-04-23T13:48:45Z</time>
      </trkpt>
      <trkpt lat="48.12306" lon="-0.75111">
        <ele>1417</ele>
        <time>2013-04-23T13:48:47Z</time>
      </trkpt>
      <trkpt lat="48.12315" lon="-0.75085">
        <ele>1419</ele>
        <time>2013-04-23T13:48:50Z</time>
      </trkpt>
      <trkpt lat="48.12324" lon="-0.7506">
        <ele>1420</ele>
        <time>2013-04-23T13:48:53Z</time>
      </trkpt>
      <trkpt lat="48.12323" lon="-0.75039">
        <ele>1422</ele>
        <time>2013-04-23T13:48:56Z</time>
      </trkpt>
      <trkpt lat="48.12331" lon="-0.75024">
        <ele>1423</ele>
        <time>2013-04-23T13:48:59Z</time>
      </trkpt>
      <trkpt lat="48.1235" lon="-0.75007">
        <ele>1425</ele>
        <time>2013-04-23T13:49:02Z</time>
      </trkpt>
      <trkpt lat="48.12369" lon="-0.74996">
        <ele>1426</ele>
        <time>2013-04-23T13:49:05Z</time>
      </trkpt>
      <trkpt lat="48.12385" lon="-0.74987">
        <ele>1428</ele>
        <time>2013-04-23T13:49:08Z</time>
      </trkpt>
      <trkpt lat="48.12404" lon="-0.74982">
        <ele>1429</ele>
        <time>2013-04-23T13:49:11Z</time>
      </trkpt>
      <trkpt lat="48.12423" lon="-0.74978">
        <ele>1431</ele>
        <time>2013-04-23T13:49:14Z</time>
      </trkpt>
      <trkpt lat="48.12442" lon="-0.74975">
        <ele>1432</ele>
        <time>2013-04-23T13:49:17Z</time>
      </trkpt>
      <trkpt lat="48.1246" lon="-0.74972">
        <ele>1434</ele>
        <time>2013-04-23T13:49:20Z</time>
      </trkpt>
      <trkpt lat="48.12474" lon="-0.74969">
        <ele>1435</ele>
        <time>2013-04-23T13:49:23Z</time>
      </trkpt>
      <trkpt lat="48.12493" lon="-0.74965">
        <ele>1437</ele>
        <time>2013-04-23T13:49:26Z</time>
      </trkpt>
      <trkpt lat="48.12508" lon="-0.74961">
        <ele>1438</ele>
        <time>2013-04-23T13:49:29Z</time>
      </trkpt>
      <trkpt lat="48.12524" lon="-0.74958">
        <ele>1440</ele>
        <time>2013-04-23T13:49:32Z</time>
      </trkpt>
      <trkpt lat="48.12541" lon="-0.74951">
        <ele>1441</ele>
        <time>2013-04-23T13:49:35Z</time>
      </trkpt>
      <trkpt lat="48.12559" lon="-0.74947">
        <ele>1443</ele>
        <time>2013-04-23T13:49:38Z</time>
      </trkpt>
      <trkpt lat="48.12576" lon="-0.74949">
        <ele>1444</ele>
        <time>2013-04-23T13:49:40Z</time>
      </trkpt>
      <trkpt lat="48.12596" lon="-0.74949">
        <ele>1446</ele>
        <time>2013-04-23T13:49:43Z</time>
      </trkpt>
      <trkpt lat="48.12614" lon="-0.7495">
        <ele>1447</ele>
        <time>2013-04-23T13:49:46Z</time>
      </trkpt>
      <trkpt lat="48.12633" lon="-0.74952">
        <ele>1449</ele>
        <time>2013-04-23T13:49:49Z</time>
      </trkpt>
      <trkpt lat="48.12652" lon="-0.74954">
        <ele>1450</ele>
        <time>2013-04-23T13:49:52Z</time>
      </trkpt>
      <trkpt lat="48.12669" lon="-0.74955">
        <ele>1452</ele>
        <time>2013-04-23T13:49:55Z</time>
      </trkpt>
      <trkpt lat="48.12688" lon="-0.74955">
        <ele>1453</ele>
        <time>2013-04-23T13:49:58Z</time>
      </trkpt>
      <trkpt lat="48.12701" lon="-0.74957">
        <ele>1455</ele>
        <time>2013-04-23T13:50:01Z</time>
      </trkpt>
      <trkpt lat="48.12718" lon="-0.74959">
        <ele>1456</ele>
        <time>2013-04-23T13:50:04Z</time>
      </trkpt>
      <trkpt lat="48.12737" lon="-0.74958">
        <ele>1458</ele>
        <time>2013-04-23T13:50:07Z</time>
      </trkpt>
      <trkpt lat="48.12749" lon="-0.74956">
        <ele>1459</ele>
        <time>2013-04-23T13:50:10Z</time>
      </trkpt>
      <trkpt lat="48.12759" lon="-0.74957">
        <ele>1461</ele>
        <time>2013-04-23T13:50:13Z</time>
      </trkpt>
      <trkpt lat="48.12773" lon="-0.74958">
        <ele>1462</ele>
        <time>2013-04-23T13:50:16Z</time>
      </trkpt>
      <trkpt lat="48.12789" lon="-0.74961">
        <ele>1464</ele>
        <time>2013-04-23T13:50:19Z</time>
      </trkpt>
      <trkpt lat="48.12807" lon="-0.74962">
        <ele>1465</ele>
        <time>2013-04-23T13:50:22Z</time>
      </trkpt>
      <trkpt lat="48.12821" lon="-0.74961">
        <ele>1467</ele>
        <time>2013-04-23T13:50:25Z</time>
      </trkpt>
      <trkpt lat="48.1284" lon="-0.74954">
        <ele>1468</ele>
        <time>2013-04-23T13:50:28Z</time>
      </trkpt>
      <trkpt lat="48.12855" lon="-0.74953">
        <ele>1470</ele>
        <time>2013-04-23T13:50:31Z</time>
      </trkpt>
      <trkpt lat="48.12875" lon="-0.74951">
        <ele>1472</ele>
        <time>2013-04-23T13:50:33Z</time>
      </trkpt>
      <trkpt lat="48.12887" lon="-0.74953">
        <ele>1473</ele>
        <time>2013-04-23T13:50:36Z</time>
      </trkpt>
      <trkpt lat="48.12902" lon="-0.74949">
        <ele>1475</ele>
        <time>2013-04-23T13:50:39Z</time>
      </trkpt>
      <trkpt lat="48.12916" lon="-0.74942">
        <ele>1476</ele>
        <time>2013-04-23T13:50:42Z</time>
      </trkpt>
      <trkpt lat="48.12933" lon="-0.74936">
        <ele>1478</ele>
        <time>2013-04-23T13:50:45Z</time>
      </trkpt>
      <trkpt lat="48.12946" lon="-0.74932">
        <ele>1479</ele>
        <time>2013-04-23T13:50:48Z</time>
      </trkpt>
      <trkpt lat="48.12957" lon="-0.74937">
        <ele>1481</ele>
        <time>2013-04-23T13:50:51Z</time>
      </trkpt>
      <trkpt lat="48.12972" lon="-0.74937">
        <ele>1482</ele>
        <time>2013-04-23T13:50:54Z</time>
      </trkpt>
      <trkpt lat="48.12989" lon="-0.74938">
        <ele>1484</ele>
        <time>2013-04-23T13:50:57Z</time>
      </trkpt>
      <trkpt lat="48.13004" lon="-0.74938">
        <ele>1485</ele>
        <time>2013-04-23T13:51:00Z</time>
      </trkpt>
      <trkpt lat="48.13018" lon="-0.74941">
        <ele>1487</ele>
        <time>2013-04-23T13:51:03Z</time>
      </trkpt>
      <trkpt lat="48.13032" lon="-0.74943">
        <ele>1488</ele>
        <time>2013-04-23T13:51:06Z</time>
      </trkpt>
      <trkpt lat="48.13044" lon="-0.74947">
        <ele>1490</ele>
        <time>2013-04-23T13:51:09Z</time>
      </trkpt>
      <trkpt lat="48.13061" lon="-0.74942">
        <ele>1492</ele>
        <time>2013-04-23T13:51:12Z</time>
      </trkpt>
      <trkpt lat="48.13072" lon="-0.74941">
        <ele>1493</ele>
        <time>2013-04-23T13:51:16Z</time>
      </trkpt>
      <trkpt lat="48.13077" lon="-0.74937">
        <ele>1495</ele>
        <time>2013-04-23T13:51:19Z</time>
      </trkpt>
      <trkpt lat="48.13081" lon="-0.74939">
        <ele>1496</ele>
        <time>2013-04-23T13:51:57Z</time>
      </trkpt>
      <trkpt lat="48.13094" lon="-0.74942">
        <ele>1498</ele>
        <time>2013-04-23T13:52:00Z</time>
      </trkpt>
      <trkpt lat="48.131" lon="-0.74943">
        <ele>1499</ele>
        <time>2013-04-23T13:52:03Z</time>
      </trkpt>
      <trkpt lat="48.13113" lon="-0.74941">
        <ele>1501</ele>
        <time>2013-04-23T13:52:06Z</time>
      </trkpt>
      <trkpt lat="48.13125" lon="-0.74942">
        <ele>1502</ele>
        <time>2013-04-23T13:52:09Z</time>
      </trkpt>
      <trkpt lat="48.13135" lon="-0.7494">
        <ele>1504</ele>
        <time>2013-04-23T13:52:12Z</time>
      </trkpt>
      <trkpt lat="48.13153" lon="-0.74935">
        <ele>1505</ele>
        <time>2013-04-23T13:52:15Z</time>
      </trkpt>
      <trkpt lat="48.13164" lon="-0.74933">
        <ele>1507</ele>
        <time>2013-04-23T13:52:18Z</time>
      </trkpt>
      <trkpt lat="48.13178" lon="-0.74928">
        <ele>1508</ele>
        <time>2013-04-23T13:52:21Z</time>
      </trkpt>
      <trkpt lat="48.1319" lon="-0.74929">
        <ele>1510</ele>
        <time>2013-04-23T13:52:24Z</time>
      </trkpt>
      <trkpt lat="48.13204" lon="-0.74927">
        <ele>1511</ele>
        <time>2013-04-23T13:52:27Z</time>
      </trkpt>
      <trkpt lat="48.13215" lon="-0.74926">
        <ele>1513</ele>
        <time>2013-04-23T13:52:30Z</time>
      </trkpt>
      <trkpt lat="48.13232" lon="-0.74927">
        <ele>1514</ele>
        <time>2013-04-23T13:52:33Z</time>
      </trkpt>
      <trkpt lat="48.13248" lon="-0.74926">
        <ele>1516</ele>
        <time>2013-04-23T13:52:36Z</time>
      </trkpt>
      <trkpt lat="48.13264" lon="-0.74924">
        <ele>1517</ele>
        <time>2013-04-23T13:52:39Z</time>
      </trkpt>
      <trkpt lat="48.1328" lon="-0.74923">
        <ele>1519</ele>
        <time>2013-04-23T13:52:41Z</time>
      </trkpt>
      <trkpt lat="48.13296" lon="-0.74921">
        <ele>1520</ele>
        <time>2013-04-23T13:52:44Z</time>
      </trkpt>
      <trkpt lat="48.13311" lon="-0.74923">
        <ele>1522</ele>
        <time>2013-04-23T13:52:47Z</time>
      </trkpt>
      <trkpt lat="48.13327" lon="-0.74922">
        <ele>1523</ele>
        <time>2013-04-23T13:52:50Z</time>
      </trkpt>
      <trkpt lat="48.13343" lon="-0.74917">
        <ele>1525</ele>
        <time>2013-04-23T13:52:53Z</time>
      </trkpt>
      <trkpt lat="48.13358" lon="-0.74919">
        <ele>1526</ele>
        <time>2013-04-23T13:52:56Z</time>
      </trkpt>
      <trkpt lat="48.13369" lon="-0.74917">
        <ele>1528</ele>
        <time>2013-04-23T13:52:59Z</time>
      </trkpt>
      <trkpt lat="48.1338" lon="-0.74914">
        <ele>1529</ele>
        <time>2013-04-23T13:53:02Z</time>
      </trkpt>
      <trkpt lat="48.13394" lon="-0.7491">
        <ele>1531</ele>
        <time>2013-04-23T13:53:05Z</time>
      </trkpt>
      <trkpt lat="48.13408" lon="-0.74907">
        <ele>1532</ele>
        <time>2013-04-23T13:53:08Z</time>
      </trkpt>
      <trkpt lat="48.13428" lon="-0.74904">
        <ele>1534</ele>
        <time>2013-04-23T13:53:11Z</time>
      </trkpt>
      <trkpt lat="48.13446" lon="-0.749">
        <ele>1535</ele>
        <time>2013-04-23T13:53:14Z</time>
      </trkpt>
      <trkpt lat="48.13466" lon="-0.74899">
        <ele>1537</ele>
        <time>2013-04-23T13:53:17Z</time>
      </trkpt>
      <trkpt lat="48.13478" lon="-0.74898">
        <ele>1538</ele>
        <time>2013-04-23T13:53:20Z</time>
      </trkpt>
      <trkpt lat="48.13494" lon="-0.74897">
        <ele>1540</ele>
        <time>2013-04-23T13:53:23Z</time>
      </trkpt>
      <trkpt lat="48.13513" lon="-0.74896">
        <ele>1541</ele>
        <time>2013-04-23T13:53:26Z</time>
      </trkpt>
      <trkpt lat="48.13532" lon="-0.74899">
        <ele>1543</ele>
        <time>2013-04-23T13:53:29Z</time>
      </trkpt>
      <trkpt lat="48.13553" lon="-0.74903">
        <ele>1544</ele>
        <time>2013-04-23T13:53:32Z</time>
      </trkpt>
      <trkpt lat="48.13569" lon="-0.7491">
        <ele>1546</ele>
        <time>2013-04-23T13:53:35Z</time>
      </trkpt>
      <trkpt lat="48.13584" lon="-0.74914">
        <ele>1547</ele>
        <time>2013-04-23T13:53:37Z</time>
      </trkpt>
      <trkpt lat="48.13601" lon="-0.74917">
        <ele>1549</ele>
        <time>2013-04-23T13:53:40Z</time>
      </trkpt>
      <trkpt lat="48.13615" lon="-0.74922">
        <ele>1550</ele>
        <time>2013-04-23T13:53:43Z</time>
      </trkpt>
      <trkpt lat="48.13631" lon="-0.74928">
        <ele>1552</ele>
        <time>2013-04-23T13:53:46Z</time>
      </trkpt>
      <trkpt lat="48.13644" lon="-0.74933">
        <ele>1553</ele>
        <time>2013-04-23T13:53:49Z</time>
      </trkpt>
      <trkpt lat="48.13656" lon="-0.74935">
        <ele>1555</ele>
        <time>2013-04-23T13:53:52Z</time>
      </trkpt>
      <trkpt lat="48.13672" lon="-0.74939">
        <ele>1556</ele>
        <time>2013-04-23T13:53:55Z</time>
      </trkpt>
      <trkpt lat="48.13684" lon="-0.74943">
        <ele>1558</ele>
        <time>2013-04-23T13:53:58Z</time>
      </trkpt>
      <trkpt lat="48.13703" lon="-0.74943">
        <ele>1559</ele>
        <time>2013-04-23T13:54:01Z</time>
      </trkpt>
      <trkpt lat="48.13717" lon="-0.74947">
        <ele>1561</ele>
        <time>2013-04-23T13:54:04Z</time>
      </trkpt>
      <trkpt lat="48.13733" lon="-0.74946">
        <ele>1562</ele>
        <time>2013-04-23T13:54:07Z</time>
      </trkpt>
      <trkpt lat="48.13749" lon="-0.74947">
        <ele>1564</ele>
        <time>2013-04-23T13:54:10Z</time>
      </trkpt>
      <trkpt lat="48.13765" lon="-0.74951">
        <ele>1566</ele>
        <time>2013-04-23T13:54:13Z</time>
      </trkpt>
      <trkpt lat="48.13773" lon="-0.7496">
        <ele>1567</ele>
        <time>2013-04-23T13:54:16Z</time>
      </trkpt>
      <trkpt lat="48.13784" lon="-0.74959">
        <ele>1569</ele>
        <time>2013-04-23T13:54:19Z</time>
      </trkpt>
      <trkpt lat="48.13794" lon="-0.74965">
        <ele>1570</ele>
        <time>2013-04-23T13:54:22Z</time>
      </trkpt>
      <trkpt lat="48.13808" lon="-0.74964">
        <ele>1572</ele>
        <time>2013-04-23T13:54:25Z</time>
      </trkpt>
      <trkpt lat="48.13823" lon="-0.74962">
        <ele>1573</ele>
        <time>2013-04-23T13:54:28Z</time>
      </trkpt>
      <trkpt lat="48.13841" lon="-0.74963">
        <ele>1575</ele>
        <time>2013-04-23T13:54:30Z</time>
      </trkpt>
      <trkpt lat="48.13861" lon="-0.74959">
        <ele>1577</ele>
        <time>2013-04-23T13:54:33Z</time>
      </trkpt>
      <trkpt lat="48.13876" lon="-0.74956">
        <ele>1578</ele>
        <time>2013-04-23T13:54:36Z</time>
      </trkpt>
      <trkpt lat="48.13894" lon="-0.74955">
        <ele>1580</ele>
        <time>2013-04-23T13:54:39Z</time>
      </trkpt>
      <trkpt lat="48.13918" lon="-0.74948">
        <ele>1581</ele>
        <time>2013-04-23T13:54:42Z</time>
      </trkpt>
      <trkpt lat="48.13927" lon="-0.74943">
        <ele>1583</ele>
        <time>2013-04-23T13:54:45Z</time>
      </trkpt>
      <trkpt lat="48.13941" lon="-0.74944">
        <ele>1585</ele>
        <time>2013-04-23T13:54:48Z</time>
      </trkpt>
      <trkpt lat="48.13954" lon="-0.74938">
        <ele>1586</ele>
        <time>2013-04-23T13:54:51Z</time>
      </trkpt>
      <trkpt lat="48.13974" lon="-0.74936">
        <ele>1588</ele>
        <time>2013-04-23T13:54:54Z</time>
      </trkpt>
      <trkpt lat="48.13988" lon="-0.74939">
        <ele>1589</ele>
        <time>2013-04-23T13:54:57Z</time>
      </trkpt>
      <trkpt lat="48.14012" lon="-0.7494">
        <ele>1591</ele>
        <time>2013-04-23T13:55:00Z</time>
      </trkpt>
      <trkpt lat="48.1403" lon="-0.7494">
        <ele>1593</ele>
        <time>2013-04-23T13:55:03Z</time>
      </trkpt>
      <trkpt lat="48.14046" lon="-0.74948">
        <ele>1594</ele>
        <time>2013-04-23T13:55:06Z</time>
      </trkpt>
      <trkpt lat="48.14059" lon="-0.74953">
        <ele>1596</ele>
        <time>2013-04-23T13:55:09Z</time>
      </trkpt>
      <trkpt lat="48.14073" lon="-0.74965">
        <ele>1597</ele>
        <time>2013-04-23T13:55:12Z</time>
      </trkpt>
      <trkpt lat="48.14092" lon="-0.74972">
        <ele>1599</ele>
        <time>2013-04-23T13:55:15Z</time>
      </trkpt>
      <trkpt lat="48.14109" lon="-0.7498">
        <ele>1600</ele>
        <time>2013-04-23T13:55:18Z</time>
      </trkpt>
      <trkpt lat="48.14125" lon="-0.74987">
        <ele>1602</ele>
        <time>2013-04-23T13:55:21Z</time>
      </trkpt>
      <trkpt lat="48.1414" lon="-0.74995">
        <ele>1603</ele>
        <time>2013-04-23T13:55:23Z</time>
      </trkpt>
      <trkpt lat="48.14155" lon="-0.75">
        <ele>1605</ele>
        <time>2013-04-23T13:55:26Z</time>
      </trkpt>
      <trkpt lat="48.14168" lon="-0.75003">
        <ele>1606</ele>
        <time>2013-04-23T13:55:29Z</time>
      </trkpt>
      <trkpt lat="48.14185" lon="-0.7501">
        <ele>1608</ele>
        <time>2013-04-23T13:55:32Z</time>
      </trkpt>
      <trkpt lat="48.142" lon="-0.75017">
        <ele>1609</ele>
        <time>2013-04-23T13:55:35Z</time>
      </trkpt>
      <trkpt lat="48.14217" lon="-0.75022">
        <ele>1611</ele>
        <time>2013-04-23T13:55:38Z</time>
      </trkpt>
      <trkpt lat="48.1423" lon="-0.75028">
        <ele>1613</ele>
        <time>2013-04-23T13:55:41Z</time>
      </trkpt>
      <trkpt lat="48.14243" lon="-0.75032">
        <ele>1614</ele>
        <time>2013-04-23T13:55:44Z</time>
      </trkpt>
      <trkpt lat="48.14259" lon="-0.75041">
        <ele>1616</ele>
        <time>2013-04-23T13:55:47Z</time>
      </trkpt>
      <trkpt lat="48.14273" lon="-0.75049">
        <ele>1617</ele>
        <time>2013-04-23T13:55:50Z</time>
      </trkpt>
      <trkpt lat="48.14287" lon="-0.75059">
        <ele>1619</ele>
        <time>2013-04-23T13:55:53Z</time>
      </trkpt>
      <trkpt lat="48.14299" lon="-0.75064">
        <ele>1620</ele>
        <time>2013-04-23T13:55:56Z</time>
      </trkpt>
      <trkpt lat="48.14307" lon="-0.75068">
        <ele>1622</ele>
        <time>2013-04-23T13:55:59Z</time>
      </trkpt>
      <trkpt lat="48.14321" lon="-0.75075">
        <ele>1624</ele>
        <time>2013-04-23T13:56:02Z</time>
      </trkpt>
      <trkpt lat="48.14336" lon="-0.75083">
        <ele>1625</ele>
        <time>2013-04-23T13:56:05Z</time>
      </trkpt>
      <trkpt lat="48.14343" lon="-0.75089">
        <ele>1627</ele>
        <time>2013-04-23T13:56:08Z</time>
      </trkpt>
      <trkpt lat="48.14354" lon="-0.75095">
        <ele>1628</ele>
        <time>2013-04-23T13:56:11Z</time>
      </trkpt>
      <trkpt lat="48.14366" lon="-0.75098">
        <ele>1630</ele>
        <time>2013-04-23T13:56:14Z</time>
      </trkpt>
      <trkpt lat="48.14382" lon="-0.75099">
        <ele>1631</ele>
        <time>2013-04-23T13:56:17Z</time>
      </trkpt>
      <trkpt lat="48.14397" lon="-0.75104">
        <ele>1633</ele>
        <time>2013-04-23T13:56:19Z</time>
      </trkpt>
      <trkpt lat="48.1441" lon="-0.75111">
        <ele>1634</ele>
        <time>2013-04-23T13:56:22Z</time>
      </trkpt>
      <trkpt lat="48.14428" lon="-0.75115">
        <ele>1636</ele>
        <time>2013-04-23T13:56:25Z</time>
      </trkpt>
      <trkpt lat="48.14443" lon="-0.75115">
        <ele>1637</ele>
        <time>2013-04-23T13:56:28Z</time>
      </trkpt>
      <trkpt lat="48.14455" lon="-0.75117">
        <ele>1639</ele>
        <time>2013-04-23T13:56:31Z</time>
      </trkpt>
      <trkpt lat="48.14468" lon="-0.75117">
        <ele>1640</ele>
        <time>2013-04-23T13:56:34Z</time>
      </trkpt>
      <trkpt lat="48.14485" lon="-0.75117">
        <ele>1642</ele>
        <time>2013-04-23T13:56:37Z</time>
      </trkpt>
      <trkpt lat="48.14498" lon="-0.7512">
        <ele>1644</ele>
        <time>2013-04-23T13:56:40Z</time>
      </trkpt>
      <trkpt lat="48.14516" lon="-0.75121">
        <ele>1645</ele>
        <time>2013-04-23T13:56:43Z</time>
      </trkpt>
      <trkpt lat="48.14533" lon="-0.7512">
        <ele>1647</ele>
        <time>2013-04-23T13:56:46Z</time>
      </trkpt>
      <trkpt lat="48.14547" lon="-0.75116">
        <ele>1648</ele>
        <time>2013-04-23T13:56:49Z</time>
      </trkpt>
      <trkpt lat="48.14559" lon="-0.75117">
        <ele>1650</ele>
        <time>2013-04-23T13:56:52Z</time>
      </trkpt>
      <trkpt lat="48.14578" lon="-0.75117">
        <ele>1651</ele>
        <time>2013-04-23T13:56:55Z</time>
      </trkpt>
      <trkpt lat="48.14594" lon="-0.75118">
        <ele>1653</ele>
        <time>2013-04-23T13:56:58Z</time>
      </trkpt>
      <trkpt lat="48.1461" lon="-0.75115">
        <ele>1655</ele>
        <time>2013-04-23T13:57:01Z</time>
      </trkpt>
      <trkpt lat="48.14625" lon="-0.75116">
        <ele>1656</ele>
        <time>2013-04-23T13:57:04Z</time>
      </trkpt>
      <trkpt lat="48.14646" lon="-0.75113">
        <ele>1658</ele>
        <time>2013-04-23T13:57:07Z</time>
      </trkpt>
      <trkpt lat="48.14665" lon="-0.7511">
        <ele>1659</ele>
        <time>2013-04-23T13:57:10Z</time>
      </trkpt>
      <trkpt lat="48.14681" lon="-0.75109">
        <ele>1661</ele>
        <time>2013-04-23T13:57:12Z</time>
      </trkpt>
      <trkpt lat="48.14696" lon="-0.75107">
        <ele>1663</ele>
        <time>2013-04-23T13:57:15Z</time>
      </trkpt>
      <trkpt lat="48.14713" lon="-0.75101">
        <ele>1664</ele>
        <time>2013-04-23T13:57:18Z</time>
      </trkpt>
      <trkpt lat="48.14722" lon="-0.75101">
        <ele>1666</ele>
        <time>2013-04-23T13:57:21Z</time>
      </trkpt>
      <trkpt lat="48.14739" lon="-0.75092">
        <ele>1667</ele>
        <time>2013-04-23T13:57:24Z</time>
      </trkpt>
      <trkpt lat="48.14755" lon="-0.7508">
        <ele>1669</ele>
        <time>2013-04-23T13:57:27Z</time>
      </trkpt>
      <trkpt lat="48.14774" lon="-0.75073">
        <ele>1670</ele>
        <time>2013-04-23T13:57:30Z</time>
      </trkpt>
      <trkpt lat="48.14788" lon="-0.75064">
        <ele>1672</ele>
        <time>2013-04-23T13:57:33Z</time>
      </trkpt>
      <trkpt lat="48.14801" lon="-0.7506">
        <ele>1673</ele>
        <time>2013-04-23T13:57:36Z</time>
      </trkpt>
      <trkpt lat="48.14819" lon="-0.7505">
        <ele>1675</ele>
        <time>2013-04-23T13:57:39Z</time>
      </trkpt>
      <trkpt lat="48.14834" lon="-0.75042">
        <ele>1677</ele>
        <time>2013-04-23T13:57:42Z</time>
      </trkpt>
      <trkpt lat="48.14851" lon="-0.75032">
        <ele>1678</ele>
        <time>2013-04-23T13:57:45Z</time>
      </trkpt>
      <trkpt lat="48.14867" lon="-0.75023">
        <ele>1680</ele>
        <time>2013-04-23T13:57:48Z</time>
      </trkpt>
      <trkpt lat="48.14882" lon="-0.75013">
        <ele>1681</ele>
        <time>2013-04-23T13:57:51Z</time>
      </trkpt>
      <trkpt lat="48.14898" lon="-0.75008">
        <ele>1683</ele>
        <time>2013-04-23T13:57:54Z</time>
      </trkpt>
      <trkpt lat="48.14914" lon="-0.75">
        <ele>1684</ele>
        <time>2013-04-23T13:57:57Z</time>
      </trkpt>
      <trkpt lat="48.14928" lon="-0.74992">
        <ele>1686</ele>
        <time>2013-04-23T13:58:00Z</time>
      </trkpt>
      <trkpt lat="48.14949" lon="-0.74985">
        <ele>1687</ele>
        <time>2013-04-23T13:58:03Z</time>
      </trkpt>
      <trkpt lat="48.1497" lon="-0.74977">
        <ele>1689</ele>
        <time>2013-04-23T13:58:05Z</time>
      </trkpt>
      <trkpt lat="48.14989" lon="-0.74973">
        <ele>1690</ele>
        <time>2013-04-23T13:58:08Z</time>
      </trkpt>
      <trkpt lat="48.15003" lon="-0.7497">
        <ele>1692</ele>
        <time>2013-04-23T13:58:11Z</time>
      </trkpt>
      <trkpt lat="48.15017" lon="-0.74969">
        <ele>1693</ele>
        <time>2013-04-23T13:58:14Z</time>
      </trkpt>
      <trkpt lat="48.15031" lon="-0.74971">
        <ele>1695</ele>
        <time>2013-04-23T13:58:17Z</time>
      </trkpt>
      <trkpt lat="48.15041" lon="-0.74969">
        <ele>1697</ele>
        <time>2013-04-23T13:58:20Z</time>
      </trkpt>
      <trkpt lat="48.15051" lon="-0.74972">
        <ele>1698</ele>
        <time>2013-04-23T13:58:23Z</time>
      </trkpt>
      <trkpt lat="48.15065" lon="-0.74972">
        <ele>1700</ele>
        <time>2013-04-23T13:58:26Z</time>
      </trkpt>
      <trkpt lat="48.15083" lon="-0.74976">
        <ele>1701</ele>
        <time>2013-04-23T13:58:29Z</time>
      </trkpt>
      <trkpt lat="48.15101" lon="-0.7498">
        <ele>1703</ele>
        <time>2013-04-23T13:58:32Z</time>
      </trkpt>
      <trkpt lat="48.15113" lon="-0.74984">
        <ele>1705</ele>
        <time>2013-04-23T13:58:35Z</time>
      </trkpt>
      <trkpt lat="48.15127" lon="-0.74986">
        <ele>1706</ele>
        <time>2013-04-23T13:58:38Z</time>
      </trkpt>
      <trkpt lat="48.15139" lon="-0.74988">
        <ele>1708</ele>
        <time>2013-04-23T13:58:41Z</time>
      </trkpt>
      <trkpt lat="48.15153" lon="-0.74985">
        <ele>1709</ele>
        <time>2013-04-23T13:58:44Z</time>
      </trkpt>
      <trkpt lat="48.15165" lon="-0.74986">
        <ele>1711</ele>
        <time>2013-04-23T13:58:47Z</time>
      </trkpt>
      <trkpt lat="48.15176" lon="-0.74989">
        <ele>1713</ele>
        <time>2013-04-23T13:58:50Z</time>
      </trkpt>
      <trkpt lat="48.1519" lon="-0.74988">
        <ele>1714</ele>
        <time>2013-04-23T13:58:53Z</time>
      </trkpt>
      <trkpt lat="48.15205" lon="-0.7499">
        <ele>1716</ele>
        <time>2013-04-23T13:58:56Z</time>
      </trkpt>
      <trkpt lat="48.15217" lon="-0.74997">
        <ele>1718</ele>
        <time>2013-04-23T13:58:58Z</time>
      </trkpt>
      <trkpt lat="48.15233" lon="-0.74999">
        <ele>1719</ele>
        <time>2013-04-23T13:59:01Z</time>
      </trkpt>
      <trkpt lat="48.15249" lon="-0.75008">
        <ele>1721</ele>
        <time>2013-04-23T13:59:04Z</time>
      </trkpt>
      <trkpt lat="48.15263" lon="-0.75017">
        <ele>1722</ele>
        <time>2013-04-23T13:59:07Z</time>
      </trkpt>
      <trkpt lat="48.15278" lon="-0.75026">
        <ele>1724</ele>
        <time>2013-04-23T13:59:10Z</time>
      </trkpt>
      <trkpt lat="48.15292" lon="-0.75032">
        <ele>1726</ele>
        <time>2013-04-23T13:59:13Z</time>
      </trkpt>
      <trkpt lat="48.15309" lon="-0.75039">
        <ele>1727</ele>
        <time>2013-04-23T13:59:16Z</time>
      </trkpt>
      <trkpt lat="48.15318" lon="-0.75051">
        <ele>1729</ele>
        <time>2013-04-23T13:59:19Z</time>
      </trkpt>
      <trkpt lat="48.15335" lon="-0.75058">
        <ele>1731</ele>
        <time>2013-04-23T13:59:22Z</time>
      </trkpt>
      <trkpt lat="48.15346" lon="-0.75068">
        <ele>1732</ele>
        <time>2013-04-23T13:59:25Z</time>
      </trkpt>
      <trkpt lat="48.15358" lon="-0.75077">
        <ele>1734</ele>
        <time>2013-04-23T13:59:28Z</time>
      </trkpt>
      <trkpt lat="48.15379" lon="-0.75088">
        <ele>1736</ele>
        <time>2013-04-23T13:59:31Z</time>
      </trkpt>
      <trkpt lat="48.15396" lon="-0.75095">
        <ele>1737</ele>
        <time>2013-04-23T13:59:34Z</time>
      </trkpt>
      <trkpt lat="48.15408" lon="-0.75108">
        <ele>1739</ele>
        <time>2013-04-23T13:59:37Z</time>
      </trkpt>
      <trkpt lat="48.15413" lon="-0.75124">
        <ele>1741</ele>
        <time>2013-04-23T13:59:40Z</time>
      </trkpt>
      <trkpt lat="48.15421" lon="-0.75135">
        <ele>1742</ele>
        <time>2013-04-23T13:59:43Z</time>
      </trkpt>
      <trkpt lat="48.15429" lon="-0.75146">
        <ele>1744</ele>
        <time>2013-04-23T13:59:46Z</time>
      </trkpt>
      <trkpt lat="48.15438" lon="-0.7516">
        <ele>1745</ele>
        <time>2013-04-23T13:59:49Z</time>
      </trkpt>
      <trkpt lat="48.15452" lon="-0.75174">
        <ele>1747</ele>
        <time>2013-04-23T13:59:52Z</time>
      </trkpt>
      <trkpt lat="48.15468" lon="-0.75186">
        <ele>1748</ele>
        <time>2013-04-23T13:59:54Z</time>
      </trkpt>
      <trkpt lat="48.15479" lon="-0.75199">
        <ele>1750</ele>
        <time>2013-04-23T13:59:57Z</time>
      </trkpt>
      <trkpt lat="48.15492" lon="-0.75209">
        <ele>1751</ele>
        <time>2013-04-23T14:00:00Z</time>
      </trkpt>
      <trkpt lat="48.15502" lon="-0.75212">
        <ele>1753</ele>
        <time>2013-04-23T14:00:03Z</time>
      </trkpt>
      <trkpt lat="48.15519" lon="-0.75209">
        <ele>1754</ele>
        <time>2013-04-23T14:00:06Z</time>
      </trkpt>
      <trkpt lat="48.15535" lon="-0.75204">
        <ele>1756</ele>
        <time>2013-04-23T14:00:09Z</time>
      </trkpt>
      <trkpt lat="48.15552" lon="-0.75197">
        <ele>1757</ele>
        <time>2013-04-23T14:00:12Z</time>
      </trkpt>
      <trkpt lat="48.15567" lon="-0.7519">
        <ele>1759</ele>
        <time>2013-04-23T14:00:15Z</time>
      </trkpt>
      <trkpt lat="48.15582" lon="-0.75182">
        <ele>1760</ele>
        <time>2013-04-23T14:00:18Z</time>
      </trkpt>
      <trkpt lat="48.15596" lon="-0.75171">
        <ele>1762</ele>
        <time>2013-04-23T14:00:21Z</time>
      </trkpt>
      <trkpt lat="48.15609" lon="-0.75156">
        <ele>1763</ele>
        <time>2013-04-23T14:00:24Z</time>
      </trkpt>
      <trkpt lat="48.1562" lon="-0.75137">
        <ele>1765</ele>
        <time>2013-04-23T14:00:27Z</time>
      </trkpt>
      <trkpt lat="48.1563" lon="-0.75119">
        <ele>1766</ele>
        <time>2013-04-23T14:00:30Z</time>
      </trkpt>
      <trkpt lat="48.1564" lon="-0.751">
        <ele>1768</ele>
        <time>2013-04-23T14:00:33Z</time>
      </trkpt>
      <trkpt lat="48.1565" lon="-0.75079">
        <ele>1769</ele>
        <time>2013-04-23T14:00:36Z</time>
      </trkpt>
      <trkpt lat="48.15663" lon="-0.7506">
        <ele>1771</ele>
        <time>2013-04-23T14:00:39Z</time>
      </trkpt>
      <trkpt lat="48.15674" lon="-0.75035">
        <ele>1772</ele>
        <time>2013-04-23T14:00:42Z</time>
      </trkpt>
      <trkpt lat="48.15681" lon="-0.75013">
        <ele>1774</ele>
        <time>2013-04-23T14:00:45Z</time>
      </trkpt>
      <trkpt lat="48.15689" lon="-0.74988">
        <ele>1775</ele>
        <time>2013-04-23T14:00:47Z</time>
      </trkpt>
      <trkpt lat="48.15697" lon="-0.74967">
        <ele>1777</ele>
        <time>2013-04-23T14:00:50Z</time>
      </trkpt>
      <trkpt lat="48.15701" lon="-0.74944">
        <ele>1778</ele>
        <time>2013-04-23T14:00:53Z</time>
      </trkpt>
      <trkpt lat="48.15708" lon="-0.74919">
        <ele>1780</ele>
        <time>2013-04-23T14:00:56Z</time>
      </trkpt>
      <trkpt lat="48.15712" lon="-0.749">
        <ele>1782</ele>
        <time>2013-04-23T14:00:59Z</time>
      </trkpt>
      <trkpt lat="48.15713" lon="-0.74879">
        <ele>1783</ele>
        <time>2013-04-23T14:01:02Z</time>
      </trkpt>
      <trkpt lat="48.15711" lon="-0.74851">
        <ele>1785</ele>
        <time>2013-04-23T14:01:05Z</time>
      </trkpt>
      <trkpt lat="48.1571" lon="-0.74828">
        <ele>1786</ele>
        <time>2013-04-23T14:01:08Z</time>
      </trkpt>
      <trkpt lat="48.15704" lon="-0.74803">
        <ele>1788</ele>
        <time>2013-04-23T14:01:11Z</time>
      </trkpt>
      <trkpt lat="48.15708" lon="-0.74776">
        <ele>1789</ele>
        <time>2013-04-23T14:01:14Z</time>
      </trkpt>
      <trkpt lat="48.15711" lon="-0.74752">
        <ele>1791</ele>
        <time>2013-04-23T14:01:17Z</time>
      </trkpt>
      <trkpt lat="48.15715" lon="-0.74724">
        <ele>1792</ele>
        <time>2013-04-23T14:01:20Z</time>
      </trkpt>
      <trkpt lat="48.15719" lon="-0.747">
        <ele>1794</ele>
        <time>2013-04-23T14:01:23Z</time>
      </trkpt>
      <trkpt lat="48.15721" lon="-0.74674">
        <ele>1795</ele>
        <time>2013-04-23T14:01:26Z</time>
      </trkpt>
      <trkpt lat="48.15721" lon="-0.74651">
        <ele>1797</ele>
        <time>2013-04-23T14:01:29Z</time>
      </trkpt>
      <trkpt lat="48.15724" lon="-0.74627">
        <ele>1798</ele>
        <time>2013-04-23T14:01:32Z</time>
      </trkpt>
      <trkpt lat="48.15726" lon="-0.746">
        <ele>1800</ele>
        <time>2013-04-23T14:01:35Z</time>
      </trkpt>
      <trkpt lat="48.15724" lon="-0.74572">
        <ele>1801</ele>
        <time>2013-04-23T14:01:38Z</time>
      </trkpt>
      <trkpt lat="48.15722" lon="-0.74545">
        <ele>1803</ele>
        <time>2013-04-23T14:01:40Z</time>
      </trkpt>
      <trkpt lat="48.15726" lon="-0.74517">
        <ele>1805</ele>
        <time>2013-04-23T14:01:43Z</time>
      </trkpt>
      <trkpt lat="48.1573" lon="-0.74488">
        <ele>1806</ele>
        <time>2013-04-23T14:01:46Z</time>
      </trkpt>
      <trkpt lat="48.15736" lon="-0.74466">
        <ele>1808</ele>
        <time>2013-04-23T14:01:49Z</time>
      </trkpt>
      <trkpt lat="48.15737" lon="-0.74447">
        <ele>1810</ele>
        <time>2013-04-23T14:01:52Z</time>
      </trkpt>
      <trkpt lat="48.15737" lon="-0.74426">
        <ele>1811</ele>
        <time>2013-04-23T14:01:55Z</time>
      </trkpt>
      <trkpt lat="48.15739" lon="-0.744">
        <ele>1813</ele>
        <time>2013-04-23T14:01:58Z</time>
      </trkpt>
      <trkpt lat="48.15742" lon="-0.74375">
        <ele>1815</ele>
        <time>2013-04-23T14:02:01Z</time>
      </trkpt>
      <trkpt lat="48.15741" lon="-0.74353">
        <ele>1816</ele>
        <time>2013-04-23T14:02:04Z</time>
      </trkpt>
      <trkpt lat="48.15747" lon="-0.74337">
        <ele>1818</ele>
        <time>2013-04-23T14:03:41Z</time>
      </trkpt>
      <trkpt lat="48.15752" lon="-0.74321">
        <ele>1819</ele>
        <time>2013-04-23T14:03:42Z</time>
      </trkpt>
      <trkpt lat="48.15754" lon="-0.74313">
        <ele>1821</ele>
        <time>2013-04-23T14:03:45Z</time>
      </trkpt>
      <trkpt lat="48.15752" lon="-0.74305">
        <ele>1823</ele>
        <time>2013-04-23T14:03:48Z</time>
      </trkpt>
      <trkpt lat="48.15754" lon="-0.74295">
        <ele>1824</ele>
        <time>2013-04-23T14:03:51Z</time>
      </trkpt>
      <trkpt lat="48.15755" lon="-0.74281">
        <ele>1826</ele>
        <time>2013-04-23T14:03:54Z</time>
      </trkpt>
      <trkpt lat="48.15755" lon="-0.74266">
        <ele>1828</ele>
        <time>2013-04-23T14:03:57Z</time>
      </trkpt>
      <trkpt lat="48.15754" lon="-0.7425">
        <ele>1829</ele>
        <time>2013-04-23T14:04:00Z</time>
      </trkpt>
      <trkpt lat="48.1576" lon="-0.74232">
        <ele>1831</ele>
        <time>2013-04-23T14:04:03Z</time>
      </trkpt>
      <trkpt lat="48.15765" lon="-0.74214">
        <ele>1832</ele>
        <time>2013-04-23T14:04:06Z</time>
      </trkpt>
      <trkpt lat="48.15773" lon="-0.74198">
        <ele>1834</ele>
        <time>2013-04-23T14:04:08Z</time>
      </trkpt>
      <trkpt lat="48.15772" lon="-0.74182">
        <ele>1836</ele>
        <time>2013-04-23T14:04:11Z</time>
      </trkpt>
      <trkpt lat="48.15779" lon="-0.74158">
        <ele>1837</ele>
        <time>2013-04-23T14:04:14Z</time>
      </trkpt>
      <trkpt lat="48.15793" lon="-0.74137">
        <ele>1839</ele>
        <time>2013-04-23T14:04:17Z</time>
      </trkpt>
      <trkpt lat="48.15799" lon="-0.74119">
        <ele>1840</ele>
        <time>2013-04-23T14:04:20Z</time>
      </trkpt>
      <trkpt lat="48.1581" lon="-0.74101">
        <ele>1842</ele>
        <time>2013-04-23T14:04:23Z</time>
      </trkpt>
      <trkpt lat="48.1582" lon="-0.74082">
        <ele>1843</ele>
        <time>2013-04-23T14:04:26Z</time>
      </trkpt>
      <trkpt lat="48.15824" lon="-0.74068">
        <ele>1845</ele>
        <time>2013-04-23T14:04:29Z</time>
      </trkpt>
      <trkpt lat="48.15835" lon="-0.74054">
        <ele>1846</ele>
        <time>2013-04-23T14:04:32Z</time>
      </trkpt>
      <trkpt lat="48.15847" lon="-0.74028">
        <ele>1848</ele>
        <time>2013-04-23T14:04:35Z</time>
      </trkpt>
      <trkpt lat="48.15866" lon="-0.74014">
        <ele>1850</ele>
        <time>2013-04-23T14:04:38Z</time>
      </trkpt>
      <trkpt lat="48.15878" lon="-0.74001">
        <ele>1851</ele>
        <time>2013-04-23T14:04:41Z</time>
      </trkpt>
      <trkpt lat="48.15896" lon="-0.73998">
        <ele>1853</ele>
        <time>2013-04-23T14:04:44Z</time>
      </trkpt>
      <trkpt lat="48.15911" lon="-0.74002">
        <ele>1854</ele>
        <time>2013-04-23T14:04:47Z</time>
      </trkpt>
      <trkpt lat="48.15924" lon="-0.74009">
        <ele>1856</ele>
        <time>2013-04-23T14:04:50Z</time>
      </trkpt>
      <trkpt lat="48.15939" lon="-0.74011">
        <ele>1857</ele>
        <time>2013-04-23T14:04:53Z</time>
      </trkpt>
      <trkpt lat="48.15958" lon="-0.74013">
        <ele>1859</ele>
        <time>2013-04-23T14:04:56Z</time>
      </trkpt>
      <trkpt lat="48.15976" lon="-0.74013">
        <ele>1860</ele>
        <time>2013-04-23T14:04:59Z</time>
      </trkpt>
      <trkpt lat="48.15992" lon="-0.74011">
        <ele>1862</ele>
        <time>2013-04-23T14:05:02Z</time>
      </trkpt>
      <trkpt lat="48.1601" lon="-0.74006">
        <ele>1863</ele>
        <time>2013-04-23T14:05:04Z</time>
      </trkpt>
      <trkpt lat="48.16031" lon="-0.74001">
        <ele>1865</ele>
        <time>2013-04-23T14:05:07Z</time>
      </trkpt>
      <trkpt lat="48.16047" lon="-0.74003">
        <ele>1866</ele>
        <time>2013-04-23T14:05:10Z</time>
      </trkpt>
      <trkpt lat="48.16063" lon="-0.74007">
        <ele>1868</ele>
        <time>2013-04-23T14:05:13Z</time>
      </trkpt>
      <trkpt lat="48.1608" lon="-0.74011">
        <ele>1870</ele>
        <time>2013-04-23T14:05:16Z</time>
      </trkpt>
      <trkpt lat="48.16095" lon="-0.74016">
        <ele>1871</ele>
        <time>2013-04-23T14:05:19Z</time>
      </trkpt>
      <trkpt lat="48.1611" lon="-0.74021">
        <ele>1873</ele>
        <time>2013-04-23T14:05:22Z</time>
      </trkpt>
      <trkpt lat="48.16127" lon="-0.74027">
        <ele>1874</ele>
        <time>2013-04-23T14:05:25Z</time>
      </trkpt>
      <trkpt lat="48.16146" lon="-0.74032">
        <ele>1876</ele>
        <time>2013-04-23T14:05:28Z</time>
      </trkpt>
      <trkpt lat="48.16167" lon="-0.74037">
        <ele>1877</ele>
        <time>2013-04-23T14:05:31Z</time>
      </trkpt>
      <trkpt lat="48.16181" lon="-0.74041">
        <ele>1879</ele>
        <time>2013-04-23T14:05:34Z</time>
      </trkpt>
      <trkpt lat="48.16197" lon="-0.7405">
        <ele>1881</ele>
        <time>2013-04-23T14:05:37Z</time>
      </trkpt>
      <trkpt lat="48.16212" lon="-0.7406">
        <ele>1882</ele>
        <time>2013-04-23T14:05:40Z</time>
      </trkpt>
      <trkpt lat="48.16231" lon="-0.74073">
        <ele>1884</ele>
        <time>2013-04-23T14:05:43Z</time>
      </trkpt>
      <trkpt lat="48.16247" lon="-0.74089">
        <ele>1885</ele>
        <time>2013-04-23T14:05:46Z</time>
      </trkpt>
      <trkpt lat="48.16262" lon="-0.74103">
        <ele>1887</ele>
        <time>2013-04-23T14:05:49Z</time>
      </trkpt>
      <trkpt lat="48.16276" lon="-0.74119">
        <ele>1888</ele>
        <time>2013-04-23T14:05:52Z</time>
      </trkpt>
      <trkpt lat="48.16286" lon="-0.74137">
        <ele>1890</ele>
        <time>2013-04-23T14:05:55Z</time>
      </trkpt>
      <trkpt lat="48.16295" lon="-0.74158">
        <ele>1892</ele>
        <time>2013-04-23T14:05:58Z</time>
      </trkpt>
      <trkpt lat="48.16306" lon="-0.74175">
        <ele>1893</ele>
        <time>2013-04-23T14:06:00Z</time>
      </trkpt>
      <trkpt lat="48.16319" lon="-0.74191">
        <ele>1895</ele>
        <time>2013-04-23T14:06:03Z</time>
      </trkpt>
      <trkpt lat="48.16326" lon="-0.74211">
        <ele>1896</ele>
        <time>2013-04-23T14:06:06Z</time>
      </trkpt>
      <trkpt lat="48.1634" lon="-0.74228">
        <ele>1898</ele>
        <time>2013-04-23T14:06:09Z</time>
      </trkpt>
      <trkpt lat="48.1635" lon="-0.74247">
        <ele>1899</ele>
        <time>2013-04-23T14:06:12Z</time>
      </trkpt>
      <trkpt lat="48.1636" lon="-0.74264">
        <ele>1901</ele>
        <time>2013-04-23T14:06:15Z</time>
      </trkpt>
      <trkpt lat="48.16369" lon="-0.74281">
        <ele>1902</ele>
        <time>2013-04-23T14:06:18Z</time>
      </trkpt>
      <trkpt lat="48.16383" lon="-0.74298">
        <ele>1904</ele>
        <time>2013-04-23T14:06:21Z</time>
      </trkpt>
      <trkpt lat="48.16399" lon="-0.74316">
        <ele>1905</ele>
        <time>2013-04-23T14:06:24Z</time>
      </trkpt>
      <trkpt lat="48.16412" lon="-0.74336">
        <ele>1907</ele>
        <time>2013-04-23T14:06:27Z</time>
      </trkpt>
      <trkpt lat="48.16424" lon="-0.74355">
        <ele>1908</ele>
        <time>2013-04-23T14:06:30Z</time>
      </trkpt>
      <trkpt lat="48.1644" lon="-0.7437">
        <ele>1910</ele>
        <time>2013-04-23T14:06:33Z</time>
      </trkpt>
      <trkpt lat="48.16456" lon="-0.74384">
        <ele>1911</ele>
        <time>2013-04-23T14:06:36Z</time>
      </trkpt>
      <trkpt lat="48.16472" lon="-0.744">
        <ele>1913</ele>
        <time>2013-04-23T14:06:39Z</time>
      </trkpt>
      <trkpt lat="48.16486" lon="-0.74416">
        <ele>1914</ele>
        <time>2013-04-23T14:06:42Z</time>
      </trkpt>
      <trkpt lat="48.16503" lon="-0.7443">
        <ele>1916</ele>
        <time>2013-04-23T14:06:45Z</time>
      </trkpt>
      <trkpt lat="48.16515" lon="-0.74446">
        <ele>1917</ele>
        <time>2013-04-23T14:06:48Z</time>
      </trkpt>
      <trkpt lat="48.16532" lon="-0.7446">
        <ele>1919</ele>
        <time>2013-04-23T14:06:51Z</time>
      </trkpt>
      <trkpt lat="48.16547" lon="-0.74469">
        <ele>1920</ele>
        <time>2013-04-23T14:06:53Z</time>
      </trkpt>
      <trkpt lat="48.16555" lon="-0.74481">
        <ele>1922</ele>
        <time>2013-04-23T14:06:56Z</time>
      </trkpt>
      <trkpt lat="48.16562" lon="-0.74494">
        <ele>1923</ele>
        <time>2013-04-23T14:06:59Z</time>
      </trkpt>
      <trkpt lat="48.16574" lon="-0.74502">
        <ele>1925</ele>
        <time>2013-04-23T14:07:02Z</time>
      </trkpt>
      <trkpt lat="48.1659" lon="-0.74509">
        <ele>1926</ele>
        <time>2013-04-23T14:07:05Z</time>
      </trkpt>
      <trkpt lat="48.16602" lon="-0.74518">
        <ele>1928</ele>
        <time>2013-04-23T14:07:08Z</time>
      </trkpt>
      <trkpt lat="48.16611" lon="-0.74525">
        <ele>1929</ele>
        <time>2013-04-23T14:07:11Z</time>
      </trkpt>
      <trkpt lat="48.16621" lon="-0.74529">
        <ele>1931</ele>
        <time>2013-04-23T14:07:14Z</time>
      </trkpt>
      <trkpt lat="48.16632" lon="-0.74535">
        <ele>1932</ele>
        <time>2013-04-23T14:07:17Z</time>
      </trkpt>
      <trkpt lat="48.16643" lon="-0.74541">
        <ele>1934</ele>
        <time>2013-04-23T14:07:20Z</time>
      </trkpt>
      <trkpt lat="48.16654" lon="-0.74548">
        <ele>1935</ele>
        <time>2013-04-23T14:07:23Z</time>
      </trkpt>
      <trkpt lat="48.16661" lon="-0.74554">
        <ele>1937</ele>
        <time>2013-04-23T14:07:26Z</time>
      </trkpt>
      <trkpt lat="48.16671" lon="-0.74558">
        <ele>1938</ele>
        <time>2013-04-23T14:07:29Z</time>
      </trkpt>
      <trkpt lat="48.16679" lon="-0.74569">
        <ele>1940</ele>
        <time>2013-04-23T14:07:32Z</time>
      </trkpt>
      <trkpt lat="48.16691" lon="-0.74577">
        <ele>1941</ele>
        <time>2013-04-23T14:07:35Z</time>
      </trkpt>
      <trkpt lat="48.16705" lon="-0.74588">
        <ele>1943</ele>
        <time>2013-04-23T14:07:38Z</time>
      </trkpt>
      <trkpt lat="48.16722" lon="-0.746">
        <ele>1945</ele>
        <time>2013-04-23T14:07:41Z</time>
      </trkpt>
      <trkpt lat="48.16736" lon="-0.74611">
        <ele>1946</ele>
        <time>2013-04-23T14:07:44Z</time>
      </trkpt>
      <trkpt lat="48.16748" lon="-0.74627">
        <ele>1948</ele>
        <time>2013-04-23T14:07:47Z</time>
      </trkpt>
      <trkpt lat="48.1676" lon="-0.74641">
        <ele>1949</ele>
        <time>2013-04-23T14:07:49Z</time>
      </trkpt>
      <trkpt lat="48.1677" lon="-0.7466">
        <ele>1951</ele>
        <time>2013-04-23T14:07:52Z</time>
      </trkpt>
      <trkpt lat="48.16782" lon="-0.74678">
        <ele>1953</ele>
        <time>2013-04-23T14:07:55Z</time>
      </trkpt>
      <trkpt lat="48.16794" lon="-0.74696">
        <ele>1954</ele>
        <time>2013-04-23T14:07:58Z</time>
      </trkpt>
      <trkpt lat="48.16804" lon="-0.74715">
        <ele>1956</ele>
        <time>2013-04-23T14:08:01Z</time>
      </trkpt>
      <trkpt lat="48.16818" lon="-0.74732">
        <ele>1957</ele>
        <time>2013-04-23T14:08:04Z</time>
      </trkpt>
      <trkpt lat="48.16834" lon="-0.74747">
        <ele>1959</ele>
        <time>2013-04-23T14:08:07Z</time>
      </trkpt>
      <trkpt lat="48.16848" lon="-0.74761">
        <ele>1960</ele>
        <time>2013-04-23T14:08:10Z</time>
      </trkpt>
      <trkpt lat="48.16857" lon="-0.74776">
        <ele>1961</ele>
        <time>2013-04-23T14:08:13Z</time>
      </trkpt>
      <trkpt lat="48.16868" lon="-0.74788">
        <ele>1963</ele>
        <time>2013-04-23T14:08:16Z</time>
      </trkpt>
      <trkpt lat="48.1688" lon="-0.74801">
        <ele>1964</ele>
        <time>2013-04-23T14:08:19Z</time>
      </trkpt>
      <trkpt lat="48.1689" lon="-0.7482">
        <ele>1966</ele>
        <time>2013-04-23T14:08:22Z</time>
      </trkpt>
      <trkpt lat="48.16906" lon="-0.74833">
        <ele>1967</ele>
        <time>2013-04-23T14:08:25Z</time>
      </trkpt>
      <trkpt lat="48.16925" lon="-0.74849">
        <ele>1969</ele>
        <time>2013-04-23T14:08:28Z</time>
      </trkpt>
      <trkpt lat="48.16944" lon="-0.74863">
        <ele>1970</ele>
        <time>2013-04-23T14:08:31Z</time>
      </trkpt>
      <trkpt lat="48.16956" lon="-0.74879">
        <ele>1972</ele>
        <time>2013-04-23T14:08:34Z</time>
      </trkpt>
      <trkpt lat="48.16974" lon="-0.7489">
        <ele>1973</ele>
        <time>2013-04-23T14:08:37Z</time>
      </trkpt>
      <trkpt lat="48.1699" lon="-0.74903">
        <ele>1975</ele>
        <time>2013-04-23T14:08:40Z</time>
      </trkpt>
      <trkpt lat="48.17002" lon="-0.74912">
        <ele>1976</ele>
        <time>2013-04-23T14:08:42Z</time>
      </trkpt>
      <trkpt lat="48.17018" lon="-0.74919">
        <ele>1978</ele>
        <time>2013-04-23T14:08:45Z</time>
      </trkpt>
      <trkpt lat="48.17033" lon="-0.74922">
        <ele>1979</ele>
        <time>2013-04-23T14:08:48Z</time>
      </trkpt>
      <trkpt lat="48.17043" lon="-0.74924">
        <ele>1981</ele>
        <time>2013-04-23T14:08:51Z</time>
      </trkpt>
      <trkpt lat="48.17058" lon="-0.74929">
        <ele>1982</ele>
        <time>2013-04-23T14:08:54Z</time>
      </trkpt>
      <trkpt lat="48.17072" lon="-0.74933">
        <ele>1984</ele>
        <time>2013-04-23T14:08:57Z</time>
      </trkpt>
      <trkpt lat="48.17085" lon="-0.7494">
        <ele>1985</ele>
        <time>2013-04-23T14:09:00Z</time>
      </trkpt>
      <trkpt lat="48.17097" lon="-0.74946">
        <ele>1987</ele>
        <time>2013-04-23T14:09:03Z</time>
      </trkpt>
      <trkpt lat="48.1711" lon="-0.74955">
        <ele>1988</ele>
        <time>2013-04-23T14:09:06Z</time>
      </trkpt>
      <trkpt lat="48.17129" lon="-0.74957">
        <ele>1990</ele>
        <time>2013-04-23T14:09:09Z</time>
      </trkpt>
      <trkpt lat="48.17145" lon="-0.7496">
        <ele>1991</ele>
        <time>2013-04-23T14:09:12Z</time>
      </trkpt>
      <trkpt lat="48.17164" lon="-0.7496">
        <ele>1993</ele>
        <time>2013-04-23T14:09:15Z</time>
      </trkpt>
      <trkpt lat="48.17182" lon="-0.74963">
        <ele>1995</ele>
        <time>2013-04-23T14:09:18Z</time>
      </trkpt>
      <trkpt lat="48.17203" lon="-0.74966">
        <ele>1996</ele>
        <time>2013-04-23T14:09:21Z</time>
      </trkpt>
      <trkpt lat="48.17221" lon="-0.74966">
        <ele>1998</ele>
        <time>2013-04-23T14:09:24Z</time>
      </trkpt>
      <trkpt lat="48.17241" lon="-0.74963">
        <ele>1999</ele>
        <time>2013-04-23T14:09:27Z</time>
      </trkpt>
      <trkpt lat="48.17258" lon="-0.74962">
        <ele>2001</ele>
        <time>2013-04-23T14:09:30Z</time>
      </trkpt>
      <trkpt lat="48.17276" lon="-0.74959">
        <ele>2003</ele>
        <time>2013-04-23T14:09:33Z</time>
      </trkpt>
      <trkpt lat="48.17294" lon="-0.74952">
        <ele>2004</ele>
        <time>2013-04-23T14:09:35Z</time>
      </trkpt>
      <trkpt lat="48.17312" lon="-0.74945">
        <ele>2006</ele>
        <time>2013-04-23T14:09:38Z</time>
      </trkpt>
      <trkpt lat="48.17323" lon="-0.74935">
        <ele>2007</ele>
        <time>2013-04-23T14:09:41Z</time>
      </trkpt>
      <trkpt lat="48.17343" lon="-0.74925">
        <ele>2009</ele>
        <time>2013-04-23T14:09:44Z</time>
      </trkpt>
      <trkpt lat="48.1736" lon="-0.74915">
        <ele>2011</ele>
        <time>2013-04-23T14:09:47Z</time>
      </trkpt>
      <trkpt lat="48.17374" lon="-0.74901">
        <ele>2012</ele>
        <time>2013-04-23T14:09:50Z</time>
      </trkpt>
      <trkpt lat="48.17387" lon="-0.74886">
        <ele>2014</ele>
        <time>2013-04-23T14:09:53Z</time>
      </trkpt>
      <trkpt lat="48.174" lon="-0.7487">
        <ele>2015</ele>
        <time>2013-04-23T14:09:56Z</time>
      </trkpt>
      <trkpt lat="48.17413" lon="-0.74855">
        <ele>2017</ele>
        <time>2013-04-23T14:09:59Z</time>
      </trkpt>
      <trkpt lat="48.17425" lon="-0.74842">
        <ele>2019</ele>
        <time>2013-04-23T14:10:02Z</time>
      </trkpt>
      <trkpt lat="48.17435" lon="-0.74832">
        <ele>2020</ele>
        <time>2013-04-23T14:10:05Z</time>
      </trkpt>
      <trkpt lat="48.17446" lon="-0.74818">
        <ele>2022</ele>
        <time>2013-04-23T14:10:08Z</time>
      </trkpt>
      <trkpt lat="48.17455" lon="-0.74807">
        <ele>2023</ele>
        <time>2013-04-23T14:10:11Z</time>
      </trkpt>
      <trkpt lat="48.17462" lon="-0.74796">
        <ele>2025</ele>
        <time>2013-04-23T14:10:15Z</time>
      </trkpt>
      <trkpt lat="48.17466" lon="-0.74788">
        <ele>2027</ele>
        <time>2013-04-23T14:10:18Z</time>
      </trkpt>
      <trkpt lat="48.17471" lon="-0.74783">
        <ele>2028</ele>
        <time>2013-04-23T14:10:21Z</time>
      </trkpt>
      <trkpt lat="48.17478" lon="-0.74774">
        <ele>2030</ele>
        <time>2013-04-23T14:10:24Z</time>
      </trkpt>
      <trkpt lat="48.17485" lon="-0.74765">
        <ele>2031</ele>
        <time>2013-04-23T14:10:27Z</time>
      </trkpt>
      <trkpt lat="48.17491" lon="-0.74754">
        <ele>2033</ele>
        <time>2013-04-23T14:10:30Z</time>
      </trkpt>
      <trkpt lat="48.17499" lon="-0.74739">
        <ele>2035</ele>
        <time>2013-04-23T14:10:32Z</time>
      </trkpt>
      <trkpt lat="48.1751" lon="-0.74723">
        <ele>2037</ele>
        <time>2013-04-23T14:10:35Z</time>
      </trkpt>
      <trkpt lat="48.17523" lon="-0.74702">
        <ele>2038</ele>
        <time>2013-04-23T14:10:38Z</time>
      </trkpt>
      <trkpt lat="48.17542" lon="-0.74683">
        <ele>2040</ele>
        <time>2013-04-23T14:10:41Z</time>
      </trkpt>
      <trkpt lat="48.17548" lon="-0.74662">
        <ele>2042</ele>
        <time>2013-04-23T14:10:44Z</time>
      </trkpt>
      <trkpt lat="48.17559" lon="-0.74646">
        <ele>2044</ele>
        <time>2013-04-23T14:10:47Z</time>
      </trkpt>
      <trkpt lat="48.17571" lon="-0.74629">
        <ele>2046</ele>
        <time>2013-04-23T14:10:50Z</time>
      </trkpt>
      <trkpt lat="48.1758" lon="-0.74614">
        <ele>2047</ele>
        <time>2013-04-23T14:10:53Z</time>
      </trkpt>
      <trkpt lat="48.17586" lon="-0.74597">
        <ele>2049</ele>
        <time>2013-04-23T14:10:56Z</time>
      </trkpt>
      <trkpt lat="48.17597" lon="-0.74583">
        <ele>2051</ele>
        <time>2013-04-23T14:10:59Z</time>
      </trkpt>
      <trkpt lat="48.17605" lon="-0.74562">
        <ele>2052</ele>
        <time>2013-04-23T14:11:02Z</time>
      </trkpt>
      <trkpt lat="48.17608" lon="-0.74547">
        <ele>2054</ele>
        <time>2013-04-23T14:11:05Z</time>
      </trkpt>
      <trkpt lat="48.17618" lon="-0.74532">
        <ele>2055</ele>
        <time>2013-04-23T14:11:08Z</time>
      </trkpt>
      <trkpt lat="48.17624" lon="-0.74516">
        <ele>2057</ele>
        <time>2013-04-23T14:11:11Z</time>
      </trkpt>
      <trkpt lat="48.17633" lon="-0.74505">
        <ele>2059</ele>
        <time>2013-04-23T14:11:14Z</time>
      </trkpt>
      <trkpt lat="48.17641" lon="-0.74495">
        <ele>2060</ele>
        <time>2013-04-23T14:11:17Z</time>
      </trkpt>
      <trkpt lat="48.17648" lon="-0.74481">
        <ele>2062</ele>
        <time>2013-04-23T14:11:20Z</time>
      </trkpt>
      <trkpt lat="48.17655" lon="-0.74473">
        <ele>2063</ele>
        <time>2013-04-23T14:11:23Z</time>
      </trkpt>
      <trkpt lat="48.17657" lon="-0.7447">
        <ele>2065</ele>
        <time>2013-04-23T14:11:26Z</time>
      </trkpt>
      <trkpt lat="48.17662" lon="-0.74462">
        <ele>2067</ele>
        <time>2013-04-23T14:11:29Z</time>
      </trkpt>
      <trkpt lat="48.17667" lon="-0.74449">
        <ele>2068</ele>
        <time>2013-04-23T14:11:32Z</time>
      </trkpt>
      <trkpt lat="48.17674" lon="-0.74435">
        <ele>2070</ele>
        <time>2013-04-23T14:11:35Z</time>
      </trkpt>
      <trkpt lat="48.17682" lon="-0.74427">
        <ele>2072</ele>
        <time>2013-04-23T14:11:42Z</time>
      </trkpt>
      <trkpt lat="48.17687" lon="-0.74416">
        <ele>2074</ele>
        <time>2013-04-23T14:11:59Z</time>
      </trkpt>
      <trkpt lat="48.17705" lon="-0.74425">
        <ele>2076</ele>
        <time>2013-04-23T14:12:02Z</time>
      </trkpt>
      <trkpt lat="48.17713" lon="-0.74437">
        <ele>2078</ele>
        <time>2013-04-23T14:12:06Z</time>
      </trkpt>
      <trkpt lat="48.17715" lon="-0.74441">
        <ele>2081</ele>
        <time>2013-04-23T14:12:10Z</time>
      </trkpt>
      <trkpt lat="48.17706" lon="-0.74446">
        <ele>2083</ele>
        <time>2013-04-23T14:12:13Z</time>
      </trkpt>
      <trkpt lat="48.17696" lon="-0.74448">
        <ele>2085</ele>
        <time>2013-04-23T14:12:18Z</time>
      </trkpt>
      <trkpt lat="48.17685" lon="-0.74444">
        <ele>2086</ele>
        <time>2013-04-23T14:12:33Z</time>
      </trkpt>
      <trkpt lat="48.17679" lon="-0.74429">
        <ele>2088</ele>
        <time>2013-04-23T14:12:36Z</time>
      </trkpt>
      <trkpt lat="48.17675" lon="-0.74437">
        <ele>2090</ele>
        <time>2013-04-23T14:12:40Z</time>
      </trkpt>
      <trkpt lat="48.17664" lon="-0.74439">
        <ele>2092</ele>
        <time>2013-04-23T14:12:44Z</time>
      </trkpt>
      <trkpt lat="48.17655" lon="-0.7444">
        <ele>2094</ele>
        <time>2013-04-23T14:12:47Z</time>
      </trkpt>
      <trkpt lat="48.17646" lon="-0.74442">
        <ele>2096</ele>
        <time>2013-04-23T14:12:50Z</time>
      </trkpt>
      <trkpt lat="48.1764" lon="-0.74445">
        <ele>2097</ele>
        <time>2013-04-23T14:12:53Z</time>
      </trkpt>
      <trkpt lat="48.17633" lon="-0.74447">
        <ele>2099</ele>
        <time>2013-04-23T14:12:56Z</time>
      </trkpt>
      <trkpt lat="48.17631" lon="-0.74442">
        <ele>2101</ele>
        <time>2013-04-23T14:12:59Z</time>
      </trkpt>
      <trkpt lat="48.17636" lon="-0.74437">
        <ele>2103</ele>
        <time>2013-04-23T14:13:02Z</time>
      </trkpt>
      <trkpt lat="48.1764" lon="-0.74435">
        <ele>2105</ele>
        <time>2013-04-23T14:13:05Z</time>
      </trkpt>
      <trkpt lat="48.17643" lon="-0.74431">
        <ele>2106</ele>
        <time>2013-04-23T14:13:08Z</time>
      </trkpt>
      <trkpt lat="48.17646" lon="-0.74427">
        <ele>2108</ele>
        <time>2013-04-23T14:13:11Z</time>
      </trkpt>
      <trkpt lat="48.1765" lon="-0.7442">
        <ele>2110</ele>
        <time>2013-04-23T14:13:14Z</time>
      </trkpt>
      <trkpt lat="48.17654" lon="-0.74415">
        <ele>2112</ele>
        <time>2013-04-23T14:16:18Z</time>
      </trkpt>
      <trkpt lat="48.1765" lon="-0.74426">
        <ele>2114</ele>
        <time>2013-04-23T14:16:19Z</time>
      </trkpt>
      <trkpt lat="48.17653" lon="-0.74433">
        <ele>2115</ele>
        <time>2013-04-23T14:16:22Z</time>
      </trkpt>
      <trkpt lat="48.17656" lon="-0.74439">
        <ele>2117</ele>
        <time>2013-04-23T14:16:25Z</time>
      </trkpt>
      <trkpt lat="48.1766" lon="-0.74444">
        <ele>2119</ele>
        <time>2013-04-23T14:16:28Z</time>
      </trkpt>
      <trkpt lat="48.17666" lon="-0.74452">
        <ele>2121</ele>
        <time>2013-04-23T14:16:31Z</time>
      </trkpt>
      <trkpt lat="48.17675" lon="-0.74468">
        <ele>2122</ele>
        <time>2013-04-23T14:16:34Z</time>
      </trkpt>
      <trkpt lat="48.17682" lon="-0.74481">
        <ele>2124</ele>
        <time>2013-04-23T14:16:37Z</time>
      </trkpt>
      <trkpt lat="48.1769" lon="-0.745">
        <ele>2126</ele>
        <time>2013-04-23T14:16:40Z</time>
      </trkpt>
      <trkpt lat="48.17696" lon="-0.74515">
        <ele>2128</ele>
        <time>2013-04-23T14:16:43Z</time>
      </trkpt>
      <trkpt lat="48.17703" lon="-0.74531">
        <ele>2129</ele>
        <time>2013-04-23T14:16:46Z</time>
      </trkpt>
      <trkpt lat="48.17708" lon="-0.74543">
        <ele>2131</ele>
        <time>2013-04-23T14:16:49Z</time>
      </trkpt>
      <trkpt lat="48.17714" lon="-0.74554">
        <ele>2133</ele>
        <time>2013-04-23T14:16:52Z</time>
      </trkpt>
      <trkpt lat="48.17721" lon="-0.74569">
        <ele>2134</ele>
        <time>2013-04-23T14:16:55Z</time>
      </trkpt>
      <trkpt lat="48.1773" lon="-0.74582">
        <ele>2136</ele>
        <time>2013-04-23T14:16:58Z</time>
      </trkpt>
      <trkpt lat="48.17738" lon="-0.74587">
        <ele>2138</ele>
        <time>2013-04-23T14:17:01Z</time>
      </trkpt>
      <trkpt lat="48.1775" lon="-0.74591">
        <ele>2139</ele>
        <time>2013-04-23T14:17:04Z</time>
      </trkpt>
      <trkpt lat="48.17764" lon="-0.74594">
        <ele>2141</ele>
        <time>2013-04-23T14:17:07Z</time>
      </trkpt>
      <trkpt lat="48.17777" lon="-0.746">
        <ele>2143</ele>
        <time>2013-04-23T14:17:09Z</time>
      </trkpt>
      <trkpt lat="48.17788" lon="-0.74607">
        <ele>2145</ele>
        <time>2013-04-23T14:17:12Z</time>
      </trkpt>
      <trkpt lat="48.17796" lon="-0.74617">
        <ele>2146</ele>
        <time>2013-04-23T14:17:15Z</time>
      </trkpt>
      <trkpt lat="48.17804" lon="-0.74627">
        <ele>2148</ele>
        <time>2013-04-23T14:17:18Z</time>
      </trkpt>
      <trkpt lat="48.17816" lon="-0.74636">
        <ele>2150</ele>
        <time>2013-04-23T14:17:21Z</time>
      </trkpt>
      <trkpt lat="48.17828" lon="-0.74644">
        <ele>2151</ele>
        <time>2013-04-23T14:17:24Z</time>
      </trkpt>
      <trkpt lat="48.17841" lon="-0.74652">
        <ele>2153</ele>
        <time>2013-04-23T14:17:27Z</time>
      </trkpt>
      <trkpt lat="48.17853" lon="-0.74659">
        <ele>2155</ele>
        <time>2013-04-23T14:17:30Z</time>
      </trkpt>
      <trkpt lat="48.17864" lon="-0.74669">
        <ele>2157</ele>
        <time>2013-04-23T14:17:33Z</time>
      </trkpt>
      <trkpt lat="48.17876" lon="-0.74679">
        <ele>2159</ele>
        <time>2013-04-23T14:17:36Z</time>
      </trkpt>
      <trkpt lat="48.17885" lon="-0.7469">
        <ele>2160</ele>
        <time>2013-04-23T14:17:39Z</time>
      </trkpt>
      <trkpt lat="48.17894" lon="-0.74706">
        <ele>2162</ele>
        <time>2013-04-23T14:17:42Z</time>
      </trkpt>
      <trkpt lat="48.17899" lon="-0.74722">
        <ele>2164</ele>
        <time>2013-04-23T14:17:45Z</time>
      </trkpt>
      <trkpt lat="48.17903" lon="-0.74741">
        <ele>2166</ele>
        <time>2013-04-23T14:17:48Z</time>
      </trkpt>
      <trkpt lat="48.17905" lon="-0.7476">
        <ele>2168</ele>
        <time>2013-04-23T14:17:51Z</time>
      </trkpt>
      <trkpt lat="48.17908" lon="-0.74776">
        <ele>2170</ele>
        <time>2013-04-23T14:17:54Z</time>
      </trkpt>
      <trkpt lat="48.1791" lon="-0.74794">
        <ele>2171</ele>
        <time>2013-04-23T14:17:57Z</time>
      </trkpt>
      <trkpt lat="48.1791" lon="-0.74811">
        <ele>2173</ele>
        <time>2013-04-23T14:18:00Z</time>
      </trkpt>
      <trkpt lat="48.17913" lon="-0.7483">
        <ele>2175</ele>
        <time>2013-04-23T14:18:02Z</time>
      </trkpt>
      <trkpt lat="48.17915" lon="-0.74847">
        <ele>2177</ele>
        <time>2013-04-23T14:18:05Z</time>
      </trkpt>
      <trkpt lat="48.17918" lon="-0.74866">
        <ele>2179</ele>
        <time>2013-04-23T14:18:08Z</time>
      </trkpt>
      <trkpt lat="48.17924" lon="-0.74882">
        <ele>2181</ele>
        <time>2013-04-23T14:18:11Z</time>
      </trkpt>
      <trkpt lat="48.17931" lon="-0.749">
        <ele>2183</ele>
        <time>2013-04-23T14:18:14Z</time>
      </trkpt>
      <trkpt lat="48.17936" lon="-0.74914">
        <ele>2185</ele>
        <time>2013-04-23T14:18:17Z</time>
      </trkpt>
      <trkpt lat="48.17942" lon="-0.74926">
        <ele>2187</ele>
        <time>2013-04-23T14:18:20Z</time>
      </trkpt>
      <trkpt lat="48.17947" lon="-0.74939">
        <ele>2188</ele>
        <time>2013-04-23T14:18:23Z</time>
      </trkpt>
      <trkpt lat="48.17953" lon="-0.74952">
        <ele>2190</ele>
        <time>2013-04-23T14:18:26Z</time>
      </trkpt>
      <trkpt lat="48.17959" lon="-0.74966">
        <ele>2192</ele>
        <time>2013-04-23T14:18:29Z</time>
      </trkpt>
      <trkpt lat="48.17966" lon="-0.74981">
        <ele>2194</ele>
        <time>2013-04-23T14:18:32Z</time>
      </trkpt>
      <trkpt lat="48.17973" lon="-0.74995">
        <ele>2196</ele>
        <time>2013-04-23T14:18:35Z</time>
      </trkpt>
      <trkpt lat="48.17978" lon="-0.75007">
        <ele>2198</ele>
        <time>2013-04-23T14:18:38Z</time>
      </trkpt>
      <trkpt lat="48.17983" lon="-0.75021">
        <ele>2200</ele>
        <time>2013-04-23T14:18:41Z</time>
      </trkpt>
      <trkpt lat="48.17988" lon="-0.75037">
        <ele>2202</ele>
        <time>2013-04-23T14:18:44Z</time>
      </trkpt>
      <trkpt lat="48.1799" lon="-0.75051">
        <ele>2204</ele>
        <time>2013-04-23T14:18:47Z</time>
      </trkpt>
      <trkpt lat="48.1799" lon="-0.75062">
        <ele>2206</ele>
        <time>2013-04-23T14:18:50Z</time>
      </trkpt>
      <trkpt lat="48.1799" lon="-0.75076">
        <ele>2208</ele>
        <time>2013-04-23T14:18:53Z</time>
      </trkpt>
      <trkpt lat="48.17988" lon="-0.75089">
        <ele>2210</ele>
        <time>2013-04-23T14:18:55Z</time>
      </trkpt>
      <trkpt lat="48.17987" lon="-0.75099">
        <ele>2212</ele>
        <time>2013-04-23T14:18:58Z</time>
      </trkpt>
      <trkpt lat="48.17985" lon="-0.75113">
        <ele>2214</ele>
        <time>2013-04-23T14:19:01Z</time>
      </trkpt>
      <trkpt lat="48.17981" lon="-0.75125">
        <ele>2216</ele>
        <time>2013-04-23T14:19:04Z</time>
      </trkpt>
      <trkpt lat="48.17979" lon="-0.75135">
        <ele>2218</ele>
        <time>2013-04-23T14:19:07Z</time>
      </trkpt>
      <trkpt lat="48.17975" lon="-0.75145">
        <ele>2220</ele>
        <time>2013-04-23T14:19:10Z</time>
      </trkpt>
      <trkpt lat="48.17971" lon="-0.75154">
        <ele>2222</ele>
        <time>2013-04-23T14:19:13Z</time>
      </trkpt>
      <trkpt lat="48.17969" lon="-0.75159">
        <ele>2224</ele>
        <time>2013-04-23T14:19:16Z</time>
      </trkpt>
      <trkpt lat="48.17972" lon="-0.75163">
        <ele>2226</ele>
        <time>2013-04-23T14:19:19Z</time>
      </trkpt>
      <trkpt lat="48.17972" lon="-0.75168">
        <ele>2228</ele>
        <time>2013-04-23T14:19:22Z</time>
      </trkpt>
      <trkpt lat="48.17968" lon="-0.75176">
        <ele>2230</ele>
        <time>2013-04-23T14:19:25Z</time>
      </trkpt>
      <trkpt lat="48.17962" lon="-0.75185">
        <ele>2232</ele>
        <time>2013-04-23T14:19:28Z</time>
      </trkpt>
      <trkpt lat="48.17958" lon="-0.75197">
        <ele>2234</ele>
        <time>2013-04-23T14:19:31Z</time>
      </trkpt>
      <trkpt lat="48.17955" lon="-0.75211">
        <ele>2236</ele>
        <time>2013-04-23T14:19:34Z</time>
      </trkpt>
      <trkpt lat="48.17951" lon="-0.75225">
        <ele>2238</ele>
        <time>2013-04-23T14:19:37Z</time>
      </trkpt>
      <trkpt lat="48.17947" lon="-0.75238">
        <ele>2240</ele>
        <time>2013-04-23T14:19:40Z</time>
      </trkpt>
      <trkpt lat="48.17944" lon="-0.75253">
        <ele>2242</ele>
        <time>2013-04-23T14:19:43Z</time>
      </trkpt>
      <trkpt lat="48.17939" lon="-0.75267">
        <ele>2244</ele>
        <time>2013-04-23T14:19:46Z</time>
      </trkpt>
      <trkpt lat="48.17934" lon="-0.75282">
        <ele>2246</ele>
        <time>2013-04-23T14:19:48Z</time>
      </trkpt>
      <trkpt lat="48.1793" lon="-0.75297">
        <ele>2248</ele>
        <time>2013-04-23T14:19:51Z</time>
      </trkpt>
      <trkpt lat="48.17926" lon="-0.75313">
        <ele>2250</ele>
        <time>2013-04-23T14:19:54Z</time>
      </trkpt>
      <trkpt lat="48.17922" lon="-0.75328">
        <ele>2252</ele>
        <time>2013-04-23T14:19:57Z</time>
      </trkpt>
      <trkpt lat="48.1792" lon="-0.75344">
        <ele>2254</ele>
        <time>2013-04-23T14:20:00Z</time>
      </trkpt>
      <trkpt lat="48.17918" lon="-0.7536">
        <ele>2256</ele>
        <time>2013-04-23T14:20:03Z</time>
      </trkpt>
      <trkpt lat="48.17917" lon="-0.75377">
        <ele>2258</ele>
        <time>2013-04-23T14:20:06Z</time>
      </trkpt>
      <trkpt lat="48.17918" lon="-0.75393">
        <ele>2260</ele>
        <time>2013-04-23T14:20:09Z</time>
      </trkpt>
      <trkpt lat="48.17919" lon="-0.75408">
        <ele>2262</ele>
        <time>2013-04-23T14:20:12Z</time>
      </trkpt>
      <trkpt lat="48.17918" lon="-0.75423">
        <ele>2264</ele>
        <time>2013-04-23T14:20:15Z</time>
      </trkpt>
      <trkpt lat="48.17919" lon="-0.7544">
        <ele>2266</ele>
        <time>2013-04-23T14:20:18Z</time>
      </trkpt>
      <trkpt lat="48.1792" lon="-0.75458">
        <ele>2268</ele>
        <time>2013-04-23T14:20:21Z</time>
      </trkpt>
      <trkpt lat="48.17922" lon="-0.75474">
        <ele>2270</ele>
        <time>2013-04-23T14:20:24Z</time>
      </trkpt>
      <trkpt lat="48.17922" lon="-0.75489">
        <ele>2272</ele>
        <time>2013-04-23T14:20:27Z</time>
      </trkpt>
      <trkpt lat="48.17924" lon="-0.75504">
        <ele>2274</ele>
        <time>2013-04-23T14:20:30Z</time>
      </trkpt>
      <trkpt lat="48.17923" lon="-0.75518">
        <ele>2276</ele>
        <time>2013-04-23T14:20:33Z</time>
      </trkpt>
      <trkpt lat="48.17924" lon="-0.75535">
        <ele>2278</ele>
        <time>2013-04-23T14:20:36Z</time>
      </trkpt>
      <trkpt lat="48.17922" lon="-0.75551">
        <ele>2280</ele>
        <time>2013-04-23T14:20:39Z</time>
      </trkpt>
      <trkpt lat="48.17921" lon="-0.75565">
        <ele>2282</ele>
        <time>2013-04-23T14:20:42Z</time>
      </trkpt>
      <trkpt lat="48.17921" lon="-0.75586">
        <ele>2284</ele>
        <time>2013-04-23T14:20:44Z</time>
      </trkpt>
      <trkpt lat="48.17918" lon="-0.75601">
        <ele>2286</ele>
        <time>2013-04-23T14:20:47Z</time>
      </trkpt>
      <trkpt lat="48.17916" lon="-0.75616">
        <ele>2288</ele>
        <time>2013-04-23T14:20:50Z</time>
      </trkpt>
      <trkpt lat="48.17911" lon="-0.75629">
        <ele>2291</ele>
        <time>2013-04-23T14:20:53Z</time>
      </trkpt>
      <trkpt lat="48.17907" lon="-0.75646">
        <ele>2293</ele>
        <time>2013-04-23T14:20:56Z</time>
      </trkpt>
      <trkpt lat="48.17904" lon="-0.75659">
        <ele>2295</ele>
        <time>2013-04-23T14:20:59Z</time>
      </trkpt>
      <trkpt lat="48.179" lon="-0.75677">
        <ele>2297</ele>
        <time>2013-04-23T14:21:02Z</time>
      </trkpt>
      <trkpt lat="48.17895" lon="-0.75693">
        <ele>2299</ele>
        <time>2013-04-23T14:21:05Z</time>
      </trkpt>
      <trkpt lat="48.17892" lon="-0.75706">
        <ele>2301</ele>
        <time>2013-04-23T14:21:08Z</time>
      </trkpt>
      <trkpt lat="48.17888" lon="-0.75723">
        <ele>2303</ele>
        <time>2013-04-23T14:21:11Z</time>
      </trkpt>
      <trkpt lat="48.17883" lon="-0.75739">
        <ele>2305</ele>
        <time>2013-04-23T14:21:14Z</time>
      </trkpt>
      <trkpt lat="48.17884" lon="-0.75756">
        <ele>2307</ele>
        <time>2013-04-23T14:21:17Z</time>
      </trkpt>
      <trkpt lat="48.17882" lon="-0.7577">
        <ele>2309</ele>
        <time>2013-04-23T14:21:20Z</time>
      </trkpt>
      <trkpt lat="48.17877" lon="-0.75787">
        <ele>2312</ele>
        <time>2013-04-23T14:21:23Z</time>
      </trkpt>
      <trkpt lat="48.17874" lon="-0.75805">
        <ele>2314</ele>
        <time>2013-04-23T14:21:26Z</time>
      </trkpt>
      <trkpt lat="48.17874" lon="-0.75819">
        <ele>2316</ele>
        <time>2013-04-23T14:21:29Z</time>
      </trkpt>
      <trkpt lat="48.17873" lon="-0.75833">
        <ele>2318</ele>
        <time>2013-04-23T14:21:32Z</time>
      </trkpt>
      <trkpt lat="48.1787" lon="-0.75847">
        <ele>2320</ele>
        <time>2013-04-23T14:21:35Z</time>
      </trkpt>
      <trkpt lat="48.17866" lon="-0.75863">
        <ele>2323</ele>
        <time>2013-04-23T14:21:37Z</time>
      </trkpt>
      <trkpt lat="48.17862" lon="-0.7588">
        <ele>2325</ele>
        <time>2013-04-23T14:21:40Z</time>
      </trkpt>
      <trkpt lat="48.17856" lon="-0.75897">
        <ele>2327</ele>
        <time>2013-04-23T14:21:43Z</time>
      </trkpt>
      <trkpt lat="48.17853" lon="-0.75913">
        <ele>2329</ele>
        <time>2013-04-23T14:21:46Z</time>
      </trkpt>
      <trkpt lat="48.17853" lon="-0.75929">
        <ele>2331</ele>
        <time>2013-04-23T14:21:49Z</time>
      </trkpt>
      <trkpt lat="48.17849" lon="-0.75942">
        <ele>2334</ele>
        <time>2013-04-23T14:21:52Z</time>
      </trkpt>
      <trkpt lat="48.17845" lon="-0.75959">
        <ele>2336</ele>
        <time>2013-04-23T14:21:55Z</time>
      </trkpt>
      <trkpt lat="48.17841" lon="-0.75974">
        <ele>2338</ele>
        <time>2013-04-23T14:21:58Z</time>
      </trkpt>
      <trkpt lat="48.17836" lon="-0.75988">
        <ele>2340</ele>
        <time>2013-04-23T14:22:01Z</time>
      </trkpt>
      <trkpt lat="48.17833" lon="-0.76002">
        <ele>2342</ele>
        <time>2013-04-23T14:22:04Z</time>
      </trkpt>
      <trkpt lat="48.17834" lon="-0.76015">
        <ele>2345</ele>
        <time>2013-04-23T14:22:07Z</time>
      </trkpt>
      <trkpt lat="48.17832" lon="-0.7603">
        <ele>2347</ele>
        <time>2013-04-23T14:22:10Z</time>
      </trkpt>
      <trkpt lat="48.17833" lon="-0.76042">
        <ele>2349</ele>
        <time>2013-04-23T14:22:13Z</time>
      </trkpt>
      <trkpt lat="48.17831" lon="-0.76053">
        <ele>2351</ele>
        <time>2013-04-23T14:22:16Z</time>
      </trkpt>
      <trkpt lat="48.17831" lon="-0.76062">
        <ele>2353</ele>
        <time>2013-04-23T14:22:19Z</time>
      </trkpt>
      <trkpt lat="48.17832" lon="-0.7607">
        <ele>2356</ele>
        <time>2013-04-23T14:22:22Z</time>
      </trkpt>
      <trkpt lat="48.17832" lon="-0.76079">
        <ele>2358</ele>
        <time>2013-04-23T14:23:48Z</time>
      </trkpt>
      <trkpt lat="48.17832" lon="-0.76084">
        <ele>2360</ele>
        <time>2013-04-23T14:23:50Z</time>
      </trkpt>
      <trkpt lat="48.17831" lon="-0.76093">
        <ele>2362</ele>
        <time>2013-04-23T14:23:53Z</time>
      </trkpt>
      <trkpt lat="48.1783" lon="-0.76103">
        <ele>2364</ele>
        <time>2013-04-23T14:23:56Z</time>
      </trkpt>
      <trkpt lat="48.17829" lon="-0.76114">
        <ele>2367</ele>
        <time>2013-04-23T14:23:59Z</time>
      </trkpt>
      <trkpt lat="48.17829" lon="-0.76125">
        <ele>2369</ele>
        <time>2013-04-23T14:24:02Z</time>
      </trkpt>
      <trkpt lat="48.1783" lon="-0.76142">
        <ele>2371</ele>
        <time>2013-04-23T14:24:05Z</time>
      </trkpt>
      <trkpt lat="48.17831" lon="-0.7616">
        <ele>2373</ele>
        <time>2013-04-23T14:24:08Z</time>
      </trkpt>
      <trkpt lat="48.1783" lon="-0.76178">
        <ele>2375</ele>
        <time>2013-04-23T14:24:11Z</time>
      </trkpt>
      <trkpt lat="48.17832" lon="-0.76199">
        <ele>2378</ele>
        <time>2013-04-23T14:24:13Z</time>
      </trkpt>
      <trkpt lat="48.17836" lon="-0.76219">
        <ele>2380</ele>
        <time>2013-04-23T14:24:16Z</time>
      </trkpt>
      <trkpt lat="48.17839" lon="-0.76238">
        <ele>2382</ele>
        <time>2013-04-23T14:24:19Z</time>
      </trkpt>
      <trkpt lat="48.17845" lon="-0.76258">
        <ele>2384</ele>
        <time>2013-04-23T14:24:22Z</time>
      </trkpt>
      <trkpt lat="48.17855" lon="-0.76283">
        <ele>2386</ele>
        <time>2013-04-23T14:24:25Z</time>
      </trkpt>
      <trkpt lat="48.17867" lon="-0.76306">
        <ele>2389</ele>
        <time>2013-04-23T14:24:28Z</time>
      </trkpt>
      <trkpt lat="48.17878" lon="-0.76332">
        <ele>2391</ele>
        <time>2013-04-23T14:24:31Z</time>
      </trkpt>
      <trkpt lat="48.17888" lon="-0.76355">
        <ele>2393</ele>
        <time>2013-04-23T14:24:34Z</time>
      </trkpt>
      <trkpt lat="48.17898" lon="-0.76381">
        <ele>2395</ele>
        <time>2013-04-23T14:24:37Z</time>
      </trkpt>
      <trkpt lat="48.17909" lon="-0.76408">
        <ele>2397</ele>
        <time>2013-04-23T14:24:40Z</time>
      </trkpt>
      <trkpt lat="48.17918" lon="-0.76438">
        <ele>2399</ele>
        <time>2013-04-23T14:24:43Z</time>
      </trkpt>
      <trkpt lat="48.17925" lon="-0.76469">
        <ele>2401</ele>
        <time>2013-04-23T14:24:46Z</time>
      </trkpt>
      <trkpt lat="48.17931" lon="-0.76502">
        <ele>2403</ele>
        <time>2013-04-23T14:24:49Z</time>
      </trkpt>
      <trkpt lat="48.17934" lon="-0.76541">
        <ele>2405</ele>
        <time>2013-04-23T14:24:52Z</time>
      </trkpt>
      <trkpt lat="48.17937" lon="-0.76579">
        <ele>2407</ele>
        <time>2013-04-23T14:24:55Z</time>
      </trkpt>
      <trkpt lat="48.17937" lon="-0.76613">
        <ele>2410</ele>
        <time>2013-04-23T14:24:58Z</time>
      </trkpt>
      <trkpt lat="48.17938" lon="-0.76646">
        <ele>2412</ele>
        <time>2013-04-23T14:25:01Z</time>
      </trkpt>
      <trkpt lat="48.17938" lon="-0.76681">
        <ele>2414</ele>
        <time>2013-04-23T14:25:04Z</time>
      </trkpt>
      <trkpt lat="48.17939" lon="-0.7671">
        <ele>2416</ele>
        <time>2013-04-23T14:25:07Z</time>
      </trkpt>
      <trkpt lat="48.1794" lon="-0.76737">
        <ele>2418</ele>
        <time>2013-04-23T14:25:09Z</time>
      </trkpt>
      <trkpt lat="48.17941" lon="-0.76764">
        <ele>2420</ele>
        <time>2013-04-23T14:25:12Z</time>
      </trkpt>
      <trkpt lat="48.17945" lon="-0.76789">
        <ele>2422</ele>
        <time>2013-04-23T14:25:15Z</time>
      </trkpt>
      <trkpt lat="48.17946" lon="-0.76813">
        <ele>2424</ele>
        <time>2013-04-23T14:25:18Z</time>
      </trkpt>
      <trkpt lat="48.17946" lon="-0.76837">
        <ele>2426</ele>
        <time>2013-04-23T14:25:21Z</time>
      </trkpt>
      <trkpt lat="48.17945" lon="-0.76861">
        <ele>2428</ele>
        <time>2013-04-23T14:25:24Z</time>
      </trkpt>
      <trkpt lat="48.17948" lon="-0.76887">
        <ele>2430</ele>
        <time>2013-04-23T14:25:27Z</time>
      </trkpt>
      <trkpt lat="48.1795" lon="-0.76914">
        <ele>2432</ele>
        <time>2013-04-23T14:25:30Z</time>
      </trkpt>
      <trkpt lat="48.17952" lon="-0.76937">
        <ele>2434</ele>
        <time>2013-04-23T14:25:33Z</time>
      </trkpt>
      <trkpt lat="48.17955" lon="-0.76961">
        <ele>2436</ele>
        <time>2013-04-23T14:25:36Z</time>
      </trkpt>
      <trkpt lat="48.17959" lon="-0.76986">
        <ele>2439</ele>
        <time>2013-04-23T14:25:39Z</time>
      </trkpt>
      <trkpt lat="48.17963" lon="-0.77008">
        <ele>2441</ele>
        <time>2013-04-23T14:25:42Z</time>
      </trkpt>
      <trkpt lat="48.17967" lon="-0.77031">
        <ele>2443</ele>
        <time>2013-04-23T14:25:45Z</time>
      </trkpt>
      <trkpt lat="48.17978" lon="-0.77046">
        <ele>2445</ele>
        <time>2013-04-23T14:25:48Z</time>
      </trkpt>
      <trkpt lat="48.17989" lon="-0.77041">
        <ele>2446</ele>
        <time>2013-04-23T14:25:51Z</time>
      </trkpt>
      <trkpt lat="48.17994" lon="-0.77028">
        <ele>2448</ele>
        <time>2013-04-23T14:25:54Z</time>
      </trkpt>
      <trkpt lat="48.18001" lon="-0.7701">
        <ele>2450</ele>
        <time>2013-04-23T14:25:57Z</time>
      </trkpt>
      <trkpt lat="48.18008" lon="-0.76997">
        <ele>2452</ele>
        <time>2013-04-23T14:26:00Z</time>
      </trkpt>
      <trkpt lat="48.18014" lon="-0.76978">
        <ele>2454</ele>
        <time>2013-04-23T14:26:02Z</time>
      </trkpt>
      <trkpt lat="48.1802" lon="-0.76961">
        <ele>2456</ele>
        <time>2013-04-23T14:26:05Z</time>
      </trkpt>
      <trkpt lat="48.18029" lon="-0.76945">
        <ele>2458</ele>
        <time>2013-04-23T14:26:08Z</time>
      </trkpt>
      <trkpt lat="48.18038" lon="-0.76929">
        <ele>2460</ele>
        <time>2013-04-23T14:26:11Z</time>
      </trkpt>
      <trkpt lat="48.18045" lon="-0.7691">
        <ele>2462</ele>
        <time>2013-04-23T14:26:14Z</time>
      </trkpt>
      <trkpt lat="48.1805" lon="-0.76893">
        <ele>2465</ele>
        <time>2013-04-23T14:26:17Z</time>
      </trkpt>
      <trkpt lat="48.18058" lon="-0.76874">
        <ele>2467</ele>
        <time>2013-04-23T14:26:20Z</time>
      </trkpt>
      <trkpt lat="48.18064" lon="-0.76855">
        <ele>2469</ele>
        <time>2013-04-23T14:26:23Z</time>
      </trkpt>
      <trkpt lat="48.18073" lon="-0.76836">
        <ele>2471</ele>
        <time>2013-04-23T14:26:26Z</time>
      </trkpt>
      <trkpt lat="48.18081" lon="-0.76817">
        <ele>2473</ele>
        <time>2013-04-23T14:26:29Z</time>
      </trkpt>
      <trkpt lat="48.18087" lon="-0.76793">
        <ele>2475</ele>
        <time>2013-04-23T14:26:32Z</time>
      </trkpt>
      <trkpt lat="48.18095" lon="-0.76774">
        <ele>2477</ele>
        <time>2013-04-23T14:26:35Z</time>
      </trkpt>
      <trkpt lat="48.18105" lon="-0.76753">
        <ele>2479</ele>
        <time>2013-04-23T14:26:38Z</time>
      </trkpt>
      <trkpt lat="48.18112" lon="-0.76732">
        <ele>2481</ele>
        <time>2013-04-23T14:26:41Z</time>
      </trkpt>
      <trkpt lat="48.18119" lon="-0.7671">
        <ele>2483</ele>
        <time>2013-04-23T14:26:44Z</time>
      </trkpt>
      <trkpt lat="48.18131" lon="-0.76687">
        <ele>2486</ele>
        <time>2013-04-23T14:26:47Z</time>
      </trkpt>
      <trkpt lat="48.18138" lon="-0.76666">
        <ele>2488</ele>
        <time>2013-04-23T14:26:50Z</time>
      </trkpt>
      <trkpt lat="48.18144" lon="-0.76645">
        <ele>2490</ele>
        <time>2013-04-23T14:26:53Z</time>
      </trkpt>
      <trkpt lat="48.18155" lon="-0.76621">
        <ele>2492</ele>
        <time>2013-04-23T14:26:55Z</time>
      </trkpt>
      <trkpt lat="48.18162" lon="-0.766">
        <ele>2494</ele>
        <time>2013-04-23T14:26:58Z</time>
      </trkpt>
      <trkpt lat="48.1817" lon="-0.76577">
        <ele>2496</ele>
        <time>2013-04-23T14:27:01Z</time>
      </trkpt>
      <trkpt lat="48.18177" lon="-0.76556">
        <ele>2498</ele>
        <time>2013-04-23T14:27:04Z</time>
      </trkpt>
      <trkpt lat="48.18185" lon="-0.76534">
        <ele>2500</ele>
        <time>2013-04-23T14:27:07Z</time>
      </trkpt>
      <trkpt lat="48.18193" lon="-0.76513">
        <ele>2502</ele>
        <time>2013-04-23T14:27:10Z</time>
      </trkpt>
      <trkpt lat="48.18201" lon="-0.76492">
        <ele>2504</ele>
        <time>2013-04-23T14:27:13Z</time>
      </trkpt>
      <trkpt lat="48.18211" lon="-0.7647">
        <ele>2507</ele>
        <time>2013-04-23T14:27:16Z</time>
      </trkpt>
      <trkpt lat="48.18218" lon="-0.7645">
        <ele>2509</ele>
        <time>2013-04-23T14:27:19Z</time>
      </trkpt>
      <trkpt lat="48.18225" lon="-0.7643">
        <ele>2511</ele>
        <time>2013-04-23T14:27:22Z</time>
      </trkpt>
      <trkpt lat="48.18233" lon="-0.76407">
        <ele>2513</ele>
        <time>2013-04-23T14:27:25Z</time>
      </trkpt>
      <trkpt lat="48.18241" lon="-0.76385">
        <ele>2515</ele>
        <time>2013-04-23T14:27:28Z</time>
      </trkpt>
      <trkpt lat="48.18248" lon="-0.76364">
        <ele>2518</ele>
        <time>2013-04-23T14:27:31Z</time>
      </trkpt>
      <trkpt lat="48.18254" lon="-0.76342">
        <ele>2520</ele>
        <time>2013-04-23T14:27:34Z</time>
      </trkpt>
      <trkpt lat="48.18261" lon="-0.76322">
        <ele>2522</ele>
        <time>2013-04-23T14:27:37Z</time>
      </trkpt>
      <trkpt lat="48.18269" lon="-0.76299">
        <ele>2524</ele>
        <time>2013-04-23T14:27:40Z</time>
      </trkpt>
      <trkpt lat="48.18278" lon="-0.76277">
        <ele>2526</ele>
        <time>2013-04-23T14:27:43Z</time>
      </trkpt>
      <trkpt lat="48.18286" lon="-0.76254">
        <ele>2529</ele>
        <time>2013-04-23T14:27:46Z</time>
      </trkpt>
      <trkpt lat="48.18294" lon="-0.76232">
        <ele>2531</ele>
        <time>2013-04-23T14:27:48Z</time>
      </trkpt>
      <trkpt lat="48.18303" lon="-0.76208">
        <ele>2533</ele>
        <time>2013-04-23T14:27:51Z</time>
      </trkpt>
      <trkpt lat="48.18312" lon="-0.76188">
        <ele>2535</ele>
        <time>2013-04-23T14:27:54Z</time>
      </trkpt>
      <trkpt lat="48.18318" lon="-0.76164">
        <ele>2537</ele>
        <time>2013-04-23T14:27:57Z</time>
      </trkpt>
      <trkpt lat="48.18327" lon="-0.7614">
        <ele>2540</ele>
        <time>2013-04-23T14:28:00Z</time>
      </trkpt>
      <trkpt lat="48.18334" lon="-0.76117">
        <ele>2542</ele>
        <time>2013-04-23T14:28:03Z</time>
      </trkpt>
      <trkpt lat="48.1834" lon="-0.76092">
        <ele>2544</ele>
        <time>2013-04-23T14:28:06Z</time>
      </trkpt>
      <trkpt lat="48.18347" lon="-0.7607">
        <ele>2546</ele>
        <time>2013-04-23T14:28:09Z</time>
      </trkpt>
      <trkpt lat="48.18354" lon="-0.76046">
        <ele>2548</ele>
        <time>2013-04-23T14:28:12Z</time>
      </trkpt>
      <trkpt lat="48.1836" lon="-0.76024">
        <ele>2551</ele>
        <time>2013-04-23T14:28:15Z</time>
      </trkpt>
      <trkpt lat="48.18366" lon="-0.76003">
        <ele>2553</ele>
        <time>2013-04-23T14:28:18Z</time>
      </trkpt>
      <trkpt lat="48.18373" lon="-0.75983">
        <ele>2555</ele>
        <time>2013-04-23T14:28:21Z</time>
      </trkpt>
      <trkpt lat="48.18382" lon="-0.75961">
        <ele>2557</ele>
        <time>2013-04-23T14:28:24Z</time>
      </trkpt>
      <trkpt lat="48.18389" lon="-0.75937">
        <ele>2559</ele>
        <time>2013-04-23T14:28:27Z</time>
      </trkpt>
      <trkpt lat="48.18397" lon="-0.75914">
        <ele>2562</ele>
        <time>2013-04-23T14:28:30Z</time>
      </trkpt>
      <trkpt lat="48.18405" lon="-0.75887">
        <ele>2564</ele>
        <time>2013-04-23T14:28:33Z</time>
      </trkpt>
      <trkpt lat="48.18413" lon="-0.7586">
        <ele>2566</ele>
        <time>2013-04-23T14:28:36Z</time>
      </trkpt>
      <trkpt lat="48.18421" lon="-0.75831">
        <ele>2568</ele>
        <time>2013-04-23T14:28:39Z</time>
      </trkpt>
      <trkpt lat="48.18435" lon="-0.75798">
        <ele>2570</ele>
        <time>2013-04-23T14:28:42Z</time>
      </trkpt>
      <trkpt lat="48.1845" lon="-0.75762">
        <ele>2572</ele>
        <time>2013-04-23T14:28:44Z</time>
      </trkpt>
      <trkpt lat="48.18463" lon="-0.75724">
        <ele>2574</ele>
        <time>2013-04-23T14:28:47Z</time>
      </trkpt>
      <trkpt lat="48.18474" lon="-0.75685">
        <ele>2577</ele>
        <time>2013-04-23T14:28:50Z</time>
      </trkpt>
      <trkpt lat="48.1849" lon="-0.75643">
        <ele>2579</ele>
        <time>2013-04-23T14:28:53Z</time>
      </trkpt>
      <trkpt lat="48.18505" lon="-0.756">
        <ele>2581</ele>
        <time>2013-04-23T14:28:56Z</time>
      </trkpt>
      <trkpt lat="48.18521" lon="-0.75555">
        <ele>2583</ele>
        <time>2013-04-23T14:28:59Z</time>
      </trkpt>
      <trkpt lat="48.18537" lon="-0.75509">
        <ele>2585</ele>
        <time>2013-04-23T14:29:02Z</time>
      </trkpt>
      <trkpt lat="48.18549" lon="-0.75465">
        <ele>2587</ele>
        <time>2013-04-23T14:29:05Z</time>
      </trkpt>
      <trkpt lat="48.18568" lon="-0.75416">
        <ele>2589</ele>
        <time>2013-04-23T14:29:08Z</time>
      </trkpt>
      <trkpt lat="48.18584" lon="-0.75368">
        <ele>2591</ele>
        <time>2013-04-23T14:29:11Z</time>
      </trkpt>
      <trkpt lat="48.186" lon="-0.75323">
        <ele>2593</ele>
        <time>2013-04-23T14:29:14Z</time>
      </trkpt>
      <trkpt lat="48.18618" lon="-0.75286">
        <ele>2595</ele>
        <time>2013-04-23T14:29:17Z</time>
      </trkpt>
      <trkpt lat="48.18647" lon="-0.75259">
        <ele>2597</ele>
        <time>2013-04-23T14:29:20Z</time>
      </trkpt>
      <trkpt lat="48.18675" lon="-0.75239">
        <ele>2598</ele>
        <time>2013-04-23T14:29:23Z</time>
      </trkpt>
      <trkpt lat="48.18707" lon="-0.75217">
        <ele>2600</ele>
        <time>2013-04-23T14:29:26Z</time>
      </trkpt>
      <trkpt lat="48.18741" lon="-0.75194">
        <ele>2602</ele>
        <time>2013-04-23T14:29:29Z</time>
      </trkpt>
      <trkpt lat="48.1877" lon="-0.75172">
        <ele>2604</ele>
        <time>2013-04-23T14:29:32Z</time>
      </trkpt>
      <trkpt lat="48.18799" lon="-0.75151">
        <ele>2606</ele>
        <time>2013-04-23T14:29:35Z</time>
      </trkpt>
      <trkpt lat="48.1883" lon="-0.7513">
        <ele>2607</ele>
        <time>2013-04-23T14:29:38Z</time>
      </trkpt>
      <trkpt lat="48.1886" lon="-0.75109">
        <ele>2609</ele>
        <time>2013-04-23T14:29:40Z</time>
      </trkpt>
      <trkpt lat="48.18888" lon="-0.75087">
        <ele>2611</ele>
        <time>2013-04-23T14:29:43Z</time>
      </trkpt>
      <trkpt lat="48.18913" lon="-0.7506">
        <ele>2612</ele>
        <time>2013-04-23T14:29:46Z</time>
      </trkpt>
      <trkpt lat="48.18933" lon="-0.75028">
        <ele>2614</ele>
        <time>2013-04-23T14:29:49Z</time>
      </trkpt>
      <trkpt lat="48.18949" lon="-0.74996">
        <ele>2616</ele>
        <time>2013-04-23T14:29:52Z</time>
      </trkpt>
      <trkpt lat="48.18961" lon="-0.74968">
        <ele>2617</ele>
        <time>2013-04-23T14:29:55Z</time>
      </trkpt>
      <trkpt lat="48.1897" lon="-0.74942">
        <ele>2619</ele>
        <time>2013-04-23T14:29:58Z</time>
      </trkpt>
      <trkpt lat="48.18982" lon="-0.74917">
        <ele>2621</ele>
        <time>2013-04-23T14:30:01Z</time>
      </trkpt>
      <trkpt lat="48.18994" lon="-0.74892">
        <ele>2622</ele>
        <time>2013-04-23T14:30:04Z</time>
      </trkpt>
      <trkpt lat="48.19007" lon="-0.74868">
        <ele>2624</ele>
        <time>2013-04-23T14:30:07Z</time>
      </trkpt>
      <trkpt lat="48.19018" lon="-0.74843">
        <ele>2625</ele>
        <time>2013-04-23T14:30:10Z</time>
      </trkpt>
      <trkpt lat="48.19031" lon="-0.74822">
        <ele>2627</ele>
        <time>2013-04-23T14:30:13Z</time>
      </trkpt>
      <trkpt lat="48.19045" lon="-0.74801">
        <ele>2629</ele>
        <time>2013-04-23T14:30:16Z</time>
      </trkpt>
      <trkpt lat="48.19056" lon="-0.74782">
        <ele>2630</ele>
        <time>2013-04-23T14:30:19Z</time>
      </trkpt>
      <trkpt lat="48.19069" lon="-0.74762">
        <ele>2632</ele>
        <time>2013-04-23T14:30:22Z</time>
      </trkpt>
      <trkpt lat="48.19077" lon="-0.74743">
        <ele>2634</ele>
        <time>2013-04-23T14:30:25Z</time>
      </trkpt>
      <trkpt lat="48.19087" lon="-0.74726">
        <ele>2636</ele>
        <time>2013-04-23T14:30:28Z</time>
      </trkpt>
      <trkpt lat="48.19095" lon="-0.74711">
        <ele>2637</ele>
        <time>2013-04-23T14:30:31Z</time>
      </trkpt>
      <trkpt lat="48.19098" lon="-0.74698">
        <ele>2639</ele>
        <time>2013-04-23T14:30:33Z</time>
      </trkpt>
      <trkpt lat="48.19107" lon="-0.74685">
        <ele>2641</ele>
        <time>2013-04-23T14:30:36Z</time>
      </trkpt>
      <trkpt lat="48.19117" lon="-0.74668">
        <ele>2642</ele>
        <time>2013-04-23T14:30:39Z</time>
      </trkpt>
      <trkpt lat="48.19127" lon="-0.74653">
        <ele>2644</ele>
        <time>2013-04-23T14:30:42Z</time>
      </trkpt>
      <trkpt lat="48.19136" lon="-0.74639">
        <ele>2646</ele>
        <time>2013-04-23T14:30:45Z</time>
      </trkpt>
      <trkpt lat="48.19146" lon="-0.74626">
        <ele>2648</ele>
        <time>2013-04-23T14:30:48Z</time>
      </trkpt>
      <trkpt lat="48.19154" lon="-0.74617">
        <ele>2650</ele>
        <time>2013-04-23T14:30:51Z</time>
      </trkpt>
      <trkpt lat="48.19165" lon="-0.74602">
        <ele>2651</ele>
        <time>2013-04-23T14:30:54Z</time>
      </trkpt>
      <trkpt lat="48.19178" lon="-0.74591">
        <ele>2653</ele>
        <time>2013-04-23T14:30:57Z</time>
      </trkpt>
      <trkpt lat="48.19187" lon="-0.74577">
        <ele>2655</ele>
        <time>2013-04-23T14:31:00Z</time>
      </trkpt>
      <trkpt lat="48.19198" lon="-0.74567">
        <ele>2657</ele>
        <time>2013-04-23T14:31:03Z</time>
      </trkpt>
      <trkpt lat="48.19208" lon="-0.74552">
        <ele>2659</ele>
        <time>2013-04-23T14:31:06Z</time>
      </trkpt>
      <trkpt lat="48.1922" lon="-0.74539">
        <ele>2660</ele>
        <time>2013-04-23T14:31:09Z</time>
      </trkpt>
      <trkpt lat="48.19229" lon="-0.74525">
        <ele>2662</ele>
        <time>2013-04-23T14:31:12Z</time>
      </trkpt>
      <trkpt lat="48.19238" lon="-0.74511">
        <ele>2664</ele>
        <time>2013-04-23T14:31:15Z</time>
      </trkpt>
      <trkpt lat="48.19249" lon="-0.74499">
        <ele>2666</ele>
        <time>2013-04-23T14:31:18Z</time>
      </trkpt>
      <trkpt lat="48.19258" lon="-0.74485">
        <ele>2668</ele>
        <time>2013-04-23T14:31:21Z</time>
      </trkpt>
      <trkpt lat="48.19272" lon="-0.74471">
        <ele>2669</ele>
        <time>2013-04-23T14:31:24Z</time>
      </trkpt>
      <trkpt lat="48.19284" lon="-0.74458">
        <ele>2671</ele>
        <time>2013-04-23T14:31:27Z</time>
      </trkpt>
      <trkpt lat="48.19295" lon="-0.74443">
        <ele>2673</ele>
        <time>2013-04-23T14:31:29Z</time>
      </trkpt>
      <trkpt lat="48.19306" lon="-0.74431">
        <ele>2675</ele>
        <time>2013-04-23T14:31:32Z</time>
      </trkpt>
      <trkpt lat="48.19316" lon="-0.74418">
        <ele>2677</ele>
        <time>2013-04-23T14:31:35Z</time>
      </trkpt>
      <trkpt lat="48.19327" lon="-0.74404">
        <ele>2679</ele>
        <time>2013-04-23T14:31:38Z</time>
      </trkpt>
      <trkpt lat="48.19339" lon="-0.74394">
        <ele>2681</ele>
        <time>2013-04-23T14:31:41Z</time>
      </trkpt>
      <trkpt lat="48.19351" lon="-0.74386">
        <ele>2683</ele>
        <time>2013-04-23T14:31:44Z</time>
      </trkpt>
      <trkpt lat="48.1936" lon="-0.74383">
        <ele>2684</ele>
        <time>2013-04-23T14:31:47Z</time>
      </trkpt>
      <trkpt lat="48.19372" lon="-0.74379">
        <ele>2686</ele>
        <time>2013-04-23T14:31:50Z</time>
      </trkpt>
      <trkpt lat="48.19384" lon="-0.74372">
        <ele>2688</ele>
        <time>2013-04-23T14:31:53Z</time>
      </trkpt>
      <trkpt lat="48.19395" lon="-0.74373">
        <ele>2690</ele>
        <time>2013-04-23T14:31:56Z</time>
      </trkpt>
      <trkpt lat="48.19409" lon="-0.74364">
        <ele>2692</ele>
        <time>2013-04-23T14:31:59Z</time>
      </trkpt>
      <trkpt lat="48.19424" lon="-0.74355">
        <ele>2694</ele>
        <time>2013-04-23T14:32:02Z</time>
      </trkpt>
      <trkpt lat="48.19437" lon="-0.7435">
        <ele>2695</ele>
        <time>2013-04-23T14:32:05Z</time>
      </trkpt>
      <trkpt lat="48.1945" lon="-0.74341">
        <ele>2697</ele>
        <time>2013-04-23T14:32:08Z</time>
      </trkpt>
      <trkpt lat="48.19462" lon="-0.74335">
        <ele>2699</ele>
        <time>2013-04-23T14:32:11Z</time>
      </trkpt>
      <trkpt lat="48.19478" lon="-0.74327">
        <ele>2701</ele>
        <time>2013-04-23T14:32:14Z</time>
      </trkpt>
      <trkpt lat="48.19493" lon="-0.7432">
        <ele>2703</ele>
        <time>2013-04-23T14:32:17Z</time>
      </trkpt>
      <trkpt lat="48.19503" lon="-0.74316">
        <ele>2705</ele>
        <time>2013-04-23T14:32:20Z</time>
      </trkpt>
      <trkpt lat="48.19515" lon="-0.74312">
        <ele>2707</ele>
        <time>2013-04-23T14:32:22Z</time>
      </trkpt>
      <trkpt lat="48.19528" lon="-0.74308">
        <ele>2709</ele>
        <time>2013-04-23T14:32:25Z</time>
      </trkpt>
      <trkpt lat="48.1954" lon="-0.74303">
        <ele>2711</ele>
        <time>2013-04-23T14:32:28Z</time>
      </trkpt>
      <trkpt lat="48.19557" lon="-0.74295">
        <ele>2712</ele>
        <time>2013-04-23T14:32:31Z</time>
      </trkpt>
      <trkpt lat="48.19574" lon="-0.74286">
        <ele>2714</ele>
        <time>2013-04-23T14:32:34Z</time>
      </trkpt>
      <trkpt lat="48.19587" lon="-0.74278">
        <ele>2716</ele>
        <time>2013-04-23T14:32:37Z</time>
      </trkpt>
      <trkpt lat="48.19602" lon="-0.74271">
        <ele>2718</ele>
        <time>2013-04-23T14:32:40Z</time>
      </trkpt>
      <trkpt lat="48.19615" lon="-0.74263">
        <ele>2720</ele>
        <time>2013-04-23T14:32:43Z</time>
      </trkpt>
      <trkpt lat="48.19628" lon="-0.74259">
        <ele>2722</ele>
        <time>2013-04-23T14:32:46Z</time>
      </trkpt>
      <trkpt lat="48.19642" lon="-0.74252">
        <ele>2724</ele>
        <time>2013-04-23T14:32:49Z</time>
      </trkpt>
      <trkpt lat="48.1966" lon="-0.74245">
        <ele>2726</ele>
        <time>2013-04-23T14:32:52Z</time>
      </trkpt>
      <trkpt lat="48.19676" lon="-0.74235">
        <ele>2727</ele>
        <time>2013-04-23T14:32:55Z</time>
      </trkpt>
      <trkpt lat="48.19689" lon="-0.74228">
        <ele>2729</ele>
        <time>2013-04-23T14:32:58Z</time>
      </trkpt>
      <trkpt lat="48.19696" lon="-0.74225">
        <ele>2731</ele>
        <time>2013-04-23T14:33:01Z</time>
      </trkpt>
      <trkpt lat="48.1971" lon="-0.74217">
        <ele>2733</ele>
        <time>2013-04-23T14:33:04Z</time>
      </trkpt>
      <trkpt lat="48.19718" lon="-0.74209">
        <ele>2735</ele>
        <time>2013-04-23T14:33:07Z</time>
      </trkpt>
      <trkpt lat="48.19727" lon="-0.74205">
        <ele>2736</ele>
        <time>2013-04-23T14:33:10Z</time>
      </trkpt>
      <trkpt lat="48.19734" lon="-0.742">
        <ele>2738</ele>
        <time>2013-04-23T14:33:13Z</time>
      </trkpt>
      <trkpt lat="48.19739" lon="-0.74194">
        <ele>2740</ele>
        <time>2013-04-23T14:33:15Z</time>
      </trkpt>
      <trkpt lat="48.19746" lon="-0.74185">
        <ele>2742</ele>
        <time>2013-04-23T14:33:18Z</time>
      </trkpt>
      <trkpt lat="48.19752" lon="-0.74184">
        <ele>2744</ele>
        <time>2013-04-23T14:33:21Z</time>
      </trkpt>
      <trkpt lat="48.19756" lon="-0.74177">
        <ele>2745</ele>
        <time>2013-04-23T14:33:24Z</time>
      </trkpt>
      <trkpt lat="48.19763" lon="-0.74173">
        <ele>2747</ele>
        <time>2013-04-23T14:33:28Z</time>
      </trkpt>
      <trkpt lat="48.19769" lon="-0.74167">
        <ele>2749</ele>
        <time>2013-04-23T14:33:31Z</time>
      </trkpt>
      <trkpt lat="48.19772" lon="-0.74164">
        <ele>2751</ele>
        <time>2013-04-23T14:33:34Z</time>
      </trkpt>
      <trkpt lat="48.19777" lon="-0.7416">
        <ele>2753</ele>
        <time>2013-04-23T14:33:54Z</time>
      </trkpt>
      <trkpt lat="48.19787" lon="-0.74155">
        <ele>2755</ele>
        <time>2013-04-23T14:33:55Z</time>
      </trkpt>
      <trkpt lat="48.19791" lon="-0.74151">
        <ele>2757</ele>
        <time>2013-04-23T14:33:58Z</time>
      </trkpt>
      <trkpt lat="48.19795" lon="-0.74145">
        <ele>2759</ele>
        <time>2013-04-23T14:34:01Z</time>
      </trkpt>
      <trkpt lat="48.19801" lon="-0.74143">
        <ele>2761</ele>
        <time>2013-04-23T14:34:04Z</time>
      </trkpt>
      <trkpt lat="48.19811" lon="-0.74134">
        <ele>2763</ele>
        <time>2013-04-23T14:34:07Z</time>
      </trkpt>
      <trkpt lat="48.19818" lon="-0.74129">
        <ele>2765</ele>
        <time>2013-04-23T14:34:10Z</time>
      </trkpt>
      <trkpt lat="48.1983" lon="-0.74123">
        <ele>2767</ele>
        <time>2013-04-23T14:34:13Z</time>
      </trkpt>
      <trkpt lat="48.19842" lon="-0.7411">
        <ele>2769</ele>
        <time>2013-04-23T14:34:16Z</time>
      </trkpt>
      <trkpt lat="48.19851" lon="-0.741">
        <ele>2771</ele>
        <time>2013-04-23T14:34:18Z</time>
      </trkpt>
      <trkpt lat="48.1986" lon="-0.74093">
        <ele>2773</ele>
        <time>2013-04-23T14:34:21Z</time>
      </trkpt>
      <trkpt lat="48.19867" lon="-0.74088">
        <ele>2775</ele>
        <time>2013-04-23T14:34:24Z</time>
      </trkpt>
      <trkpt lat="48.19878" lon="-0.74077">
        <ele>2777</ele>
        <time>2013-04-23T14:34:27Z</time>
      </trkpt>
      <trkpt lat="48.19889" lon="-0.7407">
        <ele>2779</ele>
        <time>2013-04-23T14:34:30Z</time>
      </trkpt>
      <trkpt lat="48.199" lon="-0.74063">
        <ele>2781</ele>
        <time>2013-04-23T14:34:33Z</time>
      </trkpt>
      <trkpt lat="48.1991" lon="-0.74053">
        <ele>2783</ele>
        <time>2013-04-23T14:34:36Z</time>
      </trkpt>
      <trkpt lat="48.19921" lon="-0.74042">
        <ele>2785</ele>
        <time>2013-04-23T14:34:39Z</time>
      </trkpt>
      <trkpt lat="48.19933" lon="-0.7403">
        <ele>2787</ele>
        <time>2013-04-23T14:34:42Z</time>
      </trkpt>
      <trkpt lat="48.19945" lon="-0.74018">
        <ele>2789</ele>
        <time>2013-04-23T14:34:45Z</time>
      </trkpt>
      <trkpt lat="48.19955" lon="-0.74008">
        <ele>2791</ele>
        <time>2013-04-23T14:34:48Z</time>
      </trkpt>
      <trkpt lat="48.19966" lon="-0.73998">
        <ele>2793</ele>
        <time>2013-04-23T14:34:51Z</time>
      </trkpt>
      <trkpt lat="48.19978" lon="-0.73988">
        <ele>2795</ele>
        <time>2013-04-23T14:34:54Z</time>
      </trkpt>
      <trkpt lat="48.19988" lon="-0.73978">
        <ele>2797</ele>
        <time>2013-04-23T14:34:57Z</time>
      </trkpt>
      <trkpt lat="48.20001" lon="-0.73967">
        <ele>2799</ele>
        <time>2013-04-23T14:35:00Z</time>
      </trkpt>
      <trkpt lat="48.20011" lon="-0.73959">
        <ele>2801</ele>
        <time>2013-04-23T14:35:03Z</time>
      </trkpt>
      <trkpt lat="48.20023" lon="-0.7395">
        <ele>2803</ele>
        <time>2013-04-23T14:35:06Z</time>
      </trkpt>
      <trkpt lat="48.20036" lon="-0.73936">
        <ele>2805</ele>
        <time>2013-04-23T14:35:09Z</time>
      </trkpt>
      <trkpt lat="48.20048" lon="-0.73928">
        <ele>2807</ele>
        <time>2013-04-23T14:35:12Z</time>
      </trkpt>
      <trkpt lat="48.20057" lon="-0.73919">
        <ele>2809</ele>
        <time>2013-04-23T14:35:14Z</time>
      </trkpt>
      <trkpt lat="48.20066" lon="-0.73911">
        <ele>2811</ele>
        <time>2013-04-23T14:35:17Z</time>
      </trkpt>
      <trkpt lat="48.20077" lon="-0.73904">
        <ele>2813</ele>
        <time>2013-04-23T14:35:20Z</time>
      </trkpt>
      <trkpt lat="48.2009" lon="-0.73895">
        <ele>2815</ele>
        <time>2013-04-23T14:35:23Z</time>
      </trkpt>
      <trkpt lat="48.20101" lon="-0.73887">
        <ele>2817</ele>
        <time>2013-04-23T14:35:26Z</time>
      </trkpt>
      <trkpt lat="48.20111" lon="-0.73876">
        <ele>2819</ele>
        <time>2013-04-23T14:35:29Z</time>
      </trkpt>
      <trkpt lat="48.20123" lon="-0.73865">
        <ele>2821</ele>
        <time>2013-04-23T14:35:32Z</time>
      </trkpt>
      <trkpt lat="48.20129" lon="-0.73858">
        <ele>2823</ele>
        <time>2013-04-23T14:35:35Z</time>
      </trkpt>
      <trkpt lat="48.20135" lon="-0.73851">
        <ele>2825</ele>
        <time>2013-04-23T14:35:38Z</time>
      </trkpt>
      <trkpt lat="48.20148" lon="-0.73843">
        <ele>2827</ele>
        <time>2013-04-23T14:35:41Z</time>
      </trkpt>
      <trkpt lat="48.20159" lon="-0.73831">
        <ele>2829</ele>
        <time>2013-04-23T14:35:44Z</time>
      </trkpt>
      <trkpt lat="48.2017" lon="-0.73822">
        <ele>2831</ele>
        <time>2013-04-23T14:35:47Z</time>
      </trkpt>
      <trkpt lat="48.20184" lon="-0.73809">
        <ele>2833</ele>
        <time>2013-04-23T14:35:50Z</time>
      </trkpt>
      <trkpt lat="48.20196" lon="-0.73799">
        <ele>2835</ele>
        <time>2013-04-23T14:35:53Z</time>
      </trkpt>
      <trkpt lat="48.2021" lon="-0.73789">
        <ele>2837</ele>
        <time>2013-04-23T14:35:56Z</time>
      </trkpt>
      <trkpt lat="48.20225" lon="-0.73776">
        <ele>2839</ele>
        <time>2013-04-23T14:35:59Z</time>
      </trkpt>
      <trkpt lat="48.20242" lon="-0.73761">
        <ele>2841</ele>
        <time>2013-04-23T14:36:02Z</time>
      </trkpt>
      <trkpt lat="48.20258" lon="-0.73747">
        <ele>2843</ele>
        <time>2013-04-23T14:36:05Z</time>
      </trkpt>
      <trkpt lat="48.20274" lon="-0.73732">
        <ele>2845</ele>
        <time>2013-04-23T14:36:07Z</time>
      </trkpt>
      <trkpt lat="48.20294" lon="-0.73716">
        <ele>2847</ele>
        <time>2013-04-23T14:36:10Z</time>
      </trkpt>
      <trkpt lat="48.20314" lon="-0.73696">
        <ele>2849</ele>
        <time>2013-04-23T14:36:13Z</time>
      </trkpt>
      <trkpt lat="48.20333" lon="-0.73679">
        <ele>2850</ele>
        <time>2013-04-23T14:36:16Z</time>
      </trkpt>
      <trkpt lat="48.20346" lon="-0.73668">
        <ele>2852</ele>
        <time>2013-04-23T14:36:19Z</time>
      </trkpt>
      <trkpt lat="48.2036" lon="-0.73655">
        <ele>2854</ele>
        <time>2013-04-23T14:36:22Z</time>
      </trkpt>
      <trkpt lat="48.20374" lon="-0.73646">
        <ele>2856</ele>
        <time>2013-04-23T14:36:25Z</time>
      </trkpt>
      <trkpt lat="48.20385" lon="-0.73637">
        <ele>2858</ele>
        <time>2013-04-23T14:36:28Z</time>
      </trkpt>
      <trkpt lat="48.20404" lon="-0.73624">
        <ele>2860</ele>
        <time>2013-04-23T14:36:31Z</time>
      </trkpt>
      <trkpt lat="48.20416" lon="-0.73621">
        <ele>2862</ele>
        <time>2013-04-23T14:36:34Z</time>
      </trkpt>
      <trkpt lat="48.2043" lon="-0.73619">
        <ele>2864</ele>
        <time>2013-04-23T14:36:37Z</time>
      </trkpt>
      <trkpt lat="48.20445" lon="-0.73615">
        <ele>2866</ele>
        <time>2013-04-23T14:36:40Z</time>
      </trkpt>
      <trkpt lat="48.20462" lon="-0.73608">
        <ele>2868</ele>
        <time>2013-04-23T14:36:43Z</time>
      </trkpt>
      <trkpt lat="48.20477" lon="-0.73603">
        <ele>2870</ele>
        <time>2013-04-23T14:36:46Z</time>
      </trkpt>
      <trkpt lat="48.20492" lon="-0.73599">
        <ele>2872</ele>
        <time>2013-04-23T14:36:49Z</time>
      </trkpt>
      <trkpt lat="48.20509" lon="-0.73594">
        <ele>2874</ele>
        <time>2013-04-23T14:36:52Z</time>
      </trkpt>
      <trkpt lat="48.20522" lon="-0.7359">
        <ele>2876</ele>
        <time>2013-04-23T14:36:55Z</time>
      </trkpt>
      <trkpt lat="48.20538" lon="-0.73583">
        <ele>2878</ele>
        <time>2013-04-23T14:36:58Z</time>
      </trkpt>
      <trkpt lat="48.20552" lon="-0.73574">
        <ele>2881</ele>
        <time>2013-04-23T14:37:00Z</time>
      </trkpt>
      <trkpt lat="48.20566" lon="-0.73561">
        <ele>2883</ele>
        <time>2013-04-23T14:37:03Z</time>
      </trkpt>
      <trkpt lat="48.20578" lon="-0.73543">
        <ele>2885</ele>
        <time>2013-04-23T14:37:06Z</time>
      </trkpt>
      <trkpt lat="48.2059" lon="-0.73528">
        <ele>2887</ele>
        <time>2013-04-23T14:37:09Z</time>
      </trkpt>
      <trkpt lat="48.20602" lon="-0.73512">
        <ele>2889</ele>
        <time>2013-04-23T14:37:12Z</time>
      </trkpt>
      <trkpt lat="48.2061" lon="-0.73501">
        <ele>2891</ele>
        <time>2013-04-23T14:37:15Z</time>
      </trkpt>
      <trkpt lat="48.20623" lon="-0.73486">
        <ele>2893</ele>
        <time>2013-04-23T14:37:18Z</time>
      </trkpt>
      <trkpt lat="48.20635" lon="-0.73471">
        <ele>2895</ele>
        <time>2013-04-23T14:37:21Z</time>
      </trkpt>
      <trkpt lat="48.20644" lon="-0.73459">
        <ele>2897</ele>
        <time>2013-04-23T14:37:24Z</time>
      </trkpt>
      <trkpt lat="48.20656" lon="-0.73445">
        <ele>2899</ele>
        <time>2013-04-23T14:37:27Z</time>
      </trkpt>
      <trkpt lat="48.20667" lon="-0.73433">
        <ele>2902</ele>
        <time>2013-04-23T14:37:30Z</time>
      </trkpt>
      <trkpt lat="48.20679" lon="-0.73428">
        <ele>2904</ele>
        <time>2013-04-23T14:37:33Z</time>
      </trkpt>
      <trkpt lat="48.20692" lon="-0.73426">
        <ele>2906</ele>
        <time>2013-04-23T14:37:36Z</time>
      </trkpt>
      <trkpt lat="48.20707" lon="-0.7343">
        <ele>2908</ele>
        <time>2013-04-23T14:37:39Z</time>
      </trkpt>
      <trkpt lat="48.2072" lon="-0.73432">
        <ele>2910</ele>
        <time>2013-04-23T14:37:42Z</time>
      </trkpt>
      <trkpt lat="48.20732" lon="-0.73437">
        <ele>2912</ele>
        <time>2013-04-23T14:37:45Z</time>
      </trkpt>
      <trkpt lat="48.20745" lon="-0.73442">
        <ele>2914</ele>
        <time>2013-04-23T14:37:48Z</time>
      </trkpt>
      <trkpt lat="48.20757" lon="-0.73448">
        <ele>2917</ele>
        <time>2013-04-23T14:37:51Z</time>
      </trkpt>
      <trkpt lat="48.20769" lon="-0.73457">
        <ele>2919</ele>
        <time>2013-04-23T14:37:54Z</time>
      </trkpt>
      <trkpt lat="48.20782" lon="-0.73461">
        <ele>2921</ele>
        <time>2013-04-23T14:37:56Z</time>
      </trkpt>
      <trkpt lat="48.20796" lon="-0.73467">
        <ele>2923</ele>
        <time>2013-04-23T14:37:59Z</time>
      </trkpt>
      <trkpt lat="48.20805" lon="-0.73473">
        <ele>2925</ele>
        <time>2013-04-23T14:38:02Z</time>
      </trkpt>
      <trkpt lat="48.20816" lon="-0.73476">
        <ele>2928</ele>
        <time>2013-04-23T14:38:05Z</time>
      </trkpt>
      <trkpt lat="48.20828" lon="-0.73474">
        <ele>2930</ele>
        <time>2013-04-23T14:38:08Z</time>
      </trkpt>
      <trkpt lat="48.20836" lon="-0.73471">
        <ele>2932</ele>
        <time>2013-04-23T14:38:11Z</time>
      </trkpt>
      <trkpt lat="48.20843" lon="-0.7347">
        <ele>2934</ele>
        <time>2013-04-23T14:38:14Z</time>
      </trkpt>
      <trkpt lat="48.20849" lon="-0.73467">
        <ele>2936</ele>
        <time>2013-04-23T14:38:17Z</time>
      </trkpt>
      <trkpt lat="48.20852" lon="-0.73466">
        <ele>2938</ele>
        <time>2013-04-23T14:38:20Z</time>
      </trkpt>
      <trkpt lat="48.20858" lon="-0.73456">
        <ele>2940</ele>
        <time>2013-04-23T14:38:23Z</time>
      </trkpt>
      <trkpt lat="48.20861" lon="-0.73445">
        <ele>2943</ele>
        <time>2013-04-23T14:38:26Z</time>
      </trkpt>
      <trkpt lat="48.20866" lon="-0.73431">
        <ele>2945</ele>
        <time>2013-04-23T14:38:29Z</time>
      </trkpt>
      <trkpt lat="48.20868" lon="-0.73419">
        <ele>2947</ele>
        <time>2013-04-23T14:38:32Z</time>
      </trkpt>
      <trkpt lat="48.20873" lon="-0.73404">
        <ele>2949</ele>
        <time>2013-04-23T14:38:35Z</time>
      </trkpt>
      <trkpt lat="48.20876" lon="-0.73389">
        <ele>2951</ele>
        <time>2013-04-23T14:38:38Z</time>
      </trkpt>
      <trkpt lat="48.20879" lon="-0.73378">
        <ele>2954</ele>
        <time>2013-04-23T14:38:41Z</time>
      </trkpt>
      <trkpt lat="48.20881" lon="-0.73363">
        <ele>2956</ele>
        <time>2013-04-23T14:38:44Z</time>
      </trkpt>
      <trkpt lat="48.20883" lon="-0.7335">
        <ele>2958</ele>
        <time>2013-04-23T14:38:47Z</time>
      </trkpt>
      <trkpt lat="48.20886" lon="-0.73336">
        <ele>2960</ele>
        <time>2013-04-23T14:38:49Z</time>
      </trkpt>
      <trkpt lat="48.20889" lon="-0.73322">
        <ele>2962</ele>
        <time>2013-04-23T14:38:52Z</time>
      </trkpt>
      <trkpt lat="48.20891" lon="-0.73309">
        <ele>2965</ele>
        <time>2013-04-23T14:38:55Z</time>
      </trkpt>
      <trkpt lat="48.20894" lon="-0.73294">
        <ele>2967</ele>
        <time>2013-04-23T14:38:58Z</time>
      </trkpt>
      <trkpt lat="48.20896" lon="-0.73277">
        <ele>2969</ele>
        <time>2013-04-23T14:39:01Z</time>
      </trkpt>
      <trkpt lat="48.20901" lon="-0.7326">
        <ele>2971</ele>
        <time>2013-04-23T14:39:04Z</time>
      </trkpt>
      <trkpt lat="48.20903" lon="-0.73241">
        <ele>2973</ele>
        <time>2013-04-23T14:39:07Z</time>
      </trkpt>
      <trkpt lat="48.20905" lon="-0.73226">
        <ele>2976</ele>
        <time>2013-04-23T14:39:10Z</time>
      </trkpt>
      <trkpt lat="48.20909" lon="-0.73207">
        <ele>2978</ele>
        <time>2013-04-23T14:39:13Z</time>
      </trkpt>
      <trkpt lat="48.20913" lon="-0.7319">
        <ele>2980</ele>
        <time>2013-04-23T14:39:16Z</time>
      </trkpt>
      <trkpt lat="48.20915" lon="-0.73172">
        <ele>2982</ele>
        <time>2013-04-23T14:39:19Z</time>
      </trkpt>
      <trkpt lat="48.20918" lon="-0.73151">
        <ele>2984</ele>
        <time>2013-04-23T14:39:22Z</time>
      </trkpt>
      <trkpt lat="48.2092" lon="-0.73132">
        <ele>2987</ele>
        <time>2013-04-23T14:39:25Z</time>
      </trkpt>
      <trkpt lat="48.20923" lon="-0.73113">
        <ele>2989</ele>
        <time>2013-04-23T14:39:28Z</time>
      </trkpt>
      <trkpt lat="48.20926" lon="-0.73094">
        <ele>2991</ele>
        <time>2013-04-23T14:39:31Z</time>
      </trkpt>
      <trkpt lat="48.2093" lon="-0.73076">
        <ele>2993</ele>
        <time>2013-04-23T14:39:34Z</time>
      </trkpt>
      <trkpt lat="48.20933" lon="-0.73057">
        <ele>2995</ele>
        <time>2013-04-23T14:39:37Z</time>
      </trkpt>
      <trkpt lat="48.20936" lon="-0.73036">
        <ele>2998</ele>
        <time>2013-04-23T14:39:40Z</time>
      </trkpt>
      <trkpt lat="48.20938" lon="-0.73015">
        <ele>3000</ele>
        <time>2013-04-23T14:39:43Z</time>
      </trkpt>
      <trkpt lat="48.20938" lon="-0.72993">
        <ele>3002</ele>
        <time>2013-04-23T14:39:45Z</time>
      </trkpt>
      <trkpt lat="48.20939" lon="-0.72972">
        <ele>3004</ele>
        <time>2013-04-23T14:39:48Z</time>
      </trkpt>
      <trkpt lat="48.20938" lon="-0.72952">
        <ele>3007</ele>
        <time>2013-04-23T14:39:51Z</time>
      </trkpt>
      <trkpt lat="48.2094" lon="-0.72929">
        <ele>3009</ele>
        <time>2013-04-23T14:39:54Z</time>
      </trkpt>
      <trkpt lat="48.20942" lon="-0.72905">
        <ele>3011</ele>
        <time>2013-04-23T14:39:57Z</time>
      </trkpt>
      <trkpt lat="48.20943" lon="-0.72877">
        <ele>3013</ele>
        <time>2013-04-23T14:40:00Z</time>
      </trkpt>
      <trkpt lat="48.20949" lon="-0.72848">
        <ele>3015</ele>
        <time>2013-04-23T14:40:03Z</time>
      </trkpt>
      <trkpt lat="48.20953" lon="-0.72821">
        <ele>3018</ele>
        <time>2013-04-23T14:40:06Z</time>
      </trkpt>
      <trkpt lat="48.20958" lon="-0.728">
        <ele>3020</ele>
        <time>2013-04-23T14:40:09Z</time>
      </trkpt>
      <trkpt lat="48.20966" lon="-0.7278">
        <ele>3022</ele>
        <time>2013-04-23T14:40:12Z</time>
      </trkpt>
      <trkpt lat="48.20971" lon="-0.72761">
        <ele>3024</ele>
        <time>2013-04-23T14:40:15Z</time>
      </trkpt>
      <trkpt lat="48.20977" lon="-0.72743">
        <ele>3026</ele>
        <time>2013-04-23T14:40:18Z</time>
      </trkpt>
      <trkpt lat="48.2098" lon="-0.7272">
        <ele>3029</ele>
        <time>2013-04-23T14:40:21Z</time>
      </trkpt>
      <trkpt lat="48.20986" lon="-0.72698">
        <ele>3031</ele>
        <time>2013-04-23T14:40:24Z</time>
      </trkpt>
      <trkpt lat="48.20996" lon="-0.72675">
        <ele>3033</ele>
        <time>2013-04-23T14:40:27Z</time>
      </trkpt>
      <trkpt lat="48.21007" lon="-0.72654">
        <ele>3035</ele>
        <time>2013-04-23T14:40:30Z</time>
      </trkpt>
      <trkpt lat="48.21019" lon="-0.72635">
        <ele>3037</ele>
        <time>2013-04-23T14:40:33Z</time>
      </trkpt>
      <trkpt lat="48.2103" lon="-0.72617">
        <ele>3040</ele>
        <time>2013-04-23T14:40:36Z</time>
      </trkpt>
      <trkpt lat="48.21038" lon="-0.72597">
        <ele>3042</ele>
        <time>2013-04-23T14:40:38Z</time>
      </trkpt>
      <trkpt lat="48.21043" lon="-0.72578">
        <ele>3044</ele>
        <time>2013-04-23T14:40:41Z</time>
      </trkpt>
      <trkpt lat="48.21055" lon="-0.72555">
        <ele>3046</ele>
        <time>2013-04-23T14:40:44Z</time>
      </trkpt>
      <trkpt lat="48.21067" lon="-0.7254">
        <ele>3048</ele>
        <time>2013-04-23T14:40:47Z</time>
      </trkpt>
      <trkpt lat="48.21078" lon="-0.72526">
        <ele>3051</ele>
        <time>2013-04-23T14:40:50Z</time>
      </trkpt>
      <trkpt lat="48.21091" lon="-0.72512">
        <ele>3053</ele>
        <time>2013-04-23T14:40:53Z</time>
      </trkpt>
      <trkpt lat="48.21103" lon="-0.72496">
        <ele>3055</ele>
        <time>2013-04-23T14:40:56Z</time>
      </trkpt>
      <trkpt lat="48.21114" lon="-0.72484">
        <ele>3057</ele>
        <time>2013-04-23T14:40:59Z</time>
      </trkpt>
      <trkpt lat="48.21125" lon="-0.7247">
        <ele>3059</ele>
        <time>2013-04-23T14:41:02Z</time>
      </trkpt>
      <trkpt lat="48.21137" lon="-0.72454">
        <ele>3062</ele>
        <time>2013-04-23T14:41:05Z</time>
      </trkpt>
      <trkpt lat="48.2115" lon="-0.7244">
        <ele>3064</ele>
        <time>2013-04-23T14:41:08Z</time>
      </trkpt>
      <trkpt lat="48.21165" lon="-0.72421">
        <ele>3066</ele>
        <time>2013-04-23T14:41:11Z</time>
      </trkpt>
      <trkpt lat="48.21176" lon="-0.72408">
        <ele>3068</ele>
        <time>2013-04-23T14:41:14Z</time>
      </trkpt>
      <trkpt lat="48.21185" lon="-0.72394">
        <ele>3070</ele>
        <time>2013-04-23T14:41:17Z</time>
      </trkpt>
      <trkpt lat="48.21198" lon="-0.72378">
        <ele>3073</ele>
        <time>2013-04-23T14:41:20Z</time>
      </trkpt>
      <trkpt lat="48.21206" lon="-0.72366">
        <ele>3075</ele>
        <time>2013-04-23T14:41:23Z</time>
      </trkpt>
      <trkpt lat="48.21217" lon="-0.72351">
        <ele>3077</ele>
        <time>2013-04-23T14:41:26Z</time>
      </trkpt>
      <trkpt lat="48.21233" lon="-0.72332">
        <ele>3079</ele>
        <time>2013-04-23T14:41:29Z</time>
      </trkpt>
      <trkpt lat="48.2124" lon="-0.72313">
        <ele>3081</ele>
        <time>2013-04-23T14:41:31Z</time>
      </trkpt>
      <trkpt lat="48.21241" lon="-0.72296">
        <ele>3083</ele>
        <time>2013-04-23T14:41:34Z</time>
      </trkpt>
      <trkpt lat="48.21245" lon="-0.72271">
        <ele>3085</ele>
        <time>2013-04-23T14:41:37Z</time>
      </trkpt>
      <trkpt lat="48.21246" lon="-0.72247">
        <ele>3088</ele>
        <time>2013-04-23T14:41:40Z</time>
      </trkpt>
      <trkpt lat="48.21247" lon="-0.7222">
        <ele>3090</ele>
        <time>2013-04-23T14:41:43Z</time>
      </trkpt>
      <trkpt lat="48.21253" lon="-0.72196">
        <ele>3092</ele>
        <time>2013-04-23T14:41:46Z</time>
      </trkpt>
      <trkpt lat="48.21256" lon="-0.72171">
        <ele>3094</ele>
        <time>2013-04-23T14:41:49Z</time>
      </trkpt>
      <trkpt lat="48.21264" lon="-0.72147">
        <ele>3096</ele>
        <time>2013-04-23T14:41:52Z</time>
      </trkpt>
      <trkpt lat="48.21269" lon="-0.72119">
        <ele>3098</ele>
        <time>2013-04-23T14:41:55Z</time>
      </trkpt>
      <trkpt lat="48.21272" lon="-0.72089">
        <ele>3101</ele>
        <time>2013-04-23T14:41:58Z</time>
      </trkpt>
      <trkpt lat="48.21272" lon="-0.72062">
        <ele>3103</ele>
        <time>2013-04-23T14:42:01Z</time>
      </trkpt>
      <trkpt lat="48.21275" lon="-0.72039">
        <ele>3105</ele>
        <time>2013-04-23T14:42:04Z</time>
      </trkpt>
      <trkpt lat="48.21283" lon="-0.72007">
        <ele>3107</ele>
        <time>2013-04-23T14:42:07Z</time>
      </trkpt>
      <trkpt lat="48.21284" lon="-0.71979">
        <ele>3109</ele>
        <time>2013-04-23T14:42:10Z</time>
      </trkpt>
      <trkpt lat="48.21291" lon="-0.71952">
        <ele>3111</ele>
        <time>2013-04-23T14:42:13Z</time>
      </trkpt>
      <trkpt lat="48.21296" lon="-0.71928">
        <ele>3113</ele>
        <time>2013-04-23T14:42:16Z</time>
      </trkpt>
      <trkpt lat="48.21301" lon="-0.71899">
        <ele>3116</ele>
        <time>2013-04-23T14:42:19Z</time>
      </trkpt>
      <trkpt lat="48.21306" lon="-0.71868">
        <ele>3118</ele>
        <time>2013-04-23T14:42:22Z</time>
      </trkpt>
      <trkpt lat="48.21307" lon="-0.71842">
        <ele>3120</ele>
        <time>2013-04-23T14:42:24Z</time>
      </trkpt>
      <trkpt lat="48.21304" lon="-0.71814">
        <ele>3122</ele>
        <time>2013-04-23T14:42:27Z</time>
      </trkpt>
      <trkpt lat="48.21296" lon="-0.71788">
        <ele>3124</ele>
        <time>2013-04-23T14:42:30Z</time>
      </trkpt>
      <trkpt lat="48.21287" lon="-0.71766">
        <ele>3126</ele>
        <time>2013-04-23T14:42:33Z</time>
      </trkpt>
      <trkpt lat="48.21278" lon="-0.71742">
        <ele>3128</ele>
        <time>2013-04-23T14:42:36Z</time>
      </trkpt>
      <trkpt lat="48.2127" lon="-0.7172">
        <ele>3130</ele>
        <time>2013-04-23T14:42:39Z</time>
      </trkpt>
      <trkpt lat="48.21262" lon="-0.717">
        <ele>3132</ele>
        <time>2013-04-23T14:42:42Z</time>
      </trkpt>
      <trkpt lat="48.21254" lon="-0.7168">
        <ele>3134</ele>
        <time>2013-04-23T14:42:45Z</time>
      </trkpt>
      <trkpt lat="48.21248" lon="-0.71659">
        <ele>3137</ele>
        <time>2013-04-23T14:42:48Z</time>
      </trkpt>
      <trkpt lat="48.2124" lon="-0.71639">
        <ele>3139</ele>
        <time>2013-04-23T14:42:51Z</time>
      </trkpt>
      <trkpt lat="48.21232" lon="-0.71621">
        <ele>3141</ele>
        <time>2013-04-23T14:42:54Z</time>
      </trkpt>
      <trkpt lat="48.21226" lon="-0.71601">
        <ele>3143</ele>
        <time>2013-04-23T14:42:57Z</time>
      </trkpt>
      <trkpt lat="48.2122" lon="-0.71581">
        <ele>3145</ele>
        <time>2013-04-23T14:43:00Z</time>
      </trkpt>
      <trkpt lat="48.21214" lon="-0.71558">
        <ele>3147</ele>
        <time>2013-04-23T14:43:03Z</time>
      </trkpt>
      <trkpt lat="48.21213" lon="-0.71534">
        <ele>3149</ele>
        <time>2013-04-23T14:43:06Z</time>
      </trkpt>
      <trkpt lat="48.21208" lon="-0.71506">
        <ele>3151</ele>
        <time>2013-04-23T14:43:09Z</time>
      </trkpt>
      <trkpt lat="48.21209" lon="-0.71477">
        <ele>3153</ele>
        <time>2013-04-23T14:43:12Z</time>
      </trkpt>
      <trkpt lat="48.21207" lon="-0.71445">
        <ele>3155</ele>
        <time>2013-04-23T14:43:15Z</time>
      </trkpt>
      <trkpt lat="48.21205" lon="-0.71414">
        <ele>3157</ele>
        <time>2013-04-23T14:43:18Z</time>
      </trkpt>
      <trkpt lat="48.21203" lon="-0.71383">
        <ele>3159</ele>
        <time>2013-04-23T14:43:20Z</time>
      </trkpt>
      <trkpt lat="48.21201" lon="-0.71354">
        <ele>3162</ele>
        <time>2013-04-23T14:43:23Z</time>
      </trkpt>
      <trkpt lat="48.212" lon="-0.71328">
        <ele>3164</ele>
        <time>2013-04-23T14:43:26Z</time>
      </trkpt>
      <trkpt lat="48.21199" lon="-0.71303">
        <ele>3166</ele>
        <time>2013-04-23T14:43:29Z</time>
      </trkpt>
      <trkpt lat="48.21198" lon="-0.71279">
        <ele>3168</ele>
        <time>2013-04-23T14:43:32Z</time>
      </trkpt>
      <trkpt lat="48.21198" lon="-0.71254">
        <ele>3170</ele>
        <time>2013-04-23T14:43:35Z</time>
      </trkpt>
      <trkpt lat="48.21197" lon="-0.71229">
        <ele>3172</ele>
        <time>2013-04-23T14:43:38Z</time>
      </trkpt>
      <trkpt lat="48.21194" lon="-0.71201">
        <ele>3174</ele>
        <time>2013-04-23T14:43:41Z</time>
      </trkpt>
      <trkpt lat="48.2119" lon="-0.71173">
        <ele>3176</ele>
        <time>2013-04-23T14:43:44Z</time>
      </trkpt>
      <trkpt lat="48.21184" lon="-0.71144">
        <ele>3178</ele>
        <time>2013-04-23T14:43:47Z</time>
      </trkpt>
      <trkpt lat="48.21173" lon="-0.71114">
        <ele>3180</ele>
        <time>2013-04-23T14:43:50Z</time>
      </trkpt>
      <trkpt lat="48.21165" lon="-0.71083">
        <ele>3182</ele>
        <time>2013-04-23T14:43:53Z</time>
      </trkpt>
      <trkpt lat="48.21158" lon="-0.71051">
        <ele>3184</ele>
        <time>2013-04-23T14:43:56Z</time>
      </trkpt>
      <trkpt lat="48.21154" lon="-0.71014">
        <ele>3186</ele>
        <time>2013-04-23T14:43:59Z</time>
      </trkpt>
      <trkpt lat="48.21152" lon="-0.70981">
        <ele>3188</ele>
        <time>2013-04-23T14:44:02Z</time>
      </trkpt>
      <trkpt lat="48.21162" lon="-0.70948">
        <ele>3190</ele>
        <time>2013-04-23T14:44:05Z</time>
      </trkpt>
      <trkpt lat="48.21177" lon="-0.70919">
        <ele>3192</ele>
        <time>2013-04-23T14:44:08Z</time>
      </trkpt>
      <trkpt lat="48.21194" lon="-0.70893">
        <ele>3194</ele>
        <time>2013-04-23T14:44:11Z</time>
      </trkpt>
      <trkpt lat="48.21211" lon="-0.7086">
        <ele>3196</ele>
        <time>2013-04-23T14:44:14Z</time>
      </trkpt>
      <trkpt lat="48.21232" lon="-0.7083">
        <ele>3198</ele>
        <time>2013-04-23T14:44:16Z</time>
      </trkpt>
      <trkpt lat="48.21253" lon="-0.70823">
        <ele>3200</ele>
        <time>2013-04-23T14:44:19Z</time>
      </trkpt>
      <trkpt lat="48.21273" lon="-0.70834">
        <ele>3202</ele>
        <time>2013-04-23T14:44:22Z</time>
      </trkpt>
      <trkpt lat="48.21296" lon="-0.70854">
        <ele>3203</ele>
        <time>2013-04-23T14:44:25Z</time>
      </trkpt>
      <trkpt lat="48.21318" lon="-0.7085">
        <ele>3205</ele>
        <time>2013-04-23T14:44:28Z</time>
      </trkpt>
      <trkpt lat="48.21343" lon="-0.70822">
        <ele>3207</ele>
        <time>2013-04-23T14:44:31Z</time>
      </trkpt>
      <trkpt lat="48.21354" lon="-0.70784">
        <ele>3209</ele>
        <time>2013-04-23T14:44:34Z</time>
      </trkpt>
      <trkpt lat="48.21363" lon="-0.70738">
        <ele>3211</ele>
        <time>2013-04-23T14:44:37Z</time>
      </trkpt>
      <trkpt lat="48.21366" lon="-0.70694">
        <ele>3212</ele>
        <time>2013-04-23T14:44:40Z</time>
      </trkpt>
      <trkpt lat="48.21357" lon="-0.70656">
        <ele>3214</ele>
        <time>2013-04-23T14:44:43Z</time>
      </trkpt>
      <trkpt lat="48.21341" lon="-0.70624">
        <ele>3216</ele>
        <time>2013-04-23T14:44:46Z</time>
      </trkpt>
      <trkpt lat="48.21328" lon="-0.70598">
        <ele>3218</ele>
        <time>2013-04-23T14:44:49Z</time>
      </trkpt>
      <trkpt lat="48.21312" lon="-0.70571">
        <ele>3219</ele>
        <time>2013-04-23T14:44:52Z</time>
      </trkpt>
      <trkpt lat="48.21297" lon="-0.70549">
        <ele>3221</ele>
        <time>2013-04-23T14:44:55Z</time>
      </trkpt>
      <trkpt lat="48.21286" lon="-0.70528">
        <ele>3223</ele>
        <time>2013-04-23T14:44:58Z</time>
      </trkpt>
      <trkpt lat="48.21272" lon="-0.70511">
        <ele>3225</ele>
        <time>2013-04-23T14:45:01Z</time>
      </trkpt>
      <trkpt lat="48.21261" lon="-0.70494">
        <ele>3226</ele>
        <time>2013-04-23T14:45:04Z</time>
      </trkpt>
      <trkpt lat="48.21251" lon="-0.70478">
        <ele>3228</ele>
        <time>2013-04-23T14:45:07Z</time>
      </trkpt>
      <trkpt lat="48.21241" lon="-0.70465">
        <ele>3230</ele>
        <time>2013-04-23T14:45:09Z</time>
      </trkpt>
      <trkpt lat="48.21231" lon="-0.7045">
        <ele>3232</ele>
        <time>2013-04-23T14:45:12Z</time>
      </trkpt>
      <trkpt lat="48.21222" lon="-0.70436">
        <ele>3233</ele>
        <time>2013-04-23T14:45:15Z</time>
      </trkpt>
      <trkpt lat="48.21213" lon="-0.70427">
        <ele>3235</ele>
        <time>2013-04-23T14:45:18Z</time>
      </trkpt>
      <trkpt lat="48.21206" lon="-0.70419">
        <ele>3237</ele>
        <time>2013-04-23T14:45:21Z</time>
      </trkpt>
      <trkpt lat="48.21198" lon="-0.70414">
        <ele>3238</ele>
        <time>2013-04-23T14:45:24Z</time>
      </trkpt>
      <trkpt lat="48.21194" lon="-0.70423">
        <ele>3240</ele>
        <time>2013-04-23T14:45:27Z</time>
      </trkpt>
      <trkpt lat="48.21185" lon="-0.70438">
        <ele>3242</ele>
        <time>2013-04-23T14:45:30Z</time>
      </trkpt>
      <trkpt lat="48.21176" lon="-0.70456">
        <ele>3244</ele>
        <time>2013-04-23T14:45:33Z</time>
      </trkpt>
      <trkpt lat="48.21164" lon="-0.70476">
        <ele>3245</ele>
        <time>2013-04-23T14:45:36Z</time>
      </trkpt>
      <trkpt lat="48.21155" lon="-0.70493">
        <ele>3247</ele>
        <time>2013-04-23T14:45:39Z</time>
      </trkpt>
      <trkpt lat="48.21149" lon="-0.70509">
        <ele>3249</ele>
        <time>2013-04-23T14:45:42Z</time>
      </trkpt>
      <trkpt lat="48.21142" lon="-0.70525">
        <ele>3250</ele>
        <time>2013-04-23T14:45:45Z</time>
      </trkpt>
      <trkpt lat="48.21136" lon="-0.70543">
        <ele>3252</ele>
        <time>2013-04-23T14:45:48Z</time>
      </trkpt>
      <trkpt lat="48.21131" lon="-0.70561">
        <ele>3254</ele>
        <time>2013-04-23T14:45:51Z</time>
      </trkpt>
      <trkpt lat="48.21124" lon="-0.70581">
        <ele>3256</ele>
        <time>2013-04-23T14:45:54Z</time>
      </trkpt>
      <trkpt lat="48.21118" lon="-0.70598">
        <ele>3257</ele>
        <time>2013-04-23T14:45:57Z</time>
      </trkpt>
      <trkpt lat="48.21111" lon="-0.7062">
        <ele>3259</ele>
        <time>2013-04-23T14:46:00Z</time>
      </trkpt>
      <trkpt lat="48.21104" lon="-0.7064">
        <ele>3261</ele>
        <time>2013-04-23T14:46:02Z</time>
      </trkpt>
      <trkpt lat="48.21099" lon="-0.70659">
        <ele>3262</ele>
        <time>2013-04-23T14:46:05Z</time>
      </trkpt>
      <trkpt lat="48.21092" lon="-0.70681">
        <ele>3264</ele>
        <time>2013-04-23T14:46:08Z</time>
      </trkpt>
      <trkpt lat="48.21087" lon="-0.70696">
        <ele>3266</ele>
        <time>2013-04-23T14:46:11Z</time>
      </trkpt>
      <trkpt lat="48.21077" lon="-0.70717">
        <ele>3268</ele>
        <time>2013-04-23T14:46:14Z</time>
      </trkpt>
      <trkpt lat="48.2107" lon="-0.70733">
        <ele>3269</ele>
        <time>2013-04-23T14:46:17Z</time>
      </trkpt>
      <trkpt lat="48.21064" lon="-0.70748">
        <ele>3271</ele>
        <time>2013-04-23T14:46:20Z</time>
      </trkpt>
      <trkpt lat="48.21057" lon="-0.70768">
        <ele>3273</ele>
        <time>2013-04-23T14:46:23Z</time>
      </trkpt>
      <trkpt lat="48.21046" lon="-0.70789">
        <ele>3275</ele>
        <time>2013-04-23T14:46:26Z</time>
      </trkpt>
      <trkpt lat="48.21034" lon="-0.70807">
        <ele>3277</ele>
        <time>2013-04-23T14:46:29Z</time>
      </trkpt>
      <trkpt lat="48.2102" lon="-0.70825">
        <ele>3278</ele>
        <time>2013-04-23T14:46:32Z</time>
      </trkpt>
      <trkpt lat="48.21009" lon="-0.70839">
        <ele>3280</ele>
        <time>2013-04-23T14:46:35Z</time>
      </trkpt>
      <trkpt lat="48.21002" lon="-0.7085">
        <ele>3282</ele>
        <time>2013-04-23T14:46:38Z</time>
      </trkpt>
      <trkpt lat="48.2099" lon="-0.70862">
        <ele>3284</ele>
        <time>2013-04-23T14:46:41Z</time>
      </trkpt>
      <trkpt lat="48.2098" lon="-0.70871">
        <ele>3285</ele>
        <time>2013-04-23T14:46:44Z</time>
      </trkpt>
      <trkpt lat="48.20972" lon="-0.70879">
        <ele>3287</ele>
        <time>2013-04-23T14:46:47Z</time>
      </trkpt>
      <trkpt lat="48.20961" lon="-0.70885">
        <ele>3289</ele>
        <time>2013-04-23T14:46:50Z</time>
      </trkpt>
      <trkpt lat="48.2095" lon="-0.7089">
        <ele>3291</ele>
        <time>2013-04-23T14:46:53Z</time>
      </trkpt>
      <trkpt lat="48.20938" lon="-0.70897">
        <ele>3292</ele>
        <time>2013-04-23T14:46:55Z</time>
      </trkpt>
      <trkpt lat="48.20922" lon="-0.70908">
        <ele>3294</ele>
        <time>2013-04-23T14:46:58Z</time>
      </trkpt>
      <trkpt lat="48.20908" lon="-0.70913">
        <ele>3296</ele>
        <time>2013-04-23T14:47:01Z</time>
      </trkpt>
      <trkpt lat="48.20897" lon="-0.70917">
        <ele>3298</ele>
        <time>2013-04-23T14:47:04Z</time>
      </trkpt>
      <trkpt lat="48.20883" lon="-0.70923">
        <ele>3299</ele>
        <time>2013-04-23T14:47:07Z</time>
      </trkpt>
      <trkpt lat="48.20872" lon="-0.70929">
        <ele>3301</ele>
        <time>2013-04-23T14:47:10Z</time>
      </trkpt>
      <trkpt lat="48.20861" lon="-0.70933">
        <ele>3303</ele>
        <time>2013-04-23T14:47:13Z</time>
      </trkpt>
      <trkpt lat="48.20844" lon="-0.70941">
        <ele>3304</ele>
        <time>2013-04-23T14:47:16Z</time>
      </trkpt>
      <trkpt lat="48.20827" lon="-0.70946">
        <ele>3306</ele>
        <time>2013-04-23T14:47:19Z</time>
      </trkpt>
      <trkpt lat="48.20816" lon="-0.70947">
        <ele>3308</ele>
        <time>2013-04-23T14:47:22Z</time>
      </trkpt>
      <trkpt lat="48.20803" lon="-0.70947">
        <ele>3310</ele>
        <time>2013-04-23T14:47:25Z</time>
      </trkpt>
      <trkpt lat="48.20792" lon="-0.70952">
        <ele>3311</ele>
        <time>2013-04-23T14:47:28Z</time>
      </trkpt>
      <trkpt lat="48.20777" lon="-0.70953">
        <ele>3313</ele>
        <time>2013-04-23T14:47:31Z</time>
      </trkpt>
      <trkpt lat="48.20762" lon="-0.70958">
        <ele>3315</ele>
        <time>2013-04-23T14:47:34Z</time>
      </trkpt>
      <trkpt lat="48.20746" lon="-0.70962">
        <ele>3317</ele>
        <time>2013-04-23T14:47:37Z</time>
      </trkpt>
      <trkpt lat="48.20733" lon="-0.70966">
        <ele>3318</ele>
        <time>2013-04-23T14:47:40Z</time>
      </trkpt>
      <trkpt lat="48.20711" lon="-0.70973">
        <ele>3320</ele>
        <time>2013-04-23T14:47:43Z</time>
      </trkpt>
      <trkpt lat="48.20694" lon="-0.70973">
        <ele>3322</ele>
        <time>2013-04-23T14:47:46Z</time>
      </trkpt>
      <trkpt lat="48.20676" lon="-0.7098">
        <ele>3324</ele>
        <time>2013-04-23T14:47:49Z</time>
      </trkpt>
      <trkpt lat="48.2066" lon="-0.70988">
        <ele>3326</ele>
        <time>2013-04-23T14:47:51Z</time>
      </trkpt>
      <trkpt lat="48.2064" lon="-0.70995">
        <ele>3327</ele>
        <time>2013-04-23T14:47:54Z</time>
      </trkpt>
      <trkpt lat="48.20624" lon="-0.71001">
        <ele>3329</ele>
        <time>2013-04-23T14:47:57Z</time>
      </trkpt>
      <trkpt lat="48.20615" lon="-0.71003">
        <ele>3331</ele>
        <time>2013-04-23T14:48:00Z</time>
      </trkpt>
      <trkpt lat="48.20602" lon="-0.71004">
        <ele>3333</ele>
        <time>2013-04-23T14:48:03Z</time>
      </trkpt>
      <trkpt lat="48.20584" lon="-0.7101">
        <ele>3335</ele>
        <time>2013-04-23T14:48:06Z</time>
      </trkpt>
      <trkpt lat="48.20566" lon="-0.71019">
        <ele>3336</ele>
        <time>2013-04-23T14:48:09Z</time>
      </trkpt>
      <trkpt lat="48.20549" lon="-0.71028">
        <ele>3338</ele>
        <time>2013-04-23T14:48:12Z</time>
      </trkpt>
      <trkpt lat="48.20535" lon="-0.71034">
        <ele>3340</ele>
        <time>2013-04-23T14:48:15Z</time>
      </trkpt>
      <trkpt lat="48.20521" lon="-0.71043">
        <ele>3341</ele>
        <time>2013-04-23T14:48:18Z</time>
      </trkpt>
      <trkpt lat="48.20503" lon="-0.71057">
        <ele>3343</ele>
        <time>2013-04-23T14:48:21Z</time>
      </trkpt>
      <trkpt lat="48.20487" lon="-0.71064">
        <ele>3345</ele>
        <time>2013-04-23T14:48:24Z</time>
      </trkpt>
      <trkpt lat="48.20472" lon="-0.71071">
        <ele>3346</ele>
        <time>2013-04-23T14:48:27Z</time>
      </trkpt>
      <trkpt lat="48.20455" lon="-0.71078">
        <ele>3348</ele>
        <time>2013-04-23T14:48:30Z</time>
      </trkpt>
      <trkpt lat="48.20437" lon="-0.71087">
        <ele>3350</ele>
        <time>2013-04-23T14:48:33Z</time>
      </trkpt>
      <trkpt lat="48.2042" lon="-0.71095">
        <ele>3352</ele>
        <time>2013-04-23T14:48:36Z</time>
      </trkpt>
      <trkpt lat="48.20404" lon="-0.71103">
        <ele>3353</ele>
        <time>2013-04-23T14:48:39Z</time>
      </trkpt>
      <trkpt lat="48.20388" lon="-0.7111">
        <ele>3355</ele>
        <time>2013-04-23T14:48:42Z</time>
      </trkpt>
      <trkpt lat="48.20372" lon="-0.71114">
        <ele>3357</ele>
        <time>2013-04-23T14:48:44Z</time>
      </trkpt>
      <trkpt lat="48.20356" lon="-0.71119">
        <ele>3358</ele>
        <time>2013-04-23T14:48:47Z</time>
      </trkpt>
      <trkpt lat="48.20341" lon="-0.71122">
        <ele>3360</ele>
        <time>2013-04-23T14:48:50Z</time>
      </trkpt>
      <trkpt lat="48.20325" lon="-0.71123">
        <ele>3362</ele>
        <time>2013-04-23T14:48:53Z</time>
      </trkpt>
      <trkpt lat="48.20309" lon="-0.71124">
        <ele>3363</ele>
        <time>2013-04-23T14:48:56Z</time>
      </trkpt>
      <trkpt lat="48.20293" lon="-0.71123">
        <ele>3365</ele>
        <time>2013-04-23T14:48:59Z</time>
      </trkpt>
      <trkpt lat="48.20277" lon="-0.71122">
        <ele>3367</ele>
        <time>2013-04-23T14:49:02Z</time>
      </trkpt>
      <trkpt lat="48.2026" lon="-0.71123">
        <ele>3369</ele>
        <time>2013-04-23T14:49:05Z</time>
      </trkpt>
      <trkpt lat="48.20242" lon="-0.7112">
        <ele>3370</ele>
        <time>2013-04-23T14:49:08Z</time>
      </trkpt>
      <trkpt lat="48.20227" lon="-0.71118">
        <ele>3372</ele>
        <time>2013-04-23T14:49:11Z</time>
      </trkpt>
      <trkpt lat="48.20214" lon="-0.71116">
        <ele>3374</ele>
        <time>2013-04-23T14:49:14Z</time>
      </trkpt>
      <trkpt lat="48.20198" lon="-0.71115">
        <ele>3375</ele>
        <time>2013-04-23T14:49:17Z</time>
      </trkpt>
      <trkpt lat="48.20185" lon="-0.71114">
        <ele>3377</ele>
        <time>2013-04-23T14:49:20Z</time>
      </trkpt>
      <trkpt lat="48.20173" lon="-0.71115">
        <ele>3379</ele>
        <time>2013-04-23T14:49:23Z</time>
      </trkpt>
      <trkpt lat="48.20163" lon="-0.71116">
        <ele>3380</ele>
        <time>2013-04-23T14:49:26Z</time>
      </trkpt>
      <trkpt lat="48.20154" lon="-0.71117">
        <ele>3382</ele>
        <time>2013-04-23T14:49:29Z</time>
      </trkpt>
      <trkpt lat="48.20146" lon="-0.71115">
        <ele>3384</ele>
        <time>2013-04-23T14:49:32Z</time>
      </trkpt>
      <trkpt lat="48.20137" lon="-0.71115">
        <ele>3386</ele>
        <time>2013-04-23T14:49:35Z</time>
      </trkpt>
      <trkpt lat="48.20126" lon="-0.71116">
        <ele>3387</ele>
        <time>2013-04-23T14:49:37Z</time>
      </trkpt>
      <trkpt lat="48.20114" lon="-0.71111">
        <ele>3389</ele>
        <time>2013-04-23T14:49:40Z</time>
      </trkpt>
      <trkpt lat="48.20101" lon="-0.71107">
        <ele>3391</ele>
        <time>2013-04-23T14:49:43Z</time>
      </trkpt>
      <trkpt lat="48.20088" lon="-0.71106">
        <ele>3392</ele>
        <time>2013-04-23T14:49:46Z</time>
      </trkpt>
      <trkpt lat="48.20077" lon="-0.71104">
        <ele>3394</ele>
        <time>2013-04-23T14:49:49Z</time>
      </trkpt>
      <trkpt lat="48.20059" lon="-0.71105">
        <ele>3396</ele>
        <time>2013-04-23T14:49:52Z</time>
      </trkpt>
      <trkpt lat="48.20047" lon="-0.71109">
        <ele>3397</ele>
        <time>2013-04-23T14:49:55Z</time>
      </trkpt>
      <trkpt lat="48.20034" lon="-0.71109">
        <ele>3399</ele>
        <time>2013-04-23T14:49:58Z</time>
      </trkpt>
      <trkpt lat="48.20022" lon="-0.71115">
        <ele>3401</ele>
        <time>2013-04-23T14:50:01Z</time>
      </trkpt>
      <trkpt lat="48.20012" lon="-0.71121">
        <ele>3403</ele>
        <time>2013-04-23T14:50:04Z</time>
      </trkpt>
      <trkpt lat="48.19999" lon="-0.71132">
        <ele>3404</ele>
        <time>2013-04-23T14:50:07Z</time>
      </trkpt>
      <trkpt lat="48.19983" lon="-0.71147">
        <ele>3406</ele>
        <time>2013-04-23T14:50:10Z</time>
      </trkpt>
      <trkpt lat="48.19971" lon="-0.71159">
        <ele>3408</ele>
        <time>2013-04-23T14:50:13Z</time>
      </trkpt>
      <trkpt lat="48.19961" lon="-0.71177">
        <ele>3409</ele>
        <time>2013-04-23T14:50:16Z</time>
      </trkpt>
      <trkpt lat="48.19951" lon="-0.71196">
        <ele>3411</ele>
        <time>2013-04-23T14:50:19Z</time>
      </trkpt>
      <trkpt lat="48.19942" lon="-0.71212">
        <ele>3413</ele>
        <time>2013-04-23T14:50:22Z</time>
      </trkpt>
      <trkpt lat="48.19932" lon="-0.7123">
        <ele>3414</ele>
        <time>2013-04-23T14:50:25Z</time>
      </trkpt>
      <trkpt lat="48.19924" lon="-0.71246">
        <ele>3416</ele>
        <time>2013-04-23T14:50:28Z</time>
      </trkpt>
      <trkpt lat="48.19919" lon="-0.71263">
        <ele>3418</ele>
        <time>2013-04-23T14:50:31Z</time>
      </trkpt>
      <trkpt lat="48.19912" lon="-0.71274">
        <ele>3419</ele>
        <time>2013-04-23T14:50:33Z</time>
      </trkpt>
      <trkpt lat="48.19904" lon="-0.71283">
        <ele>3421</ele>
        <time>2013-04-23T14:50:36Z</time>
      </trkpt>
      <trkpt lat="48.19894" lon="-0.713">
        <ele>3423</ele>
        <time>2013-04-23T14:50:39Z</time>
      </trkpt>
      <trkpt lat="48.1989" lon="-0.71318">
        <ele>3425</ele>
        <time>2013-04-23T14:50:42Z</time>
      </trkpt>
      <trkpt lat="48.19889" lon="-0.71335">
        <ele>3426</ele>
        <time>2013-04-23T14:50:45Z</time>
      </trkpt>
      <trkpt lat="48.19877" lon="-0.71356">
        <ele>3428</ele>
        <time>2013-04-23T14:50:48Z</time>
      </trkpt>
      <trkpt lat="48.19865" lon="-0.7138">
        <ele>3429</ele>
        <time>2013-04-23T14:50:51Z</time>
      </trkpt>
      <trkpt lat="48.19851" lon="-0.714">
        <ele>3431</ele>
        <time>2013-04-23T14:50:54Z</time>
      </trkpt>
      <trkpt lat="48.19849" lon="-0.71421">
        <ele>3433</ele>
        <time>2013-04-23T14:50:57Z</time>
      </trkpt>
      <trkpt lat="48.19841" lon="-0.71441">
        <ele>3434</ele>
        <time>2013-04-23T14:51:00Z</time>
      </trkpt>
      <trkpt lat="48.19832" lon="-0.71458">
        <ele>3436</ele>
        <time>2013-04-23T14:51:03Z</time>
      </trkpt>
      <trkpt lat="48.19818" lon="-0.71481">
        <ele>3438</ele>
        <time>2013-04-23T14:51:06Z</time>
      </trkpt>
      <trkpt lat="48.19807" lon="-0.71498">
        <ele>3439</ele>
        <time>2013-04-23T14:51:09Z</time>
      </trkpt>
      <trkpt lat="48.19794" lon="-0.71516">
        <ele>3441</ele>
        <time>2013-04-23T14:51:12Z</time>
      </trkpt>
      <trkpt lat="48.19783" lon="-0.71533">
        <ele>3443</ele>
        <time>2013-04-23T14:51:15Z</time>
      </trkpt>
      <trkpt lat="48.19776" lon="-0.7155">
        <ele>3444</ele>
        <time>2013-04-23T14:51:18Z</time>
      </trkpt>
      <trkpt lat="48.19768" lon="-0.71566">
        <ele>3446</ele>
        <time>2013-04-23T14:51:21Z</time>
      </trkpt>
      <trkpt lat="48.1976" lon="-0.71584">
        <ele>3447</ele>
        <time>2013-04-23T14:51:24Z</time>
      </trkpt>
      <trkpt lat="48.19752" lon="-0.716">
        <ele>3449</ele>
        <time>2013-04-23T14:51:26Z</time>
      </trkpt>
      <trkpt lat="48.1974" lon="-0.7162">
        <ele>3450</ele>
        <time>2013-04-23T14:51:29Z</time>
      </trkpt>
      <trkpt lat="48.19731" lon="-0.71641">
        <ele>3452</ele>
        <time>2013-04-23T14:51:32Z</time>
      </trkpt>
      <trkpt lat="48.19722" lon="-0.71659">
        <ele>3453</ele>
        <time>2013-04-23T14:51:35Z</time>
      </trkpt>
      <trkpt lat="48.19715" lon="-0.71676">
        <ele>3455</ele>
        <time>2013-04-23T14:51:38Z</time>
      </trkpt>
      <trkpt lat="48.19705" lon="-0.71695">
        <ele>3456</ele>
        <time>2013-04-23T14:51:41Z</time>
      </trkpt>
      <trkpt lat="48.19697" lon="-0.71713">
        <ele>3458</ele>
        <time>2013-04-23T14:51:44Z</time>
      </trkpt>
      <trkpt lat="48.19691" lon="-0.7173">
        <ele>3459</ele>
        <time>2013-04-23T14:51:47Z</time>
      </trkpt>
      <trkpt lat="48.19685" lon="-0.71747">
        <ele>3461</ele>
        <time>2013-04-23T14:51:50Z</time>
      </trkpt>
      <trkpt lat="48.19679" lon="-0.71765">
        <ele>3462</ele>
        <time>2013-04-23T14:51:53Z</time>
      </trkpt>
      <trkpt lat="48.1967" lon="-0.71785">
        <ele>3464</ele>
        <time>2013-04-23T14:51:56Z</time>
      </trkpt>
      <trkpt lat="48.19662" lon="-0.71803">
        <ele>3465</ele>
        <time>2013-04-23T14:51:59Z</time>
      </trkpt>
      <trkpt lat="48.19657" lon="-0.71824">
        <ele>3467</ele>
        <time>2013-04-23T14:52:02Z</time>
      </trkpt>
      <trkpt lat="48.19651" lon="-0.71846">
        <ele>3468</ele>
        <time>2013-04-23T14:52:05Z</time>
      </trkpt>
      <trkpt lat="48.19642" lon="-0.71868">
        <ele>3470</ele>
        <time>2013-04-23T14:52:08Z</time>
      </trkpt>
      <trkpt lat="48.19635" lon="-0.71889">
        <ele>3471</ele>
        <time>2013-04-23T14:52:11Z</time>
      </trkpt>
      <trkpt lat="48.19629" lon="-0.71911">
        <ele>3473</ele>
        <time>2013-04-23T14:52:14Z</time>
      </trkpt>
      <trkpt lat="48.1962" lon="-0.71933">
        <ele>3474</ele>
        <time>2013-04-23T14:52:17Z</time>
      </trkpt>
      <trkpt lat="48.19611" lon="-0.71952">
        <ele>3476</ele>
        <time>2013-04-23T14:52:19Z</time>
      </trkpt>
      <trkpt lat="48.19599" lon="-0.71972">
        <ele>3477</ele>
        <time>2013-04-23T14:52:22Z</time>
      </trkpt>
      <trkpt lat="48.19583" lon="-0.71994">
        <ele>3479</ele>
        <time>2013-04-23T14:52:25Z</time>
      </trkpt>
      <trkpt lat="48.1957" lon="-0.72011">
        <ele>3480</ele>
        <time>2013-04-23T14:52:28Z</time>
      </trkpt>
      <trkpt lat="48.19556" lon="-0.72028">
        <ele>3482</ele>
        <time>2013-04-23T14:52:31Z</time>
      </trkpt>
      <trkpt lat="48.19543" lon="-0.72044">
        <ele>3483</ele>
        <time>2013-04-23T14:52:34Z</time>
      </trkpt>
      <trkpt lat="48.19531" lon="-0.72058">
        <ele>3485</ele>
        <time>2013-04-23T14:52:37Z</time>
      </trkpt>
      <trkpt lat="48.19517" lon="-0.72071">
        <ele>3487</ele>
        <time>2013-04-23T14:52:40Z</time>
      </trkpt>
      <trkpt lat="48.19503" lon="-0.72082">
        <ele>3488</ele>
        <time>2013-04-23T14:52:43Z</time>
      </trkpt>
      <trkpt lat="48.19489" lon="-0.72091">
        <ele>3490</ele>
        <time>2013-04-23T14:52:46Z</time>
      </trkpt>
      <trkpt lat="48.19476" lon="-0.72096">
        <ele>3491</ele>
        <time>2013-04-23T14:52:49Z</time>
      </trkpt>
      <trkpt lat="48.19461" lon="-0.72101">
        <ele>3493</ele>
        <time>2013-04-23T14:52:52Z</time>
      </trkpt>
      <trkpt lat="48.19446" lon="-0.72104">
        <ele>3495</ele>
        <time>2013-04-23T14:52:55Z</time>
      </trkpt>
      <trkpt lat="48.19429" lon="-0.72107">
        <ele>3496</ele>
        <time>2013-04-23T14:52:58Z</time>
      </trkpt>
      <trkpt lat="48.19413" lon="-0.72109">
        <ele>3498</ele>
        <time>2013-04-23T14:53:01Z</time>
      </trkpt>
      <trkpt lat="48.19397" lon="-0.72108">
        <ele>3499</ele>
        <time>2013-04-23T14:53:04Z</time>
      </trkpt>
      <trkpt lat="48.19382" lon="-0.72106">
        <ele>3501</ele>
        <time>2013-04-23T14:53:07Z</time>
      </trkpt>
      <trkpt lat="48.19366" lon="-0.72103">
        <ele>3503</ele>
        <time>2013-04-23T14:53:10Z</time>
      </trkpt>
      <trkpt lat="48.1935" lon="-0.72099">
        <ele>3504</ele>
        <time>2013-04-23T14:53:12Z</time>
      </trkpt>
      <trkpt lat="48.19335" lon="-0.72095">
        <ele>3506</ele>
        <time>2013-04-23T14:53:15Z</time>
      </trkpt>
      <trkpt lat="48.1932" lon="-0.72094">
        <ele>3507</ele>
        <time>2013-04-23T14:53:18Z</time>
      </trkpt>
      <trkpt lat="48.19304" lon="-0.72094">
        <ele>3509</ele>
        <time>2013-04-23T14:53:21Z</time>
      </trkpt>
      <trkpt lat="48.19289" lon="-0.72095">
        <ele>3511</ele>
        <time>2013-04-23T14:53:24Z</time>
      </trkpt>
      <trkpt lat="48.19275" lon="-0.72098">
        <ele>3512</ele>
        <time>2013-04-23T14:53:27Z</time>
      </trkpt>
      <trkpt lat="48.19264" lon="-0.72102">
        <ele>3514</ele>
        <time>2013-04-23T14:53:30Z</time>
      </trkpt>
      <trkpt lat="48.19255" lon="-0.72103">
        <ele>3515</ele>
        <time>2013-04-23T14:53:33Z</time>
      </trkpt>
      <trkpt lat="48.19244" lon="-0.72109">
        <ele>3517</ele>
        <time>2013-04-23T14:53:36Z</time>
      </trkpt>
      <trkpt lat="48.19232" lon="-0.72116">
        <ele>3519</ele>
        <time>2013-04-23T14:53:39Z</time>
      </trkpt>
      <trkpt lat="48.1922" lon="-0.72123">
        <ele>3520</ele>
        <time>2013-04-23T14:53:42Z</time>
      </trkpt>
      <trkpt lat="48.19207" lon="-0.7213">
        <ele>3522</ele>
        <time>2013-04-23T14:53:45Z</time>
      </trkpt>
      <trkpt lat="48.19195" lon="-0.72133">
        <ele>3523</ele>
        <time>2013-04-23T14:53:48Z</time>
      </trkpt>
      <trkpt lat="48.19183" lon="-0.7214">
        <ele>3525</ele>
        <time>2013-04-23T14:53:51Z</time>
      </trkpt>
      <trkpt lat="48.19171" lon="-0.72144">
        <ele>3527</ele>
        <time>2013-04-23T14:53:54Z</time>
      </trkpt>
      <trkpt lat="48.19159" lon="-0.72149">
        <ele>3528</ele>
        <time>2013-04-23T14:53:57Z</time>
      </trkpt>
      <trkpt lat="48.19147" lon="-0.72154">
        <ele>3530</ele>
        <time>2013-04-23T14:54:00Z</time>
      </trkpt>
      <trkpt lat="48.19134" lon="-0.7216">
        <ele>3531</ele>
        <time>2013-04-23T14:54:03Z</time>
      </trkpt>
      <trkpt lat="48.19121" lon="-0.72165">
        <ele>3533</ele>
        <time>2013-04-23T14:54:06Z</time>
      </trkpt>
      <trkpt lat="48.19109" lon="-0.72172">
        <ele>3535</ele>
        <time>2013-04-23T14:54:08Z</time>
      </trkpt>
      <trkpt lat="48.19096" lon="-0.72179">
        <ele>3536</ele>
        <time>2013-04-23T14:54:11Z</time>
      </trkpt>
      <trkpt lat="48.19085" lon="-0.72189">
        <ele>3538</ele>
        <time>2013-04-23T14:54:14Z</time>
      </trkpt>
      <trkpt lat="48.19076" lon="-0.72199">
        <ele>3539</ele>
        <time>2013-04-23T14:54:17Z</time>
      </trkpt>
      <trkpt lat="48.19068" lon="-0.7221">
        <ele>3541</ele>
        <time>2013-04-23T14:54:20Z</time>
      </trkpt>
      <trkpt lat="48.19062" lon="-0.72221">
        <ele>3543</ele>
        <time>2013-04-23T14:54:23Z</time>
      </trkpt>
      <trkpt lat="48.19055" lon="-0.72231">
        <ele>3544</ele>
        <time>2013-04-23T14:54:26Z</time>
      </trkpt>
      <trkpt lat="48.19051" lon="-0.72239">
        <ele>3546</ele>
        <time>2013-04-23T14:54:29Z</time>
      </trkpt>
      <trkpt lat="48.19044" lon="-0.72253">
        <ele>3547</ele>
        <time>2013-04-23T14:54:32Z</time>
      </trkpt>
      <trkpt lat="48.19035" lon="-0.72269">
        <ele>3549</ele>
        <time>2013-04-23T14:54:35Z</time>
      </trkpt>
      <trkpt lat="48.19026" lon="-0.72288">
        <ele>3551</ele>
        <time>2013-04-23T14:54:38Z</time>
      </trkpt>
      <trkpt lat="48.19015" lon="-0.72306">
        <ele>3552</ele>
        <time>2013-04-23T14:54:41Z</time>
      </trkpt>
      <trkpt lat="48.19007" lon="-0.72326">
        <ele>3554</ele>
        <time>2013-04-23T14:54:44Z</time>
      </trkpt>
      <trkpt lat="48.19003" lon="-0.72342">
        <ele>3555</ele>
        <time>2013-04-23T14:54:47Z</time>
      </trkpt>
      <trkpt lat="48.18999" lon="-0.72359">
        <ele>3557</ele>
        <time>2013-04-23T14:54:50Z</time>
      </trkpt>
      <trkpt lat="48.1899" lon="-0.72383">
        <ele>3559</ele>
        <time>2013-04-23T14:54:53Z</time>
      </trkpt>
      <trkpt lat="48.18987" lon="-0.72408">
        <ele>3560</ele>
        <time>2013-04-23T14:54:56Z</time>
      </trkpt>
      <trkpt lat="48.18985" lon="-0.72432">
        <ele>3562</ele>
        <time>2013-04-23T14:54:59Z</time>
      </trkpt>
      <trkpt lat="48.18985" lon="-0.72456">
        <ele>3564</ele>
        <time>2013-04-23T14:55:01Z</time>
      </trkpt>
      <trkpt lat="48.18985" lon="-0.72479">
        <ele>3565</ele>
        <time>2013-04-23T14:55:04Z</time>
      </trkpt>
      <trkpt lat="48.18983" lon="-0.72502">
        <ele>3567</ele>
        <time>2013-04-23T14:55:07Z</time>
      </trkpt>
      <trkpt lat="48.18981" lon="-0.72519">
        <ele>3569</ele>
        <time>2013-04-23T14:55:10Z</time>
      </trkpt>
      <trkpt lat="48.18979" lon="-0.72537">
        <ele>3570</ele>
        <time>2013-04-23T14:55:13Z</time>
      </trkpt>
      <trkpt lat="48.18976" lon="-0.72555">
        <ele>3572</ele>
        <time>2013-04-23T14:55:16Z</time>
      </trkpt>
      <trkpt lat="48.18969" lon="-0.72578">
        <ele>3573</ele>
        <time>2013-04-23T14:55:19Z</time>
      </trkpt>
      <trkpt lat="48.18964" lon="-0.72594">
        <ele>3575</ele>
        <time>2013-04-23T14:55:22Z</time>
      </trkpt>
      <trkpt lat="48.18957" lon="-0.7261">
        <ele>3577</ele>
        <time>2013-04-23T14:55:25Z</time>
      </trkpt>
      <trkpt lat="48.1895" lon="-0.72626">
        <ele>3578</ele>
        <time>2013-04-23T14:55:28Z</time>
      </trkpt>
      <trkpt lat="48.18941" lon="-0.72643">
        <ele>3580</ele>
        <time>2013-04-23T14:55:31Z</time>
      </trkpt>
      <trkpt lat="48.18932" lon="-0.72657">
        <ele>3581</ele>
        <time>2013-04-23T14:55:34Z</time>
      </trkpt>
      <trkpt lat="48.18922" lon="-0.72674">
        <ele>3583</ele>
        <time>2013-04-23T14:55:37Z</time>
      </trkpt>
      <trkpt lat="48.18914" lon="-0.72686">
        <ele>3584</ele>
        <time>2013-04-23T14:55:40Z</time>
      </trkpt>
      <trkpt lat="48.18903" lon="-0.72701">
        <ele>3586</ele>
        <time>2013-04-23T14:55:43Z</time>
      </trkpt>
      <trkpt lat="48.18893" lon="-0.72716">
        <ele>3587</ele>
        <time>2013-04-23T14:55:46Z</time>
      </trkpt>
      <trkpt lat="48.18882" lon="-0.72732">
        <ele>3589</ele>
        <time>2013-04-23T14:55:49Z</time>
      </trkpt>
      <trkpt lat="48.18871" lon="-0.72745">
        <ele>3590</ele>
        <time>2013-04-23T14:55:52Z</time>
      </trkpt>
      <trkpt lat="48.1886" lon="-0.72759">
        <ele>3592</ele>
        <time>2013-04-23T14:55:54Z</time>
      </trkpt>
      <trkpt lat="48.1885" lon="-0.72777">
        <ele>3593</ele>
        <time>2013-04-23T14:55:57Z</time>
      </trkpt>
      <trkpt lat="48.1884" lon="-0.72796">
        <ele>3595</ele>
        <time>2013-04-23T14:56:00Z</time>
      </trkpt>
      <trkpt lat="48.18833" lon="-0.72814">
        <ele>3596</ele>
        <time>2013-04-23T14:56:03Z</time>
      </trkpt>
      <trkpt lat="48.18827" lon="-0.72829">
        <ele>3598</ele>
        <time>2013-04-23T14:56:06Z</time>
      </trkpt>
      <trkpt lat="48.18824" lon="-0.72845">
        <ele>3599</ele>
        <time>2013-04-23T14:56:09Z</time>
      </trkpt>
      <trkpt lat="48.18817" lon="-0.72868">
        <ele>3600</ele>
        <time>2013-04-23T14:56:12Z</time>
      </trkpt>
      <trkpt lat="48.18811" lon="-0.72884">
        <ele>3602</ele>
        <time>2013-04-23T14:56:15Z</time>
      </trkpt>
      <trkpt lat="48.18805" lon="-0.72904">
        <ele>3603</ele>
        <time>2013-04-23T14:56:18Z</time>
      </trkpt>
      <trkpt lat="48.18799" lon="-0.72924">
        <ele>3605</ele>
        <time>2013-04-23T14:56:21Z</time>
      </trkpt>
      <trkpt lat="48.18791" lon="-0.72945">
        <ele>3606</ele>
        <time>2013-04-23T14:56:24Z</time>
      </trkpt>
      <trkpt lat="48.18783" lon="-0.72965">
        <ele>3607</ele>
        <time>2013-04-23T14:56:27Z</time>
      </trkpt>
      <trkpt lat="48.18775" lon="-0.72987">
        <ele>3609</ele>
        <time>2013-04-23T14:56:30Z</time>
      </trkpt>
      <trkpt lat="48.18768" lon="-0.73012">
        <ele>3610</ele>
        <time>2013-04-23T14:56:33Z</time>
      </trkpt>
      <trkpt lat="48.18762" lon="-0.7304">
        <ele>3612</ele>
        <time>2013-04-23T14:56:36Z</time>
      </trkpt>
      <trkpt lat="48.18758" lon="-0.73058">
        <ele>3613</ele>
        <time>2013-04-23T14:57:20Z</time>
      </trkpt>
      <trkpt lat="48.1875" lon="-0.731">
        <ele>3615</ele>
        <time>2013-04-23T14:57:21Z</time>
      </trkpt>
      <trkpt lat="48.18747" lon="-0.73108">
        <ele>3617</ele>
        <time>2013-04-23T14:57:24Z</time>
      </trkpt>
      <trkpt lat="48.18743" lon="-0.73122">
        <ele>3619</ele>
        <time>2013-04-23T14:57:27Z</time>
      </trkpt>
      <trkpt lat="48.18737" lon="-0.73135">
        <ele>3620</ele>
        <time>2013-04-23T14:57:30Z</time>
      </trkpt>
      <trkpt lat="48.18733" lon="-0.73144">
        <ele>3622</ele>
        <time>2013-04-23T14:57:33Z</time>
      </trkpt>
      <trkpt lat="48.18729" lon="-0.73153">
        <ele>3624</ele>
        <time>2013-04-23T14:57:36Z</time>
      </trkpt>
      <trkpt lat="48.18725" lon="-0.73163">
        <ele>3625</ele>
        <time>2013-04-23T14:57:39Z</time>
      </trkpt>
      <trkpt lat="48.18722" lon="-0.73173">
        <ele>3627</ele>
        <time>2013-04-23T14:57:42Z</time>
      </trkpt>
      <trkpt lat="48.18717" lon="-0.73187">
        <ele>3629</ele>
        <time>2013-04-23T14:57:45Z</time>
      </trkpt>
      <trkpt lat="48.18712" lon="-0.73203">
        <ele>3630</ele>
        <time>2013-04-23T14:57:48Z</time>
      </trkpt>
      <trkpt lat="48.18706" lon="-0.73219">
        <ele>3632</ele>
        <time>2013-04-23T14:57:51Z</time>
      </trkpt>
      <trkpt lat="48.18697" lon="-0.73237">
        <ele>3634</ele>
        <time>2013-04-23T14:57:54Z</time>
      </trkpt>
      <trkpt lat="48.18687" lon="-0.73257">
        <ele>3636</ele>
        <time>2013-04-23T14:57:56Z</time>
      </trkpt>
      <trkpt lat="48.18674" lon="-0.73276">
        <ele>3637</ele>
        <time>2013-04-23T14:58:00Z</time>
      </trkpt>
      <trkpt lat="48.18664" lon="-0.73292">
        <ele>3639</ele>
        <time>2013-04-23T14:58:03Z</time>
      </trkpt>
      <trkpt lat="48.18658" lon="-0.73309">
        <ele>3640</ele>
        <time>2013-04-23T14:58:05Z</time>
      </trkpt>
      <trkpt lat="48.18656" lon="-0.73327">
        <ele>3642</ele>
        <time>2013-04-23T14:58:08Z</time>
      </trkpt>
      <trkpt lat="48.18652" lon="-0.73353">
        <ele>3644</ele>
        <time>2013-04-23T14:58:11Z</time>
      </trkpt>
      <trkpt lat="48.18647" lon="-0.73378">
        <ele>3645</ele>
        <time>2013-04-23T14:58:14Z</time>
      </trkpt>
      <trkpt lat="48.18642" lon="-0.73412">
        <ele>3647</ele>
        <time>2013-04-23T14:58:17Z</time>
      </trkpt>
      <trkpt lat="48.18643" lon="-0.73444">
        <ele>3648</ele>
        <time>2013-04-23T14:58:20Z</time>
      </trkpt>
      <trkpt lat="48.18645" lon="-0.73476">
        <ele>3650</ele>
        <time>2013-04-23T14:58:23Z</time>
      </trkpt>
      <trkpt lat="48.18644" lon="-0.73505">
        <ele>3652</ele>
        <time>2013-04-23T14:58:26Z</time>
      </trkpt>
      <trkpt lat="48.18643" lon="-0.73534">
        <ele>3653</ele>
        <time>2013-04-23T14:58:29Z</time>
      </trkpt>
      <trkpt lat="48.18642" lon="-0.73564">
        <ele>3655</ele>
        <time>2013-04-23T14:58:32Z</time>
      </trkpt>
      <trkpt lat="48.18641" lon="-0.73593">
        <ele>3656</ele>
        <time>2013-04-23T14:58:35Z</time>
      </trkpt>
      <trkpt lat="48.1864" lon="-0.73618">
        <ele>3658</ele>
        <time>2013-04-23T14:58:38Z</time>
      </trkpt>
      <trkpt lat="48.18637" lon="-0.7364">
        <ele>3660</ele>
        <time>2013-04-23T14:58:41Z</time>
      </trkpt>
      <trkpt lat="48.18635" lon="-0.7366">
        <ele>3661</ele>
        <time>2013-04-23T14:58:44Z</time>
      </trkpt>
      <trkpt lat="48.18633" lon="-0.73679">
        <ele>3663</ele>
        <time>2013-04-23T14:58:47Z</time>
      </trkpt>
      <trkpt lat="48.18629" lon="-0.73699">
        <ele>3664</ele>
        <time>2013-04-23T14:58:50Z</time>
      </trkpt>
      <trkpt lat="48.18626" lon="-0.73723">
        <ele>3666</ele>
        <time>2013-04-23T14:58:53Z</time>
      </trkpt>
      <trkpt lat="48.18621" lon="-0.73748">
        <ele>3668</ele>
        <time>2013-04-23T14:58:56Z</time>
      </trkpt>
      <trkpt lat="48.18616" lon="-0.73772">
        <ele>3669</ele>
        <time>2013-04-23T14:58:58Z</time>
      </trkpt>
      <trkpt lat="48.18609" lon="-0.73797">
        <ele>3671</ele>
        <time>2013-04-23T14:59:01Z</time>
      </trkpt>
      <trkpt lat="48.18602" lon="-0.73817">
        <ele>3672</ele>
        <time>2013-04-23T14:59:04Z</time>
      </trkpt>
      <trkpt lat="48.18594" lon="-0.73838">
        <ele>3674</ele>
        <time>2013-04-23T14:59:07Z</time>
      </trkpt>
      <trkpt lat="48.18586" lon="-0.73855">
        <ele>3676</ele>
        <time>2013-04-23T14:59:10Z</time>
      </trkpt>
      <trkpt lat="48.18576" lon="-0.73872">
        <ele>3677</ele>
        <time>2013-04-23T14:59:13Z</time>
      </trkpt>
      <trkpt lat="48.18564" lon="-0.73889">
        <ele>3679</ele>
        <time>2013-04-23T14:59:16Z</time>
      </trkpt>
      <trkpt lat="48.18552" lon="-0.73904">
        <ele>3680</ele>
        <time>2013-04-23T14:59:19Z</time>
      </trkpt>
      <trkpt lat="48.18541" lon="-0.73919">
        <ele>3682</ele>
        <time>2013-04-23T14:59:22Z</time>
      </trkpt>
      <trkpt lat="48.18529" lon="-0.73937">
        <ele>3683</ele>
        <time>2013-04-23T14:59:25Z</time>
      </trkpt>
      <trkpt lat="48.18516" lon="-0.73952">
        <ele>3685</ele>
        <time>2013-04-23T14:59:28Z</time>
      </trkpt>
      <trkpt lat="48.18505" lon="-0.73964">
        <ele>3686</ele>
        <time>2013-04-23T14:59:31Z</time>
      </trkpt>
      <trkpt lat="48.18493" lon="-0.73976">
        <ele>3688</ele>
        <time>2013-04-23T14:59:34Z</time>
      </trkpt>
      <trkpt lat="48.1848" lon="-0.73986">
        <ele>3689</ele>
        <time>2013-04-23T14:59:37Z</time>
      </trkpt>
      <trkpt lat="48.18468" lon="-0.73995">
        <ele>3691</ele>
        <time>2013-04-23T14:59:40Z</time>
      </trkpt>
      <trkpt lat="48.18454" lon="-0.74004">
        <ele>3692</ele>
        <time>2013-04-23T14:59:43Z</time>
      </trkpt>
      <trkpt lat="48.18439" lon="-0.7401">
        <ele>3694</ele>
        <time>2013-04-23T14:59:46Z</time>
      </trkpt>
      <trkpt lat="48.18425" lon="-0.74016">
        <ele>3695</ele>
        <time>2013-04-23T14:59:49Z</time>
      </trkpt>
      <trkpt lat="48.18411" lon="-0.74021">
        <ele>3697</ele>
        <time>2013-04-23T14:59:51Z</time>
      </trkpt>
      <trkpt lat="48.18398" lon="-0.74026">
        <ele>3698</ele>
        <time>2013-04-23T14:59:54Z</time>
      </trkpt>
      <trkpt lat="48.18384" lon="-0.74034">
        <ele>3700</ele>
        <time>2013-04-23T14:59:57Z</time>
      </trkpt>
      <trkpt lat="48.18372" lon="-0.74041">
        <ele>3701</ele>
        <time>2013-04-23T15:00:00Z</time>
      </trkpt>
      <trkpt lat="48.1836" lon="-0.74048">
        <ele>3703</ele>
        <time>2013-04-23T15:00:03Z</time>
      </trkpt>
      <trkpt lat="48.18346" lon="-0.74055">
        <ele>3704</ele>
        <time>2013-04-23T15:00:06Z</time>
      </trkpt>
      <trkpt lat="48.18333" lon="-0.74058">
        <ele>3706</ele>
        <time>2013-04-23T15:00:09Z</time>
      </trkpt>
      <trkpt lat="48.18318" lon="-0.7406">
        <ele>3707</ele>
        <time>2013-04-23T15:00:12Z</time>
      </trkpt>
      <trkpt lat="48.18304" lon="-0.74064">
        <ele>3709</ele>
        <time>2013-04-23T15:00:15Z</time>
      </trkpt>
      <trkpt lat="48.18291" lon="-0.74068">
        <ele>3710</ele>
        <time>2013-04-23T15:00:18Z</time>
      </trkpt>
      <trkpt lat="48.18276" lon="-0.74072">
        <ele>3712</ele>
        <time>2013-04-23T15:00:21Z</time>
      </trkpt>
      <trkpt lat="48.18262" lon="-0.74077">
        <ele>3714</ele>
        <time>2013-04-23T15:00:24Z</time>
      </trkpt>
      <trkpt lat="48.18247" lon="-0.74083">
        <ele>3715</ele>
        <time>2013-04-23T15:00:27Z</time>
      </trkpt>
      <trkpt lat="48.18231" lon="-0.7409">
        <ele>3717</ele>
        <time>2013-04-23T15:00:30Z</time>
      </trkpt>
      <trkpt lat="48.18216" lon="-0.74095">
        <ele>3718</ele>
        <time>2013-04-23T15:00:33Z</time>
      </trkpt>
      <trkpt lat="48.18205" lon="-0.741">
        <ele>3720</ele>
        <time>2013-04-23T15:00:36Z</time>
      </trkpt>
      <trkpt lat="48.18196" lon="-0.74107">
        <ele>3722</ele>
        <time>2013-04-23T15:00:38Z</time>
      </trkpt>
      <trkpt lat="48.18183" lon="-0.74112">
        <ele>3723</ele>
        <time>2013-04-23T15:00:41Z</time>
      </trkpt>
      <trkpt lat="48.18169" lon="-0.74119">
        <ele>3725</ele>
        <time>2013-04-23T15:00:44Z</time>
      </trkpt>
      <trkpt lat="48.18157" lon="-0.74127">
        <ele>3726</ele>
        <time>2013-04-23T15:00:47Z</time>
      </trkpt>
      <trkpt lat="48.18144" lon="-0.74134">
        <ele>3728</ele>
        <time>2013-04-23T15:00:50Z</time>
      </trkpt>
      <trkpt lat="48.18133" lon="-0.74138">
        <ele>3730</ele>
        <time>2013-04-23T15:00:53Z</time>
      </trkpt>
      <trkpt lat="48.18119" lon="-0.74145">
        <ele>3731</ele>
        <time>2013-04-23T15:00:56Z</time>
      </trkpt>
      <trkpt lat="48.18109" lon="-0.74147">
        <ele>3733</ele>
        <time>2013-04-23T15:00:59Z</time>
      </trkpt>
      <trkpt lat="48.18097" lon="-0.74156">
        <ele>3734</ele>
        <time>2013-04-23T15:01:02Z</time>
      </trkpt>
      <trkpt lat="48.18082" lon="-0.74164">
        <ele>3736</ele>
        <time>2013-04-23T15:01:05Z</time>
      </trkpt>
      <trkpt lat="48.1807" lon="-0.74174">
        <ele>3737</ele>
        <time>2013-04-23T15:01:08Z</time>
      </trkpt>
      <trkpt lat="48.1806" lon="-0.74193">
        <ele>3739</ele>
        <time>2013-04-23T15:01:11Z</time>
      </trkpt>
      <trkpt lat="48.1805" lon="-0.74208">
        <ele>3740</ele>
        <time>2013-04-23T15:01:14Z</time>
      </trkpt>
      <trkpt lat="48.18044" lon="-0.74218">
        <ele>3742</ele>
        <time>2013-04-23T15:01:17Z</time>
      </trkpt>
      <trkpt lat="48.18034" lon="-0.74232">
        <ele>3743</ele>
        <time>2013-04-23T15:01:20Z</time>
      </trkpt>
      <trkpt lat="48.18023" lon="-0.74242">
        <ele>3745</ele>
        <time>2013-04-23T15:01:23Z</time>
      </trkpt>
      <trkpt lat="48.18015" lon="-0.74254">
        <ele>3747</ele>
        <time>2013-04-23T15:01:26Z</time>
      </trkpt>
      <trkpt lat="48.18003" lon="-0.74265">
        <ele>3748</ele>
        <time>2013-04-23T15:01:29Z</time>
      </trkpt>
      <trkpt lat="48.17995" lon="-0.74275">
        <ele>3750</ele>
        <time>2013-04-23T15:01:31Z</time>
      </trkpt>
      <trkpt lat="48.17983" lon="-0.74282">
        <ele>3752</ele>
        <time>2013-04-23T15:01:34Z</time>
      </trkpt>
      <trkpt lat="48.17971" lon="-0.74288">
        <ele>3753</ele>
        <time>2013-04-23T15:01:37Z</time>
      </trkpt>
      <trkpt lat="48.1796" lon="-0.74293">
        <ele>3755</ele>
        <time>2013-04-23T15:01:40Z</time>
      </trkpt>
      <trkpt lat="48.17948" lon="-0.74298">
        <ele>3756</ele>
        <time>2013-04-23T15:01:43Z</time>
      </trkpt>
      <trkpt lat="48.17935" lon="-0.74305">
        <ele>3758</ele>
        <time>2013-04-23T15:01:46Z</time>
      </trkpt>
      <trkpt lat="48.17923" lon="-0.7431">
        <ele>3760</ele>
        <time>2013-04-23T15:01:49Z</time>
      </trkpt>
      <trkpt lat="48.17911" lon="-0.74315">
        <ele>3761</ele>
        <time>2013-04-23T15:01:52Z</time>
      </trkpt>
      <trkpt lat="48.17899" lon="-0.7432">
        <ele>3763</ele>
        <time>2013-04-23T15:01:55Z</time>
      </trkpt>
      <trkpt lat="48.17885" lon="-0.74325">
        <ele>3764</ele>
        <time>2013-04-23T15:01:58Z</time>
      </trkpt>
      <trkpt lat="48.17872" lon="-0.74332">
        <ele>3766</ele>
        <time>2013-04-23T15:02:01Z</time>
      </trkpt>
      <trkpt lat="48.1786" lon="-0.74339">
        <ele>3768</ele>
        <time>2013-04-23T15:02:04Z</time>
      </trkpt>
      <trkpt lat="48.17846" lon="-0.74347">
        <ele>3769</ele>
        <time>2013-04-23T15:02:07Z</time>
      </trkpt>
      <trkpt lat="48.17834" lon="-0.74355">
        <ele>3771</ele>
        <time>2013-04-23T15:02:10Z</time>
      </trkpt>
      <trkpt lat="48.17822" lon="-0.74362">
        <ele>3772</ele>
        <time>2013-04-23T15:02:13Z</time>
      </trkpt>
      <trkpt lat="48.1781" lon="-0.74367">
        <ele>3774</ele>
        <time>2013-04-23T15:02:16Z</time>
      </trkpt>
      <trkpt lat="48.17797" lon="-0.7437">
        <ele>3775</ele>
        <time>2013-04-23T15:02:19Z</time>
      </trkpt>
      <trkpt lat="48.17783" lon="-0.74374">
        <ele>3777</ele>
        <time>2013-04-23T15:02:22Z</time>
      </trkpt>
      <trkpt lat="48.17771" lon="-0.74381">
        <ele>3778</ele>
        <time>2013-04-23T15:02:24Z</time>
      </trkpt>
      <trkpt lat="48.17758" lon="-0.74388">
        <ele>3780</ele>
        <time>2013-04-23T15:02:27Z</time>
      </trkpt>
      <trkpt lat="48.17744" lon="-0.74395">
        <ele>3781</ele>
        <time>2013-04-23T15:02:30Z</time>
      </trkpt>
      <trkpt lat="48.17731" lon="-0.74401">
        <ele>3783</ele>
        <time>2013-04-23T15:02:33Z</time>
      </trkpt>
      <trkpt lat="48.1772" lon="-0.74408">
        <ele>3784</ele>
        <time>2013-04-23T15:02:36Z</time>
      </trkpt>
      <trkpt lat="48.17713" lon="-0.74413">
        <ele>3786</ele>
        <time>2013-04-23T15:02:39Z</time>
      </trkpt>
      <trkpt lat="48.17707" lon="-0.74416">
        <ele>3787</ele>
        <time>2013-04-23T15:02:42Z</time>
      </trkpt>
      <trkpt lat="48.17703" lon="-0.74419">
        <ele>3789</ele>
        <time>2013-04-23T15:02:45Z</time>
      </trkpt>
      <trkpt lat="48.17699" lon="-0.74423">
        <ele>3790</ele>
        <time>2013-04-23T15:02:48Z</time>
      </trkpt>
      <trkpt lat="48.17692" lon="-0.74427">
        <ele>3792</ele>
        <time>2013-04-23T15:02:51Z</time>
      </trkpt>
      <trkpt lat="48.17684" lon="-0.74435">
        <ele>3793</ele>
        <time>2013-04-23T15:02:54Z</time>
      </trkpt>
      <trkpt lat="48.1768" lon="-0.74438">
        <ele>3795</ele>
        <time>2013-04-23T15:02:57Z</time>
      </trkpt>
      <trkpt lat="48.1767" lon="-0.74448">
        <ele>3796</ele>
        <time>2013-04-23T15:03:00Z</time>
      </trkpt>
      <trkpt lat="48.17659" lon="-0.74459">
        <ele>3798</ele>
        <time>2013-04-23T15:03:03Z</time>
      </trkpt>
      <trkpt lat="48.17648" lon="-0.74471">
        <ele>3799</ele>
        <time>2013-04-23T15:03:06Z</time>
      </trkpt>
      <trkpt lat="48.17639" lon="-0.74486">
        <ele>3801</ele>
        <time>2013-04-23T15:03:09Z</time>
      </trkpt>
      <trkpt lat="48.1763" lon="-0.74501">
        <ele>3802</ele>
        <time>2013-04-23T15:03:12Z</time>
      </trkpt>
      <trkpt lat="48.17623" lon="-0.74513">
        <ele>3804</ele>
        <time>2013-04-23T15:03:15Z</time>
      </trkpt>
      <trkpt lat="48.17618" lon="-0.74524">
        <ele>3805</ele>
        <time>2013-04-23T15:03:17Z</time>
      </trkpt>
      <trkpt lat="48.17613" lon="-0.74533">
        <ele>3807</ele>
        <time>2013-04-23T15:03:20Z</time>
      </trkpt>
      <trkpt lat="48.17608" lon="-0.74545">
        <ele>3808</ele>
        <time>2013-04-23T15:03:23Z</time>
      </trkpt>
      <trkpt lat="48.176" lon="-0.74558">
        <ele>3810</ele>
        <time>2013-04-23T15:03:26Z</time>
      </trkpt>
      <trkpt lat="48.17594" lon="-0.74569">
        <ele>3811</ele>
        <time>2013-04-23T15:03:29Z</time>
      </trkpt>
      <trkpt lat="48.17588" lon="-0.74578">
        <ele>3813</ele>
        <time>2013-04-23T15:03:32Z</time>
      </trkpt>
      <trkpt lat="48.17584" lon="-0.74586">
        <ele>3814</ele>
        <time>2013-04-23T15:03:35Z</time>
      </trkpt>
      <trkpt lat="48.1758" lon="-0.74595">
        <ele>3816</ele>
        <time>2013-04-23T15:03:38Z</time>
      </trkpt>
      <trkpt lat="48.17576" lon="-0.74602">
        <ele>3817</ele>
        <time>2013-04-23T15:03:41Z</time>
      </trkpt>
      <trkpt lat="48.17572" lon="-0.74608">
        <ele>3819</ele>
        <time>2013-04-23T15:03:44Z</time>
      </trkpt>
      <trkpt lat="48.17568" lon="-0.74613">
        <ele>3820</ele>
        <time>2013-04-23T15:03:47Z</time>
      </trkpt>
      <trkpt lat="48.17563" lon="-0.74621">
        <ele>3822</ele>
        <time>2013-04-23T15:03:50Z</time>
      </trkpt>
      <trkpt lat="48.17559" lon="-0.74628">
        <ele>3822</ele>
        <time>2013-04-23T15:08:05Z</time>
      </trkpt>
      <trkpt lat="48.17563" lon="-0.74621">
        <ele>65</ele>
        <time>2013-04-23T15:10:22Z</time>
      </trkpt>
      <trkpt lat="48.17559" lon="-0.74628">
        <ele>66</ele>
        <time>2013-04-23T15:13:18Z</time>
      </trkpt>
      <trkpt lat="48.17549" lon="-0.7465">
        <ele>68</ele>
        <time>2013-04-23T15:13:25Z</time>
      </trkpt>
      <trkpt lat="48.17543" lon="-0.74656">
        <ele>69</ele>
        <time>2013-04-23T15:13:27Z</time>
      </trkpt>
      <trkpt lat="48.1754" lon="-0.74662">
        <ele>71</ele>
        <time>2013-04-23T15:13:30Z</time>
      </trkpt>
      <trkpt lat="48.17537" lon="-0.74668">
        <ele>72</ele>
        <time>2013-04-23T15:13:33Z</time>
      </trkpt>
      <trkpt lat="48.17532" lon="-0.74682">
        <ele>74</ele>
        <time>2013-04-23T15:13:36Z</time>
      </trkpt>
      <trkpt lat="48.17523" lon="-0.7469">
        <ele>76</ele>
        <time>2013-04-23T15:13:39Z</time>
      </trkpt>
      <trkpt lat="48.17517" lon="-0.74704">
        <ele>77</ele>
        <time>2013-04-23T15:13:42Z</time>
      </trkpt>
      <trkpt lat="48.17505" lon="-0.7472">
        <ele>79</ele>
        <time>2013-04-23T15:13:45Z</time>
      </trkpt>
      <trkpt lat="48.17494" lon="-0.74729">
        <ele>80</ele>
        <time>2013-04-23T15:13:48Z</time>
      </trkpt>
      <trkpt lat="48.17484" lon="-0.7474">
        <ele>82</ele>
        <time>2013-04-23T15:13:51Z</time>
      </trkpt>
      <trkpt lat="48.17472" lon="-0.74756">
        <ele>84</ele>
        <time>2013-04-23T15:13:53Z</time>
      </trkpt>
      <trkpt lat="48.17464" lon="-0.74771">
        <ele>85</ele>
        <time>2013-04-23T15:13:56Z</time>
      </trkpt>
      <trkpt lat="48.17453" lon="-0.74788">
        <ele>87</ele>
        <time>2013-04-23T15:13:59Z</time>
      </trkpt>
      <trkpt lat="48.17446" lon="-0.74808">
        <ele>88</ele>
        <time>2013-04-23T15:14:02Z</time>
      </trkpt>
      <trkpt lat="48.17433" lon="-0.74823">
        <ele>90</ele>
        <time>2013-04-23T15:14:05Z</time>
      </trkpt>
      <trkpt lat="48.17422" lon="-0.74836">
        <ele>91</ele>
        <time>2013-04-23T15:14:08Z</time>
      </trkpt>
      <trkpt lat="48.17411" lon="-0.74849">
        <ele>93</ele>
        <time>2013-04-23T15:14:11Z</time>
      </trkpt>
      <trkpt lat="48.17399" lon="-0.74867">
        <ele>94</ele>
        <time>2013-04-23T15:14:14Z</time>
      </trkpt>
      <trkpt lat="48.17388" lon="-0.74879">
        <ele>96</ele>
        <time>2013-04-23T15:14:17Z</time>
      </trkpt>
      <trkpt lat="48.17377" lon="-0.74895">
        <ele>97</ele>
        <time>2013-04-23T15:14:20Z</time>
      </trkpt>
      <trkpt lat="48.17364" lon="-0.74905">
        <ele>99</ele>
        <time>2013-04-23T15:14:23Z</time>
      </trkpt>
      <trkpt lat="48.17349" lon="-0.74912">
        <ele>100</ele>
        <time>2013-04-23T15:14:26Z</time>
      </trkpt>
      <trkpt lat="48.17335" lon="-0.74923">
        <ele>102</ele>
        <time>2013-04-23T15:14:29Z</time>
      </trkpt>
      <trkpt lat="48.17318" lon="-0.74934">
        <ele>104</ele>
        <time>2013-04-23T15:14:32Z</time>
      </trkpt>
      <trkpt lat="48.17303" lon="-0.7494">
        <ele>105</ele>
        <time>2013-04-23T15:14:35Z</time>
      </trkpt>
      <trkpt lat="48.17289" lon="-0.74948">
        <ele>107</ele>
        <time>2013-04-23T15:14:38Z</time>
      </trkpt>
      <trkpt lat="48.17277" lon="-0.74954">
        <ele>108</ele>
        <time>2013-04-23T15:14:41Z</time>
      </trkpt>
      <trkpt lat="48.17257" lon="-0.74957">
        <ele>110</ele>
        <time>2013-04-23T15:14:44Z</time>
      </trkpt>
      <trkpt lat="48.17242" lon="-0.74962">
        <ele>112</ele>
        <time>2013-04-23T15:14:46Z</time>
      </trkpt>
      <trkpt lat="48.17229" lon="-0.74963">
        <ele>113</ele>
        <time>2013-04-23T15:14:49Z</time>
      </trkpt>
      <trkpt lat="48.17216" lon="-0.74966">
        <ele>115</ele>
        <time>2013-04-23T15:14:52Z</time>
      </trkpt>
      <trkpt lat="48.17202" lon="-0.74966">
        <ele>116</ele>
        <time>2013-04-23T15:14:55Z</time>
      </trkpt>
      <trkpt lat="48.17188" lon="-0.74964">
        <ele>118</ele>
        <time>2013-04-23T15:14:58Z</time>
      </trkpt>
      <trkpt lat="48.17171" lon="-0.74965">
        <ele>120</ele>
        <time>2013-04-23T15:15:01Z</time>
      </trkpt>
      <trkpt lat="48.17155" lon="-0.74961">
        <ele>121</ele>
        <time>2013-04-23T15:15:04Z</time>
      </trkpt>
      <trkpt lat="48.17141" lon="-0.7496">
        <ele>123</ele>
        <time>2013-04-23T15:15:07Z</time>
      </trkpt>
      <trkpt lat="48.17124" lon="-0.74958">
        <ele>124</ele>
        <time>2013-04-23T15:15:10Z</time>
      </trkpt>
      <trkpt lat="48.17108" lon="-0.74952">
        <ele>126</ele>
        <time>2013-04-23T15:15:13Z</time>
      </trkpt>
      <trkpt lat="48.17092" lon="-0.74946">
        <ele>128</ele>
        <time>2013-04-23T15:15:16Z</time>
      </trkpt>
      <trkpt lat="48.17076" lon="-0.7494">
        <ele>129</ele>
        <time>2013-04-23T15:15:19Z</time>
      </trkpt>
      <trkpt lat="48.1706" lon="-0.74933">
        <ele>131</ele>
        <time>2013-04-23T15:15:22Z</time>
      </trkpt>
      <trkpt lat="48.17043" lon="-0.74927">
        <ele>133</ele>
        <time>2013-04-23T15:15:25Z</time>
      </trkpt>
      <trkpt lat="48.17027" lon="-0.74919">
        <ele>134</ele>
        <time>2013-04-23T15:15:28Z</time>
      </trkpt>
      <trkpt lat="48.17014" lon="-0.74913">
        <ele>136</ele>
        <time>2013-04-23T15:15:31Z</time>
      </trkpt>
      <trkpt lat="48.16999" lon="-0.749">
        <ele>137</ele>
        <time>2013-04-23T15:15:34Z</time>
      </trkpt>
      <trkpt lat="48.16982" lon="-0.74888">
        <ele>139</ele>
        <time>2013-04-23T15:15:37Z</time>
      </trkpt>
      <trkpt lat="48.16968" lon="-0.74873">
        <ele>141</ele>
        <time>2013-04-23T15:15:39Z</time>
      </trkpt>
      <trkpt lat="48.16952" lon="-0.74862">
        <ele>142</ele>
        <time>2013-04-23T15:15:42Z</time>
      </trkpt>
      <trkpt lat="48.16939" lon="-0.74851">
        <ele>144</ele>
        <time>2013-04-23T15:15:45Z</time>
      </trkpt>
      <trkpt lat="48.16927" lon="-0.74835">
        <ele>145</ele>
        <time>2013-04-23T15:15:48Z</time>
      </trkpt>
      <trkpt lat="48.16914" lon="-0.74819">
        <ele>147</ele>
        <time>2013-04-23T15:15:51Z</time>
      </trkpt>
      <trkpt lat="48.16898" lon="-0.74803">
        <ele>149</ele>
        <time>2013-04-23T15:15:54Z</time>
      </trkpt>
      <trkpt lat="48.16882" lon="-0.74786">
        <ele>150</ele>
        <time>2013-04-23T15:15:57Z</time>
      </trkpt>
      <trkpt lat="48.16868" lon="-0.7477">
        <ele>152</ele>
        <time>2013-04-23T15:16:00Z</time>
      </trkpt>
      <trkpt lat="48.16853" lon="-0.74749">
        <ele>153</ele>
        <time>2013-04-23T15:16:03Z</time>
      </trkpt>
      <trkpt lat="48.16835" lon="-0.74732">
        <ele>155</ele>
        <time>2013-04-23T15:16:06Z</time>
      </trkpt>
      <trkpt lat="48.16817" lon="-0.74712">
        <ele>157</ele>
        <time>2013-04-23T15:16:09Z</time>
      </trkpt>
      <trkpt lat="48.168" lon="-0.74694">
        <ele>158</ele>
        <time>2013-04-23T15:16:12Z</time>
      </trkpt>
      <trkpt lat="48.16784" lon="-0.74675">
        <ele>160</ele>
        <time>2013-04-23T15:16:15Z</time>
      </trkpt>
      <trkpt lat="48.16768" lon="-0.74653">
        <ele>161</ele>
        <time>2013-04-23T15:16:18Z</time>
      </trkpt>
      <trkpt lat="48.16755" lon="-0.74637">
        <ele>163</ele>
        <time>2013-04-23T15:16:21Z</time>
      </trkpt>
      <trkpt lat="48.16739" lon="-0.74618">
        <ele>164</ele>
        <time>2013-04-23T15:16:24Z</time>
      </trkpt>
      <trkpt lat="48.16723" lon="-0.74601">
        <ele>166</ele>
        <time>2013-04-23T15:16:27Z</time>
      </trkpt>
      <trkpt lat="48.16704" lon="-0.74585">
        <ele>167</ele>
        <time>2013-04-23T15:16:30Z</time>
      </trkpt>
      <trkpt lat="48.16688" lon="-0.74572">
        <ele>169</ele>
        <time>2013-04-23T15:16:33Z</time>
      </trkpt>
      <trkpt lat="48.16671" lon="-0.74559">
        <ele>170</ele>
        <time>2013-04-23T15:16:35Z</time>
      </trkpt>
      <trkpt lat="48.16651" lon="-0.74547">
        <ele>172</ele>
        <time>2013-04-23T15:16:38Z</time>
      </trkpt>
      <trkpt lat="48.16633" lon="-0.74536">
        <ele>173</ele>
        <time>2013-04-23T15:16:41Z</time>
      </trkpt>
      <trkpt lat="48.16615" lon="-0.74524">
        <ele>175</ele>
        <time>2013-04-23T15:16:44Z</time>
      </trkpt>
      <trkpt lat="48.166" lon="-0.74512">
        <ele>176</ele>
        <time>2013-04-23T15:16:47Z</time>
      </trkpt>
      <trkpt lat="48.16584" lon="-0.745">
        <ele>178</ele>
        <time>2013-04-23T15:16:50Z</time>
      </trkpt>
      <trkpt lat="48.16567" lon="-0.74483">
        <ele>179</ele>
        <time>2013-04-23T15:16:53Z</time>
      </trkpt>
      <trkpt lat="48.16549" lon="-0.74467">
        <ele>181</ele>
        <time>2013-04-23T15:16:56Z</time>
      </trkpt>
      <trkpt lat="48.1653" lon="-0.7445">
        <ele>182</ele>
        <time>2013-04-23T15:16:59Z</time>
      </trkpt>
      <trkpt lat="48.1651" lon="-0.74433">
        <ele>184</ele>
        <time>2013-04-23T15:17:02Z</time>
      </trkpt>
      <trkpt lat="48.16493" lon="-0.74414">
        <ele>185</ele>
        <time>2013-04-23T15:17:05Z</time>
      </trkpt>
      <trkpt lat="48.16476" lon="-0.74397">
        <ele>187</ele>
        <time>2013-04-23T15:17:08Z</time>
      </trkpt>
      <trkpt lat="48.16458" lon="-0.74382">
        <ele>189</ele>
        <time>2013-04-23T15:17:11Z</time>
      </trkpt>
      <trkpt lat="48.16439" lon="-0.74364">
        <ele>190</ele>
        <time>2013-04-23T15:17:14Z</time>
      </trkpt>
      <trkpt lat="48.16421" lon="-0.74347">
        <ele>192</ele>
        <time>2013-04-23T15:17:17Z</time>
      </trkpt>
      <trkpt lat="48.16408" lon="-0.74327">
        <ele>193</ele>
        <time>2013-04-23T15:17:20Z</time>
      </trkpt>
      <trkpt lat="48.16392" lon="-0.74307">
        <ele>195</ele>
        <time>2013-04-23T15:17:23Z</time>
      </trkpt>
      <trkpt lat="48.1638" lon="-0.74285">
        <ele>196</ele>
        <time>2013-04-23T15:17:25Z</time>
      </trkpt>
      <trkpt lat="48.16364" lon="-0.74264">
        <ele>198</ele>
        <time>2013-04-23T15:17:28Z</time>
      </trkpt>
      <trkpt lat="48.16351" lon="-0.74245">
        <ele>199</ele>
        <time>2013-04-23T15:17:31Z</time>
      </trkpt>
      <trkpt lat="48.16336" lon="-0.74227">
        <ele>201</ele>
        <time>2013-04-23T15:17:34Z</time>
      </trkpt>
      <trkpt lat="48.16322" lon="-0.74203">
        <ele>202</ele>
        <time>2013-04-23T15:17:37Z</time>
      </trkpt>
      <trkpt lat="48.1631" lon="-0.74183">
        <ele>204</ele>
        <time>2013-04-23T15:17:40Z</time>
      </trkpt>
      <trkpt lat="48.16299" lon="-0.74164">
        <ele>205</ele>
        <time>2013-04-23T15:17:43Z</time>
      </trkpt>
      <trkpt lat="48.16288" lon="-0.74147">
        <ele>207</ele>
        <time>2013-04-23T15:17:46Z</time>
      </trkpt>
      <trkpt lat="48.16277" lon="-0.7413">
        <ele>208</ele>
        <time>2013-04-23T15:17:49Z</time>
      </trkpt>
      <trkpt lat="48.16268" lon="-0.74118">
        <ele>210</ele>
        <time>2013-04-23T15:17:52Z</time>
      </trkpt>
      <trkpt lat="48.16259" lon="-0.74105">
        <ele>211</ele>
        <time>2013-04-23T15:17:55Z</time>
      </trkpt>
      <trkpt lat="48.16246" lon="-0.74096">
        <ele>213</ele>
        <time>2013-04-23T15:17:58Z</time>
      </trkpt>
      <trkpt lat="48.16235" lon="-0.74084">
        <ele>214</ele>
        <time>2013-04-23T15:18:01Z</time>
      </trkpt>
      <trkpt lat="48.16227" lon="-0.74074">
        <ele>216</ele>
        <time>2013-04-23T15:18:04Z</time>
      </trkpt>
      <trkpt lat="48.16215" lon="-0.74064">
        <ele>217</ele>
        <time>2013-04-23T15:18:07Z</time>
      </trkpt>
      <trkpt lat="48.16202" lon="-0.74053">
        <ele>219</ele>
        <time>2013-04-23T15:18:10Z</time>
      </trkpt>
      <trkpt lat="48.16189" lon="-0.74044">
        <ele>220</ele>
        <time>2013-04-23T15:18:13Z</time>
      </trkpt>
      <trkpt lat="48.16174" lon="-0.74038">
        <ele>222</ele>
        <time>2013-04-23T15:18:16Z</time>
      </trkpt>
      <trkpt lat="48.16157" lon="-0.74035">
        <ele>223</ele>
        <time>2013-04-23T15:18:19Z</time>
      </trkpt>
      <trkpt lat="48.16146" lon="-0.74031">
        <ele>225</ele>
        <time>2013-04-23T15:18:21Z</time>
      </trkpt>
      <trkpt lat="48.16133" lon="-0.74026">
        <ele>226</ele>
        <time>2013-04-23T15:18:24Z</time>
      </trkpt>
      <trkpt lat="48.16119" lon="-0.74023">
        <ele>228</ele>
        <time>2013-04-23T15:18:27Z</time>
      </trkpt>
      <trkpt lat="48.16104" lon="-0.7402">
        <ele>229</ele>
        <time>2013-04-23T15:18:30Z</time>
      </trkpt>
      <trkpt lat="48.16094" lon="-0.74016">
        <ele>231</ele>
        <time>2013-04-23T15:18:33Z</time>
      </trkpt>
      <trkpt lat="48.16082" lon="-0.74011">
        <ele>233</ele>
        <time>2013-04-23T15:18:36Z</time>
      </trkpt>
      <trkpt lat="48.1607" lon="-0.74007">
        <ele>234</ele>
        <time>2013-04-23T15:18:39Z</time>
      </trkpt>
      <trkpt lat="48.16055" lon="-0.74002">
        <ele>236</ele>
        <time>2013-04-23T15:18:42Z</time>
      </trkpt>
      <trkpt lat="48.1604" lon="-0.74001">
        <ele>237</ele>
        <time>2013-04-23T15:18:45Z</time>
      </trkpt>
      <trkpt lat="48.16024" lon="-0.74003">
        <ele>239</ele>
        <time>2013-04-23T15:18:48Z</time>
      </trkpt>
      <trkpt lat="48.16008" lon="-0.74006">
        <ele>240</ele>
        <time>2013-04-23T15:18:51Z</time>
      </trkpt>
      <trkpt lat="48.15996" lon="-0.74009">
        <ele>242</ele>
        <time>2013-04-23T15:18:54Z</time>
      </trkpt>
      <trkpt lat="48.1598" lon="-0.74013">
        <ele>243</ele>
        <time>2013-04-23T15:18:57Z</time>
      </trkpt>
      <trkpt lat="48.15964" lon="-0.74014">
        <ele>245</ele>
        <time>2013-04-23T15:19:00Z</time>
      </trkpt>
      <trkpt lat="48.15951" lon="-0.74011">
        <ele>247</ele>
        <time>2013-04-23T15:19:03Z</time>
      </trkpt>
      <trkpt lat="48.15936" lon="-0.74008">
        <ele>248</ele>
        <time>2013-04-23T15:19:06Z</time>
      </trkpt>
      <trkpt lat="48.15922" lon="-0.74006">
        <ele>250</ele>
        <time>2013-04-23T15:19:09Z</time>
      </trkpt>
      <trkpt lat="48.15908" lon="-0.74002">
        <ele>251</ele>
        <time>2013-04-23T15:19:12Z</time>
      </trkpt>
      <trkpt lat="48.15898" lon="-0.73998">
        <ele>253</ele>
        <time>2013-04-23T15:19:14Z</time>
      </trkpt>
      <trkpt lat="48.15885" lon="-0.73997">
        <ele>254</ele>
        <time>2013-04-23T15:19:17Z</time>
      </trkpt>
      <trkpt lat="48.15875" lon="-0.74">
        <ele>256</ele>
        <time>2013-04-23T15:19:20Z</time>
      </trkpt>
      <trkpt lat="48.1587" lon="-0.74004">
        <ele>257</ele>
        <time>2013-04-23T15:19:23Z</time>
      </trkpt>
      <trkpt lat="48.15864" lon="-0.74007">
        <ele>259</ele>
        <time>2013-04-23T15:19:26Z</time>
      </trkpt>
      <trkpt lat="48.15856" lon="-0.74013">
        <ele>260</ele>
        <time>2013-04-23T15:19:29Z</time>
      </trkpt>
      <trkpt lat="48.15849" lon="-0.74022">
        <ele>262</ele>
        <time>2013-04-23T15:19:32Z</time>
      </trkpt>
      <trkpt lat="48.15841" lon="-0.7403">
        <ele>263</ele>
        <time>2013-04-23T15:19:35Z</time>
      </trkpt>
      <trkpt lat="48.1583" lon="-0.74039">
        <ele>265</ele>
        <time>2013-04-23T15:19:38Z</time>
      </trkpt>
      <trkpt lat="48.15821" lon="-0.74046">
        <ele>266</ele>
        <time>2013-04-23T15:19:41Z</time>
      </trkpt>
      <trkpt lat="48.15815" lon="-0.74057">
        <ele>268</ele>
        <time>2013-04-23T15:19:44Z</time>
      </trkpt>
      <trkpt lat="48.15808" lon="-0.74071">
        <ele>269</ele>
        <time>2013-04-23T15:19:47Z</time>
      </trkpt>
      <trkpt lat="48.15799" lon="-0.74091">
        <ele>271</ele>
        <time>2013-04-23T15:19:50Z</time>
      </trkpt>
      <trkpt lat="48.15796" lon="-0.74106">
        <ele>272</ele>
        <time>2013-04-23T15:19:53Z</time>
      </trkpt>
      <trkpt lat="48.15792" lon="-0.74126">
        <ele>274</ele>
        <time>2013-04-23T15:19:56Z</time>
      </trkpt>
      <trkpt lat="48.15784" lon="-0.74154">
        <ele>275</ele>
        <time>2013-04-23T15:19:59Z</time>
      </trkpt>
      <trkpt lat="48.15772" lon="-0.74172">
        <ele>276</ele>
        <time>2013-04-23T15:20:02Z</time>
      </trkpt>
      <trkpt lat="48.15765" lon="-0.74193">
        <ele>278</ele>
        <time>2013-04-23T15:20:05Z</time>
      </trkpt>
      <trkpt lat="48.15768" lon="-0.74228">
        <ele>279</ele>
        <time>2013-04-23T15:20:07Z</time>
      </trkpt>
      <trkpt lat="48.15761" lon="-0.74253">
        <ele>281</ele>
        <time>2013-04-23T15:20:10Z</time>
      </trkpt>
      <trkpt lat="48.15757" lon="-0.74273">
        <ele>282</ele>
        <time>2013-04-23T15:20:13Z</time>
      </trkpt>
      <trkpt lat="48.1575" lon="-0.74296">
        <ele>284</ele>
        <time>2013-04-23T15:20:16Z</time>
      </trkpt>
      <trkpt lat="48.15743" lon="-0.74314">
        <ele>285</ele>
        <time>2013-04-23T15:20:19Z</time>
      </trkpt>
      <trkpt lat="48.15743" lon="-0.74325">
        <ele>287</ele>
        <time>2013-04-23T15:20:22Z</time>
      </trkpt>
      <trkpt lat="48.15743" lon="-0.74345">
        <ele>288</ele>
        <time>2013-04-23T15:20:25Z</time>
      </trkpt>
      <trkpt lat="48.15739" lon="-0.74363">
        <ele>290</ele>
        <time>2013-04-23T15:20:28Z</time>
      </trkpt>
      <trkpt lat="48.15739" lon="-0.74387">
        <ele>292</ele>
        <time>2013-04-23T15:20:31Z</time>
      </trkpt>
      <trkpt lat="48.15733" lon="-0.74404">
        <ele>293</ele>
        <time>2013-04-23T15:20:34Z</time>
      </trkpt>
      <trkpt lat="48.1573" lon="-0.74425">
        <ele>295</ele>
        <time>2013-04-23T15:20:37Z</time>
      </trkpt>
      <trkpt lat="48.1573" lon="-0.74441">
        <ele>296</ele>
        <time>2013-04-23T15:20:40Z</time>
      </trkpt>
      <trkpt lat="48.15725" lon="-0.74464">
        <ele>298</ele>
        <time>2013-04-23T15:20:43Z</time>
      </trkpt>
      <trkpt lat="48.15722" lon="-0.7448">
        <ele>300</ele>
        <time>2013-04-23T15:20:46Z</time>
      </trkpt>
      <trkpt lat="48.1572" lon="-0.74497">
        <ele>301</ele>
        <time>2013-04-23T15:20:49Z</time>
      </trkpt>
      <trkpt lat="48.15722" lon="-0.7452">
        <ele>303</ele>
        <time>2013-04-23T15:20:52Z</time>
      </trkpt>
      <trkpt lat="48.15723" lon="-0.74542">
        <ele>304</ele>
        <time>2013-04-23T15:20:55Z</time>
      </trkpt>
      <trkpt lat="48.15721" lon="-0.74571">
        <ele>306</ele>
        <time>2013-04-23T15:20:58Z</time>
      </trkpt>
      <trkpt lat="48.15718" lon="-0.74599">
        <ele>307</ele>
        <time>2013-04-23T15:21:01Z</time>
      </trkpt>
      <trkpt lat="48.15718" lon="-0.74623">
        <ele>309</ele>
        <time>2013-04-23T15:21:03Z</time>
      </trkpt>
      <trkpt lat="48.15716" lon="-0.7465">
        <ele>310</ele>
        <time>2013-04-23T15:21:06Z</time>
      </trkpt>
      <trkpt lat="48.15716" lon="-0.74676">
        <ele>312</ele>
        <time>2013-04-23T15:21:09Z</time>
      </trkpt>
      <trkpt lat="48.15716" lon="-0.74697">
        <ele>313</ele>
        <time>2013-04-23T15:21:12Z</time>
      </trkpt>
      <trkpt lat="48.15714" lon="-0.74722">
        <ele>315</ele>
        <time>2013-04-23T15:21:15Z</time>
      </trkpt>
      <trkpt lat="48.15712" lon="-0.74747">
        <ele>316</ele>
        <time>2013-04-23T15:21:18Z</time>
      </trkpt>
      <trkpt lat="48.15713" lon="-0.74774">
        <ele>318</ele>
        <time>2013-04-23T15:21:21Z</time>
      </trkpt>
      <trkpt lat="48.15709" lon="-0.74799">
        <ele>319</ele>
        <time>2013-04-23T15:21:24Z</time>
      </trkpt>
      <trkpt lat="48.15708" lon="-0.74829">
        <ele>321</ele>
        <time>2013-04-23T15:21:27Z</time>
      </trkpt>
      <trkpt lat="48.15705" lon="-0.74857">
        <ele>322</ele>
        <time>2013-04-23T15:21:30Z</time>
      </trkpt>
      <trkpt lat="48.15705" lon="-0.74882">
        <ele>324</ele>
        <time>2013-04-23T15:21:33Z</time>
      </trkpt>
      <trkpt lat="48.15703" lon="-0.74908">
        <ele>325</ele>
        <time>2013-04-23T15:21:36Z</time>
      </trkpt>
      <trkpt lat="48.15697" lon="-0.74932">
        <ele>327</ele>
        <time>2013-04-23T15:21:39Z</time>
      </trkpt>
      <trkpt lat="48.15693" lon="-0.74957">
        <ele>328</ele>
        <time>2013-04-23T15:21:42Z</time>
      </trkpt>
      <trkpt lat="48.15685" lon="-0.74977">
        <ele>330</ele>
        <time>2013-04-23T15:21:45Z</time>
      </trkpt>
      <trkpt lat="48.15679" lon="-0.74994">
        <ele>331</ele>
        <time>2013-04-23T15:21:48Z</time>
      </trkpt>
      <trkpt lat="48.15675" lon="-0.7501">
        <ele>333</ele>
        <time>2013-04-23T15:21:51Z</time>
      </trkpt>
      <trkpt lat="48.15667" lon="-0.75029">
        <ele>334</ele>
        <time>2013-04-23T15:21:54Z</time>
      </trkpt>
      <trkpt lat="48.15657" lon="-0.75046">
        <ele>336</ele>
        <time>2013-04-23T15:21:56Z</time>
      </trkpt>
      <trkpt lat="48.15647" lon="-0.75065">
        <ele>337</ele>
        <time>2013-04-23T15:21:59Z</time>
      </trkpt>
      <trkpt lat="48.15637" lon="-0.75086">
        <ele>339</ele>
        <time>2013-04-23T15:22:02Z</time>
      </trkpt>
      <trkpt lat="48.15627" lon="-0.75109">
        <ele>340</ele>
        <time>2013-04-23T15:22:05Z</time>
      </trkpt>
      <trkpt lat="48.15618" lon="-0.75129">
        <ele>342</ele>
        <time>2013-04-23T15:22:08Z</time>
      </trkpt>
      <trkpt lat="48.15613" lon="-0.7515">
        <ele>343</ele>
        <time>2013-04-23T15:22:11Z</time>
      </trkpt>
      <trkpt lat="48.15599" lon="-0.75165">
        <ele>345</ele>
        <time>2013-04-23T15:22:14Z</time>
      </trkpt>
      <trkpt lat="48.15582" lon="-0.75178">
        <ele>347</ele>
        <time>2013-04-23T15:22:17Z</time>
      </trkpt>
      <trkpt lat="48.15567" lon="-0.75189">
        <ele>348</ele>
        <time>2013-04-23T15:22:20Z</time>
      </trkpt>
      <trkpt lat="48.15552" lon="-0.75197">
        <ele>350</ele>
        <time>2013-04-23T15:22:23Z</time>
      </trkpt>
      <trkpt lat="48.15538" lon="-0.75203">
        <ele>351</ele>
        <time>2013-04-23T15:22:26Z</time>
      </trkpt>
      <trkpt lat="48.15522" lon="-0.75208">
        <ele>353</ele>
        <time>2013-04-23T15:22:29Z</time>
      </trkpt>
      <trkpt lat="48.15509" lon="-0.75207">
        <ele>354</ele>
        <time>2013-04-23T15:22:32Z</time>
      </trkpt>
      <trkpt lat="48.15491" lon="-0.75204">
        <ele>356</ele>
        <time>2013-04-23T15:22:35Z</time>
      </trkpt>
      <trkpt lat="48.15477" lon="-0.75194">
        <ele>357</ele>
        <time>2013-04-23T15:22:38Z</time>
      </trkpt>
      <trkpt lat="48.15463" lon="-0.7518">
        <ele>359</ele>
        <time>2013-04-23T15:22:41Z</time>
      </trkpt>
      <trkpt lat="48.15448" lon="-0.75165">
        <ele>360</ele>
        <time>2013-04-23T15:22:44Z</time>
      </trkpt>
      <trkpt lat="48.15435" lon="-0.75152">
        <ele>362</ele>
        <time>2013-04-23T15:22:47Z</time>
      </trkpt>
      <trkpt lat="48.1542" lon="-0.75137">
        <ele>363</ele>
        <time>2013-04-23T15:22:49Z</time>
      </trkpt>
      <trkpt lat="48.15409" lon="-0.75121">
        <ele>365</ele>
        <time>2013-04-23T15:22:52Z</time>
      </trkpt>
      <trkpt lat="48.15395" lon="-0.75104">
        <ele>366</ele>
        <time>2013-04-23T15:22:55Z</time>
      </trkpt>
      <trkpt lat="48.15377" lon="-0.75094">
        <ele>368</ele>
        <time>2013-04-23T15:22:58Z</time>
      </trkpt>
      <trkpt lat="48.15358" lon="-0.75086">
        <ele>370</ele>
        <time>2013-04-23T15:23:01Z</time>
      </trkpt>
      <trkpt lat="48.15342" lon="-0.75073">
        <ele>371</ele>
        <time>2013-04-23T15:23:04Z</time>
      </trkpt>
      <trkpt lat="48.15327" lon="-0.7506">
        <ele>373</ele>
        <time>2013-04-23T15:23:07Z</time>
      </trkpt>
      <trkpt lat="48.1531" lon="-0.7505">
        <ele>374</ele>
        <time>2013-04-23T15:23:10Z</time>
      </trkpt>
      <trkpt lat="48.15295" lon="-0.75042">
        <ele>376</ele>
        <time>2013-04-23T15:23:13Z</time>
      </trkpt>
      <trkpt lat="48.15273" lon="-0.75035">
        <ele>378</ele>
        <time>2013-04-23T15:23:16Z</time>
      </trkpt>
      <trkpt lat="48.15255" lon="-0.75028">
        <ele>379</ele>
        <time>2013-04-23T15:23:19Z</time>
      </trkpt>
      <trkpt lat="48.15237" lon="-0.7502">
        <ele>381</ele>
        <time>2013-04-23T15:23:22Z</time>
      </trkpt>
      <trkpt lat="48.15219" lon="-0.75011">
        <ele>383</ele>
        <time>2013-04-23T15:23:25Z</time>
      </trkpt>
      <trkpt lat="48.15203" lon="-0.75003">
        <ele>384</ele>
        <time>2013-04-23T15:23:28Z</time>
      </trkpt>
      <trkpt lat="48.1519" lon="-0.74998">
        <ele>386</ele>
        <time>2013-04-23T15:23:31Z</time>
      </trkpt>
      <trkpt lat="48.15177" lon="-0.7499">
        <ele>388</ele>
        <time>2013-04-23T15:23:34Z</time>
      </trkpt>
      <trkpt lat="48.15163" lon="-0.74987">
        <ele>389</ele>
        <time>2013-04-23T15:23:37Z</time>
      </trkpt>
      <trkpt lat="48.15149" lon="-0.74986">
        <ele>391</ele>
        <time>2013-04-23T15:23:40Z</time>
      </trkpt>
      <trkpt lat="48.15138" lon="-0.74989">
        <ele>393</ele>
        <time>2013-04-23T15:23:42Z</time>
      </trkpt>
      <trkpt lat="48.15121" lon="-0.74981">
        <ele>394</ele>
        <time>2013-04-23T15:23:45Z</time>
      </trkpt>
      <trkpt lat="48.15111" lon="-0.74982">
        <ele>396</ele>
        <time>2013-04-23T15:23:48Z</time>
      </trkpt>
      <trkpt lat="48.15098" lon="-0.74981">
        <ele>397</ele>
        <time>2013-04-23T15:23:51Z</time>
      </trkpt>
      <trkpt lat="48.15085" lon="-0.74982">
        <ele>399</ele>
        <time>2013-04-23T15:23:54Z</time>
      </trkpt>
      <trkpt lat="48.15072" lon="-0.74981">
        <ele>400</ele>
        <time>2013-04-23T15:23:57Z</time>
      </trkpt>
      <trkpt lat="48.15058" lon="-0.74975">
        <ele>402</ele>
        <time>2013-04-23T15:24:00Z</time>
      </trkpt>
      <trkpt lat="48.15045" lon="-0.74969">
        <ele>404</ele>
        <time>2013-04-23T15:24:03Z</time>
      </trkpt>
      <trkpt lat="48.15032" lon="-0.74972">
        <ele>405</ele>
        <time>2013-04-23T15:24:06Z</time>
      </trkpt>
      <trkpt lat="48.15016" lon="-0.74971">
        <ele>407</ele>
        <time>2013-04-23T15:24:09Z</time>
      </trkpt>
      <trkpt lat="48.15002" lon="-0.74971">
        <ele>408</ele>
        <time>2013-04-23T15:24:12Z</time>
      </trkpt>
      <trkpt lat="48.14991" lon="-0.74971">
        <ele>410</ele>
        <time>2013-04-23T15:24:15Z</time>
      </trkpt>
      <trkpt lat="48.14975" lon="-0.74977">
        <ele>412</ele>
        <time>2013-04-23T15:24:18Z</time>
      </trkpt>
      <trkpt lat="48.1496" lon="-0.74982">
        <ele>413</ele>
        <time>2013-04-23T15:24:21Z</time>
      </trkpt>
      <trkpt lat="48.14945" lon="-0.74984">
        <ele>415</ele>
        <time>2013-04-23T15:24:24Z</time>
      </trkpt>
      <trkpt lat="48.1493" lon="-0.74988">
        <ele>416</ele>
        <time>2013-04-23T15:24:27Z</time>
      </trkpt>
      <trkpt lat="48.14912" lon="-0.74994">
        <ele>418</ele>
        <time>2013-04-23T15:24:30Z</time>
      </trkpt>
      <trkpt lat="48.14898" lon="-0.74998">
        <ele>420</ele>
        <time>2013-04-23T15:24:33Z</time>
      </trkpt>
      <trkpt lat="48.14881" lon="-0.75009">
        <ele>421</ele>
        <time>2013-04-23T15:24:36Z</time>
      </trkpt>
      <trkpt lat="48.14866" lon="-0.75016">
        <ele>423</ele>
        <time>2013-04-23T15:24:38Z</time>
      </trkpt>
      <trkpt lat="48.14852" lon="-0.75028">
        <ele>424</ele>
        <time>2013-04-23T15:24:41Z</time>
      </trkpt>
      <trkpt lat="48.14838" lon="-0.75038">
        <ele>426</ele>
        <time>2013-04-23T15:24:44Z</time>
      </trkpt>
      <trkpt lat="48.14822" lon="-0.75049">
        <ele>427</ele>
        <time>2013-04-23T15:24:47Z</time>
      </trkpt>
      <trkpt lat="48.14806" lon="-0.75058">
        <ele>429</ele>
        <time>2013-04-23T15:24:50Z</time>
      </trkpt>
      <trkpt lat="48.14789" lon="-0.75065">
        <ele>430</ele>
        <time>2013-04-23T15:24:53Z</time>
      </trkpt>
      <trkpt lat="48.14775" lon="-0.75071">
        <ele>432</ele>
        <time>2013-04-23T15:24:56Z</time>
      </trkpt>
      <trkpt lat="48.14761" lon="-0.75079">
        <ele>433</ele>
        <time>2013-04-23T15:24:59Z</time>
      </trkpt>
      <trkpt lat="48.14743" lon="-0.75084">
        <ele>435</ele>
        <time>2013-04-23T15:25:02Z</time>
      </trkpt>
      <trkpt lat="48.14724" lon="-0.75094">
        <ele>436</ele>
        <time>2013-04-23T15:25:05Z</time>
      </trkpt>
      <trkpt lat="48.14704" lon="-0.75101">
        <ele>438</ele>
        <time>2013-04-23T15:25:08Z</time>
      </trkpt>
      <trkpt lat="48.14687" lon="-0.75102">
        <ele>439</ele>
        <time>2013-04-23T15:25:11Z</time>
      </trkpt>
      <trkpt lat="48.14665" lon="-0.75105">
        <ele>441</ele>
        <time>2013-04-23T15:25:14Z</time>
      </trkpt>
      <trkpt lat="48.14646" lon="-0.75106">
        <ele>443</ele>
        <time>2013-04-23T15:25:17Z</time>
      </trkpt>
      <trkpt lat="48.14626" lon="-0.75108">
        <ele>444</ele>
        <time>2013-04-23T15:25:20Z</time>
      </trkpt>
      <trkpt lat="48.1461" lon="-0.75109">
        <ele>446</ele>
        <time>2013-04-23T15:25:23Z</time>
      </trkpt>
      <trkpt lat="48.14593" lon="-0.75113">
        <ele>447</ele>
        <time>2013-04-23T15:25:26Z</time>
      </trkpt>
      <trkpt lat="48.14578" lon="-0.75114">
        <ele>449</ele>
        <time>2013-04-23T15:25:28Z</time>
      </trkpt>
      <trkpt lat="48.14565" lon="-0.75114">
        <ele>451</ele>
        <time>2013-04-23T15:25:31Z</time>
      </trkpt>
      <trkpt lat="48.14547" lon="-0.75115">
        <ele>452</ele>
        <time>2013-04-23T15:25:34Z</time>
      </trkpt>
      <trkpt lat="48.14535" lon="-0.75119">
        <ele>454</ele>
        <time>2013-04-23T15:25:37Z</time>
      </trkpt>
      <trkpt lat="48.14525" lon="-0.7512">
        <ele>455</ele>
        <time>2013-04-23T15:25:40Z</time>
      </trkpt>
      <trkpt lat="48.14511" lon="-0.75121">
        <ele>457</ele>
        <time>2013-04-23T15:25:43Z</time>
      </trkpt>
      <trkpt lat="48.14499" lon="-0.75119">
        <ele>458</ele>
        <time>2013-04-23T15:25:46Z</time>
      </trkpt>
      <trkpt lat="48.14479" lon="-0.75119">
        <ele>460</ele>
        <time>2013-04-23T15:25:49Z</time>
      </trkpt>
      <trkpt lat="48.14465" lon="-0.75118">
        <ele>461</ele>
        <time>2013-04-23T15:25:52Z</time>
      </trkpt>
      <trkpt lat="48.14451" lon="-0.75113">
        <ele>463</ele>
        <time>2013-04-23T15:25:55Z</time>
      </trkpt>
      <trkpt lat="48.14434" lon="-0.75113">
        <ele>465</ele>
        <time>2013-04-23T15:25:58Z</time>
      </trkpt>
      <trkpt lat="48.14416" lon="-0.7511">
        <ele>466</ele>
        <time>2013-04-23T15:26:01Z</time>
      </trkpt>
      <trkpt lat="48.14399" lon="-0.75108">
        <ele>468</ele>
        <time>2013-04-23T15:26:04Z</time>
      </trkpt>
      <trkpt lat="48.14385" lon="-0.75105">
        <ele>469</ele>
        <time>2013-04-23T15:26:07Z</time>
      </trkpt>
      <trkpt lat="48.14372" lon="-0.75099">
        <ele>471</ele>
        <time>2013-04-23T15:26:10Z</time>
      </trkpt>
      <trkpt lat="48.14364" lon="-0.75097">
        <ele>472</ele>
        <time>2013-04-23T15:26:13Z</time>
      </trkpt>
      <trkpt lat="48.14356" lon="-0.75093">
        <ele>474</ele>
        <time>2013-04-23T15:26:16Z</time>
      </trkpt>
      <trkpt lat="48.14349" lon="-0.75087">
        <ele>476</ele>
        <time>2013-04-23T15:26:19Z</time>
      </trkpt>
      <trkpt lat="48.1434" lon="-0.75083">
        <ele>477</ele>
        <time>2013-04-23T15:26:22Z</time>
      </trkpt>
      <trkpt lat="48.14328" lon="-0.75075">
        <ele>479</ele>
        <time>2013-04-23T15:26:24Z</time>
      </trkpt>
      <trkpt lat="48.14317" lon="-0.75074">
        <ele>480</ele>
        <time>2013-04-23T15:26:27Z</time>
      </trkpt>
      <trkpt lat="48.14308" lon="-0.7507">
        <ele>482</ele>
        <time>2013-04-23T15:26:30Z</time>
      </trkpt>
      <trkpt lat="48.14298" lon="-0.75064">
        <ele>484</ele>
        <time>2013-04-23T15:26:33Z</time>
      </trkpt>
      <trkpt lat="48.14285" lon="-0.75062">
        <ele>485</ele>
        <time>2013-04-23T15:26:36Z</time>
      </trkpt>
      <trkpt lat="48.14273" lon="-0.75058">
        <ele>487</ele>
        <time>2013-04-23T15:26:39Z</time>
      </trkpt>
      <trkpt lat="48.14262" lon="-0.75054">
        <ele>488</ele>
        <time>2013-04-23T15:26:42Z</time>
      </trkpt>
      <trkpt lat="48.14255" lon="-0.75049">
        <ele>490</ele>
        <time>2013-04-23T15:26:45Z</time>
      </trkpt>
      <trkpt lat="48.14246" lon="-0.75042">
        <ele>491</ele>
        <time>2013-04-23T15:26:48Z</time>
      </trkpt>
      <trkpt lat="48.14239" lon="-0.75036">
        <ele>493</ele>
        <time>2013-04-23T15:26:51Z</time>
      </trkpt>
      <trkpt lat="48.14229" lon="-0.75033">
        <ele>494</ele>
        <time>2013-04-23T15:26:54Z</time>
      </trkpt>
      <trkpt lat="48.14217" lon="-0.7503">
        <ele>496</ele>
        <time>2013-04-23T15:26:57Z</time>
      </trkpt>
      <trkpt lat="48.14209" lon="-0.75026">
        <ele>497</ele>
        <time>2013-04-23T15:27:00Z</time>
      </trkpt>
      <trkpt lat="48.14199" lon="-0.7502">
        <ele>499</ele>
        <time>2013-04-23T15:27:03Z</time>
      </trkpt>
      <trkpt lat="48.14188" lon="-0.75015">
        <ele>500</ele>
        <time>2013-04-23T15:27:06Z</time>
      </trkpt>
      <trkpt lat="48.14177" lon="-0.7501">
        <ele>502</ele>
        <time>2013-04-23T15:27:09Z</time>
      </trkpt>
      <trkpt lat="48.14165" lon="-0.75007">
        <ele>503</ele>
        <time>2013-04-23T15:27:12Z</time>
      </trkpt>
      <trkpt lat="48.14151" lon="-0.75001">
        <ele>505</ele>
        <time>2013-04-23T15:27:15Z</time>
      </trkpt>
      <trkpt lat="48.14138" lon="-0.74993">
        <ele>506</ele>
        <time>2013-04-23T15:27:17Z</time>
      </trkpt>
      <trkpt lat="48.14126" lon="-0.74987">
        <ele>508</ele>
        <time>2013-04-23T15:27:20Z</time>
      </trkpt>
      <trkpt lat="48.14113" lon="-0.74981">
        <ele>509</ele>
        <time>2013-04-23T15:27:23Z</time>
      </trkpt>
      <trkpt lat="48.14101" lon="-0.74973">
        <ele>511</ele>
        <time>2013-04-23T15:27:26Z</time>
      </trkpt>
      <trkpt lat="48.14087" lon="-0.74967">
        <ele>512</ele>
        <time>2013-04-23T15:27:29Z</time>
      </trkpt>
      <trkpt lat="48.14073" lon="-0.7496">
        <ele>514</ele>
        <time>2013-04-23T15:27:32Z</time>
      </trkpt>
      <trkpt lat="48.14059" lon="-0.74953">
        <ele>515</ele>
        <time>2013-04-23T15:27:35Z</time>
      </trkpt>
      <trkpt lat="48.14044" lon="-0.74951">
        <ele>517</ele>
        <time>2013-04-23T15:27:38Z</time>
      </trkpt>
      <trkpt lat="48.14029" lon="-0.74947">
        <ele>518</ele>
        <time>2013-04-23T15:27:41Z</time>
      </trkpt>
      <trkpt lat="48.14015" lon="-0.74943">
        <ele>520</ele>
        <time>2013-04-23T15:27:44Z</time>
      </trkpt>
      <trkpt lat="48.14001" lon="-0.74941">
        <ele>521</ele>
        <time>2013-04-23T15:27:47Z</time>
      </trkpt>
      <trkpt lat="48.13986" lon="-0.74941">
        <ele>523</ele>
        <time>2013-04-23T15:27:50Z</time>
      </trkpt>
      <trkpt lat="48.13973" lon="-0.74939">
        <ele>524</ele>
        <time>2013-04-23T15:27:53Z</time>
      </trkpt>
      <trkpt lat="48.1396" lon="-0.74939">
        <ele>526</ele>
        <time>2013-04-23T15:27:56Z</time>
      </trkpt>
      <trkpt lat="48.13945" lon="-0.74941">
        <ele>527</ele>
        <time>2013-04-23T15:27:59Z</time>
      </trkpt>
      <trkpt lat="48.13931" lon="-0.74941">
        <ele>529</ele>
        <time>2013-04-23T15:28:02Z</time>
      </trkpt>
      <trkpt lat="48.13915" lon="-0.74946">
        <ele>530</ele>
        <time>2013-04-23T15:28:05Z</time>
      </trkpt>
      <trkpt lat="48.13896" lon="-0.7495">
        <ele>532</ele>
        <time>2013-04-23T15:28:08Z</time>
      </trkpt>
      <trkpt lat="48.13881" lon="-0.74955">
        <ele>533</ele>
        <time>2013-04-23T15:28:10Z</time>
      </trkpt>
      <trkpt lat="48.13865" lon="-0.74955">
        <ele>535</ele>
        <time>2013-04-23T15:28:13Z</time>
      </trkpt>
      <trkpt lat="48.13849" lon="-0.74962">
        <ele>536</ele>
        <time>2013-04-23T15:28:16Z</time>
      </trkpt>
      <trkpt lat="48.13841" lon="-0.74967">
        <ele>538</ele>
        <time>2013-04-23T15:28:19Z</time>
      </trkpt>
      <trkpt lat="48.13825" lon="-0.74969">
        <ele>540</ele>
        <time>2013-04-23T15:28:22Z</time>
      </trkpt>
      <trkpt lat="48.13813" lon="-0.74967">
        <ele>541</ele>
        <time>2013-04-23T15:28:25Z</time>
      </trkpt>
      <trkpt lat="48.13802" lon="-0.74963">
        <ele>543</ele>
        <time>2013-04-23T15:28:28Z</time>
      </trkpt>
      <trkpt lat="48.13793" lon="-0.74962">
        <ele>544</ele>
        <time>2013-04-23T15:28:31Z</time>
      </trkpt>
      <trkpt lat="48.1378" lon="-0.74957">
        <ele>546</ele>
        <time>2013-04-23T15:28:34Z</time>
      </trkpt>
      <trkpt lat="48.13767" lon="-0.74953">
        <ele>547</ele>
        <time>2013-04-23T15:28:37Z</time>
      </trkpt>
      <trkpt lat="48.13756" lon="-0.74952">
        <ele>549</ele>
        <time>2013-04-23T15:28:40Z</time>
      </trkpt>
      <trkpt lat="48.13745" lon="-0.7495">
        <ele>550</ele>
        <time>2013-04-23T15:28:43Z</time>
      </trkpt>
      <trkpt lat="48.13731" lon="-0.74949">
        <ele>552</ele>
        <time>2013-04-23T15:28:46Z</time>
      </trkpt>
      <trkpt lat="48.13719" lon="-0.74948">
        <ele>553</ele>
        <time>2013-04-23T15:28:49Z</time>
      </trkpt>
      <trkpt lat="48.13702" lon="-0.74945">
        <ele>555</ele>
        <time>2013-04-23T15:28:52Z</time>
      </trkpt>
      <trkpt lat="48.1369" lon="-0.74942">
        <ele>556</ele>
        <time>2013-04-23T15:28:55Z</time>
      </trkpt>
      <trkpt lat="48.13674" lon="-0.74938">
        <ele>558</ele>
        <time>2013-04-23T15:28:58Z</time>
      </trkpt>
      <trkpt lat="48.13656" lon="-0.74932">
        <ele>559</ele>
        <time>2013-04-23T15:29:01Z</time>
      </trkpt>
      <trkpt lat="48.13642" lon="-0.74931">
        <ele>561</ele>
        <time>2013-04-23T15:29:04Z</time>
      </trkpt>
      <trkpt lat="48.13623" lon="-0.74925">
        <ele>562</ele>
        <time>2013-04-23T15:29:06Z</time>
      </trkpt>
      <trkpt lat="48.13607" lon="-0.74918">
        <ele>564</ele>
        <time>2013-04-23T15:29:09Z</time>
      </trkpt>
      <trkpt lat="48.1359" lon="-0.74915">
        <ele>565</ele>
        <time>2013-04-23T15:29:12Z</time>
      </trkpt>
      <trkpt lat="48.13573" lon="-0.74914">
        <ele>567</ele>
        <time>2013-04-23T15:29:15Z</time>
      </trkpt>
      <trkpt lat="48.13556" lon="-0.7491">
        <ele>568</ele>
        <time>2013-04-23T15:29:18Z</time>
      </trkpt>
      <trkpt lat="48.13543" lon="-0.74906">
        <ele>570</ele>
        <time>2013-04-23T15:29:21Z</time>
      </trkpt>
      <trkpt lat="48.13527" lon="-0.74904">
        <ele>571</ele>
        <time>2013-04-23T15:29:24Z</time>
      </trkpt>
      <trkpt lat="48.13513" lon="-0.74901">
        <ele>573</ele>
        <time>2013-04-23T15:29:27Z</time>
      </trkpt>
      <trkpt lat="48.13499" lon="-0.74901">
        <ele>574</ele>
        <time>2013-04-23T15:29:30Z</time>
      </trkpt>
      <trkpt lat="48.13486" lon="-0.74898">
        <ele>576</ele>
        <time>2013-04-23T15:29:33Z</time>
      </trkpt>
      <trkpt lat="48.13474" lon="-0.74898">
        <ele>577</ele>
        <time>2013-04-23T15:29:36Z</time>
      </trkpt>
      <trkpt lat="48.13462" lon="-0.749">
        <ele>579</ele>
        <time>2013-04-23T15:29:39Z</time>
      </trkpt>
      <trkpt lat="48.13449" lon="-0.74901">
        <ele>580</ele>
        <time>2013-04-23T15:29:42Z</time>
      </trkpt>
      <trkpt lat="48.13436" lon="-0.74902">
        <ele>582</ele>
        <time>2013-04-23T15:29:45Z</time>
      </trkpt>
      <trkpt lat="48.13422" lon="-0.74904">
        <ele>583</ele>
        <time>2013-04-23T15:29:48Z</time>
      </trkpt>
      <trkpt lat="48.13408" lon="-0.7491">
        <ele>585</ele>
        <time>2013-04-23T15:29:51Z</time>
      </trkpt>
      <trkpt lat="48.13393" lon="-0.74911">
        <ele>586</ele>
        <time>2013-04-23T15:29:54Z</time>
      </trkpt>
      <trkpt lat="48.13375" lon="-0.74915">
        <ele>588</ele>
        <time>2013-04-23T15:29:57Z</time>
      </trkpt>
      <trkpt lat="48.13363" lon="-0.74918">
        <ele>589</ele>
        <time>2013-04-23T15:29:59Z</time>
      </trkpt>
      <trkpt lat="48.13351" lon="-0.74917">
        <ele>591</ele>
        <time>2013-04-23T15:30:02Z</time>
      </trkpt>
      <trkpt lat="48.13343" lon="-0.7492">
        <ele>592</ele>
        <time>2013-04-23T15:30:05Z</time>
      </trkpt>
      <trkpt lat="48.1333" lon="-0.74922">
        <ele>594</ele>
        <time>2013-04-23T15:30:08Z</time>
      </trkpt>
      <trkpt lat="48.13317" lon="-0.74922">
        <ele>595</ele>
        <time>2013-04-23T15:30:11Z</time>
      </trkpt>
      <trkpt lat="48.13303" lon="-0.74923">
        <ele>597</ele>
        <time>2013-04-23T15:30:14Z</time>
      </trkpt>
      <trkpt lat="48.13295" lon="-0.74925">
        <ele>598</ele>
        <time>2013-04-23T15:30:17Z</time>
      </trkpt>
      <trkpt lat="48.13283" lon="-0.74925">
        <ele>600</ele>
        <time>2013-04-23T15:30:20Z</time>
      </trkpt>
      <trkpt lat="48.13273" lon="-0.74926">
        <ele>601</ele>
        <time>2013-04-23T15:30:23Z</time>
      </trkpt>
      <trkpt lat="48.13265" lon="-0.74927">
        <ele>603</ele>
        <time>2013-04-23T15:30:26Z</time>
      </trkpt>
      <trkpt lat="48.13254" lon="-0.74929">
        <ele>604</ele>
        <time>2013-04-23T15:30:29Z</time>
      </trkpt>
      <trkpt lat="48.13241" lon="-0.74929">
        <ele>606</ele>
        <time>2013-04-23T15:30:32Z</time>
      </trkpt>
      <trkpt lat="48.13226" lon="-0.74925">
        <ele>608</ele>
        <time>2013-04-23T15:30:35Z</time>
      </trkpt>
      <trkpt lat="48.13214" lon="-0.74928">
        <ele>609</ele>
        <time>2013-04-23T15:30:38Z</time>
      </trkpt>
      <trkpt lat="48.13204" lon="-0.74926">
        <ele>611</ele>
        <time>2013-04-23T15:30:41Z</time>
      </trkpt>
      <trkpt lat="48.13195" lon="-0.74927">
        <ele>612</ele>
        <time>2013-04-23T15:30:44Z</time>
      </trkpt>
      <trkpt lat="48.13185" lon="-0.74929">
        <ele>614</ele>
        <time>2013-04-23T15:30:47Z</time>
      </trkpt>
      <trkpt lat="48.13173" lon="-0.74931">
        <ele>616</ele>
        <time>2013-04-23T15:30:50Z</time>
      </trkpt>
      <trkpt lat="48.13162" lon="-0.74934">
        <ele>617</ele>
        <time>2013-04-23T15:30:52Z</time>
      </trkpt>
      <trkpt lat="48.1315" lon="-0.74937">
        <ele>619</ele>
        <time>2013-04-23T15:30:55Z</time>
      </trkpt>
      <trkpt lat="48.1314" lon="-0.74939">
        <ele>620</ele>
        <time>2013-04-23T15:30:58Z</time>
      </trkpt>
      <trkpt lat="48.13132" lon="-0.7494">
        <ele>622</ele>
        <time>2013-04-23T15:31:01Z</time>
      </trkpt>
      <trkpt lat="48.13124" lon="-0.74941">
        <ele>623</ele>
        <time>2013-04-23T15:31:04Z</time>
      </trkpt>
      <trkpt lat="48.13112" lon="-0.74943">
        <ele>625</ele>
        <time>2013-04-23T15:31:07Z</time>
      </trkpt>
      <trkpt lat="48.13099" lon="-0.74946">
        <ele>626</ele>
        <time>2013-04-23T15:31:10Z</time>
      </trkpt>
      <trkpt lat="48.13087" lon="-0.74945">
        <ele>628</ele>
        <time>2013-04-23T15:31:13Z</time>
      </trkpt>
      <trkpt lat="48.13075" lon="-0.74945">
        <ele>629</ele>
        <time>2013-04-23T15:31:16Z</time>
      </trkpt>
      <trkpt lat="48.13063" lon="-0.74946">
        <ele>631</ele>
        <time>2013-04-23T15:31:19Z</time>
      </trkpt>
      <trkpt lat="48.13055" lon="-0.74944">
        <ele>632</ele>
        <time>2013-04-23T15:31:22Z</time>
      </trkpt>
      <trkpt lat="48.13047" lon="-0.74941">
        <ele>634</ele>
        <time>2013-04-23T15:31:25Z</time>
      </trkpt>
      <trkpt lat="48.13037" lon="-0.74941">
        <ele>635</ele>
        <time>2013-04-23T15:31:28Z</time>
      </trkpt>
      <trkpt lat="48.13029" lon="-0.74941">
        <ele>637</ele>
        <time>2013-04-23T15:31:31Z</time>
      </trkpt>
      <trkpt lat="48.13018" lon="-0.74942">
        <ele>638</ele>
        <time>2013-04-23T15:31:34Z</time>
      </trkpt>
      <trkpt lat="48.13007" lon="-0.74941">
        <ele>640</ele>
        <time>2013-04-23T15:31:37Z</time>
      </trkpt>
      <trkpt lat="48.12999" lon="-0.74941">
        <ele>641</ele>
        <time>2013-04-23T15:31:40Z</time>
      </trkpt>
      <trkpt lat="48.12994" lon="-0.74939">
        <ele>643</ele>
        <time>2013-04-23T15:31:43Z</time>
      </trkpt>
      <trkpt lat="48.1299" lon="-0.74941">
        <ele>644</ele>
        <time>2013-04-23T15:32:53Z</time>
      </trkpt>
      <trkpt lat="48.12984" lon="-0.74944">
        <ele>646</ele>
        <time>2013-04-23T15:32:55Z</time>
      </trkpt>
      <trkpt lat="48.12978" lon="-0.74943">
        <ele>647</ele>
        <time>2013-04-23T15:32:58Z</time>
      </trkpt>
      <trkpt lat="48.12972" lon="-0.74944">
        <ele>649</ele>
        <time>2013-04-23T15:33:01Z</time>
      </trkpt>
      <trkpt lat="48.12967" lon="-0.74943">
        <ele>650</ele>
        <time>2013-04-23T15:33:04Z</time>
      </trkpt>
      <trkpt lat="48.12961" lon="-0.74941">
        <ele>652</ele>
        <time>2013-04-23T15:33:07Z</time>
      </trkpt>
      <trkpt lat="48.12952" lon="-0.74941">
        <ele>653</ele>
        <time>2013-04-23T15:33:10Z</time>
      </trkpt>
      <trkpt lat="48.12945" lon="-0.74934">
        <ele>655</ele>
        <time>2013-04-23T15:33:13Z</time>
      </trkpt>
      <trkpt lat="48.12935" lon="-0.74937">
        <ele>656</ele>
        <time>2013-04-23T15:33:16Z</time>
      </trkpt>
      <trkpt lat="48.12922" lon="-0.74942">
        <ele>658</ele>
        <time>2013-04-23T15:33:19Z</time>
      </trkpt>
      <trkpt lat="48.12909" lon="-0.74946">
        <ele>659</ele>
        <time>2013-04-23T15:33:21Z</time>
      </trkpt>
      <trkpt lat="48.12899" lon="-0.7495">
        <ele>661</ele>
        <time>2013-04-23T15:33:24Z</time>
      </trkpt>
      <trkpt lat="48.12894" lon="-0.74949">
        <ele>662</ele>
        <time>2013-04-23T15:33:27Z</time>
      </trkpt>
      <trkpt lat="48.12882" lon="-0.7495">
        <ele>664</ele>
        <time>2013-04-23T15:33:30Z</time>
      </trkpt>
      <trkpt lat="48.12867" lon="-0.74951">
        <ele>665</ele>
        <time>2013-04-23T15:33:33Z</time>
      </trkpt>
      <trkpt lat="48.12856" lon="-0.7495">
        <ele>667</ele>
        <time>2013-04-23T15:33:36Z</time>
      </trkpt>
      <trkpt lat="48.12849" lon="-0.74955">
        <ele>668</ele>
        <time>2013-04-23T15:33:39Z</time>
      </trkpt>
      <trkpt lat="48.12834" lon="-0.74955">
        <ele>670</ele>
        <time>2013-04-23T15:33:42Z</time>
      </trkpt>
      <trkpt lat="48.12819" lon="-0.74961">
        <ele>671</ele>
        <time>2013-04-23T15:33:45Z</time>
      </trkpt>
      <trkpt lat="48.12805" lon="-0.74955">
        <ele>673</ele>
        <time>2013-04-23T15:33:48Z</time>
      </trkpt>
      <trkpt lat="48.12788" lon="-0.74957">
        <ele>674</ele>
        <time>2013-04-23T15:33:51Z</time>
      </trkpt>
      <trkpt lat="48.12775" lon="-0.74958">
        <ele>676</ele>
        <time>2013-04-23T15:33:54Z</time>
      </trkpt>
      <trkpt lat="48.12759" lon="-0.74957">
        <ele>677</ele>
        <time>2013-04-23T15:33:57Z</time>
      </trkpt>
      <trkpt lat="48.12742" lon="-0.74957">
        <ele>679</ele>
        <time>2013-04-23T15:34:00Z</time>
      </trkpt>
      <trkpt lat="48.1273" lon="-0.74956">
        <ele>680</ele>
        <time>2013-04-23T15:34:03Z</time>
      </trkpt>
      <trkpt lat="48.12715" lon="-0.74956">
        <ele>682</ele>
        <time>2013-04-23T15:34:06Z</time>
      </trkpt>
      <trkpt lat="48.12698" lon="-0.74956">
        <ele>683</ele>
        <time>2013-04-23T15:34:09Z</time>
      </trkpt>
      <trkpt lat="48.12681" lon="-0.74956">
        <ele>685</ele>
        <time>2013-04-23T15:34:12Z</time>
      </trkpt>
      <trkpt lat="48.12662" lon="-0.74955">
        <ele>686</ele>
        <time>2013-04-23T15:34:14Z</time>
      </trkpt>
      <trkpt lat="48.12645" lon="-0.74953">
        <ele>688</ele>
        <time>2013-04-23T15:34:17Z</time>
      </trkpt>
      <trkpt lat="48.12631" lon="-0.74952">
        <ele>689</ele>
        <time>2013-04-23T15:34:20Z</time>
      </trkpt>
      <trkpt lat="48.12616" lon="-0.74951">
        <ele>691</ele>
        <time>2013-04-23T15:34:23Z</time>
      </trkpt>
      <trkpt lat="48.12598" lon="-0.74947">
        <ele>692</ele>
        <time>2013-04-23T15:34:26Z</time>
      </trkpt>
      <trkpt lat="48.1258" lon="-0.74946">
        <ele>694</ele>
        <time>2013-04-23T15:34:29Z</time>
      </trkpt>
      <trkpt lat="48.12564" lon="-0.74945">
        <ele>695</ele>
        <time>2013-04-23T15:34:32Z</time>
      </trkpt>
      <trkpt lat="48.12549" lon="-0.74948">
        <ele>697</ele>
        <time>2013-04-23T15:34:35Z</time>
      </trkpt>
      <trkpt lat="48.12532" lon="-0.74953">
        <ele>698</ele>
        <time>2013-04-23T15:34:38Z</time>
      </trkpt>
      <trkpt lat="48.12514" lon="-0.74958">
        <ele>700</ele>
        <time>2013-04-23T15:34:41Z</time>
      </trkpt>
      <trkpt lat="48.12495" lon="-0.74962">
        <ele>702</ele>
        <time>2013-04-23T15:34:44Z</time>
      </trkpt>
      <trkpt lat="48.12478" lon="-0.74965">
        <ele>703</ele>
        <time>2013-04-23T15:34:47Z</time>
      </trkpt>
      <trkpt lat="48.12458" lon="-0.74969">
        <ele>705</ele>
        <time>2013-04-23T15:34:50Z</time>
      </trkpt>
      <trkpt lat="48.12442" lon="-0.74973">
        <ele>706</ele>
        <time>2013-04-23T15:34:53Z</time>
      </trkpt>
      <trkpt lat="48.12422" lon="-0.74977">
        <ele>708</ele>
        <time>2013-04-23T15:34:56Z</time>
      </trkpt>
      <trkpt lat="48.12407" lon="-0.74979">
        <ele>709</ele>
        <time>2013-04-23T15:34:59Z</time>
      </trkpt>
      <trkpt lat="48.1239" lon="-0.74984">
        <ele>711</ele>
        <time>2013-04-23T15:35:02Z</time>
      </trkpt>
      <trkpt lat="48.12377" lon="-0.74991">
        <ele>712</ele>
        <time>2013-04-23T15:35:05Z</time>
      </trkpt>
      <trkpt lat="48.1236" lon="-0.74996">
        <ele>714</ele>
        <time>2013-04-23T15:35:07Z</time>
      </trkpt>
      <trkpt lat="48.12346" lon="-0.75001">
        <ele>715</ele>
        <time>2013-04-23T15:35:10Z</time>
      </trkpt>
      <trkpt lat="48.12332" lon="-0.75011">
        <ele>717</ele>
        <time>2013-04-23T15:35:13Z</time>
      </trkpt>
      <trkpt lat="48.1232" lon="-0.75021">
        <ele>718</ele>
        <time>2013-04-23T15:35:16Z</time>
      </trkpt>
      <trkpt lat="48.12309" lon="-0.75031">
        <ele>720</ele>
        <time>2013-04-23T15:35:19Z</time>
      </trkpt>
      <trkpt lat="48.12304" lon="-0.75044">
        <ele>721</ele>
        <time>2013-04-23T15:35:22Z</time>
      </trkpt>
      <trkpt lat="48.12299" lon="-0.75054">
        <ele>723</ele>
        <time>2013-04-23T15:35:25Z</time>
      </trkpt>
      <trkpt lat="48.123" lon="-0.75076">
        <ele>724</ele>
        <time>2013-04-23T15:35:28Z</time>
      </trkpt>
      <trkpt lat="48.12294" lon="-0.7509">
        <ele>726</ele>
        <time>2013-04-23T15:35:31Z</time>
      </trkpt>
      <trkpt lat="48.12292" lon="-0.75105">
        <ele>727</ele>
        <time>2013-04-23T15:35:34Z</time>
      </trkpt>
      <trkpt lat="48.12283" lon="-0.75116">
        <ele>729</ele>
        <time>2013-04-23T15:35:37Z</time>
      </trkpt>
      <trkpt lat="48.12279" lon="-0.75124">
        <ele>731</ele>
        <time>2013-04-23T15:35:40Z</time>
      </trkpt>
      <trkpt lat="48.12276" lon="-0.75137">
        <ele>732</ele>
        <time>2013-04-23T15:35:43Z</time>
      </trkpt>
      <trkpt lat="48.12272" lon="-0.75152">
        <ele>734</ele>
        <time>2013-04-23T15:35:46Z</time>
      </trkpt>
      <trkpt lat="48.12269" lon="-0.75168">
        <ele>735</ele>
        <time>2013-04-23T15:35:49Z</time>
      </trkpt>
      <trkpt lat="48.12269" lon="-0.75192">
        <ele>737</ele>
        <time>2013-04-23T15:35:52Z</time>
      </trkpt>
      <trkpt lat="48.12267" lon="-0.75208">
        <ele>739</ele>
        <time>2013-04-23T15:35:55Z</time>
      </trkpt>
      <trkpt lat="48.1226" lon="-0.75223">
        <ele>740</ele>
        <time>2013-04-23T15:35:58Z</time>
      </trkpt>
      <trkpt lat="48.12257" lon="-0.75238">
        <ele>742</ele>
        <time>2013-04-23T15:36:01Z</time>
      </trkpt>
      <trkpt lat="48.1225" lon="-0.75255">
        <ele>743</ele>
        <time>2013-04-23T15:36:03Z</time>
      </trkpt>
      <trkpt lat="48.12247" lon="-0.75275">
        <ele>745</ele>
        <time>2013-04-23T15:36:06Z</time>
      </trkpt>
      <trkpt lat="48.12244" lon="-0.75294">
        <ele>747</ele>
        <time>2013-04-23T15:36:09Z</time>
      </trkpt>
      <trkpt lat="48.12241" lon="-0.7531">
        <ele>748</ele>
        <time>2013-04-23T15:36:12Z</time>
      </trkpt>
      <trkpt lat="48.12237" lon="-0.75321">
        <ele>750</ele>
        <time>2013-04-23T15:36:15Z</time>
      </trkpt>
      <trkpt lat="48.12232" lon="-0.75324">
        <ele>751</ele>
        <time>2013-04-23T15:36:18Z</time>
      </trkpt>
      <trkpt lat="48.12231" lon="-0.75342">
        <ele>753</ele>
        <time>2013-04-23T15:36:21Z</time>
      </trkpt>
      <trkpt lat="48.12229" lon="-0.75363">
        <ele>754</ele>
        <time>2013-04-23T15:36:24Z</time>
      </trkpt>
      <trkpt lat="48.12217" lon="-0.75378">
        <ele>756</ele>
        <time>2013-04-23T15:36:27Z</time>
      </trkpt>
      <trkpt lat="48.12213" lon="-0.75397">
        <ele>757</ele>
        <time>2013-04-23T15:36:30Z</time>
      </trkpt>
      <trkpt lat="48.12211" lon="-0.75417">
        <ele>759</ele>
        <time>2013-04-23T15:36:33Z</time>
      </trkpt>
      <trkpt lat="48.122" lon="-0.7544">
        <ele>760</ele>
        <time>2013-04-23T15:36:36Z</time>
      </trkpt>
      <trkpt lat="48.12195" lon="-0.75456">
        <ele>762</ele>
        <time>2013-04-23T15:36:39Z</time>
      </trkpt>
      <trkpt lat="48.12188" lon="-0.75468">
        <ele>763</ele>
        <time>2013-04-23T15:36:42Z</time>
      </trkpt>
      <trkpt lat="48.12188" lon="-0.75494">
        <ele>765</ele>
        <time>2013-04-23T15:36:45Z</time>
      </trkpt>
      <trkpt lat="48.1218" lon="-0.75515">
        <ele>766</ele>
        <time>2013-04-23T15:36:48Z</time>
      </trkpt>
      <trkpt lat="48.12178" lon="-0.75541">
        <ele>768</ele>
        <time>2013-04-23T15:36:51Z</time>
      </trkpt>
      <trkpt lat="48.12174" lon="-0.75565">
        <ele>769</ele>
        <time>2013-04-23T15:36:54Z</time>
      </trkpt>
      <trkpt lat="48.12167" lon="-0.75579">
        <ele>771</ele>
        <time>2013-04-23T15:36:56Z</time>
      </trkpt>
      <trkpt lat="48.12165" lon="-0.75603">
        <ele>772</ele>
        <time>2013-04-23T15:36:59Z</time>
      </trkpt>
      <trkpt lat="48.12161" lon="-0.7563">
        <ele>774</ele>
        <time>2013-04-23T15:37:02Z</time>
      </trkpt>
      <trkpt lat="48.12155" lon="-0.75651">
        <ele>775</ele>
        <time>2013-04-23T15:37:05Z</time>
      </trkpt>
      <trkpt lat="48.1216" lon="-0.75681">
        <ele>777</ele>
        <time>2013-04-23T15:37:08Z</time>
      </trkpt>
      <trkpt lat="48.12158" lon="-0.75713">
        <ele>778</ele>
        <time>2013-04-23T15:37:11Z</time>
      </trkpt>
      <trkpt lat="48.12151" lon="-0.75739">
        <ele>780</ele>
        <time>2013-04-23T15:37:14Z</time>
      </trkpt>
      <trkpt lat="48.12144" lon="-0.75761">
        <ele>782</ele>
        <time>2013-04-23T15:37:17Z</time>
      </trkpt>
      <trkpt lat="48.12144" lon="-0.75793">
        <ele>783</ele>
        <time>2013-04-23T15:37:20Z</time>
      </trkpt>
      <trkpt lat="48.12141" lon="-0.75819">
        <ele>785</ele>
        <time>2013-04-23T15:37:23Z</time>
      </trkpt>
      <trkpt lat="48.12134" lon="-0.7584">
        <ele>786</ele>
        <time>2013-04-23T15:37:26Z</time>
      </trkpt>
      <trkpt lat="48.12133" lon="-0.75864">
        <ele>788</ele>
        <time>2013-04-23T15:37:29Z</time>
      </trkpt>
      <trkpt lat="48.12126" lon="-0.75883">
        <ele>789</ele>
        <time>2013-04-23T15:37:32Z</time>
      </trkpt>
      <trkpt lat="48.1212" lon="-0.75907">
        <ele>791</ele>
        <time>2013-04-23T15:37:35Z</time>
      </trkpt>
      <trkpt lat="48.12114" lon="-0.75926">
        <ele>792</ele>
        <time>2013-04-23T15:37:38Z</time>
      </trkpt>
      <trkpt lat="48.12109" lon="-0.75945">
        <ele>794</ele>
        <time>2013-04-23T15:37:41Z</time>
      </trkpt>
      <trkpt lat="48.12103" lon="-0.75966">
        <ele>796</ele>
        <time>2013-04-23T15:37:44Z</time>
      </trkpt>
      <trkpt lat="48.12095" lon="-0.75985">
        <ele>797</ele>
        <time>2013-04-23T15:37:47Z</time>
      </trkpt>
      <trkpt lat="48.12091" lon="-0.76001">
        <ele>799</ele>
        <time>2013-04-23T15:37:49Z</time>
      </trkpt>
      <trkpt lat="48.12087" lon="-0.76018">
        <ele>800</ele>
        <time>2013-04-23T15:37:52Z</time>
      </trkpt>
      <trkpt lat="48.12083" lon="-0.7603">
        <ele>802</ele>
        <time>2013-04-23T15:37:55Z</time>
      </trkpt>
      <trkpt lat="48.12077" lon="-0.76047">
        <ele>803</ele>
        <time>2013-04-23T15:37:58Z</time>
      </trkpt>
      <trkpt lat="48.12068" lon="-0.76065">
        <ele>805</ele>
        <time>2013-04-23T15:38:01Z</time>
      </trkpt>
      <trkpt lat="48.12058" lon="-0.76083">
        <ele>806</ele>
        <time>2013-04-23T15:38:04Z</time>
      </trkpt>
      <trkpt lat="48.12049" lon="-0.76102">
        <ele>808</ele>
        <time>2013-04-23T15:38:07Z</time>
      </trkpt>
      <trkpt lat="48.12043" lon="-0.76119">
        <ele>809</ele>
        <time>2013-04-23T15:38:10Z</time>
      </trkpt>
      <trkpt lat="48.12035" lon="-0.76137">
        <ele>811</ele>
        <time>2013-04-23T15:38:13Z</time>
      </trkpt>
      <trkpt lat="48.12026" lon="-0.76158">
        <ele>812</ele>
        <time>2013-04-23T15:38:16Z</time>
      </trkpt>
      <trkpt lat="48.12021" lon="-0.76181">
        <ele>814</ele>
        <time>2013-04-23T15:38:19Z</time>
      </trkpt>
      <trkpt lat="48.12017" lon="-0.76206">
        <ele>815</ele>
        <time>2013-04-23T15:38:22Z</time>
      </trkpt>
      <trkpt lat="48.12008" lon="-0.76227">
        <ele>817</ele>
        <time>2013-04-23T15:38:25Z</time>
      </trkpt>
      <trkpt lat="48.12001" lon="-0.76249">
        <ele>818</ele>
        <time>2013-04-23T15:38:28Z</time>
      </trkpt>
      <trkpt lat="48.11994" lon="-0.76273">
        <ele>820</ele>
        <time>2013-04-23T15:38:31Z</time>
      </trkpt>
      <trkpt lat="48.11985" lon="-0.76299">
        <ele>821</ele>
        <time>2013-04-23T15:38:34Z</time>
      </trkpt>
      <trkpt lat="48.11972" lon="-0.76319">
        <ele>823</ele>
        <time>2013-04-23T15:38:37Z</time>
      </trkpt>
      <trkpt lat="48.11964" lon="-0.76343">
        <ele>824</ele>
        <time>2013-04-23T15:38:40Z</time>
      </trkpt>
      <trkpt lat="48.11952" lon="-0.76363">
        <ele>826</ele>
        <time>2013-04-23T15:38:42Z</time>
      </trkpt>
      <trkpt lat="48.11938" lon="-0.76382">
        <ele>827</ele>
        <time>2013-04-23T15:38:45Z</time>
      </trkpt>
      <trkpt lat="48.11925" lon="-0.76397">
        <ele>829</ele>
        <time>2013-04-23T15:38:48Z</time>
      </trkpt>
      <trkpt lat="48.11913" lon="-0.7641">
        <ele>830</ele>
        <time>2013-04-23T15:38:51Z</time>
      </trkpt>
      <trkpt lat="48.11904" lon="-0.7642">
        <ele>831</ele>
        <time>2013-04-23T15:38:54Z</time>
      </trkpt>
      <trkpt lat="48.11897" lon="-0.76432">
        <ele>833</ele>
        <time>2013-04-23T15:38:57Z</time>
      </trkpt>
      <trkpt lat="48.1189" lon="-0.76442">
        <ele>835</ele>
        <time>2013-04-23T15:39:00Z</time>
      </trkpt>
      <trkpt lat="48.11884" lon="-0.76453">
        <ele>836</ele>
        <time>2013-04-23T15:39:03Z</time>
      </trkpt>
      <trkpt lat="48.11875" lon="-0.76466">
        <ele>838</ele>
        <time>2013-04-23T15:39:06Z</time>
      </trkpt>
      <trkpt lat="48.11873" lon="-0.7648">
        <ele>839</ele>
        <time>2013-04-23T15:39:09Z</time>
      </trkpt>
      <trkpt lat="48.11868" lon="-0.76498">
        <ele>841</ele>
        <time>2013-04-23T15:39:12Z</time>
      </trkpt>
      <trkpt lat="48.1187" lon="-0.76516">
        <ele>842</ele>
        <time>2013-04-23T15:39:15Z</time>
      </trkpt>
      <trkpt lat="48.11865" lon="-0.76535">
        <ele>844</ele>
        <time>2013-04-23T15:39:18Z</time>
      </trkpt>
      <trkpt lat="48.11861" lon="-0.76551">
        <ele>845</ele>
        <time>2013-04-23T15:39:21Z</time>
      </trkpt>
      <trkpt lat="48.11853" lon="-0.76564">
        <ele>847</ele>
        <time>2013-04-23T15:39:24Z</time>
      </trkpt>
      <trkpt lat="48.1185" lon="-0.76578">
        <ele>848</ele>
        <time>2013-04-23T15:39:27Z</time>
      </trkpt>
      <trkpt lat="48.11844" lon="-0.76599">
        <ele>850</ele>
        <time>2013-04-23T15:39:30Z</time>
      </trkpt>
      <trkpt lat="48.11837" lon="-0.76618">
        <ele>851</ele>
        <time>2013-04-23T15:39:33Z</time>
      </trkpt>
      <trkpt lat="48.11834" lon="-0.76633">
        <ele>853</ele>
        <time>2013-04-23T15:39:36Z</time>
      </trkpt>
      <trkpt lat="48.11831" lon="-0.76651">
        <ele>854</ele>
        <time>2013-04-23T15:39:38Z</time>
      </trkpt>
      <trkpt lat="48.11826" lon="-0.76673">
        <ele>856</ele>
        <time>2013-04-23T15:39:41Z</time>
      </trkpt>
      <trkpt lat="48.11828" lon="-0.76693">
        <ele>857</ele>
        <time>2013-04-23T15:39:44Z</time>
      </trkpt>
      <trkpt lat="48.11826" lon="-0.7671">
        <ele>859</ele>
        <time>2013-04-23T15:39:47Z</time>
      </trkpt>
      <trkpt lat="48.11819" lon="-0.76724">
        <ele>860</ele>
        <time>2013-04-23T15:39:50Z</time>
      </trkpt>
      <trkpt lat="48.11812" lon="-0.76742">
        <ele>862</ele>
        <time>2013-04-23T15:39:53Z</time>
      </trkpt>
      <trkpt lat="48.11804" lon="-0.7676">
        <ele>863</ele>
        <time>2013-04-23T15:39:56Z</time>
      </trkpt>
      <trkpt lat="48.11794" lon="-0.76774">
        <ele>865</ele>
        <time>2013-04-23T15:39:59Z</time>
      </trkpt>
      <trkpt lat="48.11787" lon="-0.76785">
        <ele>866</ele>
        <time>2013-04-23T15:40:02Z</time>
      </trkpt>
      <trkpt lat="48.11781" lon="-0.76792">
        <ele>868</ele>
        <time>2013-04-23T15:40:05Z</time>
      </trkpt>
      <trkpt lat="48.11775" lon="-0.76807">
        <ele>869</ele>
        <time>2013-04-23T15:40:08Z</time>
      </trkpt>
      <trkpt lat="48.11766" lon="-0.76821">
        <ele>871</ele>
        <time>2013-04-23T15:40:11Z</time>
      </trkpt>
      <trkpt lat="48.11761" lon="-0.76834">
        <ele>872</ele>
        <time>2013-04-23T15:40:14Z</time>
      </trkpt>
      <trkpt lat="48.11749" lon="-0.76844">
        <ele>874</ele>
        <time>2013-04-23T15:40:17Z</time>
      </trkpt>
      <trkpt lat="48.11742" lon="-0.76854">
        <ele>875</ele>
        <time>2013-04-23T15:40:20Z</time>
      </trkpt>
      <trkpt lat="48.11726" lon="-0.76868">
        <ele>877</ele>
        <time>2013-04-23T15:40:23Z</time>
      </trkpt>
      <trkpt lat="48.11714" lon="-0.76878">
        <ele>878</ele>
        <time>2013-04-23T15:40:26Z</time>
      </trkpt>
      <trkpt lat="48.11707" lon="-0.76889">
        <ele>880</ele>
        <time>2013-04-23T15:40:29Z</time>
      </trkpt>
      <trkpt lat="48.11698" lon="-0.76898">
        <ele>881</ele>
        <time>2013-04-23T15:40:31Z</time>
      </trkpt>
      <trkpt lat="48.11687" lon="-0.76905">
        <ele>883</ele>
        <time>2013-04-23T15:40:34Z</time>
      </trkpt>
      <trkpt lat="48.11677" lon="-0.76919">
        <ele>884</ele>
        <time>2013-04-23T15:40:37Z</time>
      </trkpt>
      <trkpt lat="48.11666" lon="-0.76931">
        <ele>885</ele>
        <time>2013-04-23T15:40:40Z</time>
      </trkpt>
      <trkpt lat="48.11655" lon="-0.76943">
        <ele>887</ele>
        <time>2013-04-23T15:40:43Z</time>
      </trkpt>
      <trkpt lat="48.11646" lon="-0.76954">
        <ele>888</ele>
        <time>2013-04-23T15:40:46Z</time>
      </trkpt>
      <trkpt lat="48.11637" lon="-0.76963">
        <ele>890</ele>
        <time>2013-04-23T15:40:49Z</time>
      </trkpt>
      <trkpt lat="48.1163" lon="-0.76971">
        <ele>891</ele>
        <time>2013-04-23T15:40:52Z</time>
      </trkpt>
      <trkpt lat="48.11623" lon="-0.76979">
        <ele>892</ele>
        <time>2013-04-23T15:40:55Z</time>
      </trkpt>
      <trkpt lat="48.11617" lon="-0.76984">
        <ele>894</ele>
        <time>2013-04-23T15:40:58Z</time>
      </trkpt>
      <trkpt lat="48.11607" lon="-0.7699">
        <ele>895</ele>
        <time>2013-04-23T15:41:01Z</time>
      </trkpt>
      <trkpt lat="48.11595" lon="-0.76997">
        <ele>897</ele>
        <time>2013-04-23T15:41:04Z</time>
      </trkpt>
      <trkpt lat="48.11582" lon="-0.77002">
        <ele>898</ele>
        <time>2013-04-23T15:41:07Z</time>
      </trkpt>
      <trkpt lat="48.11573" lon="-0.77011">
        <ele>900</ele>
        <time>2013-04-23T15:41:10Z</time>
      </trkpt>
      <trkpt lat="48.11562" lon="-0.77017">
        <ele>901</ele>
        <time>2013-04-23T15:41:13Z</time>
      </trkpt>
      <trkpt lat="48.11552" lon="-0.77023">
        <ele>903</ele>
        <time>2013-04-23T15:41:16Z</time>
      </trkpt>
      <trkpt lat="48.11541" lon="-0.77029">
        <ele>904</ele>
        <time>2013-04-23T15:41:19Z</time>
      </trkpt>
      <trkpt lat="48.1153" lon="-0.77034">
        <ele>906</ele>
        <time>2013-04-23T15:41:22Z</time>
      </trkpt>
      <trkpt lat="48.11518" lon="-0.77043">
        <ele>907</ele>
        <time>2013-04-23T15:41:25Z</time>
      </trkpt>
      <trkpt lat="48.11511" lon="-0.77046">
        <ele>909</ele>
        <time>2013-04-23T15:41:27Z</time>
      </trkpt>
      <trkpt lat="48.11499" lon="-0.77053">
        <ele>910</ele>
        <time>2013-04-23T15:41:30Z</time>
      </trkpt>
      <trkpt lat="48.11487" lon="-0.77055">
        <ele>912</ele>
        <time>2013-04-23T15:41:33Z</time>
      </trkpt>
      <trkpt lat="48.11472" lon="-0.77061">
        <ele>913</ele>
        <time>2013-04-23T15:41:36Z</time>
      </trkpt>
      <trkpt lat="48.11461" lon="-0.77069">
        <ele>915</ele>
        <time>2013-04-23T15:41:39Z</time>
      </trkpt>
      <trkpt lat="48.11452" lon="-0.77076">
        <ele>916</ele>
        <time>2013-04-23T15:41:42Z</time>
      </trkpt>
      <trkpt lat="48.11443" lon="-0.77083">
        <ele>918</ele>
        <time>2013-04-23T15:41:45Z</time>
      </trkpt>
      <trkpt lat="48.11429" lon="-0.77087">
        <ele>919</ele>
        <time>2013-04-23T15:41:48Z</time>
      </trkpt>
      <trkpt lat="48.11413" lon="-0.77088">
        <ele>921</ele>
        <time>2013-04-23T15:41:51Z</time>
      </trkpt>
      <trkpt lat="48.11399" lon="-0.77088">
        <ele>922</ele>
        <time>2013-04-23T15:41:54Z</time>
      </trkpt>
      <trkpt lat="48.11387" lon="-0.77093">
        <ele>924</ele>
        <time>2013-04-23T15:41:57Z</time>
      </trkpt>
      <trkpt lat="48.11376" lon="-0.77094">
        <ele>925</ele>
        <time>2013-04-23T15:42:00Z</time>
      </trkpt>
      <trkpt lat="48.11368" lon="-0.77101">
        <ele>927</ele>
        <time>2013-04-23T15:42:03Z</time>
      </trkpt>
      <trkpt lat="48.11362" lon="-0.77106">
        <ele>928</ele>
        <time>2013-04-23T15:42:06Z</time>
      </trkpt>
      <trkpt lat="48.11343" lon="-0.77118">
        <ele>930</ele>
        <time>2013-04-23T15:42:09Z</time>
      </trkpt>
      <trkpt lat="48.11325" lon="-0.77124">
        <ele>931</ele>
        <time>2013-04-23T15:42:12Z</time>
      </trkpt>
      <trkpt lat="48.11312" lon="-0.7713">
        <ele>933</ele>
        <time>2013-04-23T15:42:15Z</time>
      </trkpt>
      <trkpt lat="48.11297" lon="-0.77135">
        <ele>934</ele>
        <time>2013-04-23T15:42:18Z</time>
      </trkpt>
      <trkpt lat="48.11286" lon="-0.77138">
        <ele>936</ele>
        <time>2013-04-23T15:42:20Z</time>
      </trkpt>
      <trkpt lat="48.11276" lon="-0.77141">
        <ele>937</ele>
        <time>2013-04-23T15:42:23Z</time>
      </trkpt>
      <trkpt lat="48.11262" lon="-0.77146">
        <ele>939</ele>
        <time>2013-04-23T15:42:26Z</time>
      </trkpt>
      <trkpt lat="48.11247" lon="-0.77153">
        <ele>940</ele>
        <time>2013-04-23T15:42:29Z</time>
      </trkpt>
      <trkpt lat="48.11233" lon="-0.77159">
        <ele>942</ele>
        <time>2013-04-23T15:42:32Z</time>
      </trkpt>
      <trkpt lat="48.1122" lon="-0.77167">
        <ele>943</ele>
        <time>2013-04-23T15:42:35Z</time>
      </trkpt>
      <trkpt lat="48.1121" lon="-0.77173">
        <ele>945</ele>
        <time>2013-04-23T15:42:38Z</time>
      </trkpt>
      <trkpt lat="48.11194" lon="-0.77184">
        <ele>946</ele>
        <time>2013-04-23T15:42:41Z</time>
      </trkpt>
      <trkpt lat="48.11181" lon="-0.77191">
        <ele>948</ele>
        <time>2013-04-23T15:42:44Z</time>
      </trkpt>
      <trkpt lat="48.11163" lon="-0.77198">
        <ele>949</ele>
        <time>2013-04-23T15:42:47Z</time>
      </trkpt>
      <trkpt lat="48.11153" lon="-0.77206">
        <ele>951</ele>
        <time>2013-04-23T15:42:50Z</time>
      </trkpt>
      <trkpt lat="48.11138" lon="-0.77215">
        <ele>952</ele>
        <time>2013-04-23T15:42:53Z</time>
      </trkpt>
      <trkpt lat="48.11118" lon="-0.77224">
        <ele>954</ele>
        <time>2013-04-23T15:42:56Z</time>
      </trkpt>
      <trkpt lat="48.11104" lon="-0.77234">
        <ele>955</ele>
        <time>2013-04-23T15:42:59Z</time>
      </trkpt>
      <trkpt lat="48.11086" lon="-0.77242">
        <ele>957</ele>
        <time>2013-04-23T15:43:02Z</time>
      </trkpt>
      <trkpt lat="48.11072" lon="-0.77247">
        <ele>958</ele>
        <time>2013-04-23T15:43:05Z</time>
      </trkpt>
      <trkpt lat="48.11055" lon="-0.77251">
        <ele>960</ele>
        <time>2013-04-23T15:43:08Z</time>
      </trkpt>
      <trkpt lat="48.11039" lon="-0.77254">
        <ele>961</ele>
        <time>2013-04-23T15:43:11Z</time>
      </trkpt>
      <trkpt lat="48.11016" lon="-0.77258">
        <ele>963</ele>
        <time>2013-04-23T15:43:13Z</time>
      </trkpt>
      <trkpt lat="48.10999" lon="-0.77263">
        <ele>964</ele>
        <time>2013-04-23T15:43:16Z</time>
      </trkpt>
      <trkpt lat="48.10985" lon="-0.77267">
        <ele>966</ele>
        <time>2013-04-23T15:43:19Z</time>
      </trkpt>
      <trkpt lat="48.10971" lon="-0.77275">
        <ele>967</ele>
        <time>2013-04-23T15:43:22Z</time>
      </trkpt>
      <trkpt lat="48.10952" lon="-0.77284">
        <ele>969</ele>
        <time>2013-04-23T15:43:25Z</time>
      </trkpt>
      <trkpt lat="48.10935" lon="-0.77289">
        <ele>970</ele>
        <time>2013-04-23T15:43:28Z</time>
      </trkpt>
      <trkpt lat="48.10922" lon="-0.77292">
        <ele>972</ele>
        <time>2013-04-23T15:43:31Z</time>
      </trkpt>
      <trkpt lat="48.10909" lon="-0.77302">
        <ele>973</ele>
        <time>2013-04-23T15:43:34Z</time>
      </trkpt>
      <trkpt lat="48.10899" lon="-0.77316">
        <ele>975</ele>
        <time>2013-04-23T15:43:37Z</time>
      </trkpt>
      <trkpt lat="48.10888" lon="-0.7733">
        <ele>976</ele>
        <time>2013-04-23T15:43:40Z</time>
      </trkpt>
      <trkpt lat="48.10876" lon="-0.77342">
        <ele>978</ele>
        <time>2013-04-23T15:43:43Z</time>
      </trkpt>
      <trkpt lat="48.10866" lon="-0.77355">
        <ele>979</ele>
        <time>2013-04-23T15:43:46Z</time>
      </trkpt>
      <trkpt lat="48.10857" lon="-0.77362">
        <ele>981</ele>
        <time>2013-04-23T15:43:49Z</time>
      </trkpt>
      <trkpt lat="48.1085" lon="-0.77375">
        <ele>982</ele>
        <time>2013-04-23T15:43:52Z</time>
      </trkpt>
      <trkpt lat="48.10841" lon="-0.77397">
        <ele>983</ele>
        <time>2013-04-23T15:43:55Z</time>
      </trkpt>
      <trkpt lat="48.1083" lon="-0.77422">
        <ele>985</ele>
        <time>2013-04-23T15:43:58Z</time>
      </trkpt>
      <trkpt lat="48.10826" lon="-0.77441">
        <ele>986</ele>
        <time>2013-04-23T15:44:01Z</time>
      </trkpt>
      <trkpt lat="48.1082" lon="-0.7746">
        <ele>988</ele>
        <time>2013-04-23T15:44:04Z</time>
      </trkpt>
      <trkpt lat="48.10817" lon="-0.77474">
        <ele>989</ele>
        <time>2013-04-23T15:44:07Z</time>
      </trkpt>
      <trkpt lat="48.10812" lon="-0.77485">
        <ele>991</ele>
        <time>2013-04-23T15:44:09Z</time>
      </trkpt>
      <trkpt lat="48.1081" lon="-0.77501">
        <ele>992</ele>
        <time>2013-04-23T15:44:12Z</time>
      </trkpt>
      <trkpt lat="48.10808" lon="-0.77513">
        <ele>993</ele>
        <time>2013-04-23T15:44:15Z</time>
      </trkpt>
      <trkpt lat="48.10803" lon="-0.77525">
        <ele>995</ele>
        <time>2013-04-23T15:44:18Z</time>
      </trkpt>
      <trkpt lat="48.10797" lon="-0.77532">
        <ele>996</ele>
        <time>2013-04-23T15:44:21Z</time>
      </trkpt>
      <trkpt lat="48.10803" lon="-0.77548">
        <ele>998</ele>
        <time>2013-04-23T15:44:24Z</time>
      </trkpt>
      <trkpt lat="48.10801" lon="-0.77576">
        <ele>999</ele>
        <time>2013-04-23T15:44:27Z</time>
      </trkpt>
      <trkpt lat="48.10803" lon="-0.77598">
        <ele>1001</ele>
        <time>2013-04-23T15:44:30Z</time>
      </trkpt>
      <trkpt lat="48.10798" lon="-0.77613">
        <ele>1003</ele>
        <time>2013-04-23T15:44:33Z</time>
      </trkpt>
      <trkpt lat="48.10789" lon="-0.77626">
        <ele>1004</ele>
        <time>2013-04-23T15:44:36Z</time>
      </trkpt>
      <trkpt lat="48.10779" lon="-0.77643">
        <ele>1006</ele>
        <time>2013-04-23T15:44:39Z</time>
      </trkpt>
      <trkpt lat="48.10779" lon="-0.77666">
        <ele>1007</ele>
        <time>2013-04-23T15:44:42Z</time>
      </trkpt>
      <trkpt lat="48.10774" lon="-0.77684">
        <ele>1009</ele>
        <time>2013-04-23T15:44:45Z</time>
      </trkpt>
      <trkpt lat="48.10767" lon="-0.777">
        <ele>1010</ele>
        <time>2013-04-23T15:44:48Z</time>
      </trkpt>
      <trkpt lat="48.10759" lon="-0.77716">
        <ele>1012</ele>
        <time>2013-04-23T15:44:51Z</time>
      </trkpt>
      <trkpt lat="48.10755" lon="-0.77731">
        <ele>1013</ele>
        <time>2013-04-23T15:44:54Z</time>
      </trkpt>
      <trkpt lat="48.10749" lon="-0.77748">
        <ele>1014</ele>
        <time>2013-04-23T15:44:57Z</time>
      </trkpt>
      <trkpt lat="48.10742" lon="-0.77771">
        <ele>1016</ele>
        <time>2013-04-23T15:45:00Z</time>
      </trkpt>
      <trkpt lat="48.10733" lon="-0.77788">
        <ele>1017</ele>
        <time>2013-04-23T15:45:03Z</time>
      </trkpt>
      <trkpt lat="48.10731" lon="-0.77808">
        <ele>1019</ele>
        <time>2013-04-23T15:45:05Z</time>
      </trkpt>
      <trkpt lat="48.10725" lon="-0.77827">
        <ele>1020</ele>
        <time>2013-04-23T15:45:08Z</time>
      </trkpt>
      <trkpt lat="48.10719" lon="-0.77846">
        <ele>1022</ele>
        <time>2013-04-23T15:45:11Z</time>
      </trkpt>
      <trkpt lat="48.10713" lon="-0.77861">
        <ele>1023</ele>
        <time>2013-04-23T15:45:14Z</time>
      </trkpt>
      <trkpt lat="48.10711" lon="-0.77877">
        <ele>1025</ele>
        <time>2013-04-23T15:45:17Z</time>
      </trkpt>
      <trkpt lat="48.10703" lon="-0.77893">
        <ele>1026</ele>
        <time>2013-04-23T15:45:20Z</time>
      </trkpt>
      <trkpt lat="48.10695" lon="-0.77906">
        <ele>1028</ele>
        <time>2013-04-23T15:45:23Z</time>
      </trkpt>
      <trkpt lat="48.10681" lon="-0.77919">
        <ele>1030</ele>
        <time>2013-04-23T15:45:26Z</time>
      </trkpt>
      <trkpt lat="48.1067" lon="-0.77933">
        <ele>1031</ele>
        <time>2013-04-23T15:45:29Z</time>
      </trkpt>
      <trkpt lat="48.1066" lon="-0.77945">
        <ele>1033</ele>
        <time>2013-04-23T15:45:32Z</time>
      </trkpt>
      <trkpt lat="48.10649" lon="-0.7796">
        <ele>1034</ele>
        <time>2013-04-23T15:45:35Z</time>
      </trkpt>
      <trkpt lat="48.10635" lon="-0.77972">
        <ele>1036</ele>
        <time>2013-04-23T15:45:38Z</time>
      </trkpt>
      <trkpt lat="48.10621" lon="-0.77985">
        <ele>1037</ele>
        <time>2013-04-23T15:45:41Z</time>
      </trkpt>
      <trkpt lat="48.10608" lon="-0.77998">
        <ele>1039</ele>
        <time>2013-04-23T15:45:44Z</time>
      </trkpt>
      <trkpt lat="48.10598" lon="-0.7801">
        <ele>1040</ele>
        <time>2013-04-23T15:45:47Z</time>
      </trkpt>
      <trkpt lat="48.10587" lon="-0.78022">
        <ele>1042</ele>
        <time>2013-04-23T15:45:50Z</time>
      </trkpt>
      <trkpt lat="48.10572" lon="-0.78033">
        <ele>1043</ele>
        <time>2013-04-23T15:45:53Z</time>
      </trkpt>
      <trkpt lat="48.10557" lon="-0.7805">
        <ele>1045</ele>
        <time>2013-04-23T15:45:56Z</time>
      </trkpt>
      <trkpt lat="48.10543" lon="-0.78071">
        <ele>1046</ele>
        <time>2013-04-23T15:45:58Z</time>
      </trkpt>
      <trkpt lat="48.10533" lon="-0.78089">
        <ele>1048</ele>
        <time>2013-04-23T15:46:01Z</time>
      </trkpt>
      <trkpt lat="48.10529" lon="-0.781">
        <ele>1049</ele>
        <time>2013-04-23T15:46:04Z</time>
      </trkpt>
      <trkpt lat="48.10516" lon="-0.78119">
        <ele>1051</ele>
        <time>2013-04-23T15:46:07Z</time>
      </trkpt>
      <trkpt lat="48.10507" lon="-0.78133">
        <ele>1053</ele>
        <time>2013-04-23T15:46:10Z</time>
      </trkpt>
      <trkpt lat="48.10493" lon="-0.7815">
        <ele>1054</ele>
        <time>2013-04-23T15:46:13Z</time>
      </trkpt>
      <trkpt lat="48.10481" lon="-0.78166">
        <ele>1056</ele>
        <time>2013-04-23T15:46:16Z</time>
      </trkpt>
      <trkpt lat="48.10472" lon="-0.78181">
        <ele>1057</ele>
        <time>2013-04-23T15:46:19Z</time>
      </trkpt>
      <trkpt lat="48.10461" lon="-0.78196">
        <ele>1059</ele>
        <time>2013-04-23T15:46:22Z</time>
      </trkpt>
      <trkpt lat="48.10455" lon="-0.7821">
        <ele>1060</ele>
        <time>2013-04-23T15:46:25Z</time>
      </trkpt>
      <trkpt lat="48.10443" lon="-0.78221">
        <ele>1062</ele>
        <time>2013-04-23T15:46:28Z</time>
      </trkpt>
      <trkpt lat="48.10435" lon="-0.78237">
        <ele>1063</ele>
        <time>2013-04-23T15:46:31Z</time>
      </trkpt>
      <trkpt lat="48.10423" lon="-0.78254">
        <ele>1065</ele>
        <time>2013-04-23T15:46:34Z</time>
      </trkpt>
      <trkpt lat="48.1041" lon="-0.78264">
        <ele>1067</ele>
        <time>2013-04-23T15:46:37Z</time>
      </trkpt>
      <trkpt lat="48.10394" lon="-0.78271">
        <ele>1068</ele>
        <time>2013-04-23T15:46:40Z</time>
      </trkpt>
      <trkpt lat="48.10384" lon="-0.78286">
        <ele>1070</ele>
        <time>2013-04-23T15:46:43Z</time>
      </trkpt>
      <trkpt lat="48.10371" lon="-0.78302">
        <ele>1071</ele>
        <time>2013-04-23T15:46:46Z</time>
      </trkpt>
      <trkpt lat="48.10366" lon="-0.78316">
        <ele>1073</ele>
        <time>2013-04-23T15:46:49Z</time>
      </trkpt>
      <trkpt lat="48.10352" lon="-0.78331">
        <ele>1074</ele>
        <time>2013-04-23T15:46:52Z</time>
      </trkpt>
      <trkpt lat="48.10344" lon="-0.7835">
        <ele>1075</ele>
        <time>2013-04-23T15:46:54Z</time>
      </trkpt>
      <trkpt lat="48.10333" lon="-0.78375">
        <ele>1077</ele>
        <time>2013-04-23T15:46:57Z</time>
      </trkpt>
      <trkpt lat="48.10321" lon="-0.78398">
        <ele>1078</ele>
        <time>2013-04-23T15:47:00Z</time>
      </trkpt>
      <trkpt lat="48.10313" lon="-0.78414">
        <ele>1080</ele>
        <time>2013-04-23T15:47:03Z</time>
      </trkpt>
      <trkpt lat="48.1031" lon="-0.78434">
        <ele>1081</ele>
        <time>2013-04-23T15:47:06Z</time>
      </trkpt>
      <trkpt lat="48.10302" lon="-0.78449">
        <ele>1083</ele>
        <time>2013-04-23T15:47:09Z</time>
      </trkpt>
      <trkpt lat="48.10288" lon="-0.78462">
        <ele>1084</ele>
        <time>2013-04-23T15:47:12Z</time>
      </trkpt>
      <trkpt lat="48.10282" lon="-0.78478">
        <ele>1086</ele>
        <time>2013-04-23T15:47:15Z</time>
      </trkpt>
      <trkpt lat="48.10273" lon="-0.7849">
        <ele>1087</ele>
        <time>2013-04-23T15:47:18Z</time>
      </trkpt>
      <trkpt lat="48.1026" lon="-0.78496">
        <ele>1089</ele>
        <time>2013-04-23T15:47:21Z</time>
      </trkpt>
      <trkpt lat="48.10243" lon="-0.78501">
        <ele>1091</ele>
        <time>2013-04-23T15:47:24Z</time>
      </trkpt>
      <trkpt lat="48.10234" lon="-0.78506">
        <ele>1092</ele>
        <time>2013-04-23T15:47:27Z</time>
      </trkpt>
      <trkpt lat="48.10224" lon="-0.78514">
        <ele>1094</ele>
        <time>2013-04-23T15:47:30Z</time>
      </trkpt>
      <trkpt lat="48.10218" lon="-0.78518">
        <ele>1095</ele>
        <time>2013-04-23T15:47:33Z</time>
      </trkpt>
      <trkpt lat="48.1021" lon="-0.78531">
        <ele>1097</ele>
        <time>2013-04-23T15:47:36Z</time>
      </trkpt>
      <trkpt lat="48.10203" lon="-0.78537">
        <ele>1099</ele>
        <time>2013-04-23T15:47:39Z</time>
      </trkpt>
      <trkpt lat="48.10191" lon="-0.78542">
        <ele>1100</ele>
        <time>2013-04-23T15:47:42Z</time>
      </trkpt>
      <trkpt lat="48.10183" lon="-0.78545">
        <ele>1102</ele>
        <time>2013-04-23T15:47:45Z</time>
      </trkpt>
      <trkpt lat="48.10172" lon="-0.7855">
        <ele>1103</ele>
        <time>2013-04-23T15:47:47Z</time>
      </trkpt>
      <trkpt lat="48.1016" lon="-0.7856">
        <ele>1105</ele>
        <time>2013-04-23T15:47:50Z</time>
      </trkpt>
      <trkpt lat="48.10155" lon="-0.7856">
        <ele>1107</ele>
        <time>2013-04-23T15:47:53Z</time>
      </trkpt>
      <trkpt lat="48.10141" lon="-0.78567">
        <ele>1108</ele>
        <time>2013-04-23T15:47:56Z</time>
      </trkpt>
      <trkpt lat="48.10135" lon="-0.78574">
        <ele>1110</ele>
        <time>2013-04-23T15:47:59Z</time>
      </trkpt>
      <trkpt lat="48.1013" lon="-0.78582">
        <ele>1111</ele>
        <time>2013-04-23T15:48:02Z</time>
      </trkpt>
      <trkpt lat="48.10122" lon="-0.7859">
        <ele>1113</ele>
        <time>2013-04-23T15:48:05Z</time>
      </trkpt>
      <trkpt lat="48.10112" lon="-0.78596">
        <ele>1115</ele>
        <time>2013-04-23T15:48:08Z</time>
      </trkpt>
      <trkpt lat="48.10103" lon="-0.786">
        <ele>1116</ele>
        <time>2013-04-23T15:48:11Z</time>
      </trkpt>
      <trkpt lat="48.10096" lon="-0.78603">
        <ele>1118</ele>
        <time>2013-04-23T15:48:14Z</time>
      </trkpt>
      <trkpt lat="48.10092" lon="-0.78609">
        <ele>1119</ele>
        <time>2013-04-23T15:48:17Z</time>
      </trkpt>
      <trkpt lat="48.10084" lon="-0.78604">
        <ele>1121</ele>
        <time>2013-04-23T15:48:20Z</time>
      </trkpt>
      <trkpt lat="48.10077" lon="-0.78605">
        <ele>1122</ele>
        <time>2013-04-23T15:48:23Z</time>
      </trkpt>
      <trkpt lat="48.1007" lon="-0.78605">
        <ele>1124</ele>
        <time>2013-04-23T15:48:26Z</time>
      </trkpt>
      <trkpt lat="48.10065" lon="-0.78614">
        <ele>1126</ele>
        <time>2013-04-23T15:48:29Z</time>
      </trkpt>
      <trkpt lat="48.1006" lon="-0.78619">
        <ele>1127</ele>
        <time>2013-04-23T15:48:32Z</time>
      </trkpt>
      <trkpt lat="48.10053" lon="-0.78623">
        <ele>1129</ele>
        <time>2013-04-23T15:48:35Z</time>
      </trkpt>
      <trkpt lat="48.10045" lon="-0.78623">
        <ele>1130</ele>
        <time>2013-04-23T15:48:38Z</time>
      </trkpt>
      <trkpt lat="48.10038" lon="-0.78626">
        <ele>1132</ele>
        <time>2013-04-23T15:48:40Z</time>
      </trkpt>
      <trkpt lat="48.10036" lon="-0.7863">
        <ele>1133</ele>
        <time>2013-04-23T15:48:43Z</time>
      </trkpt>
      <trkpt lat="48.10028" lon="-0.78632">
        <ele>1135</ele>
        <time>2013-04-23T15:48:46Z</time>
      </trkpt>
      <trkpt lat="48.10022" lon="-0.7864">
        <ele>1136</ele>
        <time>2013-04-23T15:48:49Z</time>
      </trkpt>
      <trkpt lat="48.10013" lon="-0.78644">
        <ele>1138</ele>
        <time>2013-04-23T15:48:52Z</time>
      </trkpt>
      <trkpt lat="48.10002" lon="-0.78649">
        <ele>1139</ele>
        <time>2013-04-23T15:48:55Z</time>
      </trkpt>
      <trkpt lat="48.09995" lon="-0.78655">
        <ele>1141</ele>
        <time>2013-04-23T15:48:58Z</time>
      </trkpt>
      <trkpt lat="48.09987" lon="-0.78652">
        <ele>1142</ele>
        <time>2013-04-23T15:49:01Z</time>
      </trkpt>
      <trkpt lat="48.09975" lon="-0.78658">
        <ele>1144</ele>
        <time>2013-04-23T15:49:04Z</time>
      </trkpt>
      <trkpt lat="48.09966" lon="-0.78664">
        <ele>1145</ele>
        <time>2013-04-23T15:49:07Z</time>
      </trkpt>
      <trkpt lat="48.09955" lon="-0.78665">
        <ele>1147</ele>
        <time>2013-04-23T15:49:10Z</time>
      </trkpt>
      <trkpt lat="48.09956" lon="-0.78653">
        <ele>1148</ele>
        <time>2013-04-23T15:49:13Z</time>
      </trkpt>
      <trkpt lat="48.09953" lon="-0.78643">
        <ele>1150</ele>
        <time>2013-04-23T15:49:16Z</time>
      </trkpt>
      <trkpt lat="48.09946" lon="-0.78649">
        <ele>1151</ele>
        <time>2013-04-23T15:49:19Z</time>
      </trkpt>
      <trkpt lat="48.09939" lon="-0.78646">
        <ele>1153</ele>
        <time>2013-04-23T15:49:22Z</time>
      </trkpt>
      <trkpt lat="48.09933" lon="-0.78638">
        <ele>1154</ele>
        <time>2013-04-23T15:49:25Z</time>
      </trkpt>
      <trkpt lat="48.09931" lon="-0.7863">
        <ele>1156</ele>
        <time>2013-04-23T15:49:28Z</time>
      </trkpt>
      <trkpt lat="48.09925" lon="-0.78618">
        <ele>1157</ele>
        <time>2013-04-23T15:49:31Z</time>
      </trkpt>
      <trkpt lat="48.09921" lon="-0.7862">
        <ele>1159</ele>
        <time>2013-04-23T15:49:34Z</time>
      </trkpt>
      <trkpt lat="48.09919" lon="-0.78634">
        <ele>1160</ele>
        <time>2013-04-23T15:49:36Z</time>
      </trkpt>
      <trkpt lat="48.0992" lon="-0.78648">
        <ele>1162</ele>
        <time>2013-04-23T15:49:39Z</time>
      </trkpt>
      <trkpt lat="48.09924" lon="-0.78663">
        <ele>1163</ele>
        <time>2013-04-23T15:49:42Z</time>
      </trkpt>
      <trkpt lat="48.09927" lon="-0.78678">
        <ele>1165</ele>
        <time>2013-04-23T15:49:45Z</time>
      </trkpt>
      <trkpt lat="48.09932" lon="-0.78695">
        <ele>1166</ele>
        <time>2013-04-23T15:49:48Z</time>
      </trkpt>
      <trkpt lat="48.0993" lon="-0.7871">
        <ele>1168</ele>
        <time>2013-04-23T15:49:51Z</time>
      </trkpt>
      <trkpt lat="48.09931" lon="-0.78727">
        <ele>1169</ele>
        <time>2013-04-23T15:49:54Z</time>
      </trkpt>
      <trkpt lat="48.09931" lon="-0.78742">
        <ele>1171</ele>
        <time>2013-04-23T15:49:57Z</time>
      </trkpt>
      <trkpt lat="48.09935" lon="-0.78759">
        <ele>1172</ele>
        <time>2013-04-23T15:50:00Z</time>
      </trkpt>
      <trkpt lat="48.09937" lon="-0.78773">
        <ele>1174</ele>
        <time>2013-04-23T15:50:03Z</time>
      </trkpt>
      <trkpt lat="48.09938" lon="-0.78787">
        <ele>1175</ele>
        <time>2013-04-23T15:50:06Z</time>
      </trkpt>
      <trkpt lat="48.0994" lon="-0.78801">
        <ele>1177</ele>
        <time>2013-04-23T15:50:09Z</time>
      </trkpt>
      <trkpt lat="48.09943" lon="-0.78813">
        <ele>1178</ele>
        <time>2013-04-23T15:50:12Z</time>
      </trkpt>
      <trkpt lat="48.09943" lon="-0.78822">
        <ele>1180</ele>
        <time>2013-04-23T15:50:15Z</time>
      </trkpt>
      <trkpt lat="48.09951" lon="-0.78824">
        <ele>1181</ele>
        <time>2013-04-23T15:50:25Z</time>
      </trkpt>
      <trkpt lat="48.09954" lon="-0.78836">
        <ele>1183</ele>
        <time>2013-04-23T15:50:27Z</time>
      </trkpt>
      <trkpt lat="48.0995" lon="-0.78848">
        <ele>1184</ele>
        <time>2013-04-23T15:50:30Z</time>
      </trkpt>
      <trkpt lat="48.09943" lon="-0.78861">
        <ele>1186</ele>
        <time>2013-04-23T15:50:32Z</time>
      </trkpt>
      <trkpt lat="48.09941" lon="-0.7887">
        <ele>1187</ele>
        <time>2013-04-23T15:50:35Z</time>
      </trkpt>
      <trkpt lat="48.09939" lon="-0.78877">
        <ele>1189</ele>
        <time>2013-04-23T15:50:38Z</time>
      </trkpt>
      <trkpt lat="48.09936" lon="-0.78887">
        <ele>1190</ele>
        <time>2013-04-23T15:50:41Z</time>
      </trkpt>
      <trkpt lat="48.09932" lon="-0.78901">
        <ele>1192</ele>
        <time>2013-04-23T15:50:44Z</time>
      </trkpt>
      <trkpt lat="48.09928" lon="-0.78918">
        <ele>1193</ele>
        <time>2013-04-23T15:50:47Z</time>
      </trkpt>
      <trkpt lat="48.09923" lon="-0.78934">
        <ele>1195</ele>
        <time>2013-04-23T15:50:50Z</time>
      </trkpt>
      <trkpt lat="48.0992" lon="-0.78949">
        <ele>1196</ele>
        <time>2013-04-23T15:50:53Z</time>
      </trkpt>
      <trkpt lat="48.09917" lon="-0.78961">
        <ele>1198</ele>
        <time>2013-04-23T15:50:56Z</time>
      </trkpt>
      <trkpt lat="48.09906" lon="-0.78963">
        <ele>1199</ele>
        <time>2013-04-23T15:50:59Z</time>
      </trkpt>
      <trkpt lat="48.09896" lon="-0.78975">
        <ele>1201</ele>
        <time>2013-04-23T15:51:02Z</time>
      </trkpt>
      <trkpt lat="48.09887" lon="-0.78994">
        <ele>1202</ele>
        <time>2013-04-23T15:51:05Z</time>
      </trkpt>
      <trkpt lat="48.09883" lon="-0.79006">
        <ele>1204</ele>
        <time>2013-04-23T15:51:08Z</time>
      </trkpt>
      <trkpt lat="48.09869" lon="-0.79006">
        <ele>1205</ele>
        <time>2013-04-23T15:51:11Z</time>
      </trkpt>
      <trkpt lat="48.09854" lon="-0.79009">
        <ele>1207</ele>
        <time>2013-04-23T15:51:14Z</time>
      </trkpt>
      <trkpt lat="48.09841" lon="-0.79013">
        <ele>1208</ele>
        <time>2013-04-23T15:51:17Z</time>
      </trkpt>
      <trkpt lat="48.09827" lon="-0.79016">
        <ele>1210</ele>
        <time>2013-04-23T15:51:20Z</time>
      </trkpt>
      <trkpt lat="48.09813" lon="-0.7902">
        <ele>1211</ele>
        <time>2013-04-23T15:51:23Z</time>
      </trkpt>
      <trkpt lat="48.09801" lon="-0.79024">
        <ele>1213</ele>
        <time>2013-04-23T15:51:25Z</time>
      </trkpt>
      <trkpt lat="48.09788" lon="-0.79022">
        <ele>1214</ele>
        <time>2013-04-23T15:51:28Z</time>
      </trkpt>
      <trkpt lat="48.09769" lon="-0.7902">
        <ele>1216</ele>
        <time>2013-04-23T15:51:31Z</time>
      </trkpt>
      <trkpt lat="48.09755" lon="-0.79021">
        <ele>1218</ele>
        <time>2013-04-23T15:51:34Z</time>
      </trkpt>
      <trkpt lat="48.09743" lon="-0.79025">
        <ele>1219</ele>
        <time>2013-04-23T15:51:37Z</time>
      </trkpt>
      <trkpt lat="48.09733" lon="-0.79022">
        <ele>1221</ele>
        <time>2013-04-23T15:51:40Z</time>
      </trkpt>
      <trkpt lat="48.09724" lon="-0.7902">
        <ele>1222</ele>
        <time>2013-04-23T15:51:43Z</time>
      </trkpt>
      <trkpt lat="48.0971" lon="-0.79012">
        <ele>1224</ele>
        <time>2013-04-23T15:51:46Z</time>
      </trkpt>
      <trkpt lat="48.09696" lon="-0.78998">
        <ele>1225</ele>
        <time>2013-04-23T15:51:49Z</time>
      </trkpt>
      <trkpt lat="48.09678" lon="-0.78979">
        <ele>1227</ele>
        <time>2013-04-23T15:51:52Z</time>
      </trkpt>
      <trkpt lat="48.09668" lon="-0.78967">
        <ele>1229</ele>
        <time>2013-04-23T15:51:55Z</time>
      </trkpt>
      <trkpt lat="48.09661" lon="-0.78957">
        <ele>1230</ele>
        <time>2013-04-23T15:51:58Z</time>
      </trkpt>
      <trkpt lat="48.09655" lon="-0.78949">
        <ele>1232</ele>
        <time>2013-04-23T15:52:01Z</time>
      </trkpt>
      <trkpt lat="48.09646" lon="-0.78936">
        <ele>1233</ele>
        <time>2013-04-23T15:52:04Z</time>
      </trkpt>
      <trkpt lat="48.09635" lon="-0.78915">
        <ele>1235</ele>
        <time>2013-04-23T15:52:07Z</time>
      </trkpt>
      <trkpt lat="48.09622" lon="-0.78901">
        <ele>1237</ele>
        <time>2013-04-23T15:52:11Z</time>
      </trkpt>
      <trkpt lat="48.09611" lon="-0.78889">
        <ele>1238</ele>
        <time>2013-04-23T15:52:14Z</time>
      </trkpt>
      <trkpt lat="48.09597" lon="-0.78871">
        <ele>1240</ele>
        <time>2013-04-23T15:52:17Z</time>
      </trkpt>
      <trkpt lat="48.09588" lon="-0.78867">
        <ele>1242</ele>
        <time>2013-04-23T15:52:19Z</time>
      </trkpt>
      <trkpt lat="48.09573" lon="-0.78848">
        <ele>1243</ele>
        <time>2013-04-23T15:52:22Z</time>
      </trkpt>
      <trkpt lat="48.09568" lon="-0.78836">
        <ele>1245</ele>
        <time>2013-04-23T15:52:25Z</time>
      </trkpt>
      <trkpt lat="48.0955" lon="-0.7881">
        <ele>1247</ele>
        <time>2013-04-23T15:52:28Z</time>
      </trkpt>
      <trkpt lat="48.0954" lon="-0.78791">
        <ele>1248</ele>
        <time>2013-04-23T15:52:31Z</time>
      </trkpt>
      <trkpt lat="48.09513" lon="-0.78778">
        <ele>1250</ele>
        <time>2013-04-23T15:52:34Z</time>
      </trkpt>
      <trkpt lat="48.09505" lon="-0.78775">
        <ele>1251</ele>
        <time>2013-04-23T15:52:38Z</time>
      </trkpt>
      <trkpt lat="48.09504" lon="-0.78763">
        <ele>1253</ele>
        <time>2013-04-23T15:52:41Z</time>
      </trkpt>
      <trkpt lat="48.09484" lon="-0.78734">
        <ele>1254</ele>
        <time>2013-04-23T15:52:44Z</time>
      </trkpt>
      <trkpt lat="48.09477" lon="-0.78726">
        <ele>1256</ele>
        <time>2013-04-23T15:52:47Z</time>
      </trkpt>
      <trkpt lat="48.09468" lon="-0.78715">
        <ele>1257</ele>
        <time>2013-04-23T15:52:50Z</time>
      </trkpt>
      <trkpt lat="48.09461" lon="-0.78712">
        <ele>1259</ele>
        <time>2013-04-23T15:52:53Z</time>
      </trkpt>
      <trkpt lat="48.0945" lon="-0.78697">
        <ele>1260</ele>
        <time>2013-04-23T15:52:56Z</time>
      </trkpt>
      <trkpt lat="48.09439" lon="-0.78683">
        <ele>1262</ele>
        <time>2013-04-23T15:52:59Z</time>
      </trkpt>
      <trkpt lat="48.09426" lon="-0.7867">
        <ele>1263</ele>
        <time>2013-04-23T15:53:02Z</time>
      </trkpt>
      <trkpt lat="48.09414" lon="-0.78656">
        <ele>1265</ele>
        <time>2013-04-23T15:53:05Z</time>
      </trkpt>
      <trkpt lat="48.09404" lon="-0.78642">
        <ele>1266</ele>
        <time>2013-04-23T15:53:08Z</time>
      </trkpt>
      <trkpt lat="48.09396" lon="-0.78629">
        <ele>1268</ele>
        <time>2013-04-23T15:53:11Z</time>
      </trkpt>
      <trkpt lat="48.09387" lon="-0.78616">
        <ele>1269</ele>
        <time>2013-04-23T15:53:14Z</time>
      </trkpt>
      <trkpt lat="48.09379" lon="-0.78602">
        <ele>1271</ele>
        <time>2013-04-23T15:53:16Z</time>
      </trkpt>
      <trkpt lat="48.09376" lon="-0.78594">
        <ele>1272</ele>
        <time>2013-04-23T15:53:19Z</time>
      </trkpt>
      <trkpt lat="48.09375" lon="-0.78588">
        <ele>1274</ele>
        <time>2013-04-23T15:53:22Z</time>
      </trkpt>
      <trkpt lat="48.09373" lon="-0.7858">
        <ele>1276</ele>
        <time>2013-04-23T15:53:30Z</time>
      </trkpt>
      <trkpt lat="48.09369" lon="-0.78563">
        <ele>1277</ele>
        <time>2013-04-23T15:53:32Z</time>
      </trkpt>
      <trkpt lat="48.09369" lon="-0.78558">
        <ele>1279</ele>
        <time>2013-04-23T15:53:37Z</time>
      </trkpt>
      <trkpt lat="48.09368" lon="-0.78547">
        <ele>1281</ele>
        <time>2013-04-23T15:53:40Z</time>
      </trkpt>
      <trkpt lat="48.09366" lon="-0.78538">
        <ele>1282</ele>
        <time>2013-04-23T15:53:43Z</time>
      </trkpt>
      <trkpt lat="48.09358" lon="-0.78524">
        <ele>1284</ele>
        <time>2013-04-23T15:53:46Z</time>
      </trkpt>
      <trkpt lat="48.09352" lon="-0.78513">
        <ele>1285</ele>
        <time>2013-04-23T15:53:49Z</time>
      </trkpt>
      <trkpt lat="48.09343" lon="-0.78499">
        <ele>1287</ele>
        <time>2013-04-23T15:53:52Z</time>
      </trkpt>
      <trkpt lat="48.09333" lon="-0.78483">
        <ele>1289</ele>
        <time>2013-04-23T15:53:55Z</time>
      </trkpt>
      <trkpt lat="48.0932" lon="-0.78465">
        <ele>1290</ele>
        <time>2013-04-23T15:53:58Z</time>
      </trkpt>
      <trkpt lat="48.09306" lon="-0.78447">
        <ele>1292</ele>
        <time>2013-04-23T15:54:01Z</time>
      </trkpt>
      <trkpt lat="48.09287" lon="-0.78426">
        <ele>1293</ele>
        <time>2013-04-23T15:54:04Z</time>
      </trkpt>
      <trkpt lat="48.09271" lon="-0.78406">
        <ele>1295</ele>
        <time>2013-04-23T15:54:07Z</time>
      </trkpt>
      <trkpt lat="48.09256" lon="-0.7839">
        <ele>1296</ele>
        <time>2013-04-23T15:54:10Z</time>
      </trkpt>
      <trkpt lat="48.09238" lon="-0.78369">
        <ele>1298</ele>
        <time>2013-04-23T15:54:13Z</time>
      </trkpt>
      <trkpt lat="48.0922" lon="-0.78347">
        <ele>1299</ele>
        <time>2013-04-23T15:54:15Z</time>
      </trkpt>
      <trkpt lat="48.09203" lon="-0.78325">
        <ele>1301</ele>
        <time>2013-04-23T15:54:18Z</time>
      </trkpt>
      <trkpt lat="48.09189" lon="-0.78309">
        <ele>1302</ele>
        <time>2013-04-23T15:54:21Z</time>
      </trkpt>
      <trkpt lat="48.09178" lon="-0.78295">
        <ele>1304</ele>
        <time>2013-04-23T15:54:24Z</time>
      </trkpt>
      <trkpt lat="48.09166" lon="-0.78282">
        <ele>1305</ele>
        <time>2013-04-23T15:54:27Z</time>
      </trkpt>
      <trkpt lat="48.09154" lon="-0.7827">
        <ele>1307</ele>
        <time>2013-04-23T15:54:30Z</time>
      </trkpt>
      <trkpt lat="48.09138" lon="-0.78251">
        <ele>1308</ele>
        <time>2013-04-23T15:54:33Z</time>
      </trkpt>
      <trkpt lat="48.09124" lon="-0.78235">
        <ele>1310</ele>
        <time>2013-04-23T15:54:36Z</time>
      </trkpt>
      <trkpt lat="48.09112" lon="-0.78224">
        <ele>1311</ele>
        <time>2013-04-23T15:54:39Z</time>
      </trkpt>
      <trkpt lat="48.09101" lon="-0.78215">
        <ele>1313</ele>
        <time>2013-04-23T15:54:42Z</time>
      </trkpt>
      <trkpt lat="48.09091" lon="-0.78202">
        <ele>1314</ele>
        <time>2013-04-23T15:54:45Z</time>
      </trkpt>
      <trkpt lat="48.09078" lon="-0.78187">
        <ele>1316</ele>
        <time>2013-04-23T15:54:48Z</time>
      </trkpt>
      <trkpt lat="48.09065" lon="-0.78171">
        <ele>1318</ele>
        <time>2013-04-23T15:54:51Z</time>
      </trkpt>
      <trkpt lat="48.0905" lon="-0.78154">
        <ele>1319</ele>
        <time>2013-04-23T15:54:54Z</time>
      </trkpt>
      <trkpt lat="48.09036" lon="-0.78138">
        <ele>1321</ele>
        <time>2013-04-23T15:54:57Z</time>
      </trkpt>
      <trkpt lat="48.09023" lon="-0.78123">
        <ele>1322</ele>
        <time>2013-04-23T15:55:00Z</time>
      </trkpt>
      <trkpt lat="48.09011" lon="-0.78106">
        <ele>1324</ele>
        <time>2013-04-23T15:55:03Z</time>
      </trkpt>
      <trkpt lat="48.09002" lon="-0.78094">
        <ele>1326</ele>
        <time>2013-04-23T15:55:06Z</time>
      </trkpt>
      <trkpt lat="48.08994" lon="-0.78083">
        <ele>1327</ele>
        <time>2013-04-23T15:55:08Z</time>
      </trkpt>
      <trkpt lat="48.08987" lon="-0.78073">
        <ele>1329</ele>
        <time>2013-04-23T15:55:11Z</time>
      </trkpt>
      <trkpt lat="48.08979" lon="-0.78061">
        <ele>1330</ele>
        <time>2013-04-23T15:55:14Z</time>
      </trkpt>
      <trkpt lat="48.0897" lon="-0.78049">
        <ele>1332</ele>
        <time>2013-04-23T15:55:17Z</time>
      </trkpt>
      <trkpt lat="48.0896" lon="-0.78036">
        <ele>1333</ele>
        <time>2013-04-23T15:55:20Z</time>
      </trkpt>
      <trkpt lat="48.0895" lon="-0.78023">
        <ele>1335</ele>
        <time>2013-04-23T15:55:23Z</time>
      </trkpt>
      <trkpt lat="48.08939" lon="-0.78012">
        <ele>1336</ele>
        <time>2013-04-23T15:55:26Z</time>
      </trkpt>
      <trkpt lat="48.08929" lon="-0.78002">
        <ele>1338</ele>
        <time>2013-04-23T15:55:29Z</time>
      </trkpt>
      <trkpt lat="48.08918" lon="-0.77994">
        <ele>1339</ele>
        <time>2013-04-23T15:55:32Z</time>
      </trkpt>
      <trkpt lat="48.0891" lon="-0.77991">
        <ele>1341</ele>
        <time>2013-04-23T15:58:44Z</time>
      </trkpt>
      <trkpt lat="48.08901" lon="-0.77983">
        <ele>1343</ele>
        <time>2013-04-23T15:58:46Z</time>
      </trkpt>
      <trkpt lat="48.08894" lon="-0.77983">
        <ele>1344</ele>
        <time>2013-04-23T15:58:49Z</time>
      </trkpt>
      <trkpt lat="48.08884" lon="-0.77984">
        <ele>1346</ele>
        <time>2013-04-23T15:58:52Z</time>
      </trkpt>
      <trkpt lat="48.08872" lon="-0.7799">
        <ele>1347</ele>
        <time>2013-04-23T15:58:55Z</time>
      </trkpt>
      <trkpt lat="48.08862" lon="-0.77998">
        <ele>1349</ele>
        <time>2013-04-23T15:58:58Z</time>
      </trkpt>
      <trkpt lat="48.08852" lon="-0.78008">
        <ele>1350</ele>
        <time>2013-04-23T15:59:01Z</time>
      </trkpt>
      <trkpt lat="48.08844" lon="-0.78019">
        <ele>1352</ele>
        <time>2013-04-23T15:59:04Z</time>
      </trkpt>
      <trkpt lat="48.08831" lon="-0.7803">
        <ele>1353</ele>
        <time>2013-04-23T15:59:07Z</time>
      </trkpt>
      <trkpt lat="48.08824" lon="-0.78042">
        <ele>1355</ele>
        <time>2013-04-23T15:59:10Z</time>
      </trkpt>
      <trkpt lat="48.08816" lon="-0.78056">
        <ele>1356</ele>
        <time>2013-04-23T15:59:13Z</time>
      </trkpt>
      <trkpt lat="48.08808" lon="-0.7807">
        <ele>1358</ele>
        <time>2013-04-23T15:59:16Z</time>
      </trkpt>
      <trkpt lat="48.088" lon="-0.78079">
        <ele>1360</ele>
        <time>2013-04-23T15:59:19Z</time>
      </trkpt>
      <trkpt lat="48.08786" lon="-0.78086">
        <ele>1361</ele>
        <time>2013-04-23T15:59:22Z</time>
      </trkpt>
      <trkpt lat="48.08775" lon="-0.78094">
        <ele>1363</ele>
        <time>2013-04-23T15:59:25Z</time>
      </trkpt>
      <trkpt lat="48.08764" lon="-0.78107">
        <ele>1364</ele>
        <time>2013-04-23T15:59:28Z</time>
      </trkpt>
      <trkpt lat="48.08747" lon="-0.78115">
        <ele>1366</ele>
        <time>2013-04-23T15:59:31Z</time>
      </trkpt>
      <trkpt lat="48.08734" lon="-0.78129">
        <ele>1367</ele>
        <time>2013-04-23T15:59:34Z</time>
      </trkpt>
      <trkpt lat="48.0872" lon="-0.78141">
        <ele>1369</ele>
        <time>2013-04-23T15:59:37Z</time>
      </trkpt>
      <trkpt lat="48.08708" lon="-0.78155">
        <ele>1371</ele>
        <time>2013-04-23T15:59:40Z</time>
      </trkpt>
      <trkpt lat="48.08697" lon="-0.78165">
        <ele>1372</ele>
        <time>2013-04-23T15:59:42Z</time>
      </trkpt>
      <trkpt lat="48.08685" lon="-0.78175">
        <ele>1374</ele>
        <time>2013-04-23T15:59:45Z</time>
      </trkpt>
      <trkpt lat="48.08675" lon="-0.78189">
        <ele>1376</ele>
        <time>2013-04-23T15:59:48Z</time>
      </trkpt>
      <trkpt lat="48.08664" lon="-0.78199">
        <ele>1377</ele>
        <time>2013-04-23T15:59:51Z</time>
      </trkpt>
      <trkpt lat="48.08656" lon="-0.78208">
        <ele>1379</ele>
        <time>2013-04-23T15:59:54Z</time>
      </trkpt>
      <trkpt lat="48.08647" lon="-0.7822">
        <ele>1381</ele>
        <time>2013-04-23T15:59:57Z</time>
      </trkpt>
      <trkpt lat="48.08639" lon="-0.7824">
        <ele>1382</ele>
        <time>2013-04-23T16:00:00Z</time>
      </trkpt>
      <trkpt lat="48.08632" lon="-0.78252">
        <ele>1384</ele>
        <time>2013-04-23T16:00:03Z</time>
      </trkpt>
      <trkpt lat="48.08626" lon="-0.78267">
        <ele>1386</ele>
        <time>2013-04-23T16:00:06Z</time>
      </trkpt>
      <trkpt lat="48.08622" lon="-0.78279">
        <ele>1388</ele>
        <time>2013-04-23T16:00:09Z</time>
      </trkpt>
      <trkpt lat="48.08617" lon="-0.78295">
        <ele>1389</ele>
        <time>2013-04-23T16:00:12Z</time>
      </trkpt>
      <trkpt lat="48.08612" lon="-0.78311">
        <ele>1391</ele>
        <time>2013-04-23T16:00:15Z</time>
      </trkpt>
      <trkpt lat="48.08607" lon="-0.78325">
        <ele>1393</ele>
        <time>2013-04-23T16:00:18Z</time>
      </trkpt>
      <trkpt lat="48.08601" lon="-0.78337">
        <ele>1394</ele>
        <time>2013-04-23T16:00:21Z</time>
      </trkpt>
      <trkpt lat="48.08595" lon="-0.78349">
        <ele>1396</ele>
        <time>2013-04-23T16:00:24Z</time>
      </trkpt>
      <trkpt lat="48.08589" lon="-0.7836">
        <ele>1398</ele>
        <time>2013-04-23T16:00:27Z</time>
      </trkpt>
      <trkpt lat="48.08581" lon="-0.7837">
        <ele>1399</ele>
        <time>2013-04-23T16:00:30Z</time>
      </trkpt>
      <trkpt lat="48.08575" lon="-0.78382">
        <ele>1401</ele>
        <time>2013-04-23T16:00:33Z</time>
      </trkpt>
      <trkpt lat="48.08569" lon="-0.78394">
        <ele>1403</ele>
        <time>2013-04-23T16:00:36Z</time>
      </trkpt>
      <trkpt lat="48.08565" lon="-0.78407">
        <ele>1405</ele>
        <time>2013-04-23T16:00:38Z</time>
      </trkpt>
      <trkpt lat="48.08562" lon="-0.78419">
        <ele>1406</ele>
        <time>2013-04-23T16:00:41Z</time>
      </trkpt>
      <trkpt lat="48.0856" lon="-0.7843">
        <ele>1408</ele>
        <time>2013-04-23T16:00:44Z</time>
      </trkpt>
      <trkpt lat="48.08554" lon="-0.7844">
        <ele>1410</ele>
        <time>2013-04-23T16:00:47Z</time>
      </trkpt>
      <trkpt lat="48.08546" lon="-0.78451">
        <ele>1412</ele>
        <time>2013-04-23T16:00:50Z</time>
      </trkpt>
      <trkpt lat="48.08541" lon="-0.7846">
        <ele>1413</ele>
        <time>2013-04-23T16:00:53Z</time>
      </trkpt>
      <trkpt lat="48.08535" lon="-0.7847">
        <ele>1415</ele>
        <time>2013-04-23T16:00:56Z</time>
      </trkpt>
      <trkpt lat="48.08527" lon="-0.78474">
        <ele>1417</ele>
        <time>2013-04-23T16:00:59Z</time>
      </trkpt>
      <trkpt lat="48.08527" lon="-0.78486">
        <ele>1419</ele>
        <time>2013-04-23T16:01:02Z</time>
      </trkpt>
      <trkpt lat="48.08523" lon="-0.78495">
        <ele>1421</ele>
        <time>2013-04-23T16:01:05Z</time>
      </trkpt>
      <trkpt lat="48.08519" lon="-0.78506">
        <ele>1422</ele>
        <time>2013-04-23T16:01:08Z</time>
      </trkpt>
      <trkpt lat="48.08518" lon="-0.78518">
        <ele>1424</ele>
        <time>2013-04-23T16:01:11Z</time>
      </trkpt>
      <trkpt lat="48.08513" lon="-0.7853">
        <ele>1426</ele>
        <time>2013-04-23T16:01:14Z</time>
      </trkpt>
      <trkpt lat="48.08508" lon="-0.78544">
        <ele>1428</ele>
        <time>2013-04-23T16:01:17Z</time>
      </trkpt>
      <trkpt lat="48.08505" lon="-0.78558">
        <ele>1429</ele>
        <time>2013-04-23T16:01:20Z</time>
      </trkpt>
      <trkpt lat="48.08502" lon="-0.78572">
        <ele>1431</ele>
        <time>2013-04-23T16:01:23Z</time>
      </trkpt>
      <trkpt lat="48.08498" lon="-0.78584">
        <ele>1433</ele>
        <time>2013-04-23T16:01:26Z</time>
      </trkpt>
      <trkpt lat="48.08497" lon="-0.78598">
        <ele>1435</ele>
        <time>2013-04-23T16:01:28Z</time>
      </trkpt>
      <trkpt lat="48.08495" lon="-0.7861">
        <ele>1437</ele>
        <time>2013-04-23T16:01:31Z</time>
      </trkpt>
      <trkpt lat="48.08491" lon="-0.78626">
        <ele>1438</ele>
        <time>2013-04-23T16:01:34Z</time>
      </trkpt>
      <trkpt lat="48.08487" lon="-0.78639">
        <ele>1440</ele>
        <time>2013-04-23T16:01:37Z</time>
      </trkpt>
      <trkpt lat="48.08482" lon="-0.78652">
        <ele>1442</ele>
        <time>2013-04-23T16:01:40Z</time>
      </trkpt>
      <trkpt lat="48.0848" lon="-0.78669">
        <ele>1444</ele>
        <time>2013-04-23T16:01:43Z</time>
      </trkpt>
      <trkpt lat="48.08476" lon="-0.78685">
        <ele>1445</ele>
        <time>2013-04-23T16:01:46Z</time>
      </trkpt>
      <trkpt lat="48.08474" lon="-0.78704">
        <ele>1447</ele>
        <time>2013-04-23T16:01:49Z</time>
      </trkpt>
      <trkpt lat="48.0847" lon="-0.78719">
        <ele>1449</ele>
        <time>2013-04-23T16:01:52Z</time>
      </trkpt>
      <trkpt lat="48.08468" lon="-0.78735">
        <ele>1451</ele>
        <time>2013-04-23T16:01:55Z</time>
      </trkpt>
      <trkpt lat="48.08467" lon="-0.78751">
        <ele>1453</ele>
        <time>2013-04-23T16:01:58Z</time>
      </trkpt>
      <trkpt lat="48.08464" lon="-0.78767">
        <ele>1454</ele>
        <time>2013-04-23T16:02:01Z</time>
      </trkpt>
      <trkpt lat="48.08462" lon="-0.78786">
        <ele>1456</ele>
        <time>2013-04-23T16:02:04Z</time>
      </trkpt>
      <trkpt lat="48.08457" lon="-0.78804">
        <ele>1458</ele>
        <time>2013-04-23T16:02:07Z</time>
      </trkpt>
      <trkpt lat="48.08453" lon="-0.78824">
        <ele>1460</ele>
        <time>2013-04-23T16:02:10Z</time>
      </trkpt>
      <trkpt lat="48.08452" lon="-0.78843">
        <ele>1462</ele>
        <time>2013-04-23T16:02:13Z</time>
      </trkpt>
      <trkpt lat="48.0845" lon="-0.7886">
        <ele>1463</ele>
        <time>2013-04-23T16:02:16Z</time>
      </trkpt>
      <trkpt lat="48.08446" lon="-0.7888">
        <ele>1465</ele>
        <time>2013-04-23T16:02:19Z</time>
      </trkpt>
      <trkpt lat="48.08443" lon="-0.78899">
        <ele>1467</ele>
        <time>2013-04-23T16:02:22Z</time>
      </trkpt>
      <trkpt lat="48.08441" lon="-0.78917">
        <ele>1469</ele>
        <time>2013-04-23T16:02:24Z</time>
      </trkpt>
      <trkpt lat="48.08438" lon="-0.78935">
        <ele>1471</ele>
        <time>2013-04-23T16:02:27Z</time>
      </trkpt>
      <trkpt lat="48.08435" lon="-0.78953">
        <ele>1473</ele>
        <time>2013-04-23T16:02:30Z</time>
      </trkpt>
      <trkpt lat="48.08434" lon="-0.78966">
        <ele>1474</ele>
        <time>2013-04-23T16:02:33Z</time>
      </trkpt>
      <trkpt lat="48.08434" lon="-0.78979">
        <ele>1476</ele>
        <time>2013-04-23T16:02:36Z</time>
      </trkpt>
      <trkpt lat="48.08433" lon="-0.78994">
        <ele>1478</ele>
        <time>2013-04-23T16:02:39Z</time>
      </trkpt>
      <trkpt lat="48.08434" lon="-0.79008">
        <ele>1480</ele>
        <time>2013-04-23T16:02:42Z</time>
      </trkpt>
      <trkpt lat="48.08438" lon="-0.79021">
        <ele>1482</ele>
        <time>2013-04-23T16:02:45Z</time>
      </trkpt>
      <trkpt lat="48.08439" lon="-0.79035">
        <ele>1484</ele>
        <time>2013-04-23T16:02:48Z</time>
      </trkpt>
      <trkpt lat="48.08441" lon="-0.79046">
        <ele>1485</ele>
        <time>2013-04-23T16:02:51Z</time>
      </trkpt>
      <trkpt lat="48.08443" lon="-0.79062">
        <ele>1487</ele>
        <time>2013-04-23T16:02:54Z</time>
      </trkpt>
      <trkpt lat="48.08443" lon="-0.79071">
        <ele>1489</ele>
        <time>2013-04-23T16:02:57Z</time>
      </trkpt>
      <trkpt lat="48.08443" lon="-0.79079">
        <ele>1491</ele>
        <time>2013-04-23T16:03:00Z</time>
      </trkpt>
      <trkpt lat="48.08441" lon="-0.79087">
        <ele>1493</ele>
        <time>2013-04-23T16:04:26Z</time>
      </trkpt>
      <trkpt lat="48.08442" lon="-0.79091">
        <ele>1495</ele>
        <time>2013-04-23T16:04:29Z</time>
      </trkpt>
      <trkpt lat="48.08435" lon="-0.79096">
        <ele>1496</ele>
        <time>2013-04-23T16:04:32Z</time>
      </trkpt>
      <trkpt lat="48.08433" lon="-0.79106">
        <ele>1498</ele>
        <time>2013-04-23T16:04:35Z</time>
      </trkpt>
      <trkpt lat="48.08424" lon="-0.79109">
        <ele>1500</ele>
        <time>2013-04-23T16:04:38Z</time>
      </trkpt>
      <trkpt lat="48.08414" lon="-0.79108">
        <ele>1502</ele>
        <time>2013-04-23T16:04:41Z</time>
      </trkpt>
      <trkpt lat="48.08403" lon="-0.79119">
        <ele>1504</ele>
        <time>2013-04-23T16:04:44Z</time>
      </trkpt>
      <trkpt lat="48.08395" lon="-0.79133">
        <ele>1506</ele>
        <time>2013-04-23T16:04:47Z</time>
      </trkpt>
      <trkpt lat="48.08388" lon="-0.7915">
        <ele>1508</ele>
        <time>2013-04-23T16:04:50Z</time>
      </trkpt>
      <trkpt lat="48.08384" lon="-0.79166">
        <ele>1510</ele>
        <time>2013-04-23T16:04:52Z</time>
      </trkpt>
      <trkpt lat="48.0838" lon="-0.7918">
        <ele>1512</ele>
        <time>2013-04-23T16:04:56Z</time>
      </trkpt>
      <trkpt lat="48.08376" lon="-0.79194">
        <ele>1514</ele>
        <time>2013-04-23T16:04:58Z</time>
      </trkpt>
      <trkpt lat="48.08372" lon="-0.79212">
        <ele>1515</ele>
        <time>2013-04-23T16:05:01Z</time>
      </trkpt>
      <trkpt lat="48.08367" lon="-0.79229">
        <ele>1517</ele>
        <time>2013-04-23T16:05:04Z</time>
      </trkpt>
      <trkpt lat="48.08359" lon="-0.79246">
        <ele>1519</ele>
        <time>2013-04-23T16:05:07Z</time>
      </trkpt>
      <trkpt lat="48.08351" lon="-0.79266">
        <ele>1521</ele>
        <time>2013-04-23T16:05:10Z</time>
      </trkpt>
      <trkpt lat="48.08343" lon="-0.79282">
        <ele>1523</ele>
        <time>2013-04-23T16:05:13Z</time>
      </trkpt>
      <trkpt lat="48.08336" lon="-0.79298">
        <ele>1525</ele>
        <time>2013-04-23T16:05:16Z</time>
      </trkpt>
      <trkpt lat="48.08328" lon="-0.79313">
        <ele>1527</ele>
        <time>2013-04-23T16:05:19Z</time>
      </trkpt>
      <trkpt lat="48.08323" lon="-0.79327">
        <ele>1529</ele>
        <time>2013-04-23T16:05:22Z</time>
      </trkpt>
      <trkpt lat="48.08317" lon="-0.79339">
        <ele>1531</ele>
        <time>2013-04-23T16:05:25Z</time>
      </trkpt>
      <trkpt lat="48.08305" lon="-0.79358">
        <ele>1533</ele>
        <time>2013-04-23T16:05:28Z</time>
      </trkpt>
      <trkpt lat="48.08296" lon="-0.79372">
        <ele>1535</ele>
        <time>2013-04-23T16:05:31Z</time>
      </trkpt>
      <trkpt lat="48.08288" lon="-0.79389">
        <ele>1537</ele>
        <time>2013-04-23T16:05:34Z</time>
      </trkpt>
      <trkpt lat="48.08279" lon="-0.79405">
        <ele>1539</ele>
        <time>2013-04-23T16:05:37Z</time>
      </trkpt>
      <trkpt lat="48.08267" lon="-0.79416">
        <ele>1541</ele>
        <time>2013-04-23T16:05:40Z</time>
      </trkpt>
      <trkpt lat="48.0826" lon="-0.79425">
        <ele>1543</ele>
        <time>2013-04-23T16:05:43Z</time>
      </trkpt>
      <trkpt lat="48.08247" lon="-0.79439">
        <ele>1545</ele>
        <time>2013-04-23T16:05:45Z</time>
      </trkpt>
      <trkpt lat="48.08236" lon="-0.79453">
        <ele>1547</ele>
        <time>2013-04-23T16:05:48Z</time>
      </trkpt>
      <trkpt lat="48.08225" lon="-0.79469">
        <ele>1549</ele>
        <time>2013-04-23T16:05:51Z</time>
      </trkpt>
      <trkpt lat="48.08213" lon="-0.79486">
        <ele>1551</ele>
        <time>2013-04-23T16:05:54Z</time>
      </trkpt>
      <trkpt lat="48.08203" lon="-0.79496">
        <ele>1553</ele>
        <time>2013-04-23T16:05:57Z</time>
      </trkpt>
      <trkpt lat="48.082" lon="-0.79503">
        <ele>1555</ele>
        <time>2013-04-23T16:06:00Z</time>
      </trkpt>
      <trkpt lat="48.08191" lon="-0.79511">
        <ele>1557</ele>
        <time>2013-04-23T16:06:03Z</time>
      </trkpt>
      <trkpt lat="48.08184" lon="-0.79515">
        <ele>1559</ele>
        <time>2013-04-23T16:06:06Z</time>
      </trkpt>
      <trkpt lat="48.08177" lon="-0.79521">
        <ele>1561</ele>
        <time>2013-04-23T16:06:09Z</time>
      </trkpt>
      <trkpt lat="48.0817" lon="-0.79531">
        <ele>1563</ele>
        <time>2013-04-23T16:06:12Z</time>
      </trkpt>
      <trkpt lat="48.08163" lon="-0.79537">
        <ele>1565</ele>
        <time>2013-04-23T16:06:15Z</time>
      </trkpt>
      <trkpt lat="48.08161" lon="-0.79537">
        <ele>1567</ele>
        <time>2013-04-23T16:06:18Z</time>
      </trkpt>
      <trkpt lat="48.08156" lon="-0.79543">
        <ele>1569</ele>
        <time>2013-04-23T16:06:21Z</time>
      </trkpt>
      <trkpt lat="48.08151" lon="-0.79549">
        <ele>1571</ele>
        <time>2013-04-23T16:06:24Z</time>
      </trkpt>
      <trkpt lat="48.08146" lon="-0.79559">
        <ele>1573</ele>
        <time>2013-04-23T16:06:27Z</time>
      </trkpt>
      <trkpt lat="48.0814" lon="-0.79569">
        <ele>1575</ele>
        <time>2013-04-23T16:06:30Z</time>
      </trkpt>
      <trkpt lat="48.08135" lon="-0.79582">
        <ele>1577</ele>
        <time>2013-04-23T16:06:33Z</time>
      </trkpt>
      <trkpt lat="48.0813" lon="-0.79596">
        <ele>1579</ele>
        <time>2013-04-23T16:06:36Z</time>
      </trkpt>
      <trkpt lat="48.08128" lon="-0.79613">
        <ele>1581</ele>
        <time>2013-04-23T16:06:38Z</time>
      </trkpt>
      <trkpt lat="48.08127" lon="-0.79629">
        <ele>1583</ele>
        <time>2013-04-23T16:06:41Z</time>
      </trkpt>
      <trkpt lat="48.08122" lon="-0.7964">
        <ele>1585</ele>
        <time>2013-04-23T16:06:44Z</time>
      </trkpt>
      <trkpt lat="48.08116" lon="-0.79641">
        <ele>1587</ele>
        <time>2013-04-23T16:06:47Z</time>
      </trkpt>
      <trkpt lat="48.08109" lon="-0.79634">
        <ele>1589</ele>
        <time>2013-04-23T16:06:50Z</time>
      </trkpt>
      <trkpt lat="48.08107" lon="-0.79627">
        <ele>1591</ele>
        <time>2013-04-23T16:06:53Z</time>
      </trkpt>
      <trkpt lat="48.08109" lon="-0.79616">
        <ele>1592</ele>
        <time>2013-04-23T16:06:56Z</time>
      </trkpt>
      <trkpt lat="48.08111" lon="-0.796">
        <ele>1594</ele>
        <time>2013-04-23T16:06:59Z</time>
      </trkpt>
      <trkpt lat="48.08117" lon="-0.7959">
        <ele>1596</ele>
        <time>2013-04-23T16:07:02Z</time>
      </trkpt>
      <trkpt lat="48.0812" lon="-0.79577">
        <ele>1598</ele>
        <time>2013-04-23T16:07:05Z</time>
      </trkpt>
      <trkpt lat="48.08109" lon="-0.79571">
        <ele>1600</ele>
        <time>2013-04-23T16:07:08Z</time>
      </trkpt>
      <trkpt lat="48.08102" lon="-0.79573">
        <ele>1602</ele>
        <time>2013-04-23T16:07:11Z</time>
      </trkpt>
      <trkpt lat="48.08098" lon="-0.79585">
        <ele>1604</ele>
        <time>2013-04-23T16:07:14Z</time>
      </trkpt>
      <trkpt lat="48.08095" lon="-0.79601">
        <ele>1606</ele>
        <time>2013-04-23T16:07:17Z</time>
      </trkpt>
      <trkpt lat="48.08098" lon="-0.79616">
        <ele>1608</ele>
        <time>2013-04-23T16:07:20Z</time>
      </trkpt>
      <trkpt lat="48.08098" lon="-0.79624">
        <ele>1610</ele>
        <time>2013-04-23T16:07:24Z</time>
      </trkpt>
      <trkpt lat="48.08095" lon="-0.79627">
        <ele>1612</ele>
        <time>2013-04-23T16:07:27Z</time>
      </trkpt>
      <trkpt lat="48.08089" lon="-0.79631">
        <ele>1614</ele>
        <time>2013-04-23T16:07:30Z</time>
      </trkpt>
      <trkpt lat="48.08082" lon="-0.79632">
        <ele>1616</ele>
        <time>2013-04-23T16:07:33Z</time>
      </trkpt>
      <trkpt lat="48.0807" lon="-0.79635">
        <ele>1618</ele>
        <time>2013-04-23T16:07:35Z</time>
      </trkpt>
      <trkpt lat="48.08059" lon="-0.79633">
        <ele>1620</ele>
        <time>2013-04-23T16:07:38Z</time>
      </trkpt>
      <trkpt lat="48.0805" lon="-0.7963">
        <ele>1622</ele>
        <time>2013-04-23T16:07:41Z</time>
      </trkpt>
      <trkpt lat="48.08044" lon="-0.79622">
        <ele>1624</ele>
        <time>2013-04-23T16:07:44Z</time>
      </trkpt>
      <trkpt lat="48.0804" lon="-0.79609">
        <ele>1626</ele>
        <time>2013-04-23T16:07:47Z</time>
      </trkpt>
      <trkpt lat="48.08034" lon="-0.79593">
        <ele>1628</ele>
        <time>2013-04-23T16:07:50Z</time>
      </trkpt>
      <trkpt lat="48.08024" lon="-0.79584">
        <ele>1630</ele>
        <time>2013-04-23T16:07:53Z</time>
      </trkpt>
      <trkpt lat="48.08013" lon="-0.79583">
        <ele>1632</ele>
        <time>2013-04-23T16:07:56Z</time>
      </trkpt>
      <trkpt lat="48.08002" lon="-0.79584">
        <ele>1634</ele>
        <time>2013-04-23T16:07:59Z</time>
      </trkpt>
      <trkpt lat="48.0799" lon="-0.79587">
        <ele>1636</ele>
        <time>2013-04-23T16:08:02Z</time>
      </trkpt>
      <trkpt lat="48.07977" lon="-0.79582">
        <ele>1638</ele>
        <time>2013-04-23T16:08:05Z</time>
      </trkpt>
      <trkpt lat="48.07963" lon="-0.79581">
        <ele>1640</ele>
        <time>2013-04-23T16:08:08Z</time>
      </trkpt>
      <trkpt lat="48.07952" lon="-0.79584">
        <ele>1642</ele>
        <time>2013-04-23T16:08:11Z</time>
      </trkpt>
      <trkpt lat="48.07943" lon="-0.79582">
        <ele>1644</ele>
        <time>2013-04-23T16:08:14Z</time>
      </trkpt>
      <trkpt lat="48.0793" lon="-0.79582">
        <ele>1646</ele>
        <time>2013-04-23T16:08:17Z</time>
      </trkpt>
      <trkpt lat="48.07914" lon="-0.79584">
        <ele>1648</ele>
        <time>2013-04-23T16:08:20Z</time>
      </trkpt>
      <trkpt lat="48.07904" lon="-0.79577">
        <ele>1650</ele>
        <time>2013-04-23T16:08:23Z</time>
      </trkpt>
      <trkpt lat="48.07893" lon="-0.79578">
        <ele>1652</ele>
        <time>2013-04-23T16:08:26Z</time>
      </trkpt>
      <trkpt lat="48.07878" lon="-0.79574">
        <ele>1654</ele>
        <time>2013-04-23T16:08:28Z</time>
      </trkpt>
      <trkpt lat="48.07865" lon="-0.7957">
        <ele>1656</ele>
        <time>2013-04-23T16:08:31Z</time>
      </trkpt>
      <trkpt lat="48.07852" lon="-0.79567">
        <ele>1657</ele>
        <time>2013-04-23T16:08:34Z</time>
      </trkpt>
      <trkpt lat="48.0784" lon="-0.79574">
        <ele>1659</ele>
        <time>2013-04-23T16:08:37Z</time>
      </trkpt>
      <trkpt lat="48.07826" lon="-0.79574">
        <ele>1661</ele>
        <time>2013-04-23T16:08:40Z</time>
      </trkpt>
      <trkpt lat="48.07815" lon="-0.79578">
        <ele>1663</ele>
        <time>2013-04-23T16:08:43Z</time>
      </trkpt>
      <trkpt lat="48.07806" lon="-0.79581">
        <ele>1665</ele>
        <time>2013-04-23T16:08:46Z</time>
      </trkpt>
      <trkpt lat="48.07794" lon="-0.79587">
        <ele>1667</ele>
        <time>2013-04-23T16:08:49Z</time>
      </trkpt>
      <trkpt lat="48.07784" lon="-0.79593">
        <ele>1669</ele>
        <time>2013-04-23T16:08:52Z</time>
      </trkpt>
      <trkpt lat="48.07775" lon="-0.79605">
        <ele>1671</ele>
        <time>2013-04-23T16:08:55Z</time>
      </trkpt>
      <trkpt lat="48.07772" lon="-0.79614">
        <ele>1673</ele>
        <time>2013-04-23T16:09:11Z</time>
      </trkpt>
      <trkpt lat="48.07766" lon="-0.79617">
        <ele>1675</ele>
        <time>2013-04-23T16:09:15Z</time>
      </trkpt>
      <trkpt lat="48.07761" lon="-0.79624">
        <ele>1677</ele>
        <time>2013-04-23T16:09:18Z</time>
      </trkpt>
      <trkpt lat="48.07754" lon="-0.79618">
        <ele>1679</ele>
        <time>2013-04-23T16:09:21Z</time>
      </trkpt>
      <trkpt lat="48.07749" lon="-0.79605">
        <ele>1681</ele>
        <time>2013-04-23T16:09:24Z</time>
      </trkpt>
      <trkpt lat="48.07741" lon="-0.79595">
        <ele>1683</ele>
        <time>2013-04-23T16:09:27Z</time>
      </trkpt>
      <trkpt lat="48.0773" lon="-0.79586">
        <ele>1685</ele>
        <time>2013-04-23T16:09:29Z</time>
      </trkpt>
      <trkpt lat="48.07719" lon="-0.79582">
        <ele>1686</ele>
        <time>2013-04-23T16:09:32Z</time>
      </trkpt>
      <trkpt lat="48.07705" lon="-0.7958">
        <ele>1688</ele>
        <time>2013-04-23T16:09:35Z</time>
      </trkpt>
      <trkpt lat="48.07694" lon="-0.79584">
        <ele>1690</ele>
        <time>2013-04-23T16:09:38Z</time>
      </trkpt>
      <trkpt lat="48.0768" lon="-0.79584">
        <ele>1692</ele>
        <time>2013-04-23T16:09:41Z</time>
      </trkpt>
      <trkpt lat="48.07662" lon="-0.79581">
        <ele>1694</ele>
        <time>2013-04-23T16:09:44Z</time>
      </trkpt>
      <trkpt lat="48.07644" lon="-0.79581">
        <ele>1696</ele>
        <time>2013-04-23T16:09:47Z</time>
      </trkpt>
      <trkpt lat="48.07629" lon="-0.79582">
        <ele>1698</ele>
        <time>2013-04-23T16:09:50Z</time>
      </trkpt>
      <trkpt lat="48.07613" lon="-0.79582">
        <ele>1700</ele>
        <time>2013-04-23T16:09:53Z</time>
      </trkpt>
      <trkpt lat="48.07598" lon="-0.79579">
        <ele>1702</ele>
        <time>2013-04-23T16:09:56Z</time>
      </trkpt>
      <trkpt lat="48.07585" lon="-0.79575">
        <ele>1704</ele>
        <time>2013-04-23T16:09:59Z</time>
      </trkpt>
      <trkpt lat="48.07576" lon="-0.79569">
        <ele>1705</ele>
        <time>2013-04-23T16:10:02Z</time>
      </trkpt>
      <trkpt lat="48.07567" lon="-0.79567">
        <ele>1707</ele>
        <time>2013-04-23T16:10:05Z</time>
      </trkpt>
      <trkpt lat="48.07555" lon="-0.79566">
        <ele>1709</ele>
        <time>2013-04-23T16:10:08Z</time>
      </trkpt>
      <trkpt lat="48.07542" lon="-0.79567">
        <ele>1711</ele>
        <time>2013-04-23T16:10:11Z</time>
      </trkpt>
      <trkpt lat="48.07531" lon="-0.79566">
        <ele>1713</ele>
        <time>2013-04-23T16:10:14Z</time>
      </trkpt>
      <trkpt lat="48.07521" lon="-0.79566">
        <ele>1715</ele>
        <time>2013-04-23T16:10:17Z</time>
      </trkpt>
      <trkpt lat="48.07508" lon="-0.79566">
        <ele>1717</ele>
        <time>2013-04-23T16:10:20Z</time>
      </trkpt>
      <trkpt lat="48.07499" lon="-0.79567">
        <ele>1719</ele>
        <time>2013-04-23T16:10:22Z</time>
      </trkpt>
      <trkpt lat="48.07488" lon="-0.79566">
        <ele>1721</ele>
        <time>2013-04-23T16:10:25Z</time>
      </trkpt>
      <trkpt lat="48.07477" lon="-0.79565">
        <ele>1723</ele>
        <time>2013-04-23T16:10:28Z</time>
      </trkpt>
      <trkpt lat="48.0747" lon="-0.79564">
        <ele>1725</ele>
        <time>2013-04-23T16:10:31Z</time>
      </trkpt>
      <trkpt lat="48.07462" lon="-0.79562">
        <ele>1727</ele>
        <time>2013-04-23T16:10:34Z</time>
      </trkpt>
      <trkpt lat="48.07448" lon="-0.79566">
        <ele>1729</ele>
        <time>2013-04-23T16:10:37Z</time>
      </trkpt>
      <trkpt lat="48.07439" lon="-0.79563">
        <ele>1731</ele>
        <time>2013-04-23T16:10:40Z</time>
      </trkpt>
      <trkpt lat="48.07428" lon="-0.79559">
        <ele>1732</ele>
        <time>2013-04-23T16:10:43Z</time>
      </trkpt>
      <trkpt lat="48.07414" lon="-0.79554">
        <ele>1734</ele>
        <time>2013-04-23T16:10:46Z</time>
      </trkpt>
      <trkpt lat="48.07401" lon="-0.79551">
        <ele>1736</ele>
        <time>2013-04-23T16:10:49Z</time>
      </trkpt>
      <trkpt lat="48.07387" lon="-0.79547">
        <ele>1738</ele>
        <time>2013-04-23T16:10:52Z</time>
      </trkpt>
      <trkpt lat="48.07376" lon="-0.79543">
        <ele>1740</ele>
        <time>2013-04-23T16:10:55Z</time>
      </trkpt>
      <trkpt lat="48.07365" lon="-0.79538">
        <ele>1742</ele>
        <time>2013-04-23T16:10:58Z</time>
      </trkpt>
      <trkpt lat="48.07355" lon="-0.79536">
        <ele>1744</ele>
        <time>2013-04-23T16:11:01Z</time>
      </trkpt>
      <trkpt lat="48.07344" lon="-0.79532">
        <ele>1746</ele>
        <time>2013-04-23T16:11:04Z</time>
      </trkpt>
      <trkpt lat="48.07332" lon="-0.79526">
        <ele>1748</ele>
        <time>2013-04-23T16:11:07Z</time>
      </trkpt>
      <trkpt lat="48.07318" lon="-0.79521">
        <ele>1750</ele>
        <time>2013-04-23T16:11:10Z</time>
      </trkpt>
      <trkpt lat="48.07307" lon="-0.79514">
        <ele>1751</ele>
        <time>2013-04-23T16:11:13Z</time>
      </trkpt>
      <trkpt lat="48.07297" lon="-0.79512">
        <ele>1753</ele>
        <time>2013-04-23T16:11:16Z</time>
      </trkpt>
      <trkpt lat="48.07288" lon="-0.79516">
        <ele>1755</ele>
        <time>2013-04-23T16:11:18Z</time>
      </trkpt>
      <trkpt lat="48.07282" lon="-0.79519">
        <ele>1757</ele>
        <time>2013-04-23T16:11:21Z</time>
      </trkpt>
      <trkpt lat="48.07277" lon="-0.79518">
        <ele>1759</ele>
        <time>2013-04-23T16:11:24Z</time>
      </trkpt>
      <trkpt lat="48.0727" lon="-0.79511">
        <ele>1761</ele>
        <time>2013-04-23T16:11:27Z</time>
      </trkpt>
      <trkpt lat="48.07266" lon="-0.79498">
        <ele>1763</ele>
        <time>2013-04-23T16:11:30Z</time>
      </trkpt>
      <trkpt lat="48.07256" lon="-0.79481">
        <ele>1765</ele>
        <time>2013-04-23T16:11:33Z</time>
      </trkpt>
      <trkpt lat="48.07244" lon="-0.79471">
        <ele>1767</ele>
        <time>2013-04-23T16:11:36Z</time>
      </trkpt>
      <trkpt lat="48.07234" lon="-0.79462">
        <ele>1769</ele>
        <time>2013-04-23T16:11:39Z</time>
      </trkpt>
      <trkpt lat="48.07223" lon="-0.79455">
        <ele>1771</ele>
        <time>2013-04-23T16:11:42Z</time>
      </trkpt>
      <trkpt lat="48.07213" lon="-0.79449">
        <ele>1773</ele>
        <time>2013-04-23T16:11:45Z</time>
      </trkpt>
      <trkpt lat="48.07203" lon="-0.79441">
        <ele>1775</ele>
        <time>2013-04-23T16:11:48Z</time>
      </trkpt>
      <trkpt lat="48.07192" lon="-0.79432">
        <ele>1777</ele>
        <time>2013-04-23T16:11:51Z</time>
      </trkpt>
      <trkpt lat="48.07184" lon="-0.79426">
        <ele>1779</ele>
        <time>2013-04-23T16:11:54Z</time>
      </trkpt>
      <trkpt lat="48.0717" lon="-0.79417">
        <ele>1781</ele>
        <time>2013-04-23T16:11:57Z</time>
      </trkpt>
      <trkpt lat="48.07158" lon="-0.79408">
        <ele>1783</ele>
        <time>2013-04-23T16:12:00Z</time>
      </trkpt>
      <trkpt lat="48.07147" lon="-0.794">
        <ele>1785</ele>
        <time>2013-04-23T16:12:03Z</time>
      </trkpt>
      <trkpt lat="48.07134" lon="-0.7939">
        <ele>1787</ele>
        <time>2013-04-23T16:12:06Z</time>
      </trkpt>
      <trkpt lat="48.0712" lon="-0.79384">
        <ele>1789</ele>
        <time>2013-04-23T16:12:09Z</time>
      </trkpt>
      <trkpt lat="48.0711" lon="-0.79384">
        <ele>1791</ele>
        <time>2013-04-23T16:12:12Z</time>
      </trkpt>
      <trkpt lat="48.071" lon="-0.79388">
        <ele>1793</ele>
        <time>2013-04-23T16:12:14Z</time>
      </trkpt>
      <trkpt lat="48.07093" lon="-0.79388">
        <ele>1795</ele>
        <time>2013-04-23T16:12:17Z</time>
      </trkpt>
      <trkpt lat="48.07087" lon="-0.79387">
        <ele>1797</ele>
        <time>2013-04-23T16:12:20Z</time>
      </trkpt>
      <trkpt lat="48.07083" lon="-0.79378">
        <ele>1799</ele>
        <time>2013-04-23T16:12:23Z</time>
      </trkpt>
      <trkpt lat="48.07083" lon="-0.79369">
        <ele>1801</ele>
        <time>2013-04-23T16:12:26Z</time>
      </trkpt>
      <trkpt lat="48.07075" lon="-0.79358">
        <ele>1803</ele>
        <time>2013-04-23T16:12:29Z</time>
      </trkpt>
      <trkpt lat="48.07064" lon="-0.79352">
        <ele>1805</ele>
        <time>2013-04-23T16:12:32Z</time>
      </trkpt>
      <trkpt lat="48.07053" lon="-0.79342">
        <ele>1807</ele>
        <time>2013-04-23T16:12:35Z</time>
      </trkpt>
      <trkpt lat="48.07045" lon="-0.79338">
        <ele>1809</ele>
        <time>2013-04-23T16:12:38Z</time>
      </trkpt>
      <trkpt lat="48.07034" lon="-0.79331">
        <ele>1811</ele>
        <time>2013-04-23T16:12:41Z</time>
      </trkpt>
      <trkpt lat="48.07024" lon="-0.79325">
        <ele>1812</ele>
        <time>2013-04-23T16:12:44Z</time>
      </trkpt>
      <trkpt lat="48.07014" lon="-0.79321">
        <ele>1814</ele>
        <time>2013-04-23T16:12:47Z</time>
      </trkpt>
      <trkpt lat="48.07005" lon="-0.79319">
        <ele>1816</ele>
        <time>2013-04-23T16:12:50Z</time>
      </trkpt>
      <trkpt lat="48.06994" lon="-0.7932">
        <ele>1818</ele>
        <time>2013-04-23T16:12:53Z</time>
      </trkpt>
      <trkpt lat="48.06988" lon="-0.79314">
        <ele>1820</ele>
        <time>2013-04-23T16:12:56Z</time>
      </trkpt>
      <trkpt lat="48.06989" lon="-0.79304">
        <ele>1822</ele>
        <time>2013-04-23T16:13:04Z</time>
      </trkpt>
      <trkpt lat="48.06985" lon="-0.79299">
        <ele>1824</ele>
        <time>2013-04-23T16:13:05Z</time>
      </trkpt>
      <trkpt lat="48.06982" lon="-0.79297">
        <ele>1826</ele>
        <time>2013-04-23T16:13:08Z</time>
      </trkpt>
      <trkpt lat="48.06976" lon="-0.7929">
        <ele>1828</ele>
        <time>2013-04-23T16:13:10Z</time>
      </trkpt>
      <trkpt lat="48.06972" lon="-0.79285">
        <ele>1830</ele>
        <time>2013-04-23T16:13:13Z</time>
      </trkpt>
      <trkpt lat="48.06967" lon="-0.79272">
        <ele>1831</ele>
        <time>2013-04-23T16:13:16Z</time>
      </trkpt>
      <trkpt lat="48.06959" lon="-0.79267">
        <ele>1833</ele>
        <time>2013-04-23T16:13:19Z</time>
      </trkpt>
      <trkpt lat="48.06949" lon="-0.79269">
        <ele>1835</ele>
        <time>2013-04-23T16:13:22Z</time>
      </trkpt>
      <trkpt lat="48.0694" lon="-0.79281">
        <ele>1837</ele>
        <time>2013-04-23T16:13:25Z</time>
      </trkpt>
      <trkpt lat="48.06938" lon="-0.79302">
        <ele>1839</ele>
        <time>2013-04-23T16:13:28Z</time>
      </trkpt>
      <trkpt lat="48.06936" lon="-0.79325">
        <ele>1841</ele>
        <time>2013-04-23T16:13:31Z</time>
      </trkpt>
      <trkpt lat="48.06938" lon="-0.7935">
        <ele>1843</ele>
        <time>2013-04-23T16:13:34Z</time>
      </trkpt>
      <trkpt lat="48.06933" lon="-0.79363">
        <ele>1845</ele>
        <time>2013-04-23T16:13:37Z</time>
      </trkpt>
      <trkpt lat="48.06931" lon="-0.79376">
        <ele>1847</ele>
        <time>2013-04-23T16:13:40Z</time>
      </trkpt>
      <trkpt lat="48.06925" lon="-0.79382">
        <ele>1849</ele>
        <time>2013-04-23T16:13:43Z</time>
      </trkpt>
      <trkpt lat="48.0692" lon="-0.79384">
        <ele>1851</ele>
        <time>2013-04-23T16:13:46Z</time>
      </trkpt>
      <trkpt lat="48.06908" lon="-0.79397">
        <ele>1853</ele>
        <time>2013-04-23T16:13:49Z</time>
      </trkpt>
      <trkpt lat="48.06904" lon="-0.79413">
        <ele>1855</ele>
        <time>2013-04-23T16:13:52Z</time>
      </trkpt>
      <trkpt lat="48.06901" lon="-0.79421">
        <ele>1857</ele>
        <time>2013-04-23T16:13:55Z</time>
      </trkpt>
      <trkpt lat="48.069" lon="-0.79435">
        <ele>1859</ele>
        <time>2013-04-23T16:13:58Z</time>
      </trkpt>
      <trkpt lat="48.06903" lon="-0.79441">
        <ele>1861</ele>
        <time>2013-04-23T16:14:01Z</time>
      </trkpt>
      <trkpt lat="48.06903" lon="-0.79442">
        <ele>1863</ele>
        <time>2013-04-23T16:14:03Z</time>
      </trkpt>
      <trkpt lat="48.06907" lon="-0.7943">
        <ele>1863</ele>
        <time>2013-04-23T16:18:18Z</time>
      </trkpt>
      <trkpt lat="48.06903" lon="-0.79442">
        <ele>155</ele>
        <time>2013-04-23T16:24:01Z</time>
      </trkpt>
      <trkpt lat="48.06907" lon="-0.7943">
        <ele>157</ele>
        <time>2013-04-23T16:24:25Z</time>
      </trkpt>
      <trkpt lat="48.06883" lon="-0.79461">
        <ele>159</ele>
        <time>2013-04-23T16:24:27Z</time>
      </trkpt>
      <trkpt lat="48.06882" lon="-0.79454">
        <ele>161</ele>
        <time>2013-04-23T16:24:30Z</time>
      </trkpt>
      <trkpt lat="48.06882" lon="-0.79437">
        <ele>163</ele>
        <time>2013-04-23T16:24:33Z</time>
      </trkpt>
      <trkpt lat="48.06879" lon="-0.79431">
        <ele>165</ele>
        <time>2013-04-23T16:24:36Z</time>
      </trkpt>
      <trkpt lat="48.06875" lon="-0.79425">
        <ele>167</ele>
        <time>2013-04-23T16:24:39Z</time>
      </trkpt>
      <trkpt lat="48.0687" lon="-0.79425">
        <ele>169</ele>
        <time>2013-04-23T16:24:42Z</time>
      </trkpt>
      <trkpt lat="48.06862" lon="-0.79426">
        <ele>171</ele>
        <time>2013-04-23T16:24:45Z</time>
      </trkpt>
      <trkpt lat="48.06851" lon="-0.79425">
        <ele>173</ele>
        <time>2013-04-23T16:24:48Z</time>
      </trkpt>
      <trkpt lat="48.0684" lon="-0.79422">
        <ele>175</ele>
        <time>2013-04-23T16:24:51Z</time>
      </trkpt>
      <trkpt lat="48.06831" lon="-0.79423">
        <ele>177</ele>
        <time>2013-04-23T16:24:54Z</time>
      </trkpt>
      <trkpt lat="48.06825" lon="-0.79437">
        <ele>178</ele>
        <time>2013-04-23T16:24:57Z</time>
      </trkpt>
      <trkpt lat="48.06825" lon="-0.79454">
        <ele>180</ele>
        <time>2013-04-23T16:25:00Z</time>
      </trkpt>
      <trkpt lat="48.06827" lon="-0.79466">
        <ele>182</ele>
        <time>2013-04-23T16:25:03Z</time>
      </trkpt>
      <trkpt lat="48.06828" lon="-0.79477">
        <ele>184</ele>
        <time>2013-04-23T16:25:05Z</time>
      </trkpt>
      <trkpt lat="48.06827" lon="-0.79483">
        <ele>186</ele>
        <time>2013-04-23T16:25:08Z</time>
      </trkpt>
      <trkpt lat="48.06814" lon="-0.79486">
        <ele>188</ele>
        <time>2013-04-23T16:25:11Z</time>
      </trkpt>
      <trkpt lat="48.068" lon="-0.7949">
        <ele>190</ele>
        <time>2013-04-23T16:25:14Z</time>
      </trkpt>
      <trkpt lat="48.06785" lon="-0.79492">
        <ele>192</ele>
        <time>2013-04-23T16:25:17Z</time>
      </trkpt>
      <trkpt lat="48.06772" lon="-0.79496">
        <ele>194</ele>
        <time>2013-04-23T16:25:20Z</time>
      </trkpt>
      <trkpt lat="48.0676" lon="-0.79501">
        <ele>196</ele>
        <time>2013-04-23T16:25:23Z</time>
      </trkpt>
      <trkpt lat="48.06743" lon="-0.79502">
        <ele>198</ele>
        <time>2013-04-23T16:25:26Z</time>
      </trkpt>
      <trkpt lat="48.06729" lon="-0.79503">
        <ele>200</ele>
        <time>2013-04-23T16:25:29Z</time>
      </trkpt>
      <trkpt lat="48.06717" lon="-0.79503">
        <ele>202</ele>
        <time>2013-04-23T16:25:32Z</time>
      </trkpt>
      <trkpt lat="48.06701" lon="-0.79498">
        <ele>204</ele>
        <time>2013-04-23T16:25:35Z</time>
      </trkpt>
      <trkpt lat="48.06687" lon="-0.79493">
        <ele>206</ele>
        <time>2013-04-23T16:25:38Z</time>
      </trkpt>
      <trkpt lat="48.06672" lon="-0.79489">
        <ele>209</ele>
        <time>2013-04-23T16:25:41Z</time>
      </trkpt>
      <trkpt lat="48.06657" lon="-0.79488">
        <ele>211</ele>
        <time>2013-04-23T16:25:44Z</time>
      </trkpt>
      <trkpt lat="48.06646" lon="-0.79482">
        <ele>213</ele>
        <time>2013-04-23T16:25:47Z</time>
      </trkpt>
      <trkpt lat="48.06632" lon="-0.79478">
        <ele>214</ele>
        <time>2013-04-23T16:25:50Z</time>
      </trkpt>
      <trkpt lat="48.06617" lon="-0.79475">
        <ele>216</ele>
        <time>2013-04-23T16:25:53Z</time>
      </trkpt>
      <trkpt lat="48.06601" lon="-0.79475">
        <ele>218</ele>
        <time>2013-04-23T16:25:56Z</time>
      </trkpt>
      <trkpt lat="48.06588" lon="-0.79477">
        <ele>220</ele>
        <time>2013-04-23T16:25:58Z</time>
      </trkpt>
      <trkpt lat="48.06571" lon="-0.79481">
        <ele>222</ele>
        <time>2013-04-23T16:26:01Z</time>
      </trkpt>
      <trkpt lat="48.06555" lon="-0.79481">
        <ele>224</ele>
        <time>2013-04-23T16:26:04Z</time>
      </trkpt>
      <trkpt lat="48.0654" lon="-0.79484">
        <ele>226</ele>
        <time>2013-04-23T16:26:07Z</time>
      </trkpt>
      <trkpt lat="48.0653" lon="-0.79496">
        <ele>228</ele>
        <time>2013-04-23T16:26:10Z</time>
      </trkpt>
      <trkpt lat="48.06531" lon="-0.79518">
        <ele>230</ele>
        <time>2013-04-23T16:26:13Z</time>
      </trkpt>
      <trkpt lat="48.06533" lon="-0.79541">
        <ele>232</ele>
        <time>2013-04-23T16:26:16Z</time>
      </trkpt>
      <trkpt lat="48.06533" lon="-0.79567">
        <ele>234</ele>
        <time>2013-04-23T16:26:19Z</time>
      </trkpt>
      <trkpt lat="48.06539" lon="-0.7959">
        <ele>236</ele>
        <time>2013-04-23T16:26:22Z</time>
      </trkpt>
      <trkpt lat="48.0654" lon="-0.79616">
        <ele>238</ele>
        <time>2013-04-23T16:26:25Z</time>
      </trkpt>
      <trkpt lat="48.06543" lon="-0.79636">
        <ele>240</ele>
        <time>2013-04-23T16:26:28Z</time>
      </trkpt>
      <trkpt lat="48.06547" lon="-0.7966">
        <ele>242</ele>
        <time>2013-04-23T16:26:31Z</time>
      </trkpt>
      <trkpt lat="48.06548" lon="-0.79682">
        <ele>244</ele>
        <time>2013-04-23T16:26:34Z</time>
      </trkpt>
      <trkpt lat="48.06554" lon="-0.79705">
        <ele>246</ele>
        <time>2013-04-23T16:26:37Z</time>
      </trkpt>
      <trkpt lat="48.06555" lon="-0.79731">
        <ele>248</ele>
        <time>2013-04-23T16:26:40Z</time>
      </trkpt>
      <trkpt lat="48.06557" lon="-0.79756">
        <ele>250</ele>
        <time>2013-04-23T16:26:43Z</time>
      </trkpt>
      <trkpt lat="48.06556" lon="-0.7978">
        <ele>252</ele>
        <time>2013-04-23T16:26:46Z</time>
      </trkpt>
      <trkpt lat="48.06557" lon="-0.79804">
        <ele>254</ele>
        <time>2013-04-23T16:26:49Z</time>
      </trkpt>
      <trkpt lat="48.06561" lon="-0.79829">
        <ele>256</ele>
        <time>2013-04-23T16:26:52Z</time>
      </trkpt>
      <trkpt lat="48.06566" lon="-0.79848">
        <ele>258</ele>
        <time>2013-04-23T16:26:54Z</time>
      </trkpt>
      <trkpt lat="48.06568" lon="-0.79872">
        <ele>260</ele>
        <time>2013-04-23T16:26:57Z</time>
      </trkpt>
      <trkpt lat="48.06571" lon="-0.79896">
        <ele>263</ele>
        <time>2013-04-23T16:27:00Z</time>
      </trkpt>
      <trkpt lat="48.06575" lon="-0.79921">
        <ele>265</ele>
        <time>2013-04-23T16:27:03Z</time>
      </trkpt>
      <trkpt lat="48.06577" lon="-0.79943">
        <ele>267</ele>
        <time>2013-04-23T16:27:06Z</time>
      </trkpt>
      <trkpt lat="48.06581" lon="-0.79964">
        <ele>269</ele>
        <time>2013-04-23T16:27:09Z</time>
      </trkpt>
      <trkpt lat="48.06586" lon="-0.79996">
        <ele>271</ele>
        <time>2013-04-23T16:27:12Z</time>
      </trkpt>
      <trkpt lat="48.06593" lon="-0.80025">
        <ele>273</ele>
        <time>2013-04-23T16:27:15Z</time>
      </trkpt>
      <trkpt lat="48.06596" lon="-0.80047">
        <ele>275</ele>
        <time>2013-04-23T16:27:18Z</time>
      </trkpt>
      <trkpt lat="48.06601" lon="-0.80072">
        <ele>277</ele>
        <time>2013-04-23T16:27:21Z</time>
      </trkpt>
      <trkpt lat="48.06605" lon="-0.80097">
        <ele>279</ele>
        <time>2013-04-23T16:27:24Z</time>
      </trkpt>
      <trkpt lat="48.06609" lon="-0.80124">
        <ele>281</ele>
        <time>2013-04-23T16:27:27Z</time>
      </trkpt>
      <trkpt lat="48.06612" lon="-0.80147">
        <ele>283</ele>
        <time>2013-04-23T16:27:30Z</time>
      </trkpt>
      <trkpt lat="48.06616" lon="-0.80174">
        <ele>285</ele>
        <time>2013-04-23T16:27:33Z</time>
      </trkpt>
      <trkpt lat="48.06621" lon="-0.80199">
        <ele>287</ele>
        <time>2013-04-23T16:27:36Z</time>
      </trkpt>
      <trkpt lat="48.06629" lon="-0.80224">
        <ele>289</ele>
        <time>2013-04-23T16:27:39Z</time>
      </trkpt>
      <trkpt lat="48.06632" lon="-0.80244">
        <ele>291</ele>
        <time>2013-04-23T16:27:42Z</time>
      </trkpt>
      <trkpt lat="48.06636" lon="-0.80263">
        <ele>294</ele>
        <time>2013-04-23T16:27:45Z</time>
      </trkpt>
      <trkpt lat="48.06639" lon="-0.80283">
        <ele>296</ele>
        <time>2013-04-23T16:27:47Z</time>
      </trkpt>
      <trkpt lat="48.06642" lon="-0.803">
        <ele>298</ele>
        <time>2013-04-23T16:27:50Z</time>
      </trkpt>
      <trkpt lat="48.06647" lon="-0.80313">
        <ele>300</ele>
        <time>2013-04-23T16:27:53Z</time>
      </trkpt>
      <trkpt lat="48.06653" lon="-0.80321">
        <ele>302</ele>
        <time>2013-04-23T16:27:56Z</time>
      </trkpt>
      <trkpt lat="48.06666" lon="-0.80322">
        <ele>304</ele>
        <time>2013-04-23T16:27:59Z</time>
      </trkpt>
      <trkpt lat="48.0668" lon="-0.80317">
        <ele>306</ele>
        <time>2013-04-23T16:28:02Z</time>
      </trkpt>
      <trkpt lat="48.06693" lon="-0.80315">
        <ele>308</ele>
        <time>2013-04-23T16:28:05Z</time>
      </trkpt>
      <trkpt lat="48.06708" lon="-0.80311">
        <ele>310</ele>
        <time>2013-04-23T16:28:08Z</time>
      </trkpt>
      <trkpt lat="48.06722" lon="-0.8031">
        <ele>312</ele>
        <time>2013-04-23T16:28:11Z</time>
      </trkpt>
      <trkpt lat="48.06736" lon="-0.8031">
        <ele>314</ele>
        <time>2013-04-23T16:28:14Z</time>
      </trkpt>
      <trkpt lat="48.06753" lon="-0.80309">
        <ele>316</ele>
        <time>2013-04-23T16:28:17Z</time>
      </trkpt>
      <trkpt lat="48.06762" lon="-0.80307">
        <ele>318</ele>
        <time>2013-04-23T16:28:20Z</time>
      </trkpt>
      <trkpt lat="48.06775" lon="-0.80307">
        <ele>320</ele>
        <time>2013-04-23T16:28:23Z</time>
      </trkpt>
      <trkpt lat="48.06789" lon="-0.80301">
        <ele>322</ele>
        <time>2013-04-23T16:28:26Z</time>
      </trkpt>
      <trkpt lat="48.06794" lon="-0.80297">
        <ele>324</ele>
        <time>2013-04-23T16:28:29Z</time>
      </trkpt>
      <trkpt lat="48.06801" lon="-0.80297">
        <ele>326</ele>
        <time>2013-04-23T16:28:32Z</time>
      </trkpt>
      <trkpt lat="48.06807" lon="-0.80294">
        <ele>329</ele>
        <time>2013-04-23T16:28:35Z</time>
      </trkpt>
      <trkpt lat="48.06816" lon="-0.80293">
        <ele>331</ele>
        <time>2013-04-23T16:28:38Z</time>
      </trkpt>
      <trkpt lat="48.06826" lon="-0.80287">
        <ele>333</ele>
        <time>2013-04-23T16:28:42Z</time>
      </trkpt>
      <trkpt lat="48.06832" lon="-0.80287">
        <ele>335</ele>
        <time>2013-04-23T16:28:44Z</time>
      </trkpt>
      <trkpt lat="48.06835" lon="-0.80281">
        <ele>337</ele>
        <time>2013-04-23T16:28:47Z</time>
      </trkpt>
      <trkpt lat="48.06843" lon="-0.80262">
        <ele>339</ele>
        <time>2013-04-23T16:28:50Z</time>
      </trkpt>
      <trkpt lat="48.06862" lon="-0.80252">
        <ele>341</ele>
        <time>2013-04-23T16:28:53Z</time>
      </trkpt>
      <trkpt lat="48.06877" lon="-0.8026">
        <ele>343</ele>
        <time>2013-04-23T16:28:56Z</time>
      </trkpt>
      <trkpt lat="48.06889" lon="-0.80278">
        <ele>345</ele>
        <time>2013-04-23T16:28:59Z</time>
      </trkpt>
      <trkpt lat="48.06894" lon="-0.80298">
        <ele>347</ele>
        <time>2013-04-23T16:29:02Z</time>
      </trkpt>
      <trkpt lat="48.06887" lon="-0.80317">
        <ele>349</ele>
        <time>2013-04-23T16:29:05Z</time>
      </trkpt>
      <trkpt lat="48.06878" lon="-0.80335">
        <ele>352</ele>
        <time>2013-04-23T16:29:08Z</time>
      </trkpt>
      <trkpt lat="48.06874" lon="-0.80357">
        <ele>354</ele>
        <time>2013-04-23T16:29:11Z</time>
      </trkpt>
      <trkpt lat="48.06874" lon="-0.80382">
        <ele>356</ele>
        <time>2013-04-23T16:29:14Z</time>
      </trkpt>
      <trkpt lat="48.06874" lon="-0.80405">
        <ele>358</ele>
        <time>2013-04-23T16:29:17Z</time>
      </trkpt>
      <trkpt lat="48.06876" lon="-0.80431">
        <ele>360</ele>
        <time>2013-04-23T16:29:20Z</time>
      </trkpt>
      <trkpt lat="48.06874" lon="-0.80457">
        <ele>362</ele>
        <time>2013-04-23T16:29:23Z</time>
      </trkpt>
      <trkpt lat="48.06873" lon="-0.80479">
        <ele>364</ele>
        <time>2013-04-23T16:29:26Z</time>
      </trkpt>
      <trkpt lat="48.06873" lon="-0.80503">
        <ele>366</ele>
        <time>2013-04-23T16:29:29Z</time>
      </trkpt>
      <trkpt lat="48.06871" lon="-0.80527">
        <ele>368</ele>
        <time>2013-04-23T16:29:32Z</time>
      </trkpt>
      <trkpt lat="48.06871" lon="-0.80552">
        <ele>370</ele>
        <time>2013-04-23T16:29:35Z</time>
      </trkpt>
      <trkpt lat="48.06871" lon="-0.80573">
        <ele>372</ele>
        <time>2013-04-23T16:29:37Z</time>
      </trkpt>
      <trkpt lat="48.06869" lon="-0.80593">
        <ele>375</ele>
        <time>2013-04-23T16:29:40Z</time>
      </trkpt>
      <trkpt lat="48.06871" lon="-0.80613">
        <ele>377</ele>
        <time>2013-04-23T16:29:43Z</time>
      </trkpt>
      <trkpt lat="48.06872" lon="-0.80632">
        <ele>379</ele>
        <time>2013-04-23T16:29:46Z</time>
      </trkpt>
      <trkpt lat="48.06872" lon="-0.8065">
        <ele>381</ele>
        <time>2013-04-23T16:29:49Z</time>
      </trkpt>
      <trkpt lat="48.06872" lon="-0.80669">
        <ele>383</ele>
        <time>2013-04-23T16:29:52Z</time>
      </trkpt>
      <trkpt lat="48.06871" lon="-0.80687">
        <ele>385</ele>
        <time>2013-04-23T16:29:55Z</time>
      </trkpt>
      <trkpt lat="48.06871" lon="-0.80708">
        <ele>387</ele>
        <time>2013-04-23T16:29:58Z</time>
      </trkpt>
      <trkpt lat="48.0687" lon="-0.80726">
        <ele>389</ele>
        <time>2013-04-23T16:30:01Z</time>
      </trkpt>
      <trkpt lat="48.06872" lon="-0.80744">
        <ele>391</ele>
        <time>2013-04-23T16:30:04Z</time>
      </trkpt>
      <trkpt lat="48.06875" lon="-0.80763">
        <ele>393</ele>
        <time>2013-04-23T16:30:07Z</time>
      </trkpt>
      <trkpt lat="48.06875" lon="-0.80772">
        <ele>396</ele>
        <time>2013-04-23T16:30:10Z</time>
      </trkpt>
      <trkpt lat="48.06878" lon="-0.80784">
        <ele>398</ele>
        <time>2013-04-23T16:30:13Z</time>
      </trkpt>
      <trkpt lat="48.06885" lon="-0.80799">
        <ele>400</ele>
        <time>2013-04-23T16:30:16Z</time>
      </trkpt>
      <trkpt lat="48.06883" lon="-0.80818">
        <ele>402</ele>
        <time>2013-04-23T16:30:19Z</time>
      </trkpt>
      <trkpt lat="48.06876" lon="-0.80833">
        <ele>404</ele>
        <time>2013-04-23T16:30:22Z</time>
      </trkpt>
      <trkpt lat="48.06872" lon="-0.80852">
        <ele>406</ele>
        <time>2013-04-23T16:30:25Z</time>
      </trkpt>
      <trkpt lat="48.06871" lon="-0.80871">
        <ele>408</ele>
        <time>2013-04-23T16:30:28Z</time>
      </trkpt>
      <trkpt lat="48.06871" lon="-0.80897">
        <ele>410</ele>
        <time>2013-04-23T16:30:30Z</time>
      </trkpt>
      <trkpt lat="48.06871" lon="-0.8092">
        <ele>412</ele>
        <time>2013-04-23T16:30:33Z</time>
      </trkpt>
      <trkpt lat="48.0687" lon="-0.80945">
        <ele>414</ele>
        <time>2013-04-23T16:30:36Z</time>
      </trkpt>
      <trkpt lat="48.06868" lon="-0.80974">
        <ele>416</ele>
        <time>2013-04-23T16:30:39Z</time>
      </trkpt>
      <trkpt lat="48.06868" lon="-0.81004">
        <ele>418</ele>
        <time>2013-04-23T16:30:42Z</time>
      </trkpt>
      <trkpt lat="48.06867" lon="-0.81035">
        <ele>420</ele>
        <time>2013-04-23T16:30:45Z</time>
      </trkpt>
      <trkpt lat="48.06867" lon="-0.81066">
        <ele>422</ele>
        <time>2013-04-23T16:30:48Z</time>
      </trkpt>
      <trkpt lat="48.06867" lon="-0.811">
        <ele>424</ele>
        <time>2013-04-23T16:30:51Z</time>
      </trkpt>
      <trkpt lat="48.06867" lon="-0.81132">
        <ele>426</ele>
        <time>2013-04-23T16:30:54Z</time>
      </trkpt>
      <trkpt lat="48.06866" lon="-0.81167">
        <ele>428</ele>
        <time>2013-04-23T16:30:57Z</time>
      </trkpt>
      <trkpt lat="48.06867" lon="-0.81201">
        <ele>430</ele>
        <time>2013-04-23T16:31:00Z</time>
      </trkpt>
      <trkpt lat="48.06866" lon="-0.81234">
        <ele>432</ele>
        <time>2013-04-23T16:31:03Z</time>
      </trkpt>
      <trkpt lat="48.06866" lon="-0.81265">
        <ele>434</ele>
        <time>2013-04-23T16:31:06Z</time>
      </trkpt>
      <trkpt lat="48.06867" lon="-0.81293">
        <ele>436</ele>
        <time>2013-04-23T16:31:09Z</time>
      </trkpt>
      <trkpt lat="48.06867" lon="-0.81319">
        <ele>438</ele>
        <time>2013-04-23T16:31:12Z</time>
      </trkpt>
      <trkpt lat="48.06869" lon="-0.81343">
        <ele>440</ele>
        <time>2013-04-23T16:31:15Z</time>
      </trkpt>
      <trkpt lat="48.06877" lon="-0.81362">
        <ele>442</ele>
        <time>2013-04-23T16:31:18Z</time>
      </trkpt>
      <trkpt lat="48.06879" lon="-0.81381">
        <ele>444</ele>
        <time>2013-04-23T16:31:21Z</time>
      </trkpt>
      <trkpt lat="48.06879" lon="-0.8139">
        <ele>446</ele>
        <time>2013-04-23T16:31:23Z</time>
      </trkpt>
      <trkpt lat="48.06873" lon="-0.81397">
        <ele>448</ele>
        <time>2013-04-23T16:31:26Z</time>
      </trkpt>
      <trkpt lat="48.06869" lon="-0.81411">
        <ele>450</ele>
        <time>2013-04-23T16:31:29Z</time>
      </trkpt>
      <trkpt lat="48.06868" lon="-0.81427">
        <ele>452</ele>
        <time>2013-04-23T16:31:32Z</time>
      </trkpt>
      <trkpt lat="48.06867" lon="-0.81444">
        <ele>454</ele>
        <time>2013-04-23T16:31:35Z</time>
      </trkpt>
      <trkpt lat="48.06868" lon="-0.81459">
        <ele>456</ele>
        <time>2013-04-23T16:31:38Z</time>
      </trkpt>
      <trkpt lat="48.06866" lon="-0.81478">
        <ele>458</ele>
        <time>2013-04-23T16:31:41Z</time>
      </trkpt>
      <trkpt lat="48.06866" lon="-0.81502">
        <ele>460</ele>
        <time>2013-04-23T16:31:44Z</time>
      </trkpt>
      <trkpt lat="48.06866" lon="-0.81527">
        <ele>462</ele>
        <time>2013-04-23T16:31:47Z</time>
      </trkpt>
      <trkpt lat="48.06869" lon="-0.81546">
        <ele>464</ele>
        <time>2013-04-23T16:31:50Z</time>
      </trkpt>
      <trkpt lat="48.06874" lon="-0.81566">
        <ele>466</ele>
        <time>2013-04-23T16:31:53Z</time>
      </trkpt>
      <trkpt lat="48.06877" lon="-0.81586">
        <ele>468</ele>
        <time>2013-04-23T16:31:56Z</time>
      </trkpt>
      <trkpt lat="48.06872" lon="-0.81604">
        <ele>470</ele>
        <time>2013-04-23T16:31:59Z</time>
      </trkpt>
      <trkpt lat="48.06865" lon="-0.81627">
        <ele>472</ele>
        <time>2013-04-23T16:32:02Z</time>
      </trkpt>
      <trkpt lat="48.06868" lon="-0.81644">
        <ele>474</ele>
        <time>2013-04-23T16:32:05Z</time>
      </trkpt>
      <trkpt lat="48.06865" lon="-0.81667">
        <ele>476</ele>
        <time>2013-04-23T16:32:08Z</time>
      </trkpt>
      <trkpt lat="48.06865" lon="-0.81688">
        <ele>478</ele>
        <time>2013-04-23T16:32:11Z</time>
      </trkpt>
      <trkpt lat="48.06862" lon="-0.81713">
        <ele>480</ele>
        <time>2013-04-23T16:32:14Z</time>
      </trkpt>
      <trkpt lat="48.06864" lon="-0.81733">
        <ele>482</ele>
        <time>2013-04-23T16:32:17Z</time>
      </trkpt>
      <trkpt lat="48.06864" lon="-0.81754">
        <ele>484</ele>
        <time>2013-04-23T16:32:19Z</time>
      </trkpt>
      <trkpt lat="48.06864" lon="-0.81775">
        <ele>486</ele>
        <time>2013-04-23T16:32:22Z</time>
      </trkpt>
      <trkpt lat="48.06861" lon="-0.81795">
        <ele>488</ele>
        <time>2013-04-23T16:32:25Z</time>
      </trkpt>
      <trkpt lat="48.06865" lon="-0.81816">
        <ele>490</ele>
        <time>2013-04-23T16:32:28Z</time>
      </trkpt>
      <trkpt lat="48.06866" lon="-0.81836">
        <ele>492</ele>
        <time>2013-04-23T16:32:31Z</time>
      </trkpt>
      <trkpt lat="48.06868" lon="-0.81856">
        <ele>494</ele>
        <time>2013-04-23T16:32:34Z</time>
      </trkpt>
      <trkpt lat="48.06869" lon="-0.81877">
        <ele>496</ele>
        <time>2013-04-23T16:32:37Z</time>
      </trkpt>
      <trkpt lat="48.0687" lon="-0.81895">
        <ele>498</ele>
        <time>2013-04-23T16:32:40Z</time>
      </trkpt>
      <trkpt lat="48.06872" lon="-0.81916">
        <ele>500</ele>
        <time>2013-04-23T16:32:43Z</time>
      </trkpt>
      <trkpt lat="48.06873" lon="-0.81939">
        <ele>502</ele>
        <time>2013-04-23T16:32:46Z</time>
      </trkpt>
      <trkpt lat="48.06875" lon="-0.81956">
        <ele>504</ele>
        <time>2013-04-23T16:32:49Z</time>
      </trkpt>
      <trkpt lat="48.06875" lon="-0.81978">
        <ele>506</ele>
        <time>2013-04-23T16:32:52Z</time>
      </trkpt>
      <trkpt lat="48.06876" lon="-0.81999">
        <ele>508</ele>
        <time>2013-04-23T16:32:55Z</time>
      </trkpt>
      <trkpt lat="48.06878" lon="-0.82018">
        <ele>510</ele>
        <time>2013-04-23T16:32:58Z</time>
      </trkpt>
      <trkpt lat="48.06879" lon="-0.82038">
        <ele>512</ele>
        <time>2013-04-23T16:33:01Z</time>
      </trkpt>
      <trkpt lat="48.06882" lon="-0.82053">
        <ele>514</ele>
        <time>2013-04-23T16:33:04Z</time>
      </trkpt>
      <trkpt lat="48.06883" lon="-0.82069">
        <ele>516</ele>
        <time>2013-04-23T16:33:07Z</time>
      </trkpt>
      <trkpt lat="48.06884" lon="-0.82086">
        <ele>518</ele>
        <time>2013-04-23T16:33:10Z</time>
      </trkpt>
      <trkpt lat="48.06888" lon="-0.82102">
        <ele>520</ele>
        <time>2013-04-23T16:33:12Z</time>
      </trkpt>
      <trkpt lat="48.06889" lon="-0.82117">
        <ele>522</ele>
        <time>2013-04-23T16:33:15Z</time>
      </trkpt>
      <trkpt lat="48.06891" lon="-0.82133">
        <ele>524</ele>
        <time>2013-04-23T16:33:18Z</time>
      </trkpt>
      <trkpt lat="48.06891" lon="-0.82148">
        <ele>526</ele>
        <time>2013-04-23T16:33:21Z</time>
      </trkpt>
      <trkpt lat="48.06892" lon="-0.82156">
        <ele>528</ele>
        <time>2013-04-23T16:33:24Z</time>
      </trkpt>
      <trkpt lat="48.06893" lon="-0.82163">
        <ele>530</ele>
        <time>2013-04-23T16:33:27Z</time>
      </trkpt>
      <trkpt lat="48.06896" lon="-0.82172">
        <ele>532</ele>
        <time>2013-04-23T16:33:30Z</time>
      </trkpt>
      <trkpt lat="48.06896" lon="-0.82183">
        <ele>534</ele>
        <time>2013-04-23T16:33:33Z</time>
      </trkpt>
      <trkpt lat="48.06895" lon="-0.82194">
        <ele>536</ele>
        <time>2013-04-23T16:33:36Z</time>
      </trkpt>
      <trkpt lat="48.06897" lon="-0.82207">
        <ele>538</ele>
        <time>2013-04-23T16:33:39Z</time>
      </trkpt>
      <trkpt lat="48.06899" lon="-0.82223">
        <ele>540</ele>
        <time>2013-04-23T16:33:42Z</time>
      </trkpt>
      <trkpt lat="48.06897" lon="-0.82238">
        <ele>542</ele>
        <time>2013-04-23T16:33:45Z</time>
      </trkpt>
      <trkpt lat="48.06896" lon="-0.82252">
        <ele>544</ele>
        <time>2013-04-23T16:33:48Z</time>
      </trkpt>
      <trkpt lat="48.06896" lon="-0.82256">
        <ele>546</ele>
        <time>2013-04-23T16:33:59Z</time>
      </trkpt>
      <trkpt lat="48.06899" lon="-0.82266">
        <ele>548</ele>
        <time>2013-04-23T16:34:00Z</time>
      </trkpt>
      <trkpt lat="48.06901" lon="-0.82271">
        <ele>550</ele>
        <time>2013-04-23T16:34:03Z</time>
      </trkpt>
      <trkpt lat="48.06902" lon="-0.82282">
        <ele>552</ele>
        <time>2013-04-23T16:34:06Z</time>
      </trkpt>
      <trkpt lat="48.06902" lon="-0.82295">
        <ele>554</ele>
        <time>2013-04-23T16:34:08Z</time>
      </trkpt>
      <trkpt lat="48.06905" lon="-0.82305">
        <ele>556</ele>
        <time>2013-04-23T16:34:11Z</time>
      </trkpt>
      <trkpt lat="48.06906" lon="-0.8232">
        <ele>558</ele>
        <time>2013-04-23T16:34:14Z</time>
      </trkpt>
      <trkpt lat="48.06905" lon="-0.82338">
        <ele>560</ele>
        <time>2013-04-23T16:34:17Z</time>
      </trkpt>
      <trkpt lat="48.06907" lon="-0.82353">
        <ele>562</ele>
        <time>2013-04-23T16:34:20Z</time>
      </trkpt>
      <trkpt lat="48.06908" lon="-0.82368">
        <ele>564</ele>
        <time>2013-04-23T16:34:23Z</time>
      </trkpt>
      <trkpt lat="48.06912" lon="-0.82376">
        <ele>566</ele>
        <time>2013-04-23T16:34:26Z</time>
      </trkpt>
      <trkpt lat="48.06914" lon="-0.82385">
        <ele>568</ele>
        <time>2013-04-23T16:34:30Z</time>
      </trkpt>
      <trkpt lat="48.06922" lon="-0.82384">
        <ele>570</ele>
        <time>2013-04-23T16:34:33Z</time>
      </trkpt>
      <trkpt lat="48.06932" lon="-0.82383">
        <ele>572</ele>
        <time>2013-04-23T16:34:36Z</time>
      </trkpt>
      <trkpt lat="48.06942" lon="-0.8238">
        <ele>574</ele>
        <time>2013-04-23T16:34:39Z</time>
      </trkpt>
      <trkpt lat="48.0695" lon="-0.82373">
        <ele>576</ele>
        <time>2013-04-23T16:34:42Z</time>
      </trkpt>
      <trkpt lat="48.06964" lon="-0.8237">
        <ele>578</ele>
        <time>2013-04-23T16:34:45Z</time>
      </trkpt>
      <trkpt lat="48.06972" lon="-0.8237">
        <ele>580</ele>
        <time>2013-04-23T16:34:48Z</time>
      </trkpt>
      <trkpt lat="48.06976" lon="-0.82383">
        <ele>582</ele>
        <time>2013-04-23T16:34:51Z</time>
      </trkpt>
      <trkpt lat="48.06978" lon="-0.82399">
        <ele>584</ele>
        <time>2013-04-23T16:34:54Z</time>
      </trkpt>
      <trkpt lat="48.06979" lon="-0.82421">
        <ele>586</ele>
        <time>2013-04-23T16:34:57Z</time>
      </trkpt>
      <trkpt lat="48.06984" lon="-0.82439">
        <ele>588</ele>
        <time>2013-04-23T16:35:00Z</time>
      </trkpt>
      <trkpt lat="48.0699" lon="-0.82456">
        <ele>591</ele>
        <time>2013-04-23T16:35:03Z</time>
      </trkpt>
      <trkpt lat="48.06996" lon="-0.82476">
        <ele>593</ele>
        <time>2013-04-23T16:35:05Z</time>
      </trkpt>
      <trkpt lat="48.07" lon="-0.82498">
        <ele>595</ele>
        <time>2013-04-23T16:35:08Z</time>
      </trkpt>
      <trkpt lat="48.07005" lon="-0.8252">
        <ele>597</ele>
        <time>2013-04-23T16:35:11Z</time>
      </trkpt>
      <trkpt lat="48.07011" lon="-0.82541">
        <ele>599</ele>
        <time>2013-04-23T16:35:14Z</time>
      </trkpt>
      <trkpt lat="48.07018" lon="-0.82562">
        <ele>601</ele>
        <time>2013-04-23T16:35:17Z</time>
      </trkpt>
      <trkpt lat="48.07023" lon="-0.8258">
        <ele>603</ele>
        <time>2013-04-23T16:35:20Z</time>
      </trkpt>
      <trkpt lat="48.07023" lon="-0.82601">
        <ele>605</ele>
        <time>2013-04-23T16:35:23Z</time>
      </trkpt>
      <trkpt lat="48.07026" lon="-0.82623">
        <ele>607</ele>
        <time>2013-04-23T16:35:26Z</time>
      </trkpt>
      <trkpt lat="48.07029" lon="-0.82647">
        <ele>609</ele>
        <time>2013-04-23T16:35:29Z</time>
      </trkpt>
      <trkpt lat="48.0703" lon="-0.82659">
        <ele>611</ele>
        <time>2013-04-23T16:35:32Z</time>
      </trkpt>
      <trkpt lat="48.07031" lon="-0.82667">
        <ele>613</ele>
        <time>2013-04-23T16:35:35Z</time>
      </trkpt>
      <trkpt lat="48.07033" lon="-0.82679">
        <ele>615</ele>
        <time>2013-04-23T16:35:38Z</time>
      </trkpt>
      <trkpt lat="48.07035" lon="-0.82692">
        <ele>617</ele>
        <time>2013-04-23T16:36:17Z</time>
      </trkpt>
      <trkpt lat="48.07032" lon="-0.82708">
        <ele>619</ele>
        <time>2013-04-23T16:36:19Z</time>
      </trkpt>
      <trkpt lat="48.07028" lon="-0.82718">
        <ele>621</ele>
        <time>2013-04-23T16:36:23Z</time>
      </trkpt>
      <trkpt lat="48.07036" lon="-0.82722">
        <ele>623</ele>
        <time>2013-04-23T16:36:26Z</time>
      </trkpt>
      <trkpt lat="48.07041" lon="-0.82719">
        <ele>625</ele>
        <time>2013-04-23T16:36:33Z</time>
      </trkpt>
      <trkpt lat="48.07046" lon="-0.82717">
        <ele>625</ele>
        <time>2013-04-23T16:40:48Z</time>
      </trkpt>
    </trkseg>
  </trk>
  <rte>
      <rtept lat="48.07032" lon="-0.82696">
        <ele>96</ele>
      </rtept>
      <rtept lat="48.07046" lon="-0.82717">
        <ele>96</ele>
      </rtept>
    </rte>
</gpx>